<?xml version="1.0" encoding="UTF-8" standalone="no" ?>
<gpx xmlns="http://www.topografix.com/GPX/1/1" xmlns:xsi="http://www.w3.org/2001/XMLSchema-instance" xsi:schemaLocation="http://www.topografix.com/GPX/1/1 http://www.topografix.com/GPX/1/1/gpx.xsd" version="1.1" creator="VisuGPX - https://www.visugpx.com">
  <metadata>
    <name>Sortie du 03/04/2010</name>
    <desc><![CDATA[Lionel tout seul]]></desc>
  </metadata>
  <trk>
    <name><![CDATA[Track 001]]></name>
    <desc><![CDATA[3 avr. 2010 12:02 pm]]></desc>
    <trkseg>
      <trkpt lat="45.76024" lon="4.88703">
        <ele>256</ele>
        <time>2010-04-03T10:02:25Z</time>
      </trkpt>
      <trkpt lat="45.7603" lon="4.88693">
        <ele>255</ele>
        <time>2010-04-03T10:02:27Z</time>
      </trkpt>
      <trkpt lat="45.76036" lon="4.88682">
        <ele>255</ele>
        <time>2010-04-03T10:02:31Z</time>
      </trkpt>
      <trkpt lat="45.76042" lon="4.88674">
        <ele>255</ele>
        <time>2010-04-03T10:02:33Z</time>
      </trkpt>
      <trkpt lat="45.76045" lon="4.88666">
        <ele>254</ele>
        <time>2010-04-03T10:02:36Z</time>
      </trkpt>
      <trkpt lat="45.76048" lon="4.88661">
        <ele>254</ele>
        <time>2010-04-03T10:02:39Z</time>
      </trkpt>
      <trkpt lat="45.76046" lon="4.88665">
        <ele>252</ele>
        <time>2010-04-03T10:02:45Z</time>
      </trkpt>
      <trkpt lat="45.76043" lon="4.88677">
        <ele>250</ele>
        <time>2010-04-03T10:02:50Z</time>
      </trkpt>
      <trkpt lat="45.76039" lon="4.88695">
        <ele>250</ele>
        <time>2010-04-03T10:02:52Z</time>
      </trkpt>
      <trkpt lat="45.76038" lon="4.88708">
        <ele>250</ele>
        <time>2010-04-03T10:02:54Z</time>
      </trkpt>
      <trkpt lat="45.76036" lon="4.88722">
        <ele>250</ele>
        <time>2010-04-03T10:02:56Z</time>
      </trkpt>
      <trkpt lat="45.76032" lon="4.88743">
        <ele>250</ele>
        <time>2010-04-03T10:02:58Z</time>
      </trkpt>
      <trkpt lat="45.76029" lon="4.88756">
        <ele>249</ele>
        <time>2010-04-03T10:03:00Z</time>
      </trkpt>
      <trkpt lat="45.76025" lon="4.88771">
        <ele>248</ele>
        <time>2010-04-03T10:03:02Z</time>
      </trkpt>
      <trkpt lat="45.76019" lon="4.88788">
        <ele>247</ele>
        <time>2010-04-03T10:03:05Z</time>
      </trkpt>
      <trkpt lat="45.76011" lon="4.88805">
        <ele>248</ele>
        <time>2010-04-03T10:03:08Z</time>
      </trkpt>
      <trkpt lat="45.76" lon="4.88826">
        <ele>245</ele>
        <time>2010-04-03T10:03:12Z</time>
      </trkpt>
      <trkpt lat="45.75993" lon="4.88845">
        <ele>243</ele>
        <time>2010-04-03T10:03:14Z</time>
      </trkpt>
      <trkpt lat="45.75986" lon="4.88871">
        <ele>241</ele>
        <time>2010-04-03T10:03:18Z</time>
      </trkpt>
      <trkpt lat="45.75984" lon="4.88897">
        <ele>241</ele>
        <time>2010-04-03T10:03:21Z</time>
      </trkpt>
      <trkpt lat="45.7598" lon="4.88915">
        <ele>240</ele>
        <time>2010-04-03T10:03:23Z</time>
      </trkpt>
      <trkpt lat="45.75974" lon="4.88931">
        <ele>239</ele>
        <time>2010-04-03T10:03:26Z</time>
      </trkpt>
      <trkpt lat="45.75967" lon="4.88943">
        <ele>239</ele>
        <time>2010-04-03T10:03:28Z</time>
      </trkpt>
      <trkpt lat="45.75959" lon="4.88949">
        <ele>238</ele>
        <time>2010-04-03T10:03:31Z</time>
      </trkpt>
      <trkpt lat="45.75952" lon="4.88947">
        <ele>237</ele>
        <time>2010-04-03T10:03:33Z</time>
      </trkpt>
      <trkpt lat="45.75949" lon="4.8894">
        <ele>237</ele>
        <time>2010-04-03T10:03:35Z</time>
      </trkpt>
      <trkpt lat="45.75946" lon="4.88921">
        <ele>237</ele>
        <time>2010-04-03T10:03:39Z</time>
      </trkpt>
      <trkpt lat="45.75944" lon="4.88904">
        <ele>236</ele>
        <time>2010-04-03T10:03:41Z</time>
      </trkpt>
      <trkpt lat="45.7594" lon="4.88879">
        <ele>236</ele>
        <time>2010-04-03T10:03:45Z</time>
      </trkpt>
      <trkpt lat="45.75936" lon="4.88863">
        <ele>237</ele>
        <time>2010-04-03T10:03:48Z</time>
      </trkpt>
      <trkpt lat="45.7593" lon="4.88845">
        <ele>236</ele>
        <time>2010-04-03T10:03:51Z</time>
      </trkpt>
      <trkpt lat="45.75923" lon="4.88827">
        <ele>236</ele>
        <time>2010-04-03T10:03:54Z</time>
      </trkpt>
      <trkpt lat="45.75919" lon="4.88815">
        <ele>235</ele>
        <time>2010-04-03T10:03:56Z</time>
      </trkpt>
      <trkpt lat="45.75914" lon="4.88804">
        <ele>235</ele>
        <time>2010-04-03T10:03:58Z</time>
      </trkpt>
      <trkpt lat="45.75909" lon="4.88791">
        <ele>234</ele>
        <time>2010-04-03T10:04:00Z</time>
      </trkpt>
      <trkpt lat="45.75902" lon="4.88777">
        <ele>234</ele>
        <time>2010-04-03T10:04:03Z</time>
      </trkpt>
      <trkpt lat="45.75889" lon="4.88748">
        <ele>233</ele>
        <time>2010-04-03T10:04:07Z</time>
      </trkpt>
      <trkpt lat="45.75882" lon="4.88728">
        <ele>233</ele>
        <time>2010-04-03T10:04:09Z</time>
      </trkpt>
      <trkpt lat="45.75876" lon="4.88706">
        <ele>232</ele>
        <time>2010-04-03T10:04:12Z</time>
      </trkpt>
      <trkpt lat="45.7587" lon="4.88684">
        <ele>231</ele>
        <time>2010-04-03T10:04:14Z</time>
      </trkpt>
      <trkpt lat="45.75864" lon="4.88658">
        <ele>230</ele>
        <time>2010-04-03T10:04:17Z</time>
      </trkpt>
      <trkpt lat="45.75859" lon="4.88638">
        <ele>230</ele>
        <time>2010-04-03T10:04:20Z</time>
      </trkpt>
      <trkpt lat="45.75852" lon="4.88615">
        <ele>230</ele>
        <time>2010-04-03T10:04:23Z</time>
      </trkpt>
      <trkpt lat="45.75845" lon="4.88592">
        <ele>231</ele>
        <time>2010-04-03T10:04:26Z</time>
      </trkpt>
      <trkpt lat="45.75841" lon="4.88577">
        <ele>231</ele>
        <time>2010-04-03T10:04:28Z</time>
      </trkpt>
      <trkpt lat="45.75836" lon="4.88559">
        <ele>231</ele>
        <time>2010-04-03T10:04:31Z</time>
      </trkpt>
      <trkpt lat="45.75829" lon="4.88541">
        <ele>231</ele>
        <time>2010-04-03T10:04:33Z</time>
      </trkpt>
      <trkpt lat="45.75822" lon="4.88523">
        <ele>232</ele>
        <time>2010-04-03T10:04:36Z</time>
      </trkpt>
      <trkpt lat="45.75814" lon="4.88506">
        <ele>232</ele>
        <time>2010-04-03T10:04:38Z</time>
      </trkpt>
      <trkpt lat="45.75801" lon="4.88491">
        <ele>232</ele>
        <time>2010-04-03T10:04:42Z</time>
      </trkpt>
      <trkpt lat="45.75784" lon="4.8849">
        <ele>232</ele>
        <time>2010-04-03T10:04:45Z</time>
      </trkpt>
      <trkpt lat="45.75774" lon="4.8849">
        <ele>232</ele>
        <time>2010-04-03T10:04:47Z</time>
      </trkpt>
      <trkpt lat="45.75765" lon="4.88491">
        <ele>231</ele>
        <time>2010-04-03T10:04:49Z</time>
      </trkpt>
      <trkpt lat="45.75754" lon="4.88494">
        <ele>230</ele>
        <time>2010-04-03T10:04:51Z</time>
      </trkpt>
      <trkpt lat="45.7574" lon="4.88498">
        <ele>230</ele>
        <time>2010-04-03T10:04:54Z</time>
      </trkpt>
      <trkpt lat="45.75723" lon="4.88502">
        <ele>229</ele>
        <time>2010-04-03T10:04:57Z</time>
      </trkpt>
      <trkpt lat="45.75706" lon="4.88508">
        <ele>229</ele>
        <time>2010-04-03T10:05:00Z</time>
      </trkpt>
      <trkpt lat="45.75691" lon="4.88513">
        <ele>230</ele>
        <time>2010-04-03T10:05:03Z</time>
      </trkpt>
      <trkpt lat="45.75673" lon="4.88518">
        <ele>231</ele>
        <time>2010-04-03T10:05:06Z</time>
      </trkpt>
      <trkpt lat="45.75658" lon="4.88524">
        <ele>232</ele>
        <time>2010-04-03T10:05:09Z</time>
      </trkpt>
      <trkpt lat="45.75635" lon="4.88531">
        <ele>232</ele>
        <time>2010-04-03T10:05:12Z</time>
      </trkpt>
      <trkpt lat="45.7562" lon="4.88536">
        <ele>232</ele>
        <time>2010-04-03T10:05:15Z</time>
      </trkpt>
      <trkpt lat="45.75604" lon="4.8854">
        <ele>231</ele>
        <time>2010-04-03T10:05:17Z</time>
      </trkpt>
      <trkpt lat="45.75587" lon="4.88542">
        <ele>230</ele>
        <time>2010-04-03T10:05:20Z</time>
      </trkpt>
      <trkpt lat="45.75569" lon="4.88546">
        <ele>231</ele>
        <time>2010-04-03T10:05:23Z</time>
      </trkpt>
      <trkpt lat="45.75545" lon="4.88552">
        <ele>231</ele>
        <time>2010-04-03T10:05:25Z</time>
      </trkpt>
      <trkpt lat="45.75526" lon="4.88552">
        <ele>231</ele>
        <time>2010-04-03T10:05:28Z</time>
      </trkpt>
      <trkpt lat="45.75504" lon="4.88552">
        <ele>229</ele>
        <time>2010-04-03T10:05:31Z</time>
      </trkpt>
      <trkpt lat="45.75488" lon="4.88552">
        <ele>228</ele>
        <time>2010-04-03T10:05:34Z</time>
      </trkpt>
      <trkpt lat="45.75473" lon="4.88552">
        <ele>226</ele>
        <time>2010-04-03T10:05:36Z</time>
      </trkpt>
      <trkpt lat="45.75462" lon="4.88546">
        <ele>224</ele>
        <time>2010-04-03T10:05:39Z</time>
      </trkpt>
      <trkpt lat="45.75453" lon="4.88534">
        <ele>223</ele>
        <time>2010-04-03T10:05:41Z</time>
      </trkpt>
      <trkpt lat="45.75443" lon="4.88519">
        <ele>223</ele>
        <time>2010-04-03T10:05:44Z</time>
      </trkpt>
      <trkpt lat="45.75436" lon="4.88506">
        <ele>223</ele>
        <time>2010-04-03T10:05:48Z</time>
      </trkpt>
      <trkpt lat="45.75434" lon="4.88499">
        <ele>223</ele>
        <time>2010-04-03T10:05:50Z</time>
      </trkpt>
      <trkpt lat="45.75431" lon="4.88486">
        <ele>224</ele>
        <time>2010-04-03T10:06:07Z</time>
      </trkpt>
      <trkpt lat="45.75431" lon="4.88486">
        <ele>224</ele>
        <time>2010-04-03T10:06:11Z</time>
      </trkpt>
      <trkpt lat="45.75409" lon="4.88447">
        <ele>223</ele>
        <time>2010-04-03T10:06:15Z</time>
      </trkpt>
      <trkpt lat="45.75401" lon="4.88434">
        <ele>224</ele>
        <time>2010-04-03T10:06:17Z</time>
      </trkpt>
      <trkpt lat="45.75392" lon="4.88417">
        <ele>222</ele>
        <time>2010-04-03T10:06:20Z</time>
      </trkpt>
      <trkpt lat="45.75383" lon="4.88398">
        <ele>221</ele>
        <time>2010-04-03T10:06:23Z</time>
      </trkpt>
      <trkpt lat="45.75374" lon="4.88376">
        <ele>221</ele>
        <time>2010-04-03T10:06:26Z</time>
      </trkpt>
      <trkpt lat="45.75367" lon="4.88361">
        <ele>220</ele>
        <time>2010-04-03T10:06:29Z</time>
      </trkpt>
      <trkpt lat="45.75361" lon="4.88351">
        <ele>219</ele>
        <time>2010-04-03T10:06:32Z</time>
      </trkpt>
      <trkpt lat="45.75356" lon="4.8834">
        <ele>218</ele>
        <time>2010-04-03T10:06:34Z</time>
      </trkpt>
      <trkpt lat="45.75349" lon="4.88325">
        <ele>217</ele>
        <time>2010-04-03T10:06:37Z</time>
      </trkpt>
      <trkpt lat="45.75341" lon="4.88302">
        <ele>216</ele>
        <time>2010-04-03T10:06:40Z</time>
      </trkpt>
      <trkpt lat="45.75334" lon="4.88281">
        <ele>217</ele>
        <time>2010-04-03T10:06:43Z</time>
      </trkpt>
      <trkpt lat="45.75327" lon="4.8826">
        <ele>218</ele>
        <time>2010-04-03T10:06:45Z</time>
      </trkpt>
      <trkpt lat="45.75321" lon="4.88237">
        <ele>219</ele>
        <time>2010-04-03T10:06:48Z</time>
      </trkpt>
      <trkpt lat="45.75315" lon="4.8821">
        <ele>221</ele>
        <time>2010-04-03T10:06:51Z</time>
      </trkpt>
      <trkpt lat="45.75309" lon="4.88186">
        <ele>221</ele>
        <time>2010-04-03T10:06:53Z</time>
      </trkpt>
      <trkpt lat="45.75302" lon="4.88162">
        <ele>220</ele>
        <time>2010-04-03T10:06:56Z</time>
      </trkpt>
      <trkpt lat="45.75297" lon="4.88138">
        <ele>220</ele>
        <time>2010-04-03T10:06:58Z</time>
      </trkpt>
      <trkpt lat="45.75292" lon="4.88114">
        <ele>220</ele>
        <time>2010-04-03T10:07:01Z</time>
      </trkpt>
      <trkpt lat="45.75289" lon="4.8809">
        <ele>220</ele>
        <time>2010-04-03T10:07:03Z</time>
      </trkpt>
      <trkpt lat="45.75288" lon="4.88066">
        <ele>220</ele>
        <time>2010-04-03T10:07:06Z</time>
      </trkpt>
      <trkpt lat="45.75286" lon="4.88041">
        <ele>219</ele>
        <time>2010-04-03T10:07:08Z</time>
      </trkpt>
      <trkpt lat="45.75285" lon="4.88016">
        <ele>220</ele>
        <time>2010-04-03T10:07:11Z</time>
      </trkpt>
      <trkpt lat="45.75283" lon="4.87991">
        <ele>219</ele>
        <time>2010-04-03T10:07:14Z</time>
      </trkpt>
      <trkpt lat="45.75282" lon="4.87965">
        <ele>219</ele>
        <time>2010-04-03T10:07:16Z</time>
      </trkpt>
      <trkpt lat="45.7528" lon="4.8794">
        <ele>219</ele>
        <time>2010-04-03T10:07:19Z</time>
      </trkpt>
      <trkpt lat="45.7528" lon="4.87915">
        <ele>219</ele>
        <time>2010-04-03T10:07:21Z</time>
      </trkpt>
      <trkpt lat="45.7528" lon="4.87888">
        <ele>218</ele>
        <time>2010-04-03T10:07:24Z</time>
      </trkpt>
      <trkpt lat="45.7528" lon="4.87861">
        <ele>218</ele>
        <time>2010-04-03T10:07:26Z</time>
      </trkpt>
      <trkpt lat="45.75279" lon="4.87834">
        <ele>218</ele>
        <time>2010-04-03T10:07:29Z</time>
      </trkpt>
      <trkpt lat="45.75278" lon="4.87811">
        <ele>218</ele>
        <time>2010-04-03T10:07:31Z</time>
      </trkpt>
      <trkpt lat="45.75277" lon="4.87787">
        <ele>217</ele>
        <time>2010-04-03T10:07:33Z</time>
      </trkpt>
      <trkpt lat="45.75275" lon="4.87764">
        <ele>217</ele>
        <time>2010-04-03T10:07:35Z</time>
      </trkpt>
      <trkpt lat="45.75274" lon="4.87743">
        <ele>217</ele>
        <time>2010-04-03T10:07:38Z</time>
      </trkpt>
      <trkpt lat="45.75273" lon="4.87723">
        <ele>217</ele>
        <time>2010-04-03T10:07:40Z</time>
      </trkpt>
      <trkpt lat="45.75272" lon="4.87707">
        <ele>217</ele>
        <time>2010-04-03T10:07:42Z</time>
      </trkpt>
      <trkpt lat="45.7527" lon="4.87698">
        <ele>217</ele>
        <time>2010-04-03T10:07:44Z</time>
      </trkpt>
      <trkpt lat="45.75268" lon="4.87688">
        <ele>217</ele>
        <time>2010-04-03T10:07:47Z</time>
      </trkpt>
      <trkpt lat="45.75266" lon="4.8768">
        <ele>217</ele>
        <time>2010-04-03T10:07:49Z</time>
      </trkpt>
      <trkpt lat="45.75265" lon="4.87675">
        <ele>217</ele>
        <time>2010-04-03T10:07:51Z</time>
      </trkpt>
      <trkpt lat="45.75266" lon="4.87644">
        <ele>217</ele>
        <time>2010-04-03T10:07:54Z</time>
      </trkpt>
      <trkpt lat="45.75265" lon="4.87629">
        <ele>217</ele>
        <time>2010-04-03T10:07:56Z</time>
      </trkpt>
      <trkpt lat="45.75265" lon="4.87613">
        <ele>218</ele>
        <time>2010-04-03T10:07:58Z</time>
      </trkpt>
      <trkpt lat="45.75265" lon="4.87595">
        <ele>217</ele>
        <time>2010-04-03T10:08:01Z</time>
      </trkpt>
      <trkpt lat="45.75264" lon="4.87562">
        <ele>216</ele>
        <time>2010-04-03T10:08:04Z</time>
      </trkpt>
      <trkpt lat="45.75263" lon="4.87532">
        <ele>216</ele>
        <time>2010-04-03T10:08:06Z</time>
      </trkpt>
      <trkpt lat="45.75261" lon="4.87512">
        <ele>215</ele>
        <time>2010-04-03T10:08:08Z</time>
      </trkpt>
      <trkpt lat="45.7526" lon="4.87492">
        <ele>214</ele>
        <time>2010-04-03T10:08:11Z</time>
      </trkpt>
      <trkpt lat="45.75259" lon="4.87471">
        <ele>213</ele>
        <time>2010-04-03T10:08:13Z</time>
      </trkpt>
      <trkpt lat="45.75258" lon="4.87451">
        <ele>213</ele>
        <time>2010-04-03T10:08:15Z</time>
      </trkpt>
      <trkpt lat="45.75256" lon="4.8743">
        <ele>213</ele>
        <time>2010-04-03T10:08:17Z</time>
      </trkpt>
      <trkpt lat="45.75255" lon="4.87409">
        <ele>213</ele>
        <time>2010-04-03T10:08:19Z</time>
      </trkpt>
      <trkpt lat="45.75254" lon="4.87387">
        <ele>213</ele>
        <time>2010-04-03T10:08:21Z</time>
      </trkpt>
      <trkpt lat="45.75252" lon="4.87349">
        <ele>213</ele>
        <time>2010-04-03T10:08:24Z</time>
      </trkpt>
      <trkpt lat="45.7525" lon="4.87324">
        <ele>212</ele>
        <time>2010-04-03T10:08:27Z</time>
      </trkpt>
      <trkpt lat="45.75248" lon="4.87298">
        <ele>210</ele>
        <time>2010-04-03T10:08:29Z</time>
      </trkpt>
      <trkpt lat="45.75245" lon="4.87273">
        <ele>210</ele>
        <time>2010-04-03T10:08:31Z</time>
      </trkpt>
      <trkpt lat="45.75244" lon="4.87246">
        <ele>211</ele>
        <time>2010-04-03T10:08:33Z</time>
      </trkpt>
      <trkpt lat="45.75244" lon="4.87218">
        <ele>211</ele>
        <time>2010-04-03T10:08:35Z</time>
      </trkpt>
      <trkpt lat="45.75246" lon="4.87191">
        <ele>212</ele>
        <time>2010-04-03T10:08:37Z</time>
      </trkpt>
      <trkpt lat="45.75249" lon="4.87166">
        <ele>213</ele>
        <time>2010-04-03T10:08:39Z</time>
      </trkpt>
      <trkpt lat="45.75253" lon="4.87139">
        <ele>213</ele>
        <time>2010-04-03T10:08:42Z</time>
      </trkpt>
      <trkpt lat="45.75261" lon="4.87104">
        <ele>213</ele>
        <time>2010-04-03T10:08:45Z</time>
      </trkpt>
      <trkpt lat="45.75264" lon="4.87086">
        <ele>213</ele>
        <time>2010-04-03T10:08:47Z</time>
      </trkpt>
      <trkpt lat="45.75261" lon="4.87077">
        <ele>213</ele>
        <time>2010-04-03T10:08:49Z</time>
      </trkpt>
      <trkpt lat="45.75256" lon="4.87074">
        <ele>213</ele>
        <time>2010-04-03T10:08:52Z</time>
      </trkpt>
      <trkpt lat="45.75247" lon="4.87052">
        <ele>213</ele>
        <time>2010-04-03T10:09:03Z</time>
      </trkpt>
      <trkpt lat="45.75249" lon="4.87048">
        <ele>214</ele>
        <time>2010-04-03T10:09:09Z</time>
      </trkpt>
      <trkpt lat="45.75252" lon="4.8704">
        <ele>214</ele>
        <time>2010-04-03T10:09:11Z</time>
      </trkpt>
      <trkpt lat="45.75257" lon="4.87026">
        <ele>213</ele>
        <time>2010-04-03T10:09:13Z</time>
      </trkpt>
      <trkpt lat="45.7527" lon="4.86989">
        <ele>213</ele>
        <time>2010-04-03T10:09:22Z</time>
      </trkpt>
      <trkpt lat="45.7527" lon="4.86989">
        <ele>213</ele>
        <time>2010-04-03T10:09:26Z</time>
      </trkpt>
      <trkpt lat="45.75271" lon="4.86985">
        <ele>213</ele>
        <time>2010-04-03T10:09:31Z</time>
      </trkpt>
      <trkpt lat="45.75274" lon="4.86974">
        <ele>212</ele>
        <time>2010-04-03T10:09:34Z</time>
      </trkpt>
      <trkpt lat="45.75275" lon="4.86965">
        <ele>212</ele>
        <time>2010-04-03T10:09:36Z</time>
      </trkpt>
      <trkpt lat="45.75277" lon="4.86958">
        <ele>212</ele>
        <time>2010-04-03T10:09:39Z</time>
      </trkpt>
      <trkpt lat="45.75278" lon="4.86952">
        <ele>212</ele>
        <time>2010-04-03T10:09:42Z</time>
      </trkpt>
      <trkpt lat="45.75281" lon="4.86942">
        <ele>212</ele>
        <time>2010-04-03T10:09:45Z</time>
      </trkpt>
      <trkpt lat="45.75285" lon="4.86932">
        <ele>213</ele>
        <time>2010-04-03T10:09:47Z</time>
      </trkpt>
      <trkpt lat="45.75291" lon="4.86917">
        <ele>213</ele>
        <time>2010-04-03T10:09:50Z</time>
      </trkpt>
      <trkpt lat="45.75297" lon="4.86896">
        <ele>213</ele>
        <time>2010-04-03T10:09:52Z</time>
      </trkpt>
      <trkpt lat="45.75302" lon="4.86866">
        <ele>214</ele>
        <time>2010-04-03T10:09:56Z</time>
      </trkpt>
      <trkpt lat="45.75305" lon="4.86845">
        <ele>214</ele>
        <time>2010-04-03T10:09:58Z</time>
      </trkpt>
      <trkpt lat="45.75315" lon="4.86813">
        <ele>215</ele>
        <time>2010-04-03T10:10:02Z</time>
      </trkpt>
      <trkpt lat="45.7532" lon="4.8677">
        <ele>216</ele>
        <time>2010-04-03T10:10:06Z</time>
      </trkpt>
      <trkpt lat="45.7532" lon="4.86738">
        <ele>218</ele>
        <time>2010-04-03T10:10:08Z</time>
      </trkpt>
      <trkpt lat="45.75321" lon="4.86718">
        <ele>218</ele>
        <time>2010-04-03T10:10:10Z</time>
      </trkpt>
      <trkpt lat="45.75325" lon="4.86696">
        <ele>219</ele>
        <time>2010-04-03T10:10:12Z</time>
      </trkpt>
      <trkpt lat="45.75328" lon="4.86678">
        <ele>219</ele>
        <time>2010-04-03T10:10:15Z</time>
      </trkpt>
      <trkpt lat="45.75333" lon="4.8666">
        <ele>219</ele>
        <time>2010-04-03T10:10:17Z</time>
      </trkpt>
      <trkpt lat="45.75338" lon="4.86643">
        <ele>218</ele>
        <time>2010-04-03T10:10:20Z</time>
      </trkpt>
      <trkpt lat="45.75338" lon="4.86631">
        <ele>218</ele>
        <time>2010-04-03T10:10:22Z</time>
      </trkpt>
      <trkpt lat="45.75337" lon="4.86616">
        <ele>219</ele>
        <time>2010-04-03T10:10:25Z</time>
      </trkpt>
      <trkpt lat="45.75334" lon="4.86601">
        <ele>220</ele>
        <time>2010-04-03T10:10:28Z</time>
      </trkpt>
      <trkpt lat="45.75334" lon="4.86586">
        <ele>220</ele>
        <time>2010-04-03T10:10:30Z</time>
      </trkpt>
      <trkpt lat="45.75336" lon="4.86566">
        <ele>219</ele>
        <time>2010-04-03T10:10:33Z</time>
      </trkpt>
      <trkpt lat="45.75337" lon="4.86551">
        <ele>217</ele>
        <time>2010-04-03T10:10:36Z</time>
      </trkpt>
      <trkpt lat="45.75339" lon="4.86536">
        <ele>217</ele>
        <time>2010-04-03T10:10:38Z</time>
      </trkpt>
      <trkpt lat="45.75339" lon="4.86523">
        <ele>217</ele>
        <time>2010-04-03T10:10:41Z</time>
      </trkpt>
      <trkpt lat="45.75342" lon="4.86504">
        <ele>216</ele>
        <time>2010-04-03T10:10:44Z</time>
      </trkpt>
      <trkpt lat="45.75346" lon="4.86486">
        <ele>216</ele>
        <time>2010-04-03T10:10:47Z</time>
      </trkpt>
      <trkpt lat="45.75352" lon="4.8647">
        <ele>217</ele>
        <time>2010-04-03T10:10:50Z</time>
      </trkpt>
      <trkpt lat="45.75364" lon="4.86452">
        <ele>216</ele>
        <time>2010-04-03T10:10:53Z</time>
      </trkpt>
      <trkpt lat="45.75377" lon="4.86439">
        <ele>213</ele>
        <time>2010-04-03T10:10:56Z</time>
      </trkpt>
      <trkpt lat="45.75387" lon="4.86426">
        <ele>212</ele>
        <time>2010-04-03T10:10:58Z</time>
      </trkpt>
      <trkpt lat="45.75396" lon="4.86413">
        <ele>210</ele>
        <time>2010-04-03T10:11:01Z</time>
      </trkpt>
      <trkpt lat="45.75407" lon="4.86397">
        <ele>207</ele>
        <time>2010-04-03T10:11:04Z</time>
      </trkpt>
      <trkpt lat="45.75414" lon="4.86383">
        <ele>206</ele>
        <time>2010-04-03T10:11:07Z</time>
      </trkpt>
      <trkpt lat="45.75419" lon="4.86362">
        <ele>204</ele>
        <time>2010-04-03T10:11:10Z</time>
      </trkpt>
      <trkpt lat="45.75418" lon="4.86342">
        <ele>204</ele>
        <time>2010-04-03T10:11:13Z</time>
      </trkpt>
      <trkpt lat="45.75417" lon="4.86319">
        <ele>203</ele>
        <time>2010-04-03T10:11:16Z</time>
      </trkpt>
      <trkpt lat="45.75415" lon="4.86302">
        <ele>203</ele>
        <time>2010-04-03T10:11:18Z</time>
      </trkpt>
      <trkpt lat="45.75411" lon="4.86279">
        <ele>203</ele>
        <time>2010-04-03T10:11:21Z</time>
      </trkpt>
      <trkpt lat="45.75408" lon="4.86254">
        <ele>204</ele>
        <time>2010-04-03T10:11:23Z</time>
      </trkpt>
      <trkpt lat="45.75404" lon="4.86229">
        <ele>203</ele>
        <time>2010-04-03T10:11:26Z</time>
      </trkpt>
      <trkpt lat="45.754" lon="4.86205">
        <ele>203</ele>
        <time>2010-04-03T10:11:28Z</time>
      </trkpt>
      <trkpt lat="45.75396" lon="4.86181">
        <ele>204</ele>
        <time>2010-04-03T10:11:31Z</time>
      </trkpt>
      <trkpt lat="45.75393" lon="4.86157">
        <ele>204</ele>
        <time>2010-04-03T10:11:33Z</time>
      </trkpt>
      <trkpt lat="45.7539" lon="4.86134">
        <ele>202</ele>
        <time>2010-04-03T10:11:36Z</time>
      </trkpt>
      <trkpt lat="45.75385" lon="4.86111">
        <ele>201</ele>
        <time>2010-04-03T10:11:39Z</time>
      </trkpt>
      <trkpt lat="45.75381" lon="4.8609">
        <ele>202</ele>
        <time>2010-04-03T10:11:41Z</time>
      </trkpt>
      <trkpt lat="45.75377" lon="4.8607">
        <ele>202</ele>
        <time>2010-04-03T10:11:43Z</time>
      </trkpt>
      <trkpt lat="45.75373" lon="4.8605">
        <ele>202</ele>
        <time>2010-04-03T10:11:45Z</time>
      </trkpt>
      <trkpt lat="45.75371" lon="4.86015">
        <ele>201</ele>
        <time>2010-04-03T10:11:49Z</time>
      </trkpt>
      <trkpt lat="45.75368" lon="4.85996">
        <ele>199</ele>
        <time>2010-04-03T10:11:52Z</time>
      </trkpt>
      <trkpt lat="45.75369" lon="4.85983">
        <ele>199</ele>
        <time>2010-04-03T10:11:54Z</time>
      </trkpt>
      <trkpt lat="45.75368" lon="4.85972">
        <ele>199</ele>
        <time>2010-04-03T10:11:56Z</time>
      </trkpt>
      <trkpt lat="45.75368" lon="4.8596">
        <ele>200</ele>
        <time>2010-04-03T10:11:59Z</time>
      </trkpt>
      <trkpt lat="45.75367" lon="4.85944">
        <ele>202</ele>
        <time>2010-04-03T10:12:02Z</time>
      </trkpt>
      <trkpt lat="45.75362" lon="4.85935">
        <ele>204</ele>
        <time>2010-04-03T10:12:05Z</time>
      </trkpt>
      <trkpt lat="45.75351" lon="4.85922">
        <ele>208</ele>
        <time>2010-04-03T10:12:09Z</time>
      </trkpt>
      <trkpt lat="45.75348" lon="4.859">
        <ele>213</ele>
        <time>2010-04-03T10:12:11Z</time>
      </trkpt>
      <trkpt lat="45.75349" lon="4.85869">
        <ele>215</ele>
        <time>2010-04-03T10:12:14Z</time>
      </trkpt>
      <trkpt lat="45.75349" lon="4.8584">
        <ele>217</ele>
        <time>2010-04-03T10:12:18Z</time>
      </trkpt>
      <trkpt lat="45.75349" lon="4.85818">
        <ele>218</ele>
        <time>2010-04-03T10:12:20Z</time>
      </trkpt>
      <trkpt lat="45.75349" lon="4.85795">
        <ele>219</ele>
        <time>2010-04-03T10:12:23Z</time>
      </trkpt>
      <trkpt lat="45.75341" lon="4.85768">
        <ele>219</ele>
        <time>2010-04-03T10:12:26Z</time>
      </trkpt>
      <trkpt lat="45.75338" lon="4.85735">
        <ele>219</ele>
        <time>2010-04-03T10:12:29Z</time>
      </trkpt>
      <trkpt lat="45.75336" lon="4.85697">
        <ele>219</ele>
        <time>2010-04-03T10:12:33Z</time>
      </trkpt>
      <trkpt lat="45.75333" lon="4.85674">
        <ele>219</ele>
        <time>2010-04-03T10:12:35Z</time>
      </trkpt>
      <trkpt lat="45.7533" lon="4.85649">
        <ele>219</ele>
        <time>2010-04-03T10:12:37Z</time>
      </trkpt>
      <trkpt lat="45.75324" lon="4.85601">
        <ele>219</ele>
        <time>2010-04-03T10:12:41Z</time>
      </trkpt>
      <trkpt lat="45.75321" lon="4.85578">
        <ele>219</ele>
        <time>2010-04-03T10:12:43Z</time>
      </trkpt>
      <trkpt lat="45.75314" lon="4.85546">
        <ele>218</ele>
        <time>2010-04-03T10:12:46Z</time>
      </trkpt>
      <trkpt lat="45.75309" lon="4.85523">
        <ele>216</ele>
        <time>2010-04-03T10:12:49Z</time>
      </trkpt>
      <trkpt lat="45.75307" lon="4.85497">
        <ele>214</ele>
        <time>2010-04-03T10:12:52Z</time>
      </trkpt>
      <trkpt lat="45.75306" lon="4.85478">
        <ele>213</ele>
        <time>2010-04-03T10:12:55Z</time>
      </trkpt>
      <trkpt lat="45.75303" lon="4.8545">
        <ele>213</ele>
        <time>2010-04-03T10:12:59Z</time>
      </trkpt>
      <trkpt lat="45.75302" lon="4.8543">
        <ele>212</ele>
        <time>2010-04-03T10:13:01Z</time>
      </trkpt>
      <trkpt lat="45.75297" lon="4.85401">
        <ele>212</ele>
        <time>2010-04-03T10:13:05Z</time>
      </trkpt>
      <trkpt lat="45.75297" lon="4.85375">
        <ele>213</ele>
        <time>2010-04-03T10:13:08Z</time>
      </trkpt>
      <trkpt lat="45.75292" lon="4.85347">
        <ele>213</ele>
        <time>2010-04-03T10:13:11Z</time>
      </trkpt>
      <trkpt lat="45.75287" lon="4.85314">
        <ele>214</ele>
        <time>2010-04-03T10:13:15Z</time>
      </trkpt>
      <trkpt lat="45.75284" lon="4.85288">
        <ele>214</ele>
        <time>2010-04-03T10:13:17Z</time>
      </trkpt>
      <trkpt lat="45.75283" lon="4.85269">
        <ele>215</ele>
        <time>2010-04-03T10:13:19Z</time>
      </trkpt>
      <trkpt lat="45.75282" lon="4.85247">
        <ele>215</ele>
        <time>2010-04-03T10:13:22Z</time>
      </trkpt>
      <trkpt lat="45.7528" lon="4.85226">
        <ele>216</ele>
        <time>2010-04-03T10:13:24Z</time>
      </trkpt>
      <trkpt lat="45.75282" lon="4.85205">
        <ele>217</ele>
        <time>2010-04-03T10:13:26Z</time>
      </trkpt>
      <trkpt lat="45.75282" lon="4.85185">
        <ele>217</ele>
        <time>2010-04-03T10:13:28Z</time>
      </trkpt>
      <trkpt lat="45.75278" lon="4.85167">
        <ele>218</ele>
        <time>2010-04-03T10:13:30Z</time>
      </trkpt>
      <trkpt lat="45.75274" lon="4.85147">
        <ele>219</ele>
        <time>2010-04-03T10:13:32Z</time>
      </trkpt>
      <trkpt lat="45.75271" lon="4.85125">
        <ele>219</ele>
        <time>2010-04-03T10:13:34Z</time>
      </trkpt>
      <trkpt lat="45.75268" lon="4.85104">
        <ele>220</ele>
        <time>2010-04-03T10:13:36Z</time>
      </trkpt>
      <trkpt lat="45.75266" lon="4.85085">
        <ele>221</ele>
        <time>2010-04-03T10:13:39Z</time>
      </trkpt>
      <trkpt lat="45.75265" lon="4.85067">
        <ele>223</ele>
        <time>2010-04-03T10:13:41Z</time>
      </trkpt>
      <trkpt lat="45.75263" lon="4.85049">
        <ele>224</ele>
        <time>2010-04-03T10:13:43Z</time>
      </trkpt>
      <trkpt lat="45.75266" lon="4.85035">
        <ele>224</ele>
        <time>2010-04-03T10:13:45Z</time>
      </trkpt>
      <trkpt lat="45.7527" lon="4.85023">
        <ele>224</ele>
        <time>2010-04-03T10:13:47Z</time>
      </trkpt>
      <trkpt lat="45.75273" lon="4.8501">
        <ele>223</ele>
        <time>2010-04-03T10:13:49Z</time>
      </trkpt>
      <trkpt lat="45.75275" lon="4.84996">
        <ele>223</ele>
        <time>2010-04-03T10:13:51Z</time>
      </trkpt>
      <trkpt lat="45.75279" lon="4.84983">
        <ele>222</ele>
        <time>2010-04-03T10:13:53Z</time>
      </trkpt>
      <trkpt lat="45.75285" lon="4.84973">
        <ele>221</ele>
        <time>2010-04-03T10:13:55Z</time>
      </trkpt>
      <trkpt lat="45.75294" lon="4.84958">
        <ele>220</ele>
        <time>2010-04-03T10:13:59Z</time>
      </trkpt>
      <trkpt lat="45.75304" lon="4.84941">
        <ele>218</ele>
        <time>2010-04-03T10:14:02Z</time>
      </trkpt>
      <trkpt lat="45.75312" lon="4.8493">
        <ele>218</ele>
        <time>2010-04-03T10:14:04Z</time>
      </trkpt>
      <trkpt lat="45.75319" lon="4.84919">
        <ele>217</ele>
        <time>2010-04-03T10:14:06Z</time>
      </trkpt>
      <trkpt lat="45.75325" lon="4.84899">
        <ele>217</ele>
        <time>2010-04-03T10:14:08Z</time>
      </trkpt>
      <trkpt lat="45.75333" lon="4.84886">
        <ele>216</ele>
        <time>2010-04-03T10:14:10Z</time>
      </trkpt>
      <trkpt lat="45.75342" lon="4.84872">
        <ele>216</ele>
        <time>2010-04-03T10:14:12Z</time>
      </trkpt>
      <trkpt lat="45.75349" lon="4.84856">
        <ele>215</ele>
        <time>2010-04-03T10:14:14Z</time>
      </trkpt>
      <trkpt lat="45.75354" lon="4.84838">
        <ele>215</ele>
        <time>2010-04-03T10:14:17Z</time>
      </trkpt>
      <trkpt lat="45.75364" lon="4.8481">
        <ele>214</ele>
        <time>2010-04-03T10:14:20Z</time>
      </trkpt>
      <trkpt lat="45.75376" lon="4.84785">
        <ele>214</ele>
        <time>2010-04-03T10:14:22Z</time>
      </trkpt>
      <trkpt lat="45.75386" lon="4.84756">
        <ele>216</ele>
        <time>2010-04-03T10:14:25Z</time>
      </trkpt>
      <trkpt lat="45.75394" lon="4.84738">
        <ele>217</ele>
        <time>2010-04-03T10:14:29Z</time>
      </trkpt>
      <trkpt lat="45.75398" lon="4.84721">
        <ele>217</ele>
        <time>2010-04-03T10:14:31Z</time>
      </trkpt>
      <trkpt lat="45.75402" lon="4.84708">
        <ele>217</ele>
        <time>2010-04-03T10:14:33Z</time>
      </trkpt>
      <trkpt lat="45.75405" lon="4.84696">
        <ele>218</ele>
        <time>2010-04-03T10:14:35Z</time>
      </trkpt>
      <trkpt lat="45.75406" lon="4.84682">
        <ele>217</ele>
        <time>2010-04-03T10:14:38Z</time>
      </trkpt>
      <trkpt lat="45.75411" lon="4.84665">
        <ele>217</ele>
        <time>2010-04-03T10:14:40Z</time>
      </trkpt>
      <trkpt lat="45.75419" lon="4.84646">
        <ele>218</ele>
        <time>2010-04-03T10:14:44Z</time>
      </trkpt>
      <trkpt lat="45.75426" lon="4.84636">
        <ele>218</ele>
        <time>2010-04-03T10:14:46Z</time>
      </trkpt>
      <trkpt lat="45.7544" lon="4.84608">
        <ele>218</ele>
        <time>2010-04-03T10:14:50Z</time>
      </trkpt>
      <trkpt lat="45.75444" lon="4.84592">
        <ele>217</ele>
        <time>2010-04-03T10:14:52Z</time>
      </trkpt>
      <trkpt lat="45.75448" lon="4.84574">
        <ele>217</ele>
        <time>2010-04-03T10:14:54Z</time>
      </trkpt>
      <trkpt lat="45.7545" lon="4.84553">
        <ele>217</ele>
        <time>2010-04-03T10:14:56Z</time>
      </trkpt>
      <trkpt lat="45.7545" lon="4.84542">
        <ele>217</ele>
        <time>2010-04-03T10:14:59Z</time>
      </trkpt>
      <trkpt lat="45.75453" lon="4.84525">
        <ele>216</ele>
        <time>2010-04-03T10:15:01Z</time>
      </trkpt>
      <trkpt lat="45.75458" lon="4.84504">
        <ele>215</ele>
        <time>2010-04-03T10:15:03Z</time>
      </trkpt>
      <trkpt lat="45.75471" lon="4.84464">
        <ele>214</ele>
        <time>2010-04-03T10:15:07Z</time>
      </trkpt>
      <trkpt lat="45.75478" lon="4.84445">
        <ele>213</ele>
        <time>2010-04-03T10:15:09Z</time>
      </trkpt>
      <trkpt lat="45.75485" lon="4.84427">
        <ele>213</ele>
        <time>2010-04-03T10:15:11Z</time>
      </trkpt>
      <trkpt lat="45.75491" lon="4.84407">
        <ele>212</ele>
        <time>2010-04-03T10:15:13Z</time>
      </trkpt>
      <trkpt lat="45.75495" lon="4.84383">
        <ele>212</ele>
        <time>2010-04-03T10:15:15Z</time>
      </trkpt>
      <trkpt lat="45.75502" lon="4.84362">
        <ele>212</ele>
        <time>2010-04-03T10:15:18Z</time>
      </trkpt>
      <trkpt lat="45.75508" lon="4.84342">
        <ele>211</ele>
        <time>2010-04-03T10:15:20Z</time>
      </trkpt>
      <trkpt lat="45.7552" lon="4.84311">
        <ele>210</ele>
        <time>2010-04-03T10:15:23Z</time>
      </trkpt>
      <trkpt lat="45.75529" lon="4.84293">
        <ele>210</ele>
        <time>2010-04-03T10:15:26Z</time>
      </trkpt>
      <trkpt lat="45.7554" lon="4.84271">
        <ele>209</ele>
        <time>2010-04-03T10:15:29Z</time>
      </trkpt>
      <trkpt lat="45.7555" lon="4.84245">
        <ele>209</ele>
        <time>2010-04-03T10:15:32Z</time>
      </trkpt>
      <trkpt lat="45.75556" lon="4.84229">
        <ele>209</ele>
        <time>2010-04-03T10:15:34Z</time>
      </trkpt>
      <trkpt lat="45.75562" lon="4.84213">
        <ele>209</ele>
        <time>2010-04-03T10:15:36Z</time>
      </trkpt>
      <trkpt lat="45.75577" lon="4.84175">
        <ele>210</ele>
        <time>2010-04-03T10:15:41Z</time>
      </trkpt>
      <trkpt lat="45.75585" lon="4.84154">
        <ele>211</ele>
        <time>2010-04-03T10:15:43Z</time>
      </trkpt>
      <trkpt lat="45.75594" lon="4.84131">
        <ele>211</ele>
        <time>2010-04-03T10:15:45Z</time>
      </trkpt>
      <trkpt lat="45.75603" lon="4.84106">
        <ele>211</ele>
        <time>2010-04-03T10:15:48Z</time>
      </trkpt>
      <trkpt lat="45.7561" lon="4.84083">
        <ele>212</ele>
        <time>2010-04-03T10:15:51Z</time>
      </trkpt>
      <trkpt lat="45.7562" lon="4.84057">
        <ele>212</ele>
        <time>2010-04-03T10:15:54Z</time>
      </trkpt>
      <trkpt lat="45.75632" lon="4.84032">
        <ele>211</ele>
        <time>2010-04-03T10:15:56Z</time>
      </trkpt>
      <trkpt lat="45.75644" lon="4.84004">
        <ele>212</ele>
        <time>2010-04-03T10:16:00Z</time>
      </trkpt>
      <trkpt lat="45.75654" lon="4.83975">
        <ele>213</ele>
        <time>2010-04-03T10:16:03Z</time>
      </trkpt>
      <trkpt lat="45.75663" lon="4.83944">
        <ele>214</ele>
        <time>2010-04-03T10:16:06Z</time>
      </trkpt>
      <trkpt lat="45.7567" lon="4.83919">
        <ele>215</ele>
        <time>2010-04-03T10:16:09Z</time>
      </trkpt>
      <trkpt lat="45.75679" lon="4.83889">
        <ele>215</ele>
        <time>2010-04-03T10:16:12Z</time>
      </trkpt>
      <trkpt lat="45.75685" lon="4.83865">
        <ele>215</ele>
        <time>2010-04-03T10:16:14Z</time>
      </trkpt>
      <trkpt lat="45.75691" lon="4.83841">
        <ele>215</ele>
        <time>2010-04-03T10:16:17Z</time>
      </trkpt>
      <trkpt lat="45.75695" lon="4.83819">
        <ele>215</ele>
        <time>2010-04-03T10:16:19Z</time>
      </trkpt>
      <trkpt lat="45.75701" lon="4.83793">
        <ele>215</ele>
        <time>2010-04-03T10:16:22Z</time>
      </trkpt>
      <trkpt lat="45.75706" lon="4.8377">
        <ele>214</ele>
        <time>2010-04-03T10:16:25Z</time>
      </trkpt>
      <trkpt lat="45.75714" lon="4.83741">
        <ele>213</ele>
        <time>2010-04-03T10:16:28Z</time>
      </trkpt>
      <trkpt lat="45.75719" lon="4.8372">
        <ele>213</ele>
        <time>2010-04-03T10:16:30Z</time>
      </trkpt>
      <trkpt lat="45.75723" lon="4.83706">
        <ele>213</ele>
        <time>2010-04-03T10:16:34Z</time>
      </trkpt>
      <trkpt lat="45.75725" lon="4.837">
        <ele>212</ele>
        <time>2010-04-03T10:16:37Z</time>
      </trkpt>
      <trkpt lat="45.75726" lon="4.83692">
        <ele>211</ele>
        <time>2010-04-03T10:16:39Z</time>
      </trkpt>
      <trkpt lat="45.75728" lon="4.83676">
        <ele>210</ele>
        <time>2010-04-03T10:16:53Z</time>
      </trkpt>
      <trkpt lat="45.75728" lon="4.83676">
        <ele>210</ele>
        <time>2010-04-03T10:16:57Z</time>
      </trkpt>
      <trkpt lat="45.75725" lon="4.83646">
        <ele>209</ele>
        <time>2010-04-03T10:17:02Z</time>
      </trkpt>
      <trkpt lat="45.75723" lon="4.83636">
        <ele>208</ele>
        <time>2010-04-03T10:17:04Z</time>
      </trkpt>
      <trkpt lat="45.75721" lon="4.83626">
        <ele>208</ele>
        <time>2010-04-03T10:17:06Z</time>
      </trkpt>
      <trkpt lat="45.75722" lon="4.83612">
        <ele>208</ele>
        <time>2010-04-03T10:17:08Z</time>
      </trkpt>
      <trkpt lat="45.75727" lon="4.83595">
        <ele>208</ele>
        <time>2010-04-03T10:17:10Z</time>
      </trkpt>
      <trkpt lat="45.75735" lon="4.83575">
        <ele>207</ele>
        <time>2010-04-03T10:17:12Z</time>
      </trkpt>
      <trkpt lat="45.75744" lon="4.83554">
        <ele>207</ele>
        <time>2010-04-03T10:17:14Z</time>
      </trkpt>
      <trkpt lat="45.75752" lon="4.83532">
        <ele>207</ele>
        <time>2010-04-03T10:17:17Z</time>
      </trkpt>
      <trkpt lat="45.75766" lon="4.83503">
        <ele>208</ele>
        <time>2010-04-03T10:17:19Z</time>
      </trkpt>
      <trkpt lat="45.75771" lon="4.83488">
        <ele>207</ele>
        <time>2010-04-03T10:17:21Z</time>
      </trkpt>
      <trkpt lat="45.75777" lon="4.83475">
        <ele>206</ele>
        <time>2010-04-03T10:17:23Z</time>
      </trkpt>
      <trkpt lat="45.75782" lon="4.83463">
        <ele>205</ele>
        <time>2010-04-03T10:17:25Z</time>
      </trkpt>
      <trkpt lat="45.75786" lon="4.8345">
        <ele>205</ele>
        <time>2010-04-03T10:17:27Z</time>
      </trkpt>
      <trkpt lat="45.75791" lon="4.83434">
        <ele>205</ele>
        <time>2010-04-03T10:17:29Z</time>
      </trkpt>
      <trkpt lat="45.75795" lon="4.83416">
        <ele>205</ele>
        <time>2010-04-03T10:17:32Z</time>
      </trkpt>
      <trkpt lat="45.75799" lon="4.83398">
        <ele>204</ele>
        <time>2010-04-03T10:17:36Z</time>
      </trkpt>
      <trkpt lat="45.75801" lon="4.83384">
        <ele>204</ele>
        <time>2010-04-03T10:17:38Z</time>
      </trkpt>
      <trkpt lat="45.75806" lon="4.83363">
        <ele>205</ele>
        <time>2010-04-03T10:17:40Z</time>
      </trkpt>
      <trkpt lat="45.75814" lon="4.83337">
        <ele>205</ele>
        <time>2010-04-03T10:17:42Z</time>
      </trkpt>
      <trkpt lat="45.75823" lon="4.83303">
        <ele>206</ele>
        <time>2010-04-03T10:17:46Z</time>
      </trkpt>
      <trkpt lat="45.7583" lon="4.8328">
        <ele>206</ele>
        <time>2010-04-03T10:17:48Z</time>
      </trkpt>
      <trkpt lat="45.75837" lon="4.83258">
        <ele>207</ele>
        <time>2010-04-03T10:17:51Z</time>
      </trkpt>
      <trkpt lat="45.75843" lon="4.83237">
        <ele>207</ele>
        <time>2010-04-03T10:17:54Z</time>
      </trkpt>
      <trkpt lat="45.75849" lon="4.83214">
        <ele>207</ele>
        <time>2010-04-03T10:17:56Z</time>
      </trkpt>
      <trkpt lat="45.75855" lon="4.83195">
        <ele>207</ele>
        <time>2010-04-03T10:17:58Z</time>
      </trkpt>
      <trkpt lat="45.75865" lon="4.83164">
        <ele>208</ele>
        <time>2010-04-03T10:18:01Z</time>
      </trkpt>
      <trkpt lat="45.75873" lon="4.83139">
        <ele>209</ele>
        <time>2010-04-03T10:18:04Z</time>
      </trkpt>
      <trkpt lat="45.75879" lon="4.83114">
        <ele>210</ele>
        <time>2010-04-03T10:18:06Z</time>
      </trkpt>
      <trkpt lat="45.75884" lon="4.83093">
        <ele>211</ele>
        <time>2010-04-03T10:18:09Z</time>
      </trkpt>
      <trkpt lat="45.75889" lon="4.83074">
        <ele>211</ele>
        <time>2010-04-03T10:18:11Z</time>
      </trkpt>
      <trkpt lat="45.75893" lon="4.83054">
        <ele>211</ele>
        <time>2010-04-03T10:18:13Z</time>
      </trkpt>
      <trkpt lat="45.75893" lon="4.83045">
        <ele>211</ele>
        <time>2010-04-03T10:18:15Z</time>
      </trkpt>
      <trkpt lat="45.75894" lon="4.8304">
        <ele>211</ele>
        <time>2010-04-03T10:18:17Z</time>
      </trkpt>
      <trkpt lat="45.75903" lon="4.83004">
        <ele>209</ele>
        <time>2010-04-03T10:18:30Z</time>
      </trkpt>
      <trkpt lat="45.75908" lon="4.82992">
        <ele>208</ele>
        <time>2010-04-03T10:18:32Z</time>
      </trkpt>
      <trkpt lat="45.75913" lon="4.82982">
        <ele>208</ele>
        <time>2010-04-03T10:18:34Z</time>
      </trkpt>
      <trkpt lat="45.75918" lon="4.82971">
        <ele>209</ele>
        <time>2010-04-03T10:18:36Z</time>
      </trkpt>
      <trkpt lat="45.75925" lon="4.82958">
        <ele>209</ele>
        <time>2010-04-03T10:18:39Z</time>
      </trkpt>
      <trkpt lat="45.75932" lon="4.82943">
        <ele>209</ele>
        <time>2010-04-03T10:18:41Z</time>
      </trkpt>
      <trkpt lat="45.75938" lon="4.82926">
        <ele>210</ele>
        <time>2010-04-03T10:18:44Z</time>
      </trkpt>
      <trkpt lat="45.75943" lon="4.82909">
        <ele>212</ele>
        <time>2010-04-03T10:18:46Z</time>
      </trkpt>
      <trkpt lat="45.75948" lon="4.82891">
        <ele>213</ele>
        <time>2010-04-03T10:18:49Z</time>
      </trkpt>
      <trkpt lat="45.75953" lon="4.82873">
        <ele>214</ele>
        <time>2010-04-03T10:18:51Z</time>
      </trkpt>
      <trkpt lat="45.75958" lon="4.82855">
        <ele>215</ele>
        <time>2010-04-03T10:18:54Z</time>
      </trkpt>
      <trkpt lat="45.75964" lon="4.82837">
        <ele>214</ele>
        <time>2010-04-03T10:18:57Z</time>
      </trkpt>
      <trkpt lat="45.75968" lon="4.82819">
        <ele>213</ele>
        <time>2010-04-03T10:18:59Z</time>
      </trkpt>
      <trkpt lat="45.75972" lon="4.82803">
        <ele>212</ele>
        <time>2010-04-03T10:19:02Z</time>
      </trkpt>
      <trkpt lat="45.75978" lon="4.82792">
        <ele>212</ele>
        <time>2010-04-03T10:19:04Z</time>
      </trkpt>
      <trkpt lat="45.75992" lon="4.82795">
        <ele>211</ele>
        <time>2010-04-03T10:19:07Z</time>
      </trkpt>
      <trkpt lat="45.7601" lon="4.828">
        <ele>211</ele>
        <time>2010-04-03T10:19:09Z</time>
      </trkpt>
      <trkpt lat="45.76035" lon="4.82812">
        <ele>209</ele>
        <time>2010-04-03T10:19:13Z</time>
      </trkpt>
      <trkpt lat="45.7606" lon="4.82825">
        <ele>208</ele>
        <time>2010-04-03T10:19:16Z</time>
      </trkpt>
      <trkpt lat="45.76081" lon="4.82837">
        <ele>207</ele>
        <time>2010-04-03T10:19:18Z</time>
      </trkpt>
      <trkpt lat="45.76103" lon="4.82846">
        <ele>207</ele>
        <time>2010-04-03T10:19:21Z</time>
      </trkpt>
      <trkpt lat="45.76125" lon="4.82855">
        <ele>207</ele>
        <time>2010-04-03T10:19:23Z</time>
      </trkpt>
      <trkpt lat="45.76147" lon="4.82865">
        <ele>204</ele>
        <time>2010-04-03T10:19:26Z</time>
      </trkpt>
      <trkpt lat="45.76168" lon="4.82872">
        <ele>203</ele>
        <time>2010-04-03T10:19:29Z</time>
      </trkpt>
      <trkpt lat="45.76192" lon="4.82881">
        <ele>203</ele>
        <time>2010-04-03T10:19:32Z</time>
      </trkpt>
      <trkpt lat="45.76212" lon="4.82888">
        <ele>202</ele>
        <time>2010-04-03T10:19:34Z</time>
      </trkpt>
      <trkpt lat="45.76233" lon="4.82892">
        <ele>201</ele>
        <time>2010-04-03T10:19:37Z</time>
      </trkpt>
      <trkpt lat="45.76256" lon="4.82897">
        <ele>201</ele>
        <time>2010-04-03T10:19:39Z</time>
      </trkpt>
      <trkpt lat="45.76278" lon="4.82903">
        <ele>201</ele>
        <time>2010-04-03T10:19:41Z</time>
      </trkpt>
      <trkpt lat="45.76304" lon="4.82911">
        <ele>199</ele>
        <time>2010-04-03T10:19:43Z</time>
      </trkpt>
      <trkpt lat="45.76334" lon="4.82919">
        <ele>199</ele>
        <time>2010-04-03T10:19:46Z</time>
      </trkpt>
      <trkpt lat="45.76365" lon="4.8292">
        <ele>198</ele>
        <time>2010-04-03T10:19:50Z</time>
      </trkpt>
      <trkpt lat="45.76395" lon="4.8292">
        <ele>196</ele>
        <time>2010-04-03T10:19:53Z</time>
      </trkpt>
      <trkpt lat="45.76417" lon="4.82918">
        <ele>196</ele>
        <time>2010-04-03T10:19:55Z</time>
      </trkpt>
      <trkpt lat="45.76445" lon="4.82915">
        <ele>194</ele>
        <time>2010-04-03T10:19:59Z</time>
      </trkpt>
      <trkpt lat="45.76467" lon="4.82911">
        <ele>193</ele>
        <time>2010-04-03T10:20:01Z</time>
      </trkpt>
      <trkpt lat="45.76489" lon="4.82906">
        <ele>192</ele>
        <time>2010-04-03T10:20:04Z</time>
      </trkpt>
      <trkpt lat="45.7651" lon="4.82905">
        <ele>192</ele>
        <time>2010-04-03T10:20:06Z</time>
      </trkpt>
      <trkpt lat="45.7653" lon="4.82905">
        <ele>191</ele>
        <time>2010-04-03T10:20:09Z</time>
      </trkpt>
      <trkpt lat="45.76549" lon="4.82904">
        <ele>191</ele>
        <time>2010-04-03T10:20:11Z</time>
      </trkpt>
      <trkpt lat="45.76567" lon="4.82902">
        <ele>189</ele>
        <time>2010-04-03T10:20:14Z</time>
      </trkpt>
      <trkpt lat="45.76582" lon="4.82896">
        <ele>189</ele>
        <time>2010-04-03T10:20:16Z</time>
      </trkpt>
      <trkpt lat="45.76593" lon="4.82881">
        <ele>188</ele>
        <time>2010-04-03T10:20:18Z</time>
      </trkpt>
      <trkpt lat="45.76606" lon="4.82869">
        <ele>187</ele>
        <time>2010-04-03T10:20:21Z</time>
      </trkpt>
      <trkpt lat="45.76615" lon="4.82862">
        <ele>187</ele>
        <time>2010-04-03T10:20:23Z</time>
      </trkpt>
      <trkpt lat="45.76625" lon="4.82857">
        <ele>188</ele>
        <time>2010-04-03T10:20:26Z</time>
      </trkpt>
      <trkpt lat="45.76626" lon="4.82861">
        <ele>189</ele>
        <time>2010-04-03T10:20:28Z</time>
      </trkpt>
      <trkpt lat="45.7662" lon="4.82878">
        <ele>192</ele>
        <time>2010-04-03T10:20:44Z</time>
      </trkpt>
      <trkpt lat="45.76626" lon="4.82872">
        <ele>194</ele>
        <time>2010-04-03T10:20:47Z</time>
      </trkpt>
      <trkpt lat="45.76644" lon="4.82839">
        <ele>197</ele>
        <time>2010-04-03T10:20:51Z</time>
      </trkpt>
      <trkpt lat="45.76654" lon="4.82824">
        <ele>196</ele>
        <time>2010-04-03T10:20:53Z</time>
      </trkpt>
      <trkpt lat="45.76666" lon="4.82808">
        <ele>196</ele>
        <time>2010-04-03T10:20:56Z</time>
      </trkpt>
      <trkpt lat="45.76691" lon="4.82783">
        <ele>196</ele>
        <time>2010-04-03T10:20:58Z</time>
      </trkpt>
      <trkpt lat="45.76709" lon="4.82756">
        <ele>196</ele>
        <time>2010-04-03T10:21:02Z</time>
      </trkpt>
      <trkpt lat="45.76722" lon="4.82735">
        <ele>196</ele>
        <time>2010-04-03T10:21:04Z</time>
      </trkpt>
      <trkpt lat="45.76738" lon="4.82704">
        <ele>196</ele>
        <time>2010-04-03T10:21:07Z</time>
      </trkpt>
      <trkpt lat="45.76751" lon="4.82671">
        <ele>196</ele>
        <time>2010-04-03T10:21:11Z</time>
      </trkpt>
      <trkpt lat="45.76756" lon="4.8264">
        <ele>196</ele>
        <time>2010-04-03T10:21:14Z</time>
      </trkpt>
      <trkpt lat="45.76754" lon="4.82611">
        <ele>195</ele>
        <time>2010-04-03T10:21:16Z</time>
      </trkpt>
      <trkpt lat="45.76752" lon="4.82574">
        <ele>194</ele>
        <time>2010-04-03T10:21:20Z</time>
      </trkpt>
      <trkpt lat="45.76749" lon="4.82534">
        <ele>193</ele>
        <time>2010-04-03T10:21:23Z</time>
      </trkpt>
      <trkpt lat="45.76746" lon="4.82509">
        <ele>193</ele>
        <time>2010-04-03T10:21:25Z</time>
      </trkpt>
      <trkpt lat="45.76744" lon="4.82477">
        <ele>194</ele>
        <time>2010-04-03T10:21:28Z</time>
      </trkpt>
      <trkpt lat="45.76742" lon="4.82448">
        <ele>193</ele>
        <time>2010-04-03T10:21:30Z</time>
      </trkpt>
      <trkpt lat="45.76739" lon="4.82419">
        <ele>192</ele>
        <time>2010-04-03T10:21:33Z</time>
      </trkpt>
      <trkpt lat="45.76738" lon="4.82391">
        <ele>192</ele>
        <time>2010-04-03T10:21:36Z</time>
      </trkpt>
      <trkpt lat="45.76735" lon="4.82365">
        <ele>193</ele>
        <time>2010-04-03T10:21:38Z</time>
      </trkpt>
      <trkpt lat="45.76732" lon="4.82333">
        <ele>193</ele>
        <time>2010-04-03T10:21:41Z</time>
      </trkpt>
      <trkpt lat="45.7673" lon="4.82304">
        <ele>194</ele>
        <time>2010-04-03T10:21:43Z</time>
      </trkpt>
      <trkpt lat="45.76728" lon="4.82274">
        <ele>194</ele>
        <time>2010-04-03T10:21:46Z</time>
      </trkpt>
      <trkpt lat="45.76726" lon="4.82244">
        <ele>195</ele>
        <time>2010-04-03T10:21:48Z</time>
      </trkpt>
      <trkpt lat="45.7672" lon="4.82218">
        <ele>195</ele>
        <time>2010-04-03T10:21:51Z</time>
      </trkpt>
      <trkpt lat="45.76715" lon="4.82193">
        <ele>196</ele>
        <time>2010-04-03T10:21:53Z</time>
      </trkpt>
      <trkpt lat="45.7671" lon="4.82172">
        <ele>198</ele>
        <time>2010-04-03T10:21:55Z</time>
      </trkpt>
      <trkpt lat="45.76704" lon="4.82151">
        <ele>200</ele>
        <time>2010-04-03T10:21:57Z</time>
      </trkpt>
      <trkpt lat="45.76699" lon="4.82129">
        <ele>201</ele>
        <time>2010-04-03T10:22:00Z</time>
      </trkpt>
      <trkpt lat="45.76693" lon="4.82108">
        <ele>202</ele>
        <time>2010-04-03T10:22:02Z</time>
      </trkpt>
      <trkpt lat="45.76688" lon="4.82088">
        <ele>204</ele>
        <time>2010-04-03T10:22:04Z</time>
      </trkpt>
      <trkpt lat="45.76682" lon="4.82062">
        <ele>205</ele>
        <time>2010-04-03T10:22:06Z</time>
      </trkpt>
      <trkpt lat="45.76675" lon="4.82036">
        <ele>207</ele>
        <time>2010-04-03T10:22:09Z</time>
      </trkpt>
      <trkpt lat="45.76668" lon="4.82011">
        <ele>208</ele>
        <time>2010-04-03T10:22:11Z</time>
      </trkpt>
      <trkpt lat="45.76659" lon="4.81978">
        <ele>209</ele>
        <time>2010-04-03T10:22:15Z</time>
      </trkpt>
      <trkpt lat="45.76652" lon="4.8195">
        <ele>209</ele>
        <time>2010-04-03T10:22:17Z</time>
      </trkpt>
      <trkpt lat="45.76645" lon="4.81922">
        <ele>210</ele>
        <time>2010-04-03T10:22:20Z</time>
      </trkpt>
      <trkpt lat="45.76642" lon="4.81899">
        <ele>209</ele>
        <time>2010-04-03T10:22:22Z</time>
      </trkpt>
      <trkpt lat="45.7664" lon="4.81876">
        <ele>209</ele>
        <time>2010-04-03T10:22:24Z</time>
      </trkpt>
      <trkpt lat="45.76639" lon="4.81849">
        <ele>209</ele>
        <time>2010-04-03T10:22:26Z</time>
      </trkpt>
      <trkpt lat="45.76641" lon="4.81819">
        <ele>209</ele>
        <time>2010-04-03T10:22:29Z</time>
      </trkpt>
      <trkpt lat="45.76644" lon="4.81787">
        <ele>210</ele>
        <time>2010-04-03T10:22:31Z</time>
      </trkpt>
      <trkpt lat="45.76648" lon="4.81761">
        <ele>210</ele>
        <time>2010-04-03T10:22:34Z</time>
      </trkpt>
      <trkpt lat="45.76651" lon="4.81738">
        <ele>211</ele>
        <time>2010-04-03T10:22:36Z</time>
      </trkpt>
      <trkpt lat="45.76655" lon="4.81716">
        <ele>211</ele>
        <time>2010-04-03T10:22:38Z</time>
      </trkpt>
      <trkpt lat="45.76659" lon="4.81692">
        <ele>212</ele>
        <time>2010-04-03T10:22:40Z</time>
      </trkpt>
      <trkpt lat="45.76663" lon="4.81665">
        <ele>212</ele>
        <time>2010-04-03T10:22:43Z</time>
      </trkpt>
      <trkpt lat="45.76668" lon="4.81637">
        <ele>212</ele>
        <time>2010-04-03T10:22:45Z</time>
      </trkpt>
      <trkpt lat="45.76674" lon="4.81609">
        <ele>211</ele>
        <time>2010-04-03T10:22:48Z</time>
      </trkpt>
      <trkpt lat="45.76682" lon="4.81574">
        <ele>210</ele>
        <time>2010-04-03T10:22:51Z</time>
      </trkpt>
      <trkpt lat="45.76693" lon="4.81543">
        <ele>209</ele>
        <time>2010-04-03T10:22:54Z</time>
      </trkpt>
      <trkpt lat="45.76701" lon="4.81517">
        <ele>211</ele>
        <time>2010-04-03T10:22:57Z</time>
      </trkpt>
      <trkpt lat="45.7671" lon="4.81492">
        <ele>211</ele>
        <time>2010-04-03T10:22:59Z</time>
      </trkpt>
      <trkpt lat="45.7672" lon="4.81467">
        <ele>211</ele>
        <time>2010-04-03T10:23:02Z</time>
      </trkpt>
      <trkpt lat="45.76729" lon="4.81443">
        <ele>210</ele>
        <time>2010-04-03T10:23:05Z</time>
      </trkpt>
      <trkpt lat="45.76739" lon="4.81418">
        <ele>210</ele>
        <time>2010-04-03T10:23:07Z</time>
      </trkpt>
      <trkpt lat="45.7675" lon="4.81392">
        <ele>210</ele>
        <time>2010-04-03T10:23:10Z</time>
      </trkpt>
      <trkpt lat="45.7676" lon="4.81368">
        <ele>210</ele>
        <time>2010-04-03T10:23:12Z</time>
      </trkpt>
      <trkpt lat="45.76773" lon="4.81345">
        <ele>210</ele>
        <time>2010-04-03T10:23:15Z</time>
      </trkpt>
      <trkpt lat="45.76788" lon="4.81326">
        <ele>211</ele>
        <time>2010-04-03T10:23:17Z</time>
      </trkpt>
      <trkpt lat="45.76808" lon="4.81303">
        <ele>211</ele>
        <time>2010-04-03T10:23:20Z</time>
      </trkpt>
      <trkpt lat="45.76828" lon="4.81288">
        <ele>211</ele>
        <time>2010-04-03T10:23:23Z</time>
      </trkpt>
      <trkpt lat="45.76847" lon="4.81274">
        <ele>211</ele>
        <time>2010-04-03T10:23:26Z</time>
      </trkpt>
      <trkpt lat="45.76871" lon="4.81266">
        <ele>210</ele>
        <time>2010-04-03T10:23:28Z</time>
      </trkpt>
      <trkpt lat="45.76893" lon="4.8126">
        <ele>210</ele>
        <time>2010-04-03T10:23:31Z</time>
      </trkpt>
      <trkpt lat="45.76909" lon="4.81258">
        <ele>210</ele>
        <time>2010-04-03T10:23:33Z</time>
      </trkpt>
      <trkpt lat="45.76926" lon="4.81258">
        <ele>210</ele>
        <time>2010-04-03T10:23:36Z</time>
      </trkpt>
      <trkpt lat="45.76941" lon="4.81256">
        <ele>211</ele>
        <time>2010-04-03T10:23:38Z</time>
      </trkpt>
      <trkpt lat="45.7696" lon="4.81253">
        <ele>211</ele>
        <time>2010-04-03T10:23:40Z</time>
      </trkpt>
      <trkpt lat="45.76978" lon="4.81248">
        <ele>210</ele>
        <time>2010-04-03T10:23:43Z</time>
      </trkpt>
      <trkpt lat="45.76992" lon="4.81245">
        <ele>210</ele>
        <time>2010-04-03T10:23:45Z</time>
      </trkpt>
      <trkpt lat="45.77013" lon="4.81237">
        <ele>211</ele>
        <time>2010-04-03T10:23:49Z</time>
      </trkpt>
      <trkpt lat="45.77028" lon="4.81234">
        <ele>213</ele>
        <time>2010-04-03T10:23:51Z</time>
      </trkpt>
      <trkpt lat="45.7704" lon="4.8123">
        <ele>213</ele>
        <time>2010-04-03T10:23:53Z</time>
      </trkpt>
      <trkpt lat="45.77054" lon="4.81223">
        <ele>212</ele>
        <time>2010-04-03T10:23:55Z</time>
      </trkpt>
      <trkpt lat="45.77069" lon="4.81215">
        <ele>213</ele>
        <time>2010-04-03T10:23:57Z</time>
      </trkpt>
      <trkpt lat="45.77083" lon="4.81207">
        <ele>212</ele>
        <time>2010-04-03T10:24:00Z</time>
      </trkpt>
      <trkpt lat="45.77097" lon="4.812">
        <ele>213</ele>
        <time>2010-04-03T10:24:02Z</time>
      </trkpt>
      <trkpt lat="45.77115" lon="4.81192">
        <ele>213</ele>
        <time>2010-04-03T10:24:04Z</time>
      </trkpt>
      <trkpt lat="45.7713" lon="4.81187">
        <ele>213</ele>
        <time>2010-04-03T10:24:06Z</time>
      </trkpt>
      <trkpt lat="45.77145" lon="4.81181">
        <ele>212</ele>
        <time>2010-04-03T10:24:08Z</time>
      </trkpt>
      <trkpt lat="45.7716" lon="4.81175">
        <ele>211</ele>
        <time>2010-04-03T10:24:11Z</time>
      </trkpt>
      <trkpt lat="45.77174" lon="4.81167">
        <ele>210</ele>
        <time>2010-04-03T10:24:13Z</time>
      </trkpt>
      <trkpt lat="45.77186" lon="4.81159">
        <ele>209</ele>
        <time>2010-04-03T10:24:15Z</time>
      </trkpt>
      <trkpt lat="45.77198" lon="4.8115">
        <ele>209</ele>
        <time>2010-04-03T10:24:17Z</time>
      </trkpt>
      <trkpt lat="45.77209" lon="4.81139">
        <ele>209</ele>
        <time>2010-04-03T10:24:19Z</time>
      </trkpt>
      <trkpt lat="45.77219" lon="4.81126">
        <ele>209</ele>
        <time>2010-04-03T10:24:21Z</time>
      </trkpt>
      <trkpt lat="45.77229" lon="4.81113">
        <ele>209</ele>
        <time>2010-04-03T10:24:23Z</time>
      </trkpt>
      <trkpt lat="45.7724" lon="4.811">
        <ele>209</ele>
        <time>2010-04-03T10:24:25Z</time>
      </trkpt>
      <trkpt lat="45.77252" lon="4.81087">
        <ele>210</ele>
        <time>2010-04-03T10:24:27Z</time>
      </trkpt>
      <trkpt lat="45.77263" lon="4.81074">
        <ele>210</ele>
        <time>2010-04-03T10:24:30Z</time>
      </trkpt>
      <trkpt lat="45.77274" lon="4.8106">
        <ele>210</ele>
        <time>2010-04-03T10:24:32Z</time>
      </trkpt>
      <trkpt lat="45.77285" lon="4.81048">
        <ele>209</ele>
        <time>2010-04-03T10:24:34Z</time>
      </trkpt>
      <trkpt lat="45.77297" lon="4.81034">
        <ele>209</ele>
        <time>2010-04-03T10:24:36Z</time>
      </trkpt>
      <trkpt lat="45.77307" lon="4.81021">
        <ele>209</ele>
        <time>2010-04-03T10:24:38Z</time>
      </trkpt>
      <trkpt lat="45.77318" lon="4.81007">
        <ele>208</ele>
        <time>2010-04-03T10:24:40Z</time>
      </trkpt>
      <trkpt lat="45.77331" lon="4.80989">
        <ele>209</ele>
        <time>2010-04-03T10:24:43Z</time>
      </trkpt>
      <trkpt lat="45.77344" lon="4.80973">
        <ele>210</ele>
        <time>2010-04-03T10:24:45Z</time>
      </trkpt>
      <trkpt lat="45.77356" lon="4.8096">
        <ele>210</ele>
        <time>2010-04-03T10:24:47Z</time>
      </trkpt>
      <trkpt lat="45.77369" lon="4.80946">
        <ele>210</ele>
        <time>2010-04-03T10:24:49Z</time>
      </trkpt>
      <trkpt lat="45.77382" lon="4.80934">
        <ele>209</ele>
        <time>2010-04-03T10:24:51Z</time>
      </trkpt>
      <trkpt lat="45.77396" lon="4.80921">
        <ele>208</ele>
        <time>2010-04-03T10:24:53Z</time>
      </trkpt>
      <trkpt lat="45.77409" lon="4.80908">
        <ele>207</ele>
        <time>2010-04-03T10:24:55Z</time>
      </trkpt>
      <trkpt lat="45.77423" lon="4.80894">
        <ele>206</ele>
        <time>2010-04-03T10:24:58Z</time>
      </trkpt>
      <trkpt lat="45.77438" lon="4.8088">
        <ele>207</ele>
        <time>2010-04-03T10:25:00Z</time>
      </trkpt>
      <trkpt lat="45.77453" lon="4.80866">
        <ele>207</ele>
        <time>2010-04-03T10:25:02Z</time>
      </trkpt>
      <trkpt lat="45.77505" lon="4.80821">
        <ele>206</ele>
        <time>2010-04-03T10:25:08Z</time>
      </trkpt>
      <trkpt lat="45.77514" lon="4.80815">
        <ele>207</ele>
        <time>2010-04-03T10:25:10Z</time>
      </trkpt>
      <trkpt lat="45.77545" lon="4.80801">
        <ele>207</ele>
        <time>2010-04-03T10:25:14Z</time>
      </trkpt>
      <trkpt lat="45.77569" lon="4.80796">
        <ele>208</ele>
        <time>2010-04-03T10:25:16Z</time>
      </trkpt>
      <trkpt lat="45.77585" lon="4.8079">
        <ele>208</ele>
        <time>2010-04-03T10:25:18Z</time>
      </trkpt>
      <trkpt lat="45.77601" lon="4.80786">
        <ele>208</ele>
        <time>2010-04-03T10:25:20Z</time>
      </trkpt>
      <trkpt lat="45.77616" lon="4.80781">
        <ele>207</ele>
        <time>2010-04-03T10:25:22Z</time>
      </trkpt>
      <trkpt lat="45.77628" lon="4.80773">
        <ele>207</ele>
        <time>2010-04-03T10:25:24Z</time>
      </trkpt>
      <trkpt lat="45.77641" lon="4.80766">
        <ele>207</ele>
        <time>2010-04-03T10:25:26Z</time>
      </trkpt>
      <trkpt lat="45.77649" lon="4.80747">
        <ele>208</ele>
        <time>2010-04-03T10:25:29Z</time>
      </trkpt>
      <trkpt lat="45.77646" lon="4.8073">
        <ele>208</ele>
        <time>2010-04-03T10:25:32Z</time>
      </trkpt>
      <trkpt lat="45.77634" lon="4.80718">
        <ele>208</ele>
        <time>2010-04-03T10:25:34Z</time>
      </trkpt>
      <trkpt lat="45.77623" lon="4.80702">
        <ele>208</ele>
        <time>2010-04-03T10:25:36Z</time>
      </trkpt>
      <trkpt lat="45.77613" lon="4.80675">
        <ele>209</ele>
        <time>2010-04-03T10:25:39Z</time>
      </trkpt>
      <trkpt lat="45.77608" lon="4.80655">
        <ele>208</ele>
        <time>2010-04-03T10:25:41Z</time>
      </trkpt>
      <trkpt lat="45.77601" lon="4.80637">
        <ele>208</ele>
        <time>2010-04-03T10:25:43Z</time>
      </trkpt>
      <trkpt lat="45.77591" lon="4.80619">
        <ele>207</ele>
        <time>2010-04-03T10:25:45Z</time>
      </trkpt>
      <trkpt lat="45.77583" lon="4.80599">
        <ele>207</ele>
        <time>2010-04-03T10:25:47Z</time>
      </trkpt>
      <trkpt lat="45.77574" lon="4.80574">
        <ele>207</ele>
        <time>2010-04-03T10:25:51Z</time>
      </trkpt>
      <trkpt lat="45.77571" lon="4.80559">
        <ele>208</ele>
        <time>2010-04-03T10:25:53Z</time>
      </trkpt>
      <trkpt lat="45.77568" lon="4.80546">
        <ele>208</ele>
        <time>2010-04-03T10:25:55Z</time>
      </trkpt>
      <trkpt lat="45.77563" lon="4.80539">
        <ele>208</ele>
        <time>2010-04-03T10:25:57Z</time>
      </trkpt>
      <trkpt lat="45.77557" lon="4.80537">
        <ele>208</ele>
        <time>2010-04-03T10:26:00Z</time>
      </trkpt>
      <trkpt lat="45.77549" lon="4.8054">
        <ele>209</ele>
        <time>2010-04-03T10:26:02Z</time>
      </trkpt>
      <trkpt lat="45.77545" lon="4.80538">
        <ele>210</ele>
        <time>2010-04-03T10:26:05Z</time>
      </trkpt>
      <trkpt lat="45.77537" lon="4.80533">
        <ele>212</ele>
        <time>2010-04-03T10:26:17Z</time>
      </trkpt>
      <trkpt lat="45.77532" lon="4.80516">
        <ele>212</ele>
        <time>2010-04-03T10:26:21Z</time>
      </trkpt>
      <trkpt lat="45.77534" lon="4.80489">
        <ele>211</ele>
        <time>2010-04-03T10:26:24Z</time>
      </trkpt>
      <trkpt lat="45.77538" lon="4.8047">
        <ele>210</ele>
        <time>2010-04-03T10:26:27Z</time>
      </trkpt>
      <trkpt lat="45.77541" lon="4.80454">
        <ele>210</ele>
        <time>2010-04-03T10:26:29Z</time>
      </trkpt>
      <trkpt lat="45.77545" lon="4.80431">
        <ele>209</ele>
        <time>2010-04-03T10:26:32Z</time>
      </trkpt>
      <trkpt lat="45.7755" lon="4.80407">
        <ele>209</ele>
        <time>2010-04-03T10:26:35Z</time>
      </trkpt>
      <trkpt lat="45.77554" lon="4.80386">
        <ele>209</ele>
        <time>2010-04-03T10:26:38Z</time>
      </trkpt>
      <trkpt lat="45.77558" lon="4.80363">
        <ele>209</ele>
        <time>2010-04-03T10:26:40Z</time>
      </trkpt>
      <trkpt lat="45.7756" lon="4.80345">
        <ele>209</ele>
        <time>2010-04-03T10:26:43Z</time>
      </trkpt>
      <trkpt lat="45.77562" lon="4.8032">
        <ele>209</ele>
        <time>2010-04-03T10:26:45Z</time>
      </trkpt>
      <trkpt lat="45.77565" lon="4.803">
        <ele>210</ele>
        <time>2010-04-03T10:26:47Z</time>
      </trkpt>
      <trkpt lat="45.77567" lon="4.80283">
        <ele>210</ele>
        <time>2010-04-03T10:26:49Z</time>
      </trkpt>
      <trkpt lat="45.7757" lon="4.80267">
        <ele>210</ele>
        <time>2010-04-03T10:26:51Z</time>
      </trkpt>
      <trkpt lat="45.77571" lon="4.80247">
        <ele>211</ele>
        <time>2010-04-03T10:26:53Z</time>
      </trkpt>
      <trkpt lat="45.77571" lon="4.80226">
        <ele>211</ele>
        <time>2010-04-03T10:26:55Z</time>
      </trkpt>
      <trkpt lat="45.77574" lon="4.80205">
        <ele>212</ele>
        <time>2010-04-03T10:26:58Z</time>
      </trkpt>
      <trkpt lat="45.77576" lon="4.80177">
        <ele>213</ele>
        <time>2010-04-03T10:27:00Z</time>
      </trkpt>
      <trkpt lat="45.77577" lon="4.80142">
        <ele>213</ele>
        <time>2010-04-03T10:27:03Z</time>
      </trkpt>
      <trkpt lat="45.77584" lon="4.80105">
        <ele>216</ele>
        <time>2010-04-03T10:27:07Z</time>
      </trkpt>
      <trkpt lat="45.77589" lon="4.80081">
        <ele>216</ele>
        <time>2010-04-03T10:27:10Z</time>
      </trkpt>
      <trkpt lat="45.77593" lon="4.80057">
        <ele>216</ele>
        <time>2010-04-03T10:27:12Z</time>
      </trkpt>
      <trkpt lat="45.77598" lon="4.80027">
        <ele>216</ele>
        <time>2010-04-03T10:27:15Z</time>
      </trkpt>
      <trkpt lat="45.77601" lon="4.80006">
        <ele>215</ele>
        <time>2010-04-03T10:27:18Z</time>
      </trkpt>
      <trkpt lat="45.77603" lon="4.79986">
        <ele>215</ele>
        <time>2010-04-03T10:27:20Z</time>
      </trkpt>
      <trkpt lat="45.77604" lon="4.79967">
        <ele>215</ele>
        <time>2010-04-03T10:27:22Z</time>
      </trkpt>
      <trkpt lat="45.77607" lon="4.79942">
        <ele>215</ele>
        <time>2010-04-03T10:27:25Z</time>
      </trkpt>
      <trkpt lat="45.77611" lon="4.79926">
        <ele>214</ele>
        <time>2010-04-03T10:27:27Z</time>
      </trkpt>
      <trkpt lat="45.77614" lon="4.79908">
        <ele>214</ele>
        <time>2010-04-03T10:27:29Z</time>
      </trkpt>
      <trkpt lat="45.77619" lon="4.79882">
        <ele>212</ele>
        <time>2010-04-03T10:27:32Z</time>
      </trkpt>
      <trkpt lat="45.77622" lon="4.79862">
        <ele>212</ele>
        <time>2010-04-03T10:27:34Z</time>
      </trkpt>
      <trkpt lat="45.77626" lon="4.79842">
        <ele>211</ele>
        <time>2010-04-03T10:27:36Z</time>
      </trkpt>
      <trkpt lat="45.77631" lon="4.79823">
        <ele>211</ele>
        <time>2010-04-03T10:27:38Z</time>
      </trkpt>
      <trkpt lat="45.77636" lon="4.79797">
        <ele>212</ele>
        <time>2010-04-03T10:27:41Z</time>
      </trkpt>
      <trkpt lat="45.77641" lon="4.79767">
        <ele>212</ele>
        <time>2010-04-03T10:27:44Z</time>
      </trkpt>
      <trkpt lat="45.77642" lon="4.79744">
        <ele>213</ele>
        <time>2010-04-03T10:27:47Z</time>
      </trkpt>
      <trkpt lat="45.77644" lon="4.79719">
        <ele>214</ele>
        <time>2010-04-03T10:27:49Z</time>
      </trkpt>
      <trkpt lat="45.77647" lon="4.79693">
        <ele>215</ele>
        <time>2010-04-03T10:27:52Z</time>
      </trkpt>
      <trkpt lat="45.77649" lon="4.79677">
        <ele>216</ele>
        <time>2010-04-03T10:27:54Z</time>
      </trkpt>
      <trkpt lat="45.77651" lon="4.79663">
        <ele>217</ele>
        <time>2010-04-03T10:27:56Z</time>
      </trkpt>
      <trkpt lat="45.77652" lon="4.79649">
        <ele>218</ele>
        <time>2010-04-03T10:27:59Z</time>
      </trkpt>
      <trkpt lat="45.77651" lon="4.79632">
        <ele>219</ele>
        <time>2010-04-03T10:28:01Z</time>
      </trkpt>
      <trkpt lat="45.77648" lon="4.79613">
        <ele>219</ele>
        <time>2010-04-03T10:28:03Z</time>
      </trkpt>
      <trkpt lat="45.77643" lon="4.79595">
        <ele>220</ele>
        <time>2010-04-03T10:28:06Z</time>
      </trkpt>
      <trkpt lat="45.77636" lon="4.79579">
        <ele>220</ele>
        <time>2010-04-03T10:28:08Z</time>
      </trkpt>
      <trkpt lat="45.77629" lon="4.79567">
        <ele>220</ele>
        <time>2010-04-03T10:28:11Z</time>
      </trkpt>
      <trkpt lat="45.77621" lon="4.79554">
        <ele>221</ele>
        <time>2010-04-03T10:28:13Z</time>
      </trkpt>
      <trkpt lat="45.77614" lon="4.79541">
        <ele>221</ele>
        <time>2010-04-03T10:28:15Z</time>
      </trkpt>
      <trkpt lat="45.77606" lon="4.79529">
        <ele>221</ele>
        <time>2010-04-03T10:28:17Z</time>
      </trkpt>
      <trkpt lat="45.77598" lon="4.79518">
        <ele>221</ele>
        <time>2010-04-03T10:28:19Z</time>
      </trkpt>
      <trkpt lat="45.77587" lon="4.79505">
        <ele>221</ele>
        <time>2010-04-03T10:28:22Z</time>
      </trkpt>
      <trkpt lat="45.77576" lon="4.79493">
        <ele>220</ele>
        <time>2010-04-03T10:28:24Z</time>
      </trkpt>
      <trkpt lat="45.77564" lon="4.7948">
        <ele>220</ele>
        <time>2010-04-03T10:28:27Z</time>
      </trkpt>
      <trkpt lat="45.77554" lon="4.79468">
        <ele>219</ele>
        <time>2010-04-03T10:28:29Z</time>
      </trkpt>
      <trkpt lat="45.77545" lon="4.79458">
        <ele>220</ele>
        <time>2010-04-03T10:28:32Z</time>
      </trkpt>
      <trkpt lat="45.77537" lon="4.79449">
        <ele>220</ele>
        <time>2010-04-03T10:28:34Z</time>
      </trkpt>
      <trkpt lat="45.7753" lon="4.79441">
        <ele>220</ele>
        <time>2010-04-03T10:28:36Z</time>
      </trkpt>
      <trkpt lat="45.77522" lon="4.79433">
        <ele>219</ele>
        <time>2010-04-03T10:28:38Z</time>
      </trkpt>
      <trkpt lat="45.77512" lon="4.79421">
        <ele>220</ele>
        <time>2010-04-03T10:28:41Z</time>
      </trkpt>
      <trkpt lat="45.775" lon="4.79405">
        <ele>221</ele>
        <time>2010-04-03T10:28:45Z</time>
      </trkpt>
      <trkpt lat="45.7749" lon="4.79392">
        <ele>221</ele>
        <time>2010-04-03T10:28:47Z</time>
      </trkpt>
      <trkpt lat="45.7748" lon="4.79381">
        <ele>223</ele>
        <time>2010-04-03T10:28:50Z</time>
      </trkpt>
      <trkpt lat="45.77471" lon="4.79372">
        <ele>225</ele>
        <time>2010-04-03T10:28:52Z</time>
      </trkpt>
      <trkpt lat="45.77464" lon="4.79365">
        <ele>225</ele>
        <time>2010-04-03T10:28:54Z</time>
      </trkpt>
      <trkpt lat="45.77457" lon="4.79357">
        <ele>225</ele>
        <time>2010-04-03T10:28:57Z</time>
      </trkpt>
      <trkpt lat="45.7745" lon="4.79347">
        <ele>225</ele>
        <time>2010-04-03T10:28:59Z</time>
      </trkpt>
      <trkpt lat="45.77443" lon="4.79338">
        <ele>226</ele>
        <time>2010-04-03T10:29:01Z</time>
      </trkpt>
      <trkpt lat="45.77433" lon="4.7933">
        <ele>225</ele>
        <time>2010-04-03T10:29:03Z</time>
      </trkpt>
      <trkpt lat="45.77425" lon="4.79323">
        <ele>225</ele>
        <time>2010-04-03T10:29:05Z</time>
      </trkpt>
      <trkpt lat="45.77415" lon="4.79313">
        <ele>225</ele>
        <time>2010-04-03T10:29:08Z</time>
      </trkpt>
      <trkpt lat="45.77407" lon="4.79302">
        <ele>226</ele>
        <time>2010-04-03T10:29:10Z</time>
      </trkpt>
      <trkpt lat="45.77395" lon="4.79287">
        <ele>227</ele>
        <time>2010-04-03T10:29:13Z</time>
      </trkpt>
      <trkpt lat="45.7739" lon="4.79277">
        <ele>226</ele>
        <time>2010-04-03T10:29:16Z</time>
      </trkpt>
      <trkpt lat="45.77383" lon="4.79267">
        <ele>227</ele>
        <time>2010-04-03T10:29:18Z</time>
      </trkpt>
      <trkpt lat="45.77377" lon="4.79257">
        <ele>227</ele>
        <time>2010-04-03T10:29:20Z</time>
      </trkpt>
      <trkpt lat="45.77369" lon="4.79248">
        <ele>227</ele>
        <time>2010-04-03T10:29:22Z</time>
      </trkpt>
      <trkpt lat="45.77361" lon="4.79238">
        <ele>227</ele>
        <time>2010-04-03T10:29:24Z</time>
      </trkpt>
      <trkpt lat="45.77351" lon="4.79226">
        <ele>228</ele>
        <time>2010-04-03T10:29:27Z</time>
      </trkpt>
      <trkpt lat="45.77341" lon="4.79215">
        <ele>228</ele>
        <time>2010-04-03T10:29:29Z</time>
      </trkpt>
      <trkpt lat="45.7733" lon="4.79197">
        <ele>226</ele>
        <time>2010-04-03T10:29:33Z</time>
      </trkpt>
      <trkpt lat="45.77323" lon="4.79181">
        <ele>225</ele>
        <time>2010-04-03T10:29:35Z</time>
      </trkpt>
      <trkpt lat="45.77317" lon="4.79165">
        <ele>224</ele>
        <time>2010-04-03T10:29:38Z</time>
      </trkpt>
      <trkpt lat="45.77313" lon="4.79153">
        <ele>224</ele>
        <time>2010-04-03T10:29:40Z</time>
      </trkpt>
      <trkpt lat="45.77308" lon="4.79139">
        <ele>224</ele>
        <time>2010-04-03T10:29:43Z</time>
      </trkpt>
      <trkpt lat="45.77304" lon="4.79127">
        <ele>224</ele>
        <time>2010-04-03T10:29:45Z</time>
      </trkpt>
      <trkpt lat="45.77299" lon="4.79115">
        <ele>224</ele>
        <time>2010-04-03T10:29:48Z</time>
      </trkpt>
      <trkpt lat="45.77293" lon="4.791">
        <ele>224</ele>
        <time>2010-04-03T10:29:51Z</time>
      </trkpt>
      <trkpt lat="45.77289" lon="4.79092">
        <ele>224</ele>
        <time>2010-04-03T10:29:53Z</time>
      </trkpt>
      <trkpt lat="45.77283" lon="4.79084">
        <ele>223</ele>
        <time>2010-04-03T10:29:55Z</time>
      </trkpt>
      <trkpt lat="45.77271" lon="4.79081">
        <ele>225</ele>
        <time>2010-04-03T10:29:58Z</time>
      </trkpt>
      <trkpt lat="45.77257" lon="4.79092">
        <ele>227</ele>
        <time>2010-04-03T10:30:01Z</time>
      </trkpt>
      <trkpt lat="45.77243" lon="4.79102">
        <ele>228</ele>
        <time>2010-04-03T10:30:03Z</time>
      </trkpt>
      <trkpt lat="45.77226" lon="4.79097">
        <ele>226</ele>
        <time>2010-04-03T10:30:06Z</time>
      </trkpt>
      <trkpt lat="45.77213" lon="4.79088">
        <ele>225</ele>
        <time>2010-04-03T10:30:09Z</time>
      </trkpt>
      <trkpt lat="45.77203" lon="4.79078">
        <ele>223</ele>
        <time>2010-04-03T10:30:12Z</time>
      </trkpt>
      <trkpt lat="45.77195" lon="4.79071">
        <ele>223</ele>
        <time>2010-04-03T10:30:14Z</time>
      </trkpt>
      <trkpt lat="45.77188" lon="4.79062">
        <ele>222</ele>
        <time>2010-04-03T10:30:16Z</time>
      </trkpt>
      <trkpt lat="45.77182" lon="4.79053">
        <ele>222</ele>
        <time>2010-04-03T10:30:18Z</time>
      </trkpt>
      <trkpt lat="45.77176" lon="4.79043">
        <ele>223</ele>
        <time>2010-04-03T10:30:21Z</time>
      </trkpt>
      <trkpt lat="45.77168" lon="4.79033">
        <ele>222</ele>
        <time>2010-04-03T10:30:23Z</time>
      </trkpt>
      <trkpt lat="45.77159" lon="4.79022">
        <ele>221</ele>
        <time>2010-04-03T10:30:25Z</time>
      </trkpt>
      <trkpt lat="45.7715" lon="4.79011">
        <ele>221</ele>
        <time>2010-04-03T10:30:27Z</time>
      </trkpt>
      <trkpt lat="45.77138" lon="4.79001">
        <ele>221</ele>
        <time>2010-04-03T10:30:29Z</time>
      </trkpt>
      <trkpt lat="45.77122" lon="4.78989">
        <ele>222</ele>
        <time>2010-04-03T10:30:32Z</time>
      </trkpt>
      <trkpt lat="45.7711" lon="4.78978">
        <ele>222</ele>
        <time>2010-04-03T10:30:35Z</time>
      </trkpt>
      <trkpt lat="45.771" lon="4.78965">
        <ele>222</ele>
        <time>2010-04-03T10:30:37Z</time>
      </trkpt>
      <trkpt lat="45.77091" lon="4.78952">
        <ele>223</ele>
        <time>2010-04-03T10:30:40Z</time>
      </trkpt>
      <trkpt lat="45.77081" lon="4.78939">
        <ele>223</ele>
        <time>2010-04-03T10:30:42Z</time>
      </trkpt>
      <trkpt lat="45.77071" lon="4.78927">
        <ele>224</ele>
        <time>2010-04-03T10:30:45Z</time>
      </trkpt>
      <trkpt lat="45.7706" lon="4.78915">
        <ele>224</ele>
        <time>2010-04-03T10:30:48Z</time>
      </trkpt>
      <trkpt lat="45.7705" lon="4.78902">
        <ele>224</ele>
        <time>2010-04-03T10:30:51Z</time>
      </trkpt>
      <trkpt lat="45.77042" lon="4.78888">
        <ele>224</ele>
        <time>2010-04-03T10:30:53Z</time>
      </trkpt>
      <trkpt lat="45.77036" lon="4.78873">
        <ele>224</ele>
        <time>2010-04-03T10:30:56Z</time>
      </trkpt>
      <trkpt lat="45.77037" lon="4.78859">
        <ele>224</ele>
        <time>2010-04-03T10:30:59Z</time>
      </trkpt>
      <trkpt lat="45.77047" lon="4.78847">
        <ele>225</ele>
        <time>2010-04-03T10:31:02Z</time>
      </trkpt>
      <trkpt lat="45.7706" lon="4.78843">
        <ele>226</ele>
        <time>2010-04-03T10:31:04Z</time>
      </trkpt>
      <trkpt lat="45.77072" lon="4.78839">
        <ele>225</ele>
        <time>2010-04-03T10:31:06Z</time>
      </trkpt>
      <trkpt lat="45.77084" lon="4.78831">
        <ele>226</ele>
        <time>2010-04-03T10:31:09Z</time>
      </trkpt>
      <trkpt lat="45.77093" lon="4.7882">
        <ele>226</ele>
        <time>2010-04-03T10:31:11Z</time>
      </trkpt>
      <trkpt lat="45.77102" lon="4.78801">
        <ele>226</ele>
        <time>2010-04-03T10:31:14Z</time>
      </trkpt>
      <trkpt lat="45.77104" lon="4.78788">
        <ele>226</ele>
        <time>2010-04-03T10:31:16Z</time>
      </trkpt>
      <trkpt lat="45.77105" lon="4.78768">
        <ele>228</ele>
        <time>2010-04-03T10:31:19Z</time>
      </trkpt>
      <trkpt lat="45.77104" lon="4.78754">
        <ele>229</ele>
        <time>2010-04-03T10:31:21Z</time>
      </trkpt>
      <trkpt lat="45.771" lon="4.7874">
        <ele>229</ele>
        <time>2010-04-03T10:31:23Z</time>
      </trkpt>
      <trkpt lat="45.77094" lon="4.78728">
        <ele>229</ele>
        <time>2010-04-03T10:31:25Z</time>
      </trkpt>
      <trkpt lat="45.77085" lon="4.78722">
        <ele>229</ele>
        <time>2010-04-03T10:31:27Z</time>
      </trkpt>
      <trkpt lat="45.77072" lon="4.78719">
        <ele>229</ele>
        <time>2010-04-03T10:31:30Z</time>
      </trkpt>
      <trkpt lat="45.77059" lon="4.7872">
        <ele>230</ele>
        <time>2010-04-03T10:31:32Z</time>
      </trkpt>
      <trkpt lat="45.77044" lon="4.78725">
        <ele>232</ele>
        <time>2010-04-03T10:31:35Z</time>
      </trkpt>
      <trkpt lat="45.77031" lon="4.78736">
        <ele>233</ele>
        <time>2010-04-03T10:31:38Z</time>
      </trkpt>
      <trkpt lat="45.77019" lon="4.78756">
        <ele>235</ele>
        <time>2010-04-03T10:31:41Z</time>
      </trkpt>
      <trkpt lat="45.77014" lon="4.7878">
        <ele>235</ele>
        <time>2010-04-03T10:31:44Z</time>
      </trkpt>
      <trkpt lat="45.77014" lon="4.78801">
        <ele>236</ele>
        <time>2010-04-03T10:31:46Z</time>
      </trkpt>
      <trkpt lat="45.77013" lon="4.78821">
        <ele>236</ele>
        <time>2010-04-03T10:31:49Z</time>
      </trkpt>
      <trkpt lat="45.77006" lon="4.78835">
        <ele>235</ele>
        <time>2010-04-03T10:31:52Z</time>
      </trkpt>
      <trkpt lat="45.7699" lon="4.78835">
        <ele>235</ele>
        <time>2010-04-03T10:31:56Z</time>
      </trkpt>
      <trkpt lat="45.7698" lon="4.78817">
        <ele>236</ele>
        <time>2010-04-03T10:31:59Z</time>
      </trkpt>
      <trkpt lat="45.76971" lon="4.78805">
        <ele>235</ele>
        <time>2010-04-03T10:32:01Z</time>
      </trkpt>
      <trkpt lat="45.76962" lon="4.78793">
        <ele>235</ele>
        <time>2010-04-03T10:32:03Z</time>
      </trkpt>
      <trkpt lat="45.76953" lon="4.78784">
        <ele>235</ele>
        <time>2010-04-03T10:32:05Z</time>
      </trkpt>
      <trkpt lat="45.76941" lon="4.78772">
        <ele>236</ele>
        <time>2010-04-03T10:32:07Z</time>
      </trkpt>
      <trkpt lat="45.76928" lon="4.78753">
        <ele>236</ele>
        <time>2010-04-03T10:32:10Z</time>
      </trkpt>
      <trkpt lat="45.76916" lon="4.78736">
        <ele>237</ele>
        <time>2010-04-03T10:32:13Z</time>
      </trkpt>
      <trkpt lat="45.76903" lon="4.78719">
        <ele>238</ele>
        <time>2010-04-03T10:32:16Z</time>
      </trkpt>
      <trkpt lat="45.76895" lon="4.78709">
        <ele>238</ele>
        <time>2010-04-03T10:32:18Z</time>
      </trkpt>
      <trkpt lat="45.76883" lon="4.78694">
        <ele>238</ele>
        <time>2010-04-03T10:32:21Z</time>
      </trkpt>
      <trkpt lat="45.76873" lon="4.78682">
        <ele>239</ele>
        <time>2010-04-03T10:32:23Z</time>
      </trkpt>
      <trkpt lat="45.76864" lon="4.78669">
        <ele>240</ele>
        <time>2010-04-03T10:32:26Z</time>
      </trkpt>
      <trkpt lat="45.76848" lon="4.78648">
        <ele>240</ele>
        <time>2010-04-03T10:32:30Z</time>
      </trkpt>
      <trkpt lat="45.7684" lon="4.78639">
        <ele>240</ele>
        <time>2010-04-03T10:32:33Z</time>
      </trkpt>
      <trkpt lat="45.76831" lon="4.78628">
        <ele>241</ele>
        <time>2010-04-03T10:32:35Z</time>
      </trkpt>
      <trkpt lat="45.76823" lon="4.78616">
        <ele>241</ele>
        <time>2010-04-03T10:32:38Z</time>
      </trkpt>
      <trkpt lat="45.76813" lon="4.78605">
        <ele>241</ele>
        <time>2010-04-03T10:32:40Z</time>
      </trkpt>
      <trkpt lat="45.76801" lon="4.78592">
        <ele>242</ele>
        <time>2010-04-03T10:32:44Z</time>
      </trkpt>
      <trkpt lat="45.76792" lon="4.78582">
        <ele>242</ele>
        <time>2010-04-03T10:32:46Z</time>
      </trkpt>
      <trkpt lat="45.76782" lon="4.78572">
        <ele>243</ele>
        <time>2010-04-03T10:32:49Z</time>
      </trkpt>
      <trkpt lat="45.76772" lon="4.78562">
        <ele>244</ele>
        <time>2010-04-03T10:32:51Z</time>
      </trkpt>
      <trkpt lat="45.76761" lon="4.78552">
        <ele>244</ele>
        <time>2010-04-03T10:32:54Z</time>
      </trkpt>
      <trkpt lat="45.7675" lon="4.7854">
        <ele>243</ele>
        <time>2010-04-03T10:32:58Z</time>
      </trkpt>
      <trkpt lat="45.76743" lon="4.78532">
        <ele>243</ele>
        <time>2010-04-03T10:33:00Z</time>
      </trkpt>
      <trkpt lat="45.76736" lon="4.78523">
        <ele>243</ele>
        <time>2010-04-03T10:33:02Z</time>
      </trkpt>
      <trkpt lat="45.76725" lon="4.78512">
        <ele>244</ele>
        <time>2010-04-03T10:33:05Z</time>
      </trkpt>
      <trkpt lat="45.76712" lon="4.78499">
        <ele>245</ele>
        <time>2010-04-03T10:33:08Z</time>
      </trkpt>
      <trkpt lat="45.76702" lon="4.78488">
        <ele>245</ele>
        <time>2010-04-03T10:33:10Z</time>
      </trkpt>
      <trkpt lat="45.76692" lon="4.78479">
        <ele>245</ele>
        <time>2010-04-03T10:33:13Z</time>
      </trkpt>
      <trkpt lat="45.76683" lon="4.7847">
        <ele>246</ele>
        <time>2010-04-03T10:33:16Z</time>
      </trkpt>
      <trkpt lat="45.76675" lon="4.78461">
        <ele>247</ele>
        <time>2010-04-03T10:33:18Z</time>
      </trkpt>
      <trkpt lat="45.76667" lon="4.78453">
        <ele>247</ele>
        <time>2010-04-03T10:33:21Z</time>
      </trkpt>
      <trkpt lat="45.7666" lon="4.78445">
        <ele>247</ele>
        <time>2010-04-03T10:33:23Z</time>
      </trkpt>
      <trkpt lat="45.76654" lon="4.78439">
        <ele>246</ele>
        <time>2010-04-03T10:33:26Z</time>
      </trkpt>
      <trkpt lat="45.76646" lon="4.7843">
        <ele>246</ele>
        <time>2010-04-03T10:33:28Z</time>
      </trkpt>
      <trkpt lat="45.76639" lon="4.78423">
        <ele>246</ele>
        <time>2010-04-03T10:33:30Z</time>
      </trkpt>
      <trkpt lat="45.76631" lon="4.78413">
        <ele>247</ele>
        <time>2010-04-03T10:33:33Z</time>
      </trkpt>
      <trkpt lat="45.76619" lon="4.78394">
        <ele>247</ele>
        <time>2010-04-03T10:33:36Z</time>
      </trkpt>
      <trkpt lat="45.76611" lon="4.78386">
        <ele>247</ele>
        <time>2010-04-03T10:33:38Z</time>
      </trkpt>
      <trkpt lat="45.76604" lon="4.78378">
        <ele>247</ele>
        <time>2010-04-03T10:33:41Z</time>
      </trkpt>
      <trkpt lat="45.76597" lon="4.78371">
        <ele>247</ele>
        <time>2010-04-03T10:33:43Z</time>
      </trkpt>
      <trkpt lat="45.7659" lon="4.78363">
        <ele>247</ele>
        <time>2010-04-03T10:33:45Z</time>
      </trkpt>
      <trkpt lat="45.76582" lon="4.78354">
        <ele>247</ele>
        <time>2010-04-03T10:33:47Z</time>
      </trkpt>
      <trkpt lat="45.76575" lon="4.78345">
        <ele>247</ele>
        <time>2010-04-03T10:33:49Z</time>
      </trkpt>
      <trkpt lat="45.76569" lon="4.78337">
        <ele>247</ele>
        <time>2010-04-03T10:33:51Z</time>
      </trkpt>
      <trkpt lat="45.76562" lon="4.7833">
        <ele>247</ele>
        <time>2010-04-03T10:33:53Z</time>
      </trkpt>
      <trkpt lat="45.76557" lon="4.78323">
        <ele>248</ele>
        <time>2010-04-03T10:33:55Z</time>
      </trkpt>
      <trkpt lat="45.7655" lon="4.78315">
        <ele>249</ele>
        <time>2010-04-03T10:33:57Z</time>
      </trkpt>
      <trkpt lat="45.76544" lon="4.78306">
        <ele>250</ele>
        <time>2010-04-03T10:34:00Z</time>
      </trkpt>
      <trkpt lat="45.76537" lon="4.78297">
        <ele>251</ele>
        <time>2010-04-03T10:34:02Z</time>
      </trkpt>
      <trkpt lat="45.7653" lon="4.78288">
        <ele>251</ele>
        <time>2010-04-03T10:34:04Z</time>
      </trkpt>
      <trkpt lat="45.76524" lon="4.78279">
        <ele>251</ele>
        <time>2010-04-03T10:34:06Z</time>
      </trkpt>
      <trkpt lat="45.76517" lon="4.78271">
        <ele>251</ele>
        <time>2010-04-03T10:34:08Z</time>
      </trkpt>
      <trkpt lat="45.76507" lon="4.78257">
        <ele>251</ele>
        <time>2010-04-03T10:34:12Z</time>
      </trkpt>
      <trkpt lat="45.765" lon="4.78249">
        <ele>251</ele>
        <time>2010-04-03T10:34:14Z</time>
      </trkpt>
      <trkpt lat="45.76492" lon="4.7824">
        <ele>251</ele>
        <time>2010-04-03T10:34:16Z</time>
      </trkpt>
      <trkpt lat="45.76484" lon="4.78233">
        <ele>251</ele>
        <time>2010-04-03T10:34:18Z</time>
      </trkpt>
      <trkpt lat="45.76476" lon="4.78225">
        <ele>252</ele>
        <time>2010-04-03T10:34:20Z</time>
      </trkpt>
      <trkpt lat="45.76469" lon="4.78218">
        <ele>253</ele>
        <time>2010-04-03T10:34:22Z</time>
      </trkpt>
      <trkpt lat="45.76463" lon="4.7821">
        <ele>254</ele>
        <time>2010-04-03T10:34:24Z</time>
      </trkpt>
      <trkpt lat="45.76457" lon="4.78202">
        <ele>255</ele>
        <time>2010-04-03T10:34:27Z</time>
      </trkpt>
      <trkpt lat="45.7645" lon="4.78194">
        <ele>257</ele>
        <time>2010-04-03T10:34:29Z</time>
      </trkpt>
      <trkpt lat="45.76443" lon="4.78185">
        <ele>258</ele>
        <time>2010-04-03T10:34:31Z</time>
      </trkpt>
      <trkpt lat="45.76436" lon="4.78176">
        <ele>259</ele>
        <time>2010-04-03T10:34:33Z</time>
      </trkpt>
      <trkpt lat="45.76428" lon="4.78167">
        <ele>260</ele>
        <time>2010-04-03T10:34:35Z</time>
      </trkpt>
      <trkpt lat="45.76419" lon="4.78156">
        <ele>261</ele>
        <time>2010-04-03T10:34:38Z</time>
      </trkpt>
      <trkpt lat="45.76412" lon="4.78146">
        <ele>261</ele>
        <time>2010-04-03T10:34:40Z</time>
      </trkpt>
      <trkpt lat="45.76405" lon="4.78137">
        <ele>261</ele>
        <time>2010-04-03T10:34:42Z</time>
      </trkpt>
      <trkpt lat="45.76398" lon="4.78129">
        <ele>262</ele>
        <time>2010-04-03T10:34:44Z</time>
      </trkpt>
      <trkpt lat="45.76392" lon="4.78122">
        <ele>263</ele>
        <time>2010-04-03T10:34:47Z</time>
      </trkpt>
      <trkpt lat="45.76386" lon="4.78115">
        <ele>263</ele>
        <time>2010-04-03T10:34:49Z</time>
      </trkpt>
      <trkpt lat="45.7638" lon="4.78107">
        <ele>263</ele>
        <time>2010-04-03T10:34:51Z</time>
      </trkpt>
      <trkpt lat="45.76369" lon="4.78097">
        <ele>263</ele>
        <time>2010-04-03T10:34:54Z</time>
      </trkpt>
      <trkpt lat="45.76358" lon="4.78089">
        <ele>264</ele>
        <time>2010-04-03T10:34:56Z</time>
      </trkpt>
      <trkpt lat="45.76344" lon="4.78076">
        <ele>263</ele>
        <time>2010-04-03T10:34:59Z</time>
      </trkpt>
      <trkpt lat="45.76334" lon="4.78063">
        <ele>264</ele>
        <time>2010-04-03T10:35:01Z</time>
      </trkpt>
      <trkpt lat="45.76323" lon="4.7805">
        <ele>264</ele>
        <time>2010-04-03T10:35:04Z</time>
      </trkpt>
      <trkpt lat="45.76311" lon="4.78035">
        <ele>265</ele>
        <time>2010-04-03T10:35:06Z</time>
      </trkpt>
      <trkpt lat="45.76299" lon="4.7802">
        <ele>267</ele>
        <time>2010-04-03T10:35:09Z</time>
      </trkpt>
      <trkpt lat="45.76288" lon="4.78007">
        <ele>267</ele>
        <time>2010-04-03T10:35:12Z</time>
      </trkpt>
      <trkpt lat="45.76276" lon="4.77993">
        <ele>266</ele>
        <time>2010-04-03T10:35:14Z</time>
      </trkpt>
      <trkpt lat="45.76263" lon="4.77978">
        <ele>266</ele>
        <time>2010-04-03T10:35:17Z</time>
      </trkpt>
      <trkpt lat="45.76251" lon="4.77965">
        <ele>266</ele>
        <time>2010-04-03T10:35:20Z</time>
      </trkpt>
      <trkpt lat="45.76239" lon="4.77951">
        <ele>265</ele>
        <time>2010-04-03T10:35:22Z</time>
      </trkpt>
      <trkpt lat="45.76228" lon="4.77937">
        <ele>265</ele>
        <time>2010-04-03T10:35:25Z</time>
      </trkpt>
      <trkpt lat="45.76217" lon="4.77924">
        <ele>264</ele>
        <time>2010-04-03T10:35:27Z</time>
      </trkpt>
      <trkpt lat="45.76206" lon="4.7791">
        <ele>264</ele>
        <time>2010-04-03T10:35:30Z</time>
      </trkpt>
      <trkpt lat="45.76195" lon="4.77898">
        <ele>263</ele>
        <time>2010-04-03T10:35:33Z</time>
      </trkpt>
      <trkpt lat="45.76185" lon="4.77886">
        <ele>263</ele>
        <time>2010-04-03T10:35:35Z</time>
      </trkpt>
      <trkpt lat="45.76176" lon="4.77874">
        <ele>263</ele>
        <time>2010-04-03T10:35:38Z</time>
      </trkpt>
      <trkpt lat="45.76166" lon="4.77862">
        <ele>262</ele>
        <time>2010-04-03T10:35:40Z</time>
      </trkpt>
      <trkpt lat="45.76155" lon="4.77849">
        <ele>262</ele>
        <time>2010-04-03T10:35:43Z</time>
      </trkpt>
      <trkpt lat="45.76145" lon="4.77836">
        <ele>263</ele>
        <time>2010-04-03T10:35:45Z</time>
      </trkpt>
      <trkpt lat="45.76134" lon="4.77822">
        <ele>263</ele>
        <time>2010-04-03T10:35:48Z</time>
      </trkpt>
      <trkpt lat="45.76118" lon="4.77806">
        <ele>263</ele>
        <time>2010-04-03T10:35:51Z</time>
      </trkpt>
      <trkpt lat="45.76106" lon="4.77794">
        <ele>264</ele>
        <time>2010-04-03T10:35:54Z</time>
      </trkpt>
      <trkpt lat="45.76093" lon="4.77781">
        <ele>264</ele>
        <time>2010-04-03T10:35:56Z</time>
      </trkpt>
      <trkpt lat="45.7608" lon="4.77769">
        <ele>264</ele>
        <time>2010-04-03T10:35:59Z</time>
      </trkpt>
      <trkpt lat="45.76068" lon="4.77756">
        <ele>264</ele>
        <time>2010-04-03T10:36:01Z</time>
      </trkpt>
      <trkpt lat="45.76056" lon="4.77742">
        <ele>264</ele>
        <time>2010-04-03T10:36:04Z</time>
      </trkpt>
      <trkpt lat="45.76044" lon="4.77728">
        <ele>265</ele>
        <time>2010-04-03T10:36:07Z</time>
      </trkpt>
      <trkpt lat="45.76033" lon="4.77714">
        <ele>265</ele>
        <time>2010-04-03T10:36:09Z</time>
      </trkpt>
      <trkpt lat="45.76022" lon="4.777">
        <ele>265</ele>
        <time>2010-04-03T10:36:12Z</time>
      </trkpt>
      <trkpt lat="45.7601" lon="4.77687">
        <ele>266</ele>
        <time>2010-04-03T10:36:14Z</time>
      </trkpt>
      <trkpt lat="45.75998" lon="4.77674">
        <ele>267</ele>
        <time>2010-04-03T10:36:17Z</time>
      </trkpt>
      <trkpt lat="45.75986" lon="4.7766">
        <ele>267</ele>
        <time>2010-04-03T10:36:19Z</time>
      </trkpt>
      <trkpt lat="45.75975" lon="4.77648">
        <ele>267</ele>
        <time>2010-04-03T10:36:22Z</time>
      </trkpt>
      <trkpt lat="45.75965" lon="4.77637">
        <ele>267</ele>
        <time>2010-04-03T10:36:24Z</time>
      </trkpt>
      <trkpt lat="45.7595" lon="4.77621">
        <ele>267</ele>
        <time>2010-04-03T10:36:27Z</time>
      </trkpt>
      <trkpt lat="45.75936" lon="4.77603">
        <ele>267</ele>
        <time>2010-04-03T10:36:30Z</time>
      </trkpt>
      <trkpt lat="45.75927" lon="4.77591">
        <ele>268</ele>
        <time>2010-04-03T10:36:32Z</time>
      </trkpt>
      <trkpt lat="45.75916" lon="4.77576">
        <ele>268</ele>
        <time>2010-04-03T10:36:35Z</time>
      </trkpt>
      <trkpt lat="45.75905" lon="4.77562">
        <ele>268</ele>
        <time>2010-04-03T10:36:37Z</time>
      </trkpt>
      <trkpt lat="45.75895" lon="4.77548">
        <ele>269</ele>
        <time>2010-04-03T10:36:40Z</time>
      </trkpt>
      <trkpt lat="45.75884" lon="4.77534">
        <ele>269</ele>
        <time>2010-04-03T10:36:42Z</time>
      </trkpt>
      <trkpt lat="45.75872" lon="4.77519">
        <ele>270</ele>
        <time>2010-04-03T10:36:45Z</time>
      </trkpt>
      <trkpt lat="45.7586" lon="4.77503">
        <ele>270</ele>
        <time>2010-04-03T10:36:48Z</time>
      </trkpt>
      <trkpt lat="45.75845" lon="4.77486">
        <ele>270</ele>
        <time>2010-04-03T10:36:50Z</time>
      </trkpt>
      <trkpt lat="45.75832" lon="4.77472">
        <ele>269</ele>
        <time>2010-04-03T10:36:53Z</time>
      </trkpt>
      <trkpt lat="45.75818" lon="4.77458">
        <ele>269</ele>
        <time>2010-04-03T10:36:55Z</time>
      </trkpt>
      <trkpt lat="45.75805" lon="4.77444">
        <ele>270</ele>
        <time>2010-04-03T10:36:58Z</time>
      </trkpt>
      <trkpt lat="45.75791" lon="4.77429">
        <ele>270</ele>
        <time>2010-04-03T10:37:00Z</time>
      </trkpt>
      <trkpt lat="45.75778" lon="4.77415">
        <ele>269</ele>
        <time>2010-04-03T10:37:03Z</time>
      </trkpt>
      <trkpt lat="45.75766" lon="4.77402">
        <ele>268</ele>
        <time>2010-04-03T10:37:05Z</time>
      </trkpt>
      <trkpt lat="45.75757" lon="4.77395">
        <ele>268</ele>
        <time>2010-04-03T10:37:08Z</time>
      </trkpt>
      <trkpt lat="45.7574" lon="4.77379">
        <ele>267</ele>
        <time>2010-04-03T10:37:11Z</time>
      </trkpt>
      <trkpt lat="45.75725" lon="4.77364">
        <ele>266</ele>
        <time>2010-04-03T10:37:14Z</time>
      </trkpt>
      <trkpt lat="45.75711" lon="4.7734">
        <ele>266</ele>
        <time>2010-04-03T10:37:17Z</time>
      </trkpt>
      <trkpt lat="45.75703" lon="4.77318">
        <ele>267</ele>
        <time>2010-04-03T10:37:20Z</time>
      </trkpt>
      <trkpt lat="45.75689" lon="4.77297">
        <ele>269</ele>
        <time>2010-04-03T10:37:23Z</time>
      </trkpt>
      <trkpt lat="45.75674" lon="4.77282">
        <ele>269</ele>
        <time>2010-04-03T10:37:25Z</time>
      </trkpt>
      <trkpt lat="45.7566" lon="4.77267">
        <ele>270</ele>
        <time>2010-04-03T10:37:28Z</time>
      </trkpt>
      <trkpt lat="45.75649" lon="4.77254">
        <ele>271</ele>
        <time>2010-04-03T10:37:30Z</time>
      </trkpt>
      <trkpt lat="45.75637" lon="4.77241">
        <ele>270</ele>
        <time>2010-04-03T10:37:32Z</time>
      </trkpt>
      <trkpt lat="45.75624" lon="4.77228">
        <ele>270</ele>
        <time>2010-04-03T10:37:34Z</time>
      </trkpt>
      <trkpt lat="45.75609" lon="4.77213">
        <ele>271</ele>
        <time>2010-04-03T10:37:37Z</time>
      </trkpt>
      <trkpt lat="45.75594" lon="4.77197">
        <ele>271</ele>
        <time>2010-04-03T10:37:39Z</time>
      </trkpt>
      <trkpt lat="45.7558" lon="4.77181">
        <ele>271</ele>
        <time>2010-04-03T10:37:42Z</time>
      </trkpt>
      <trkpt lat="45.75565" lon="4.77165">
        <ele>270</ele>
        <time>2010-04-03T10:37:44Z</time>
      </trkpt>
      <trkpt lat="45.75551" lon="4.77149">
        <ele>268</ele>
        <time>2010-04-03T10:37:47Z</time>
      </trkpt>
      <trkpt lat="45.75536" lon="4.77134">
        <ele>268</ele>
        <time>2010-04-03T10:37:50Z</time>
      </trkpt>
      <trkpt lat="45.75522" lon="4.77118">
        <ele>268</ele>
        <time>2010-04-03T10:37:52Z</time>
      </trkpt>
      <trkpt lat="45.75507" lon="4.771">
        <ele>267</ele>
        <time>2010-04-03T10:37:55Z</time>
      </trkpt>
      <trkpt lat="45.75487" lon="4.77078">
        <ele>265</ele>
        <time>2010-04-03T10:37:58Z</time>
      </trkpt>
      <trkpt lat="45.75471" lon="4.77059">
        <ele>265</ele>
        <time>2010-04-03T10:38:01Z</time>
      </trkpt>
      <trkpt lat="45.75453" lon="4.77039">
        <ele>264</ele>
        <time>2010-04-03T10:38:04Z</time>
      </trkpt>
      <trkpt lat="45.75437" lon="4.77022">
        <ele>263</ele>
        <time>2010-04-03T10:38:07Z</time>
      </trkpt>
      <trkpt lat="45.75426" lon="4.77009">
        <ele>263</ele>
        <time>2010-04-03T10:38:10Z</time>
      </trkpt>
      <trkpt lat="45.75416" lon="4.76996">
        <ele>263</ele>
        <time>2010-04-03T10:38:13Z</time>
      </trkpt>
      <trkpt lat="45.75402" lon="4.76982">
        <ele>262</ele>
        <time>2010-04-03T10:38:16Z</time>
      </trkpt>
      <trkpt lat="45.7539" lon="4.76969">
        <ele>261</ele>
        <time>2010-04-03T10:38:18Z</time>
      </trkpt>
      <trkpt lat="45.75379" lon="4.76956">
        <ele>262</ele>
        <time>2010-04-03T10:38:21Z</time>
      </trkpt>
      <trkpt lat="45.75368" lon="4.76945">
        <ele>262</ele>
        <time>2010-04-03T10:38:23Z</time>
      </trkpt>
      <trkpt lat="45.75354" lon="4.7693">
        <ele>262</ele>
        <time>2010-04-03T10:38:26Z</time>
      </trkpt>
      <trkpt lat="45.75339" lon="4.76914">
        <ele>261</ele>
        <time>2010-04-03T10:38:29Z</time>
      </trkpt>
      <trkpt lat="45.75325" lon="4.76897">
        <ele>262</ele>
        <time>2010-04-03T10:38:32Z</time>
      </trkpt>
      <trkpt lat="45.75313" lon="4.76883">
        <ele>262</ele>
        <time>2010-04-03T10:38:35Z</time>
      </trkpt>
      <trkpt lat="45.75301" lon="4.76867">
        <ele>263</ele>
        <time>2010-04-03T10:38:38Z</time>
      </trkpt>
      <trkpt lat="45.75292" lon="4.76854">
        <ele>262</ele>
        <time>2010-04-03T10:38:40Z</time>
      </trkpt>
      <trkpt lat="45.75282" lon="4.76841">
        <ele>262</ele>
        <time>2010-04-03T10:38:42Z</time>
      </trkpt>
      <trkpt lat="45.75273" lon="4.7683">
        <ele>262</ele>
        <time>2010-04-03T10:38:44Z</time>
      </trkpt>
      <trkpt lat="45.75263" lon="4.76818">
        <ele>262</ele>
        <time>2010-04-03T10:38:46Z</time>
      </trkpt>
      <trkpt lat="45.75254" lon="4.76806">
        <ele>262</ele>
        <time>2010-04-03T10:38:48Z</time>
      </trkpt>
      <trkpt lat="45.75239" lon="4.76789">
        <ele>262</ele>
        <time>2010-04-03T10:38:52Z</time>
      </trkpt>
      <trkpt lat="45.75228" lon="4.76776">
        <ele>262</ele>
        <time>2010-04-03T10:38:54Z</time>
      </trkpt>
      <trkpt lat="45.75213" lon="4.76759">
        <ele>262</ele>
        <time>2010-04-03T10:38:57Z</time>
      </trkpt>
      <trkpt lat="45.75198" lon="4.76742">
        <ele>262</ele>
        <time>2010-04-03T10:39:01Z</time>
      </trkpt>
      <trkpt lat="45.75188" lon="4.76732">
        <ele>262</ele>
        <time>2010-04-03T10:39:03Z</time>
      </trkpt>
      <trkpt lat="45.75178" lon="4.76721">
        <ele>261</ele>
        <time>2010-04-03T10:39:05Z</time>
      </trkpt>
      <trkpt lat="45.75169" lon="4.76711">
        <ele>260</ele>
        <time>2010-04-03T10:39:07Z</time>
      </trkpt>
      <trkpt lat="45.75157" lon="4.76698">
        <ele>260</ele>
        <time>2010-04-03T10:39:10Z</time>
      </trkpt>
      <trkpt lat="45.75148" lon="4.76688">
        <ele>260</ele>
        <time>2010-04-03T10:39:12Z</time>
      </trkpt>
      <trkpt lat="45.75135" lon="4.76675">
        <ele>260</ele>
        <time>2010-04-03T10:39:15Z</time>
      </trkpt>
      <trkpt lat="45.75123" lon="4.76661">
        <ele>260</ele>
        <time>2010-04-03T10:39:18Z</time>
      </trkpt>
      <trkpt lat="45.75115" lon="4.76649">
        <ele>261</ele>
        <time>2010-04-03T10:39:20Z</time>
      </trkpt>
      <trkpt lat="45.75106" lon="4.76638">
        <ele>261</ele>
        <time>2010-04-03T10:39:22Z</time>
      </trkpt>
      <trkpt lat="45.75092" lon="4.76623">
        <ele>261</ele>
        <time>2010-04-03T10:39:25Z</time>
      </trkpt>
      <trkpt lat="45.75081" lon="4.7661">
        <ele>261</ele>
        <time>2010-04-03T10:39:27Z</time>
      </trkpt>
      <trkpt lat="45.75074" lon="4.76596">
        <ele>260</ele>
        <time>2010-04-03T10:39:30Z</time>
      </trkpt>
      <trkpt lat="45.75075" lon="4.7658">
        <ele>259</ele>
        <time>2010-04-03T10:39:32Z</time>
      </trkpt>
      <trkpt lat="45.75076" lon="4.76556">
        <ele>257</ele>
        <time>2010-04-03T10:39:35Z</time>
      </trkpt>
      <trkpt lat="45.75071" lon="4.76539">
        <ele>255</ele>
        <time>2010-04-03T10:39:38Z</time>
      </trkpt>
      <trkpt lat="45.75064" lon="4.76521">
        <ele>254</ele>
        <time>2010-04-03T10:39:40Z</time>
      </trkpt>
      <trkpt lat="45.75061" lon="4.76501">
        <ele>255</ele>
        <time>2010-04-03T10:39:43Z</time>
      </trkpt>
      <trkpt lat="45.75061" lon="4.76482">
        <ele>257</ele>
        <time>2010-04-03T10:39:45Z</time>
      </trkpt>
      <trkpt lat="45.75065" lon="4.76462">
        <ele>258</ele>
        <time>2010-04-03T10:39:47Z</time>
      </trkpt>
      <trkpt lat="45.75077" lon="4.76444">
        <ele>259</ele>
        <time>2010-04-03T10:39:49Z</time>
      </trkpt>
      <trkpt lat="45.7509" lon="4.76424">
        <ele>259</ele>
        <time>2010-04-03T10:39:51Z</time>
      </trkpt>
      <trkpt lat="45.75107" lon="4.76406">
        <ele>258</ele>
        <time>2010-04-03T10:39:53Z</time>
      </trkpt>
      <trkpt lat="45.75128" lon="4.76385">
        <ele>258</ele>
        <time>2010-04-03T10:39:55Z</time>
      </trkpt>
      <trkpt lat="45.75153" lon="4.76358">
        <ele>257</ele>
        <time>2010-04-03T10:39:58Z</time>
      </trkpt>
      <trkpt lat="45.75191" lon="4.76313">
        <ele>254</ele>
        <time>2010-04-03T10:40:03Z</time>
      </trkpt>
      <trkpt lat="45.75208" lon="4.76291">
        <ele>253</ele>
        <time>2010-04-03T10:40:05Z</time>
      </trkpt>
      <trkpt lat="45.75215" lon="4.76267">
        <ele>252</ele>
        <time>2010-04-03T10:40:07Z</time>
      </trkpt>
      <trkpt lat="45.75217" lon="4.76242">
        <ele>251</ele>
        <time>2010-04-03T10:40:09Z</time>
      </trkpt>
      <trkpt lat="45.75211" lon="4.7622">
        <ele>251</ele>
        <time>2010-04-03T10:40:11Z</time>
      </trkpt>
      <trkpt lat="45.75198" lon="4.76187">
        <ele>249</ele>
        <time>2010-04-03T10:40:14Z</time>
      </trkpt>
      <trkpt lat="45.7519" lon="4.76161">
        <ele>249</ele>
        <time>2010-04-03T10:40:17Z</time>
      </trkpt>
      <trkpt lat="45.75184" lon="4.76139">
        <ele>248</ele>
        <time>2010-04-03T10:40:19Z</time>
      </trkpt>
      <trkpt lat="45.75177" lon="4.7612">
        <ele>248</ele>
        <time>2010-04-03T10:40:21Z</time>
      </trkpt>
      <trkpt lat="45.7517" lon="4.76109">
        <ele>249</ele>
        <time>2010-04-03T10:40:23Z</time>
      </trkpt>
      <trkpt lat="45.75161" lon="4.76099">
        <ele>249</ele>
        <time>2010-04-03T10:40:25Z</time>
      </trkpt>
      <trkpt lat="45.75152" lon="4.76094">
        <ele>249</ele>
        <time>2010-04-03T10:40:27Z</time>
      </trkpt>
      <trkpt lat="45.75141" lon="4.76093">
        <ele>250</ele>
        <time>2010-04-03T10:40:29Z</time>
      </trkpt>
      <trkpt lat="45.75129" lon="4.76094">
        <ele>251</ele>
        <time>2010-04-03T10:40:32Z</time>
      </trkpt>
      <trkpt lat="45.75117" lon="4.76098">
        <ele>251</ele>
        <time>2010-04-03T10:40:35Z</time>
      </trkpt>
      <trkpt lat="45.75105" lon="4.76099">
        <ele>251</ele>
        <time>2010-04-03T10:40:37Z</time>
      </trkpt>
      <trkpt lat="45.75094" lon="4.76099">
        <ele>250</ele>
        <time>2010-04-03T10:40:40Z</time>
      </trkpt>
      <trkpt lat="45.75084" lon="4.76092">
        <ele>251</ele>
        <time>2010-04-03T10:40:42Z</time>
      </trkpt>
      <trkpt lat="45.75075" lon="4.7608">
        <ele>252</ele>
        <time>2010-04-03T10:40:45Z</time>
      </trkpt>
      <trkpt lat="45.75063" lon="4.7606">
        <ele>251</ele>
        <time>2010-04-03T10:40:49Z</time>
      </trkpt>
      <trkpt lat="45.75054" lon="4.76036">
        <ele>252</ele>
        <time>2010-04-03T10:40:53Z</time>
      </trkpt>
      <trkpt lat="45.75048" lon="4.76019">
        <ele>252</ele>
        <time>2010-04-03T10:40:55Z</time>
      </trkpt>
      <trkpt lat="45.75043" lon="4.76006">
        <ele>252</ele>
        <time>2010-04-03T10:40:57Z</time>
      </trkpt>
      <trkpt lat="45.75036" lon="4.75987">
        <ele>254</ele>
        <time>2010-04-03T10:41:00Z</time>
      </trkpt>
      <trkpt lat="45.75028" lon="4.75975">
        <ele>254</ele>
        <time>2010-04-03T10:41:03Z</time>
      </trkpt>
      <trkpt lat="45.75019" lon="4.75965">
        <ele>254</ele>
        <time>2010-04-03T10:41:06Z</time>
      </trkpt>
      <trkpt lat="45.75012" lon="4.7596">
        <ele>253</ele>
        <time>2010-04-03T10:41:08Z</time>
      </trkpt>
      <trkpt lat="45.75001" lon="4.75958">
        <ele>253</ele>
        <time>2010-04-03T10:41:10Z</time>
      </trkpt>
      <trkpt lat="45.74985" lon="4.75959">
        <ele>255</ele>
        <time>2010-04-03T10:41:14Z</time>
      </trkpt>
      <trkpt lat="45.74973" lon="4.75962">
        <ele>255</ele>
        <time>2010-04-03T10:41:16Z</time>
      </trkpt>
      <trkpt lat="45.74965" lon="4.75967">
        <ele>256</ele>
        <time>2010-04-03T10:41:18Z</time>
      </trkpt>
      <trkpt lat="45.74956" lon="4.75974">
        <ele>257</ele>
        <time>2010-04-03T10:41:21Z</time>
      </trkpt>
      <trkpt lat="45.74945" lon="4.75987">
        <ele>259</ele>
        <time>2010-04-03T10:41:24Z</time>
      </trkpt>
      <trkpt lat="45.74939" lon="4.75997">
        <ele>261</ele>
        <time>2010-04-03T10:41:26Z</time>
      </trkpt>
      <trkpt lat="45.74931" lon="4.76009">
        <ele>262</ele>
        <time>2010-04-03T10:41:28Z</time>
      </trkpt>
      <trkpt lat="45.74923" lon="4.7602">
        <ele>263</ele>
        <time>2010-04-03T10:41:31Z</time>
      </trkpt>
      <trkpt lat="45.74915" lon="4.76029">
        <ele>263</ele>
        <time>2010-04-03T10:41:33Z</time>
      </trkpt>
      <trkpt lat="45.74905" lon="4.76039">
        <ele>263</ele>
        <time>2010-04-03T10:41:35Z</time>
      </trkpt>
      <trkpt lat="45.74896" lon="4.76046">
        <ele>264</ele>
        <time>2010-04-03T10:41:38Z</time>
      </trkpt>
      <trkpt lat="45.74889" lon="4.76049">
        <ele>264</ele>
        <time>2010-04-03T10:41:40Z</time>
      </trkpt>
      <trkpt lat="45.7488" lon="4.76048">
        <ele>265</ele>
        <time>2010-04-03T10:41:42Z</time>
      </trkpt>
      <trkpt lat="45.74871" lon="4.76045">
        <ele>266</ele>
        <time>2010-04-03T10:41:44Z</time>
      </trkpt>
      <trkpt lat="45.74861" lon="4.76042">
        <ele>265</ele>
        <time>2010-04-03T10:41:47Z</time>
      </trkpt>
      <trkpt lat="45.74854" lon="4.76036">
        <ele>265</ele>
        <time>2010-04-03T10:41:49Z</time>
      </trkpt>
      <trkpt lat="45.74847" lon="4.76029">
        <ele>266</ele>
        <time>2010-04-03T10:41:51Z</time>
      </trkpt>
      <trkpt lat="45.74839" lon="4.76018">
        <ele>265</ele>
        <time>2010-04-03T10:41:54Z</time>
      </trkpt>
      <trkpt lat="45.74834" lon="4.76005">
        <ele>264</ele>
        <time>2010-04-03T10:41:56Z</time>
      </trkpt>
      <trkpt lat="45.7483" lon="4.75989">
        <ele>265</ele>
        <time>2010-04-03T10:41:59Z</time>
      </trkpt>
      <trkpt lat="45.74827" lon="4.75971">
        <ele>265</ele>
        <time>2010-04-03T10:42:02Z</time>
      </trkpt>
      <trkpt lat="45.74823" lon="4.75956">
        <ele>266</ele>
        <time>2010-04-03T10:42:05Z</time>
      </trkpt>
      <trkpt lat="45.74817" lon="4.75943">
        <ele>267</ele>
        <time>2010-04-03T10:42:07Z</time>
      </trkpt>
      <trkpt lat="45.74807" lon="4.75931">
        <ele>268</ele>
        <time>2010-04-03T10:42:11Z</time>
      </trkpt>
      <trkpt lat="45.74798" lon="4.75921">
        <ele>268</ele>
        <time>2010-04-03T10:42:13Z</time>
      </trkpt>
      <trkpt lat="45.74789" lon="4.75914">
        <ele>267</ele>
        <time>2010-04-03T10:42:15Z</time>
      </trkpt>
      <trkpt lat="45.74781" lon="4.75906">
        <ele>267</ele>
        <time>2010-04-03T10:42:18Z</time>
      </trkpt>
      <trkpt lat="45.74774" lon="4.75898">
        <ele>267</ele>
        <time>2010-04-03T10:42:20Z</time>
      </trkpt>
      <trkpt lat="45.74768" lon="4.75884">
        <ele>266</ele>
        <time>2010-04-03T10:42:23Z</time>
      </trkpt>
      <trkpt lat="45.74764" lon="4.75867">
        <ele>267</ele>
        <time>2010-04-03T10:42:25Z</time>
      </trkpt>
      <trkpt lat="45.74759" lon="4.75849">
        <ele>266</ele>
        <time>2010-04-03T10:42:29Z</time>
      </trkpt>
      <trkpt lat="45.74754" lon="4.7583">
        <ele>267</ele>
        <time>2010-04-03T10:42:32Z</time>
      </trkpt>
      <trkpt lat="45.74752" lon="4.75816">
        <ele>267</ele>
        <time>2010-04-03T10:42:34Z</time>
      </trkpt>
      <trkpt lat="45.74749" lon="4.75802">
        <ele>267</ele>
        <time>2010-04-03T10:42:37Z</time>
      </trkpt>
      <trkpt lat="45.74747" lon="4.75793">
        <ele>266</ele>
        <time>2010-04-03T10:42:39Z</time>
      </trkpt>
      <trkpt lat="45.74745" lon="4.75783">
        <ele>267</ele>
        <time>2010-04-03T10:42:41Z</time>
      </trkpt>
      <trkpt lat="45.74741" lon="4.75762">
        <ele>267</ele>
        <time>2010-04-03T10:42:46Z</time>
      </trkpt>
      <trkpt lat="45.74739" lon="4.7575">
        <ele>268</ele>
        <time>2010-04-03T10:42:48Z</time>
      </trkpt>
      <trkpt lat="45.74738" lon="4.75737">
        <ele>268</ele>
        <time>2010-04-03T10:42:50Z</time>
      </trkpt>
      <trkpt lat="45.74737" lon="4.75725">
        <ele>270</ele>
        <time>2010-04-03T10:42:52Z</time>
      </trkpt>
      <trkpt lat="45.74736" lon="4.75713">
        <ele>272</ele>
        <time>2010-04-03T10:42:54Z</time>
      </trkpt>
      <trkpt lat="45.74735" lon="4.75697">
        <ele>273</ele>
        <time>2010-04-03T10:42:57Z</time>
      </trkpt>
      <trkpt lat="45.74735" lon="4.75683">
        <ele>273</ele>
        <time>2010-04-03T10:42:59Z</time>
      </trkpt>
      <trkpt lat="45.74737" lon="4.7567">
        <ele>273</ele>
        <time>2010-04-03T10:43:01Z</time>
      </trkpt>
      <trkpt lat="45.74737" lon="4.75657">
        <ele>274</ele>
        <time>2010-04-03T10:43:03Z</time>
      </trkpt>
      <trkpt lat="45.74738" lon="4.75642">
        <ele>275</ele>
        <time>2010-04-03T10:43:06Z</time>
      </trkpt>
      <trkpt lat="45.74739" lon="4.75626">
        <ele>276</ele>
        <time>2010-04-03T10:43:08Z</time>
      </trkpt>
      <trkpt lat="45.74739" lon="4.75613">
        <ele>275</ele>
        <time>2010-04-03T10:43:10Z</time>
      </trkpt>
      <trkpt lat="45.74739" lon="4.75599">
        <ele>275</ele>
        <time>2010-04-03T10:43:12Z</time>
      </trkpt>
      <trkpt lat="45.74739" lon="4.7558">
        <ele>275</ele>
        <time>2010-04-03T10:43:15Z</time>
      </trkpt>
      <trkpt lat="45.7474" lon="4.75563">
        <ele>275</ele>
        <time>2010-04-03T10:43:18Z</time>
      </trkpt>
      <trkpt lat="45.7474" lon="4.7555">
        <ele>275</ele>
        <time>2010-04-03T10:43:20Z</time>
      </trkpt>
      <trkpt lat="45.7474" lon="4.75535">
        <ele>275</ele>
        <time>2010-04-03T10:43:22Z</time>
      </trkpt>
      <trkpt lat="45.7474" lon="4.75521">
        <ele>276</ele>
        <time>2010-04-03T10:43:24Z</time>
      </trkpt>
      <trkpt lat="45.74739" lon="4.75498">
        <ele>277</ele>
        <time>2010-04-03T10:43:27Z</time>
      </trkpt>
      <trkpt lat="45.74739" lon="4.75479">
        <ele>277</ele>
        <time>2010-04-03T10:43:29Z</time>
      </trkpt>
      <trkpt lat="45.74739" lon="4.75461">
        <ele>278</ele>
        <time>2010-04-03T10:43:31Z</time>
      </trkpt>
      <trkpt lat="45.7474" lon="4.75443">
        <ele>279</ele>
        <time>2010-04-03T10:43:33Z</time>
      </trkpt>
      <trkpt lat="45.7474" lon="4.75419">
        <ele>277</ele>
        <time>2010-04-03T10:43:36Z</time>
      </trkpt>
      <trkpt lat="45.74741" lon="4.75391">
        <ele>277</ele>
        <time>2010-04-03T10:43:40Z</time>
      </trkpt>
      <trkpt lat="45.7474" lon="4.75368">
        <ele>276</ele>
        <time>2010-04-03T10:43:43Z</time>
      </trkpt>
      <trkpt lat="45.7474" lon="4.75347">
        <ele>275</ele>
        <time>2010-04-03T10:43:45Z</time>
      </trkpt>
      <trkpt lat="45.74741" lon="4.75326">
        <ele>274</ele>
        <time>2010-04-03T10:43:48Z</time>
      </trkpt>
      <trkpt lat="45.7474" lon="4.75306">
        <ele>274</ele>
        <time>2010-04-03T10:43:50Z</time>
      </trkpt>
      <trkpt lat="45.7474" lon="4.75287">
        <ele>274</ele>
        <time>2010-04-03T10:43:53Z</time>
      </trkpt>
      <trkpt lat="45.7474" lon="4.75268">
        <ele>273</ele>
        <time>2010-04-03T10:43:55Z</time>
      </trkpt>
      <trkpt lat="45.74741" lon="4.7525">
        <ele>273</ele>
        <time>2010-04-03T10:43:58Z</time>
      </trkpt>
      <trkpt lat="45.74741" lon="4.75233">
        <ele>274</ele>
        <time>2010-04-03T10:44:00Z</time>
      </trkpt>
      <trkpt lat="45.74741" lon="4.75217">
        <ele>275</ele>
        <time>2010-04-03T10:44:03Z</time>
      </trkpt>
      <trkpt lat="45.7474" lon="4.75203">
        <ele>275</ele>
        <time>2010-04-03T10:44:05Z</time>
      </trkpt>
      <trkpt lat="45.7474" lon="4.75189">
        <ele>275</ele>
        <time>2010-04-03T10:44:07Z</time>
      </trkpt>
      <trkpt lat="45.74739" lon="4.75174">
        <ele>275</ele>
        <time>2010-04-03T10:44:10Z</time>
      </trkpt>
      <trkpt lat="45.74738" lon="4.75154">
        <ele>275</ele>
        <time>2010-04-03T10:44:13Z</time>
      </trkpt>
      <trkpt lat="45.74738" lon="4.75139">
        <ele>276</ele>
        <time>2010-04-03T10:44:16Z</time>
      </trkpt>
      <trkpt lat="45.74739" lon="4.75125">
        <ele>276</ele>
        <time>2010-04-03T10:44:18Z</time>
      </trkpt>
      <trkpt lat="45.74739" lon="4.75112">
        <ele>277</ele>
        <time>2010-04-03T10:44:20Z</time>
      </trkpt>
      <trkpt lat="45.74739" lon="4.75096">
        <ele>276</ele>
        <time>2010-04-03T10:44:22Z</time>
      </trkpt>
      <trkpt lat="45.74739" lon="4.75079">
        <ele>276</ele>
        <time>2010-04-03T10:44:25Z</time>
      </trkpt>
      <trkpt lat="45.74738" lon="4.75065">
        <ele>278</ele>
        <time>2010-04-03T10:44:27Z</time>
      </trkpt>
      <trkpt lat="45.74739" lon="4.75045">
        <ele>278</ele>
        <time>2010-04-03T10:44:30Z</time>
      </trkpt>
      <trkpt lat="45.74739" lon="4.75021">
        <ele>279</ele>
        <time>2010-04-03T10:44:34Z</time>
      </trkpt>
      <trkpt lat="45.74739" lon="4.75">
        <ele>280</ele>
        <time>2010-04-03T10:44:37Z</time>
      </trkpt>
      <trkpt lat="45.74739" lon="4.7498">
        <ele>281</ele>
        <time>2010-04-03T10:44:40Z</time>
      </trkpt>
      <trkpt lat="45.74739" lon="4.74963">
        <ele>282</ele>
        <time>2010-04-03T10:44:43Z</time>
      </trkpt>
      <trkpt lat="45.74739" lon="4.74948">
        <ele>284</ele>
        <time>2010-04-03T10:44:45Z</time>
      </trkpt>
      <trkpt lat="45.74739" lon="4.74934">
        <ele>285</ele>
        <time>2010-04-03T10:44:47Z</time>
      </trkpt>
      <trkpt lat="45.74739" lon="4.74921">
        <ele>287</ele>
        <time>2010-04-03T10:44:50Z</time>
      </trkpt>
      <trkpt lat="45.74739" lon="4.74906">
        <ele>287</ele>
        <time>2010-04-03T10:44:52Z</time>
      </trkpt>
      <trkpt lat="45.74739" lon="4.74893">
        <ele>288</ele>
        <time>2010-04-03T10:44:54Z</time>
      </trkpt>
      <trkpt lat="45.74739" lon="4.74881">
        <ele>288</ele>
        <time>2010-04-03T10:44:57Z</time>
      </trkpt>
      <trkpt lat="45.74738" lon="4.74869">
        <ele>289</ele>
        <time>2010-04-03T10:44:59Z</time>
      </trkpt>
      <trkpt lat="45.74738" lon="4.74856">
        <ele>289</ele>
        <time>2010-04-03T10:45:01Z</time>
      </trkpt>
      <trkpt lat="45.74738" lon="4.74843">
        <ele>289</ele>
        <time>2010-04-03T10:45:03Z</time>
      </trkpt>
      <trkpt lat="45.74738" lon="4.74831">
        <ele>289</ele>
        <time>2010-04-03T10:45:05Z</time>
      </trkpt>
      <trkpt lat="45.74739" lon="4.74819">
        <ele>290</ele>
        <time>2010-04-03T10:45:07Z</time>
      </trkpt>
      <trkpt lat="45.7474" lon="4.74806">
        <ele>290</ele>
        <time>2010-04-03T10:45:10Z</time>
      </trkpt>
      <trkpt lat="45.7474" lon="4.74791">
        <ele>291</ele>
        <time>2010-04-03T10:45:12Z</time>
      </trkpt>
      <trkpt lat="45.7474" lon="4.74776">
        <ele>292</ele>
        <time>2010-04-03T10:45:15Z</time>
      </trkpt>
      <trkpt lat="45.74739" lon="4.7476">
        <ele>292</ele>
        <time>2010-04-03T10:45:18Z</time>
      </trkpt>
      <trkpt lat="45.7474" lon="4.74736">
        <ele>292</ele>
        <time>2010-04-03T10:45:21Z</time>
      </trkpt>
      <trkpt lat="45.74739" lon="4.74718">
        <ele>291</ele>
        <time>2010-04-03T10:45:24Z</time>
      </trkpt>
      <trkpt lat="45.74739" lon="4.747">
        <ele>292</ele>
        <time>2010-04-03T10:45:27Z</time>
      </trkpt>
      <trkpt lat="45.74739" lon="4.74683">
        <ele>292</ele>
        <time>2010-04-03T10:45:29Z</time>
      </trkpt>
      <trkpt lat="45.74739" lon="4.74665">
        <ele>291</ele>
        <time>2010-04-03T10:45:32Z</time>
      </trkpt>
      <trkpt lat="45.7474" lon="4.74649">
        <ele>291</ele>
        <time>2010-04-03T10:45:34Z</time>
      </trkpt>
      <trkpt lat="45.7474" lon="4.74635">
        <ele>293</ele>
        <time>2010-04-03T10:45:36Z</time>
      </trkpt>
      <trkpt lat="45.74739" lon="4.7462">
        <ele>293</ele>
        <time>2010-04-03T10:45:38Z</time>
      </trkpt>
      <trkpt lat="45.74738" lon="4.74605">
        <ele>294</ele>
        <time>2010-04-03T10:45:40Z</time>
      </trkpt>
      <trkpt lat="45.74738" lon="4.7459">
        <ele>294</ele>
        <time>2010-04-03T10:45:42Z</time>
      </trkpt>
      <trkpt lat="45.74737" lon="4.74569">
        <ele>294</ele>
        <time>2010-04-03T10:45:45Z</time>
      </trkpt>
      <trkpt lat="45.74739" lon="4.74552">
        <ele>294</ele>
        <time>2010-04-03T10:45:47Z</time>
      </trkpt>
      <trkpt lat="45.7474" lon="4.74531">
        <ele>295</ele>
        <time>2010-04-03T10:45:50Z</time>
      </trkpt>
      <trkpt lat="45.7474" lon="4.74513">
        <ele>295</ele>
        <time>2010-04-03T10:45:53Z</time>
      </trkpt>
      <trkpt lat="45.74738" lon="4.74491">
        <ele>295</ele>
        <time>2010-04-03T10:45:55Z</time>
      </trkpt>
      <trkpt lat="45.74737" lon="4.74474">
        <ele>295</ele>
        <time>2010-04-03T10:45:57Z</time>
      </trkpt>
      <trkpt lat="45.74736" lon="4.74458">
        <ele>295</ele>
        <time>2010-04-03T10:45:59Z</time>
      </trkpt>
      <trkpt lat="45.74735" lon="4.7444">
        <ele>295</ele>
        <time>2010-04-03T10:46:01Z</time>
      </trkpt>
      <trkpt lat="45.74734" lon="4.74415">
        <ele>295</ele>
        <time>2010-04-03T10:46:04Z</time>
      </trkpt>
      <trkpt lat="45.74733" lon="4.74382">
        <ele>296</ele>
        <time>2010-04-03T10:46:08Z</time>
      </trkpt>
      <trkpt lat="45.74733" lon="4.74356">
        <ele>295</ele>
        <time>2010-04-03T10:46:11Z</time>
      </trkpt>
      <trkpt lat="45.74732" lon="4.74334">
        <ele>295</ele>
        <time>2010-04-03T10:46:13Z</time>
      </trkpt>
      <trkpt lat="45.74733" lon="4.74313">
        <ele>296</ele>
        <time>2010-04-03T10:46:15Z</time>
      </trkpt>
      <trkpt lat="45.74733" lon="4.74295">
        <ele>296</ele>
        <time>2010-04-03T10:46:18Z</time>
      </trkpt>
      <trkpt lat="45.74733" lon="4.74273">
        <ele>296</ele>
        <time>2010-04-03T10:46:20Z</time>
      </trkpt>
      <trkpt lat="45.74734" lon="4.74255">
        <ele>297</ele>
        <time>2010-04-03T10:46:23Z</time>
      </trkpt>
      <trkpt lat="45.74735" lon="4.74238">
        <ele>297</ele>
        <time>2010-04-03T10:46:25Z</time>
      </trkpt>
      <trkpt lat="45.74735" lon="4.74221">
        <ele>297</ele>
        <time>2010-04-03T10:46:27Z</time>
      </trkpt>
      <trkpt lat="45.74734" lon="4.74206">
        <ele>297</ele>
        <time>2010-04-03T10:46:29Z</time>
      </trkpt>
      <trkpt lat="45.74734" lon="4.7419">
        <ele>298</ele>
        <time>2010-04-03T10:46:31Z</time>
      </trkpt>
      <trkpt lat="45.74734" lon="4.74175">
        <ele>298</ele>
        <time>2010-04-03T10:46:33Z</time>
      </trkpt>
      <trkpt lat="45.74734" lon="4.74159">
        <ele>298</ele>
        <time>2010-04-03T10:46:35Z</time>
      </trkpt>
      <trkpt lat="45.74735" lon="4.74144">
        <ele>298</ele>
        <time>2010-04-03T10:46:37Z</time>
      </trkpt>
      <trkpt lat="45.74735" lon="4.74128">
        <ele>298</ele>
        <time>2010-04-03T10:46:40Z</time>
      </trkpt>
      <trkpt lat="45.74735" lon="4.74112">
        <ele>298</ele>
        <time>2010-04-03T10:46:42Z</time>
      </trkpt>
      <trkpt lat="45.74736" lon="4.74096">
        <ele>298</ele>
        <time>2010-04-03T10:46:44Z</time>
      </trkpt>
      <trkpt lat="45.74736" lon="4.74074">
        <ele>298</ele>
        <time>2010-04-03T10:46:47Z</time>
      </trkpt>
      <trkpt lat="45.74736" lon="4.74054">
        <ele>298</ele>
        <time>2010-04-03T10:46:49Z</time>
      </trkpt>
      <trkpt lat="45.74737" lon="4.74035">
        <ele>298</ele>
        <time>2010-04-03T10:46:52Z</time>
      </trkpt>
      <trkpt lat="45.74741" lon="4.74015">
        <ele>298</ele>
        <time>2010-04-03T10:46:54Z</time>
      </trkpt>
      <trkpt lat="45.74745" lon="4.73995">
        <ele>298</ele>
        <time>2010-04-03T10:46:57Z</time>
      </trkpt>
      <trkpt lat="45.74747" lon="4.73975">
        <ele>299</ele>
        <time>2010-04-03T10:46:59Z</time>
      </trkpt>
      <trkpt lat="45.74747" lon="4.73957">
        <ele>300</ele>
        <time>2010-04-03T10:47:02Z</time>
      </trkpt>
      <trkpt lat="45.74745" lon="4.73941">
        <ele>300</ele>
        <time>2010-04-03T10:47:04Z</time>
      </trkpt>
      <trkpt lat="45.74742" lon="4.73926">
        <ele>300</ele>
        <time>2010-04-03T10:47:06Z</time>
      </trkpt>
      <trkpt lat="45.7474" lon="4.73912">
        <ele>300</ele>
        <time>2010-04-03T10:47:08Z</time>
      </trkpt>
      <trkpt lat="45.74739" lon="4.73897">
        <ele>301</ele>
        <time>2010-04-03T10:47:10Z</time>
      </trkpt>
      <trkpt lat="45.74739" lon="4.73883">
        <ele>302</ele>
        <time>2010-04-03T10:47:12Z</time>
      </trkpt>
      <trkpt lat="45.74739" lon="4.73868">
        <ele>303</ele>
        <time>2010-04-03T10:47:15Z</time>
      </trkpt>
      <trkpt lat="45.74738" lon="4.73853">
        <ele>303</ele>
        <time>2010-04-03T10:47:17Z</time>
      </trkpt>
      <trkpt lat="45.74738" lon="4.73839">
        <ele>303</ele>
        <time>2010-04-03T10:47:19Z</time>
      </trkpt>
      <trkpt lat="45.74738" lon="4.73824">
        <ele>304</ele>
        <time>2010-04-03T10:47:21Z</time>
      </trkpt>
      <trkpt lat="45.74738" lon="4.73808">
        <ele>304</ele>
        <time>2010-04-03T10:47:23Z</time>
      </trkpt>
      <trkpt lat="45.74738" lon="4.73792">
        <ele>305</ele>
        <time>2010-04-03T10:47:25Z</time>
      </trkpt>
      <trkpt lat="45.74738" lon="4.73775">
        <ele>306</ele>
        <time>2010-04-03T10:47:27Z</time>
      </trkpt>
      <trkpt lat="45.74737" lon="4.73758">
        <ele>307</ele>
        <time>2010-04-03T10:47:29Z</time>
      </trkpt>
      <trkpt lat="45.74739" lon="4.73741">
        <ele>308</ele>
        <time>2010-04-03T10:47:32Z</time>
      </trkpt>
      <trkpt lat="45.7474" lon="4.73725">
        <ele>308</ele>
        <time>2010-04-03T10:47:34Z</time>
      </trkpt>
      <trkpt lat="45.74741" lon="4.73709">
        <ele>308</ele>
        <time>2010-04-03T10:47:36Z</time>
      </trkpt>
      <trkpt lat="45.7474" lon="4.73694">
        <ele>308</ele>
        <time>2010-04-03T10:47:38Z</time>
      </trkpt>
      <trkpt lat="45.74739" lon="4.73678">
        <ele>309</ele>
        <time>2010-04-03T10:47:40Z</time>
      </trkpt>
      <trkpt lat="45.74738" lon="4.7366">
        <ele>308</ele>
        <time>2010-04-03T10:47:43Z</time>
      </trkpt>
      <trkpt lat="45.74737" lon="4.73644">
        <ele>309</ele>
        <time>2010-04-03T10:47:45Z</time>
      </trkpt>
      <trkpt lat="45.74736" lon="4.73629">
        <ele>308</ele>
        <time>2010-04-03T10:47:47Z</time>
      </trkpt>
      <trkpt lat="45.74734" lon="4.73614">
        <ele>309</ele>
        <time>2010-04-03T10:47:49Z</time>
      </trkpt>
      <trkpt lat="45.74733" lon="4.73598">
        <ele>309</ele>
        <time>2010-04-03T10:47:51Z</time>
      </trkpt>
      <trkpt lat="45.74732" lon="4.73581">
        <ele>310</ele>
        <time>2010-04-03T10:47:53Z</time>
      </trkpt>
      <trkpt lat="45.7473" lon="4.73563">
        <ele>310</ele>
        <time>2010-04-03T10:47:56Z</time>
      </trkpt>
      <trkpt lat="45.7473" lon="4.73544">
        <ele>310</ele>
        <time>2010-04-03T10:47:58Z</time>
      </trkpt>
      <trkpt lat="45.7473" lon="4.73523">
        <ele>311</ele>
        <time>2010-04-03T10:48:00Z</time>
      </trkpt>
      <trkpt lat="45.74731" lon="4.73501">
        <ele>312</ele>
        <time>2010-04-03T10:48:02Z</time>
      </trkpt>
      <trkpt lat="45.74731" lon="4.73479">
        <ele>312</ele>
        <time>2010-04-03T10:48:04Z</time>
      </trkpt>
      <trkpt lat="45.74732" lon="4.73458">
        <ele>312</ele>
        <time>2010-04-03T10:48:06Z</time>
      </trkpt>
      <trkpt lat="45.74732" lon="4.73437">
        <ele>313</ele>
        <time>2010-04-03T10:48:08Z</time>
      </trkpt>
      <trkpt lat="45.74732" lon="4.73416">
        <ele>313</ele>
        <time>2010-04-03T10:48:10Z</time>
      </trkpt>
      <trkpt lat="45.74732" lon="4.73396">
        <ele>313</ele>
        <time>2010-04-03T10:48:13Z</time>
      </trkpt>
      <trkpt lat="45.74732" lon="4.73375">
        <ele>313</ele>
        <time>2010-04-03T10:48:15Z</time>
      </trkpt>
      <trkpt lat="45.74733" lon="4.73354">
        <ele>314</ele>
        <time>2010-04-03T10:48:17Z</time>
      </trkpt>
      <trkpt lat="45.74735" lon="4.73333">
        <ele>315</ele>
        <time>2010-04-03T10:48:19Z</time>
      </trkpt>
      <trkpt lat="45.74736" lon="4.73312">
        <ele>315</ele>
        <time>2010-04-03T10:48:21Z</time>
      </trkpt>
      <trkpt lat="45.74736" lon="4.73291">
        <ele>315</ele>
        <time>2010-04-03T10:48:23Z</time>
      </trkpt>
      <trkpt lat="45.74737" lon="4.73272">
        <ele>315</ele>
        <time>2010-04-03T10:48:25Z</time>
      </trkpt>
      <trkpt lat="45.74738" lon="4.73247">
        <ele>315</ele>
        <time>2010-04-03T10:48:28Z</time>
      </trkpt>
      <trkpt lat="45.74738" lon="4.73229">
        <ele>314</ele>
        <time>2010-04-03T10:48:30Z</time>
      </trkpt>
      <trkpt lat="45.74739" lon="4.73212">
        <ele>314</ele>
        <time>2010-04-03T10:48:32Z</time>
      </trkpt>
      <trkpt lat="45.74739" lon="4.73194">
        <ele>314</ele>
        <time>2010-04-03T10:48:35Z</time>
      </trkpt>
      <trkpt lat="45.74739" lon="4.73173">
        <ele>315</ele>
        <time>2010-04-03T10:48:37Z</time>
      </trkpt>
      <trkpt lat="45.7474" lon="4.73158">
        <ele>315</ele>
        <time>2010-04-03T10:48:40Z</time>
      </trkpt>
      <trkpt lat="45.74739" lon="4.7314">
        <ele>316</ele>
        <time>2010-04-03T10:48:42Z</time>
      </trkpt>
      <trkpt lat="45.74739" lon="4.73124">
        <ele>315</ele>
        <time>2010-04-03T10:48:44Z</time>
      </trkpt>
      <trkpt lat="45.74738" lon="4.73109">
        <ele>315</ele>
        <time>2010-04-03T10:48:47Z</time>
      </trkpt>
      <trkpt lat="45.74738" lon="4.73093">
        <ele>315</ele>
        <time>2010-04-03T10:48:49Z</time>
      </trkpt>
      <trkpt lat="45.74738" lon="4.73078">
        <ele>314</ele>
        <time>2010-04-03T10:48:51Z</time>
      </trkpt>
      <trkpt lat="45.74738" lon="4.73062">
        <ele>314</ele>
        <time>2010-04-03T10:48:53Z</time>
      </trkpt>
      <trkpt lat="45.74739" lon="4.73042">
        <ele>314</ele>
        <time>2010-04-03T10:48:56Z</time>
      </trkpt>
      <trkpt lat="45.7474" lon="4.73021">
        <ele>314</ele>
        <time>2010-04-03T10:48:58Z</time>
      </trkpt>
      <trkpt lat="45.7474" lon="4.73002">
        <ele>314</ele>
        <time>2010-04-03T10:49:00Z</time>
      </trkpt>
      <trkpt lat="45.74739" lon="4.72986">
        <ele>314</ele>
        <time>2010-04-03T10:49:03Z</time>
      </trkpt>
      <trkpt lat="45.74738" lon="4.72967">
        <ele>315</ele>
        <time>2010-04-03T10:49:05Z</time>
      </trkpt>
      <trkpt lat="45.74739" lon="4.72951">
        <ele>315</ele>
        <time>2010-04-03T10:49:07Z</time>
      </trkpt>
      <trkpt lat="45.74739" lon="4.72934">
        <ele>315</ele>
        <time>2010-04-03T10:49:10Z</time>
      </trkpt>
      <trkpt lat="45.74739" lon="4.72916">
        <ele>315</ele>
        <time>2010-04-03T10:49:12Z</time>
      </trkpt>
      <trkpt lat="45.74739" lon="4.72902">
        <ele>316</ele>
        <time>2010-04-03T10:49:14Z</time>
      </trkpt>
      <trkpt lat="45.7474" lon="4.72888">
        <ele>316</ele>
        <time>2010-04-03T10:49:16Z</time>
      </trkpt>
      <trkpt lat="45.74739" lon="4.72875">
        <ele>316</ele>
        <time>2010-04-03T10:49:18Z</time>
      </trkpt>
      <trkpt lat="45.74739" lon="4.72862">
        <ele>316</ele>
        <time>2010-04-03T10:49:20Z</time>
      </trkpt>
      <trkpt lat="45.7474" lon="4.72845">
        <ele>317</ele>
        <time>2010-04-03T10:49:23Z</time>
      </trkpt>
      <trkpt lat="45.74741" lon="4.72832">
        <ele>317</ele>
        <time>2010-04-03T10:49:25Z</time>
      </trkpt>
      <trkpt lat="45.74741" lon="4.72819">
        <ele>318</ele>
        <time>2010-04-03T10:49:27Z</time>
      </trkpt>
      <trkpt lat="45.74741" lon="4.72806">
        <ele>318</ele>
        <time>2010-04-03T10:49:30Z</time>
      </trkpt>
      <trkpt lat="45.74741" lon="4.72792">
        <ele>318</ele>
        <time>2010-04-03T10:49:32Z</time>
      </trkpt>
      <trkpt lat="45.74742" lon="4.72775">
        <ele>319</ele>
        <time>2010-04-03T10:49:34Z</time>
      </trkpt>
      <trkpt lat="45.74743" lon="4.72752">
        <ele>319</ele>
        <time>2010-04-03T10:49:38Z</time>
      </trkpt>
      <trkpt lat="45.74744" lon="4.72736">
        <ele>319</ele>
        <time>2010-04-03T10:49:40Z</time>
      </trkpt>
      <trkpt lat="45.74744" lon="4.72718">
        <ele>320</ele>
        <time>2010-04-03T10:49:42Z</time>
      </trkpt>
      <trkpt lat="45.74744" lon="4.72699">
        <ele>320</ele>
        <time>2010-04-03T10:49:45Z</time>
      </trkpt>
      <trkpt lat="45.74743" lon="4.72683">
        <ele>319</ele>
        <time>2010-04-03T10:49:47Z</time>
      </trkpt>
      <trkpt lat="45.74742" lon="4.72666">
        <ele>320</ele>
        <time>2010-04-03T10:49:49Z</time>
      </trkpt>
      <trkpt lat="45.74741" lon="4.72644">
        <ele>320</ele>
        <time>2010-04-03T10:49:52Z</time>
      </trkpt>
      <trkpt lat="45.74741" lon="4.72617">
        <ele>321</ele>
        <time>2010-04-03T10:49:55Z</time>
      </trkpt>
      <trkpt lat="45.74741" lon="4.726">
        <ele>321</ele>
        <time>2010-04-03T10:49:57Z</time>
      </trkpt>
      <trkpt lat="45.74741" lon="4.72584">
        <ele>322</ele>
        <time>2010-04-03T10:49:59Z</time>
      </trkpt>
      <trkpt lat="45.74741" lon="4.72568">
        <ele>323</ele>
        <time>2010-04-03T10:50:02Z</time>
      </trkpt>
      <trkpt lat="45.74741" lon="4.72551">
        <ele>323</ele>
        <time>2010-04-03T10:50:04Z</time>
      </trkpt>
      <trkpt lat="45.74741" lon="4.72534">
        <ele>324</ele>
        <time>2010-04-03T10:50:06Z</time>
      </trkpt>
      <trkpt lat="45.7474" lon="4.72517">
        <ele>325</ele>
        <time>2010-04-03T10:50:08Z</time>
      </trkpt>
      <trkpt lat="45.7474" lon="4.72501">
        <ele>325</ele>
        <time>2010-04-03T10:50:10Z</time>
      </trkpt>
      <trkpt lat="45.74744" lon="4.72484">
        <ele>324</ele>
        <time>2010-04-03T10:50:12Z</time>
      </trkpt>
      <trkpt lat="45.74746" lon="4.72468">
        <ele>325</ele>
        <time>2010-04-03T10:50:14Z</time>
      </trkpt>
      <trkpt lat="45.74747" lon="4.72453">
        <ele>326</ele>
        <time>2010-04-03T10:50:17Z</time>
      </trkpt>
      <trkpt lat="45.74747" lon="4.72439">
        <ele>325</ele>
        <time>2010-04-03T10:50:19Z</time>
      </trkpt>
      <trkpt lat="45.74745" lon="4.72424">
        <ele>325</ele>
        <time>2010-04-03T10:50:21Z</time>
      </trkpt>
      <trkpt lat="45.74743" lon="4.72406">
        <ele>325</ele>
        <time>2010-04-03T10:50:23Z</time>
      </trkpt>
      <trkpt lat="45.74741" lon="4.72388">
        <ele>326</ele>
        <time>2010-04-03T10:50:25Z</time>
      </trkpt>
      <trkpt lat="45.7474" lon="4.72369">
        <ele>326</ele>
        <time>2010-04-03T10:50:27Z</time>
      </trkpt>
      <trkpt lat="45.7474" lon="4.72351">
        <ele>327</ele>
        <time>2010-04-03T10:50:29Z</time>
      </trkpt>
      <trkpt lat="45.7474" lon="4.72333">
        <ele>327</ele>
        <time>2010-04-03T10:50:31Z</time>
      </trkpt>
      <trkpt lat="45.74742" lon="4.72309">
        <ele>327</ele>
        <time>2010-04-03T10:50:34Z</time>
      </trkpt>
      <trkpt lat="45.74742" lon="4.72291">
        <ele>327</ele>
        <time>2010-04-03T10:50:36Z</time>
      </trkpt>
      <trkpt lat="45.74743" lon="4.72273">
        <ele>327</ele>
        <time>2010-04-03T10:50:39Z</time>
      </trkpt>
      <trkpt lat="45.74743" lon="4.72256">
        <ele>326</ele>
        <time>2010-04-03T10:50:41Z</time>
      </trkpt>
      <trkpt lat="45.74742" lon="4.7224">
        <ele>325</ele>
        <time>2010-04-03T10:50:43Z</time>
      </trkpt>
      <trkpt lat="45.7474" lon="4.72223">
        <ele>324</ele>
        <time>2010-04-03T10:50:45Z</time>
      </trkpt>
      <trkpt lat="45.74739" lon="4.72206">
        <ele>324</ele>
        <time>2010-04-03T10:50:47Z</time>
      </trkpt>
      <trkpt lat="45.74738" lon="4.72189">
        <ele>325</ele>
        <time>2010-04-03T10:50:49Z</time>
      </trkpt>
      <trkpt lat="45.74739" lon="4.72168">
        <ele>326</ele>
        <time>2010-04-03T10:50:52Z</time>
      </trkpt>
      <trkpt lat="45.74738" lon="4.72145">
        <ele>327</ele>
        <time>2010-04-03T10:50:54Z</time>
      </trkpt>
      <trkpt lat="45.74738" lon="4.72126">
        <ele>328</ele>
        <time>2010-04-03T10:50:56Z</time>
      </trkpt>
      <trkpt lat="45.74739" lon="4.72106">
        <ele>328</ele>
        <time>2010-04-03T10:50:58Z</time>
      </trkpt>
      <trkpt lat="45.7474" lon="4.72087">
        <ele>329</ele>
        <time>2010-04-03T10:51:00Z</time>
      </trkpt>
      <trkpt lat="45.74741" lon="4.72062">
        <ele>329</ele>
        <time>2010-04-03T10:51:03Z</time>
      </trkpt>
      <trkpt lat="45.74742" lon="4.72038">
        <ele>330</ele>
        <time>2010-04-03T10:51:06Z</time>
      </trkpt>
      <trkpt lat="45.74741" lon="4.7202">
        <ele>329</ele>
        <time>2010-04-03T10:51:08Z</time>
      </trkpt>
      <trkpt lat="45.7474" lon="4.72002">
        <ele>330</ele>
        <time>2010-04-03T10:51:10Z</time>
      </trkpt>
      <trkpt lat="45.7474" lon="4.71984">
        <ele>329</ele>
        <time>2010-04-03T10:51:12Z</time>
      </trkpt>
      <trkpt lat="45.74741" lon="4.71965">
        <ele>330</ele>
        <time>2010-04-03T10:51:14Z</time>
      </trkpt>
      <trkpt lat="45.7474" lon="4.71947">
        <ele>329</ele>
        <time>2010-04-03T10:51:16Z</time>
      </trkpt>
      <trkpt lat="45.7474" lon="4.71929">
        <ele>330</ele>
        <time>2010-04-03T10:51:18Z</time>
      </trkpt>
      <trkpt lat="45.7474" lon="4.71911">
        <ele>329</ele>
        <time>2010-04-03T10:51:20Z</time>
      </trkpt>
      <trkpt lat="45.74739" lon="4.71892">
        <ele>330</ele>
        <time>2010-04-03T10:51:22Z</time>
      </trkpt>
      <trkpt lat="45.74739" lon="4.71873">
        <ele>331</ele>
        <time>2010-04-03T10:51:25Z</time>
      </trkpt>
      <trkpt lat="45.74739" lon="4.71854">
        <ele>332</ele>
        <time>2010-04-03T10:51:27Z</time>
      </trkpt>
      <trkpt lat="45.74739" lon="4.71835">
        <ele>333</ele>
        <time>2010-04-03T10:51:29Z</time>
      </trkpt>
      <trkpt lat="45.74739" lon="4.71813">
        <ele>333</ele>
        <time>2010-04-03T10:51:31Z</time>
      </trkpt>
      <trkpt lat="45.74739" lon="4.71791">
        <ele>333</ele>
        <time>2010-04-03T10:51:34Z</time>
      </trkpt>
      <trkpt lat="45.7474" lon="4.71774">
        <ele>333</ele>
        <time>2010-04-03T10:51:36Z</time>
      </trkpt>
      <trkpt lat="45.74739" lon="4.71756">
        <ele>333</ele>
        <time>2010-04-03T10:51:38Z</time>
      </trkpt>
      <trkpt lat="45.7474" lon="4.71738">
        <ele>333</ele>
        <time>2010-04-03T10:51:40Z</time>
      </trkpt>
      <trkpt lat="45.74741" lon="4.71719">
        <ele>333</ele>
        <time>2010-04-03T10:51:42Z</time>
      </trkpt>
      <trkpt lat="45.74741" lon="4.71701">
        <ele>333</ele>
        <time>2010-04-03T10:51:44Z</time>
      </trkpt>
      <trkpt lat="45.7474" lon="4.71683">
        <ele>333</ele>
        <time>2010-04-03T10:51:46Z</time>
      </trkpt>
      <trkpt lat="45.7474" lon="4.71665">
        <ele>333</ele>
        <time>2010-04-03T10:51:49Z</time>
      </trkpt>
      <trkpt lat="45.74738" lon="4.71646">
        <ele>333</ele>
        <time>2010-04-03T10:51:51Z</time>
      </trkpt>
      <trkpt lat="45.74737" lon="4.71627">
        <ele>333</ele>
        <time>2010-04-03T10:51:53Z</time>
      </trkpt>
      <trkpt lat="45.74736" lon="4.71609">
        <ele>333</ele>
        <time>2010-04-03T10:51:55Z</time>
      </trkpt>
      <trkpt lat="45.74734" lon="4.71591">
        <ele>332</ele>
        <time>2010-04-03T10:51:57Z</time>
      </trkpt>
      <trkpt lat="45.74733" lon="4.71572">
        <ele>331</ele>
        <time>2010-04-03T10:51:59Z</time>
      </trkpt>
      <trkpt lat="45.74733" lon="4.71553">
        <ele>332</ele>
        <time>2010-04-03T10:52:01Z</time>
      </trkpt>
      <trkpt lat="45.74733" lon="4.71532">
        <ele>332</ele>
        <time>2010-04-03T10:52:03Z</time>
      </trkpt>
      <trkpt lat="45.74732" lon="4.71512">
        <ele>333</ele>
        <time>2010-04-03T10:52:06Z</time>
      </trkpt>
      <trkpt lat="45.74732" lon="4.71486">
        <ele>333</ele>
        <time>2010-04-03T10:52:08Z</time>
      </trkpt>
      <trkpt lat="45.74732" lon="4.71466">
        <ele>333</ele>
        <time>2010-04-03T10:52:11Z</time>
      </trkpt>
      <trkpt lat="45.74733" lon="4.71446">
        <ele>333</ele>
        <time>2010-04-03T10:52:13Z</time>
      </trkpt>
      <trkpt lat="45.74734" lon="4.7142">
        <ele>334</ele>
        <time>2010-04-03T10:52:15Z</time>
      </trkpt>
      <trkpt lat="45.74735" lon="4.71401">
        <ele>333</ele>
        <time>2010-04-03T10:52:18Z</time>
      </trkpt>
      <trkpt lat="45.74735" lon="4.71382">
        <ele>333</ele>
        <time>2010-04-03T10:52:20Z</time>
      </trkpt>
      <trkpt lat="45.74735" lon="4.71364">
        <ele>333</ele>
        <time>2010-04-03T10:52:22Z</time>
      </trkpt>
      <trkpt lat="45.74736" lon="4.71336">
        <ele>333</ele>
        <time>2010-04-03T10:52:25Z</time>
      </trkpt>
      <trkpt lat="45.74736" lon="4.71316">
        <ele>333</ele>
        <time>2010-04-03T10:52:28Z</time>
      </trkpt>
      <trkpt lat="45.74736" lon="4.71298">
        <ele>334</ele>
        <time>2010-04-03T10:52:30Z</time>
      </trkpt>
      <trkpt lat="45.74736" lon="4.71284">
        <ele>334</ele>
        <time>2010-04-03T10:52:32Z</time>
      </trkpt>
      <trkpt lat="45.74737" lon="4.71269">
        <ele>334</ele>
        <time>2010-04-03T10:52:34Z</time>
      </trkpt>
      <trkpt lat="45.74741" lon="4.71255">
        <ele>334</ele>
        <time>2010-04-03T10:52:37Z</time>
      </trkpt>
      <trkpt lat="45.74743" lon="4.71241">
        <ele>333</ele>
        <time>2010-04-03T10:52:39Z</time>
      </trkpt>
      <trkpt lat="45.74743" lon="4.71228">
        <ele>333</ele>
        <time>2010-04-03T10:52:41Z</time>
      </trkpt>
      <trkpt lat="45.74742" lon="4.71214">
        <ele>334</ele>
        <time>2010-04-03T10:52:43Z</time>
      </trkpt>
      <trkpt lat="45.74739" lon="4.71197">
        <ele>334</ele>
        <time>2010-04-03T10:52:46Z</time>
      </trkpt>
      <trkpt lat="45.74738" lon="4.71178">
        <ele>334</ele>
        <time>2010-04-03T10:52:49Z</time>
      </trkpt>
      <trkpt lat="45.74737" lon="4.71164">
        <ele>334</ele>
        <time>2010-04-03T10:52:52Z</time>
      </trkpt>
      <trkpt lat="45.74737" lon="4.71149">
        <ele>334</ele>
        <time>2010-04-03T10:52:54Z</time>
      </trkpt>
      <trkpt lat="45.74738" lon="4.71133">
        <ele>333</ele>
        <time>2010-04-03T10:52:57Z</time>
      </trkpt>
      <trkpt lat="45.74739" lon="4.7112">
        <ele>334</ele>
        <time>2010-04-03T10:52:59Z</time>
      </trkpt>
      <trkpt lat="45.7474" lon="4.71107">
        <ele>334</ele>
        <time>2010-04-03T10:53:01Z</time>
      </trkpt>
      <trkpt lat="45.74741" lon="4.71094">
        <ele>333</ele>
        <time>2010-04-03T10:53:03Z</time>
      </trkpt>
      <trkpt lat="45.74741" lon="4.71082">
        <ele>333</ele>
        <time>2010-04-03T10:53:06Z</time>
      </trkpt>
      <trkpt lat="45.74741" lon="4.71064">
        <ele>333</ele>
        <time>2010-04-03T10:53:09Z</time>
      </trkpt>
      <trkpt lat="45.74741" lon="4.71049">
        <ele>335</ele>
        <time>2010-04-03T10:53:11Z</time>
      </trkpt>
      <trkpt lat="45.74741" lon="4.71035">
        <ele>335</ele>
        <time>2010-04-03T10:53:14Z</time>
      </trkpt>
      <trkpt lat="45.7474" lon="4.71018">
        <ele>336</ele>
        <time>2010-04-03T10:53:17Z</time>
      </trkpt>
      <trkpt lat="45.7474" lon="4.71004">
        <ele>337</ele>
        <time>2010-04-03T10:53:19Z</time>
      </trkpt>
      <trkpt lat="45.74739" lon="4.7099">
        <ele>338</ele>
        <time>2010-04-03T10:53:22Z</time>
      </trkpt>
      <trkpt lat="45.74739" lon="4.70975">
        <ele>339</ele>
        <time>2010-04-03T10:53:25Z</time>
      </trkpt>
      <trkpt lat="45.74739" lon="4.70961">
        <ele>340</ele>
        <time>2010-04-03T10:53:27Z</time>
      </trkpt>
      <trkpt lat="45.74739" lon="4.70949">
        <ele>340</ele>
        <time>2010-04-03T10:53:29Z</time>
      </trkpt>
      <trkpt lat="45.74739" lon="4.70937">
        <ele>341</ele>
        <time>2010-04-03T10:53:31Z</time>
      </trkpt>
      <trkpt lat="45.74739" lon="4.70924">
        <ele>342</ele>
        <time>2010-04-03T10:53:34Z</time>
      </trkpt>
      <trkpt lat="45.74739" lon="4.70912">
        <ele>341</ele>
        <time>2010-04-03T10:53:36Z</time>
      </trkpt>
      <trkpt lat="45.74739" lon="4.70895">
        <ele>342</ele>
        <time>2010-04-03T10:53:39Z</time>
      </trkpt>
      <trkpt lat="45.74739" lon="4.70881">
        <ele>343</ele>
        <time>2010-04-03T10:53:41Z</time>
      </trkpt>
      <trkpt lat="45.74739" lon="4.70866">
        <ele>344</ele>
        <time>2010-04-03T10:53:44Z</time>
      </trkpt>
      <trkpt lat="45.74739" lon="4.70852">
        <ele>344</ele>
        <time>2010-04-03T10:53:46Z</time>
      </trkpt>
      <trkpt lat="45.74738" lon="4.70839">
        <ele>344</ele>
        <time>2010-04-03T10:53:48Z</time>
      </trkpt>
      <trkpt lat="45.74738" lon="4.70826">
        <ele>343</ele>
        <time>2010-04-03T10:53:50Z</time>
      </trkpt>
      <trkpt lat="45.74737" lon="4.70813">
        <ele>344</ele>
        <time>2010-04-03T10:53:53Z</time>
      </trkpt>
      <trkpt lat="45.74737" lon="4.70801">
        <ele>344</ele>
        <time>2010-04-03T10:53:55Z</time>
      </trkpt>
      <trkpt lat="45.74736" lon="4.70788">
        <ele>344</ele>
        <time>2010-04-03T10:53:57Z</time>
      </trkpt>
      <trkpt lat="45.74736" lon="4.70775">
        <ele>345</ele>
        <time>2010-04-03T10:53:59Z</time>
      </trkpt>
      <trkpt lat="45.74736" lon="4.70762">
        <ele>345</ele>
        <time>2010-04-03T10:54:01Z</time>
      </trkpt>
      <trkpt lat="45.74735" lon="4.70745">
        <ele>346</ele>
        <time>2010-04-03T10:54:04Z</time>
      </trkpt>
      <trkpt lat="45.74735" lon="4.70729">
        <ele>349</ele>
        <time>2010-04-03T10:54:06Z</time>
      </trkpt>
      <trkpt lat="45.74735" lon="4.70713">
        <ele>350</ele>
        <time>2010-04-03T10:54:09Z</time>
      </trkpt>
      <trkpt lat="45.74735" lon="4.707">
        <ele>352</ele>
        <time>2010-04-03T10:54:11Z</time>
      </trkpt>
      <trkpt lat="45.74734" lon="4.70686">
        <ele>352</ele>
        <time>2010-04-03T10:54:13Z</time>
      </trkpt>
      <trkpt lat="45.74734" lon="4.70672">
        <ele>351</ele>
        <time>2010-04-03T10:54:15Z</time>
      </trkpt>
      <trkpt lat="45.74735" lon="4.70658">
        <ele>351</ele>
        <time>2010-04-03T10:54:17Z</time>
      </trkpt>
      <trkpt lat="45.74735" lon="4.70644">
        <ele>351</ele>
        <time>2010-04-03T10:54:19Z</time>
      </trkpt>
      <trkpt lat="45.74734" lon="4.70624">
        <ele>352</ele>
        <time>2010-04-03T10:54:22Z</time>
      </trkpt>
      <trkpt lat="45.74729" lon="4.70605">
        <ele>352</ele>
        <time>2010-04-03T10:54:25Z</time>
      </trkpt>
      <trkpt lat="45.74723" lon="4.70591">
        <ele>353</ele>
        <time>2010-04-03T10:54:27Z</time>
      </trkpt>
      <trkpt lat="45.7472" lon="4.70583">
        <ele>354</ele>
        <time>2010-04-03T10:54:28Z</time>
      </trkpt>
      <trkpt lat="45.74705" lon="4.70558">
        <ele>353</ele>
        <time>2010-04-03T10:54:31Z</time>
      </trkpt>
      <trkpt lat="45.74695" lon="4.70534">
        <ele>353</ele>
        <time>2010-04-03T10:54:34Z</time>
      </trkpt>
      <trkpt lat="45.74684" lon="4.7049">
        <ele>353</ele>
        <time>2010-04-03T10:54:39Z</time>
      </trkpt>
      <trkpt lat="45.74682" lon="4.70463">
        <ele>353</ele>
        <time>2010-04-03T10:54:42Z</time>
      </trkpt>
      <trkpt lat="45.74681" lon="4.70444">
        <ele>353</ele>
        <time>2010-04-03T10:54:44Z</time>
      </trkpt>
      <trkpt lat="45.74684" lon="4.7042">
        <ele>352</ele>
        <time>2010-04-03T10:54:46Z</time>
      </trkpt>
      <trkpt lat="45.74686" lon="4.70396">
        <ele>352</ele>
        <time>2010-04-03T10:54:49Z</time>
      </trkpt>
      <trkpt lat="45.74688" lon="4.70377">
        <ele>352</ele>
        <time>2010-04-03T10:54:51Z</time>
      </trkpt>
      <trkpt lat="45.74688" lon="4.70358">
        <ele>352</ele>
        <time>2010-04-03T10:54:53Z</time>
      </trkpt>
      <trkpt lat="45.74685" lon="4.70339">
        <ele>352</ele>
        <time>2010-04-03T10:54:55Z</time>
      </trkpt>
      <trkpt lat="45.74684" lon="4.70321">
        <ele>352</ele>
        <time>2010-04-03T10:54:58Z</time>
      </trkpt>
      <trkpt lat="45.74683" lon="4.70303">
        <ele>351</ele>
        <time>2010-04-03T10:55:00Z</time>
      </trkpt>
      <trkpt lat="45.74673" lon="4.70291">
        <ele>351</ele>
        <time>2010-04-03T10:55:02Z</time>
      </trkpt>
      <trkpt lat="45.74661" lon="4.70287">
        <ele>352</ele>
        <time>2010-04-03T10:55:04Z</time>
      </trkpt>
      <trkpt lat="45.74647" lon="4.70296">
        <ele>353</ele>
        <time>2010-04-03T10:55:06Z</time>
      </trkpt>
      <trkpt lat="45.74637" lon="4.7031">
        <ele>353</ele>
        <time>2010-04-03T10:55:08Z</time>
      </trkpt>
      <trkpt lat="45.74626" lon="4.70319">
        <ele>353</ele>
        <time>2010-04-03T10:55:11Z</time>
      </trkpt>
      <trkpt lat="45.7461" lon="4.70324">
        <ele>353</ele>
        <time>2010-04-03T10:55:13Z</time>
      </trkpt>
      <trkpt lat="45.74597" lon="4.70319">
        <ele>352</ele>
        <time>2010-04-03T10:55:16Z</time>
      </trkpt>
      <trkpt lat="45.74585" lon="4.70307">
        <ele>353</ele>
        <time>2010-04-03T10:55:18Z</time>
      </trkpt>
      <trkpt lat="45.74572" lon="4.70287">
        <ele>353</ele>
        <time>2010-04-03T10:55:20Z</time>
      </trkpt>
      <trkpt lat="45.74563" lon="4.70271">
        <ele>353</ele>
        <time>2010-04-03T10:55:23Z</time>
      </trkpt>
      <trkpt lat="45.74556" lon="4.70255">
        <ele>353</ele>
        <time>2010-04-03T10:55:25Z</time>
      </trkpt>
      <trkpt lat="45.74548" lon="4.70238">
        <ele>353</ele>
        <time>2010-04-03T10:55:27Z</time>
      </trkpt>
      <trkpt lat="45.74541" lon="4.70222">
        <ele>352</ele>
        <time>2010-04-03T10:55:29Z</time>
      </trkpt>
      <trkpt lat="45.74534" lon="4.70206">
        <ele>352</ele>
        <time>2010-04-03T10:55:31Z</time>
      </trkpt>
      <trkpt lat="45.74526" lon="4.70188">
        <ele>353</ele>
        <time>2010-04-03T10:55:33Z</time>
      </trkpt>
      <trkpt lat="45.74519" lon="4.70172">
        <ele>352</ele>
        <time>2010-04-03T10:55:35Z</time>
      </trkpt>
      <trkpt lat="45.74511" lon="4.70155">
        <ele>352</ele>
        <time>2010-04-03T10:55:37Z</time>
      </trkpt>
      <trkpt lat="45.74504" lon="4.70138">
        <ele>352</ele>
        <time>2010-04-03T10:55:40Z</time>
      </trkpt>
      <trkpt lat="45.74496" lon="4.70123">
        <ele>353</ele>
        <time>2010-04-03T10:55:42Z</time>
      </trkpt>
      <trkpt lat="45.74488" lon="4.70106">
        <ele>352</ele>
        <time>2010-04-03T10:55:44Z</time>
      </trkpt>
      <trkpt lat="45.7448" lon="4.70087">
        <ele>352</ele>
        <time>2010-04-03T10:55:47Z</time>
      </trkpt>
      <trkpt lat="45.74473" lon="4.70071">
        <ele>352</ele>
        <time>2010-04-03T10:55:49Z</time>
      </trkpt>
      <trkpt lat="45.74466" lon="4.70057">
        <ele>353</ele>
        <time>2010-04-03T10:55:51Z</time>
      </trkpt>
      <trkpt lat="45.7446" lon="4.70042">
        <ele>353</ele>
        <time>2010-04-03T10:55:53Z</time>
      </trkpt>
      <trkpt lat="45.74453" lon="4.70025">
        <ele>355</ele>
        <time>2010-04-03T10:55:55Z</time>
      </trkpt>
      <trkpt lat="45.74443" lon="4.70004">
        <ele>355</ele>
        <time>2010-04-03T10:55:59Z</time>
      </trkpt>
      <trkpt lat="45.74437" lon="4.69988">
        <ele>355</ele>
        <time>2010-04-03T10:56:01Z</time>
      </trkpt>
      <trkpt lat="45.74431" lon="4.69974">
        <ele>356</ele>
        <time>2010-04-03T10:56:03Z</time>
      </trkpt>
      <trkpt lat="45.74418" lon="4.69948">
        <ele>356</ele>
        <time>2010-04-03T10:56:07Z</time>
      </trkpt>
      <trkpt lat="45.74408" lon="4.69922">
        <ele>355</ele>
        <time>2010-04-03T10:56:11Z</time>
      </trkpt>
      <trkpt lat="45.74399" lon="4.69903">
        <ele>355</ele>
        <time>2010-04-03T10:56:14Z</time>
      </trkpt>
      <trkpt lat="45.74391" lon="4.69884">
        <ele>354</ele>
        <time>2010-04-03T10:56:17Z</time>
      </trkpt>
      <trkpt lat="45.74384" lon="4.69872">
        <ele>353</ele>
        <time>2010-04-03T10:56:19Z</time>
      </trkpt>
      <trkpt lat="45.74376" lon="4.6986">
        <ele>352</ele>
        <time>2010-04-03T10:56:21Z</time>
      </trkpt>
      <trkpt lat="45.74369" lon="4.69847">
        <ele>352</ele>
        <time>2010-04-03T10:56:23Z</time>
      </trkpt>
      <trkpt lat="45.74361" lon="4.69833">
        <ele>352</ele>
        <time>2010-04-03T10:56:25Z</time>
      </trkpt>
      <trkpt lat="45.74354" lon="4.69819">
        <ele>352</ele>
        <time>2010-04-03T10:56:27Z</time>
      </trkpt>
      <trkpt lat="45.74347" lon="4.69805">
        <ele>352</ele>
        <time>2010-04-03T10:56:29Z</time>
      </trkpt>
      <trkpt lat="45.7434" lon="4.6979">
        <ele>353</ele>
        <time>2010-04-03T10:56:31Z</time>
      </trkpt>
      <trkpt lat="45.74328" lon="4.69766">
        <ele>352</ele>
        <time>2010-04-03T10:56:34Z</time>
      </trkpt>
      <trkpt lat="45.74316" lon="4.69737">
        <ele>352</ele>
        <time>2010-04-03T10:56:37Z</time>
      </trkpt>
      <trkpt lat="45.74306" lon="4.69714">
        <ele>351</ele>
        <time>2010-04-03T10:56:40Z</time>
      </trkpt>
      <trkpt lat="45.74297" lon="4.69695">
        <ele>351</ele>
        <time>2010-04-03T10:56:42Z</time>
      </trkpt>
      <trkpt lat="45.74289" lon="4.69675">
        <ele>352</ele>
        <time>2010-04-03T10:56:44Z</time>
      </trkpt>
      <trkpt lat="45.74279" lon="4.69656">
        <ele>350</ele>
        <time>2010-04-03T10:56:46Z</time>
      </trkpt>
      <trkpt lat="45.74271" lon="4.69636">
        <ele>350</ele>
        <time>2010-04-03T10:56:48Z</time>
      </trkpt>
      <trkpt lat="45.74262" lon="4.69617">
        <ele>349</ele>
        <time>2010-04-03T10:56:51Z</time>
      </trkpt>
      <trkpt lat="45.74254" lon="4.696">
        <ele>350</ele>
        <time>2010-04-03T10:56:53Z</time>
      </trkpt>
      <trkpt lat="45.74249" lon="4.69584">
        <ele>350</ele>
        <time>2010-04-03T10:56:55Z</time>
      </trkpt>
      <trkpt lat="45.74244" lon="4.69572">
        <ele>350</ele>
        <time>2010-04-03T10:56:57Z</time>
      </trkpt>
      <trkpt lat="45.74238" lon="4.69561">
        <ele>350</ele>
        <time>2010-04-03T10:56:59Z</time>
      </trkpt>
      <trkpt lat="45.74232" lon="4.6955">
        <ele>349</ele>
        <time>2010-04-03T10:57:01Z</time>
      </trkpt>
      <trkpt lat="45.74227" lon="4.69537">
        <ele>349</ele>
        <time>2010-04-03T10:57:04Z</time>
      </trkpt>
      <trkpt lat="45.74222" lon="4.69525">
        <ele>349</ele>
        <time>2010-04-03T10:57:06Z</time>
      </trkpt>
      <trkpt lat="45.74217" lon="4.69512">
        <ele>350</ele>
        <time>2010-04-03T10:57:08Z</time>
      </trkpt>
      <trkpt lat="45.74209" lon="4.69495">
        <ele>350</ele>
        <time>2010-04-03T10:57:11Z</time>
      </trkpt>
      <trkpt lat="45.74202" lon="4.6948">
        <ele>350</ele>
        <time>2010-04-03T10:57:13Z</time>
      </trkpt>
      <trkpt lat="45.74197" lon="4.69468">
        <ele>351</ele>
        <time>2010-04-03T10:57:16Z</time>
      </trkpt>
      <trkpt lat="45.74191" lon="4.69456">
        <ele>352</ele>
        <time>2010-04-03T10:57:18Z</time>
      </trkpt>
      <trkpt lat="45.74185" lon="4.69441">
        <ele>352</ele>
        <time>2010-04-03T10:57:20Z</time>
      </trkpt>
      <trkpt lat="45.7418" lon="4.69431">
        <ele>353</ele>
        <time>2010-04-03T10:57:23Z</time>
      </trkpt>
      <trkpt lat="45.74175" lon="4.69421">
        <ele>353</ele>
        <time>2010-04-03T10:57:25Z</time>
      </trkpt>
      <trkpt lat="45.74169" lon="4.69411">
        <ele>353</ele>
        <time>2010-04-03T10:57:27Z</time>
      </trkpt>
      <trkpt lat="45.74162" lon="4.69398">
        <ele>353</ele>
        <time>2010-04-03T10:57:30Z</time>
      </trkpt>
      <trkpt lat="45.74155" lon="4.69386">
        <ele>353</ele>
        <time>2010-04-03T10:57:32Z</time>
      </trkpt>
      <trkpt lat="45.74148" lon="4.69373">
        <ele>353</ele>
        <time>2010-04-03T10:57:35Z</time>
      </trkpt>
      <trkpt lat="45.74144" lon="4.69363">
        <ele>354</ele>
        <time>2010-04-03T10:57:37Z</time>
      </trkpt>
      <trkpt lat="45.74139" lon="4.69353">
        <ele>354</ele>
        <time>2010-04-03T10:57:39Z</time>
      </trkpt>
      <trkpt lat="45.74134" lon="4.69342">
        <ele>354</ele>
        <time>2010-04-03T10:57:41Z</time>
      </trkpt>
      <trkpt lat="45.74128" lon="4.69326">
        <ele>354</ele>
        <time>2010-04-03T10:57:44Z</time>
      </trkpt>
      <trkpt lat="45.74123" lon="4.69314">
        <ele>354</ele>
        <time>2010-04-03T10:57:46Z</time>
      </trkpt>
      <trkpt lat="45.74118" lon="4.69302">
        <ele>354</ele>
        <time>2010-04-03T10:57:48Z</time>
      </trkpt>
      <trkpt lat="45.74113" lon="4.69291">
        <ele>354</ele>
        <time>2010-04-03T10:57:50Z</time>
      </trkpt>
      <trkpt lat="45.74108" lon="4.6928">
        <ele>354</ele>
        <time>2010-04-03T10:57:52Z</time>
      </trkpt>
      <trkpt lat="45.74104" lon="4.69271">
        <ele>354</ele>
        <time>2010-04-03T10:57:54Z</time>
      </trkpt>
      <trkpt lat="45.74099" lon="4.69262">
        <ele>354</ele>
        <time>2010-04-03T10:57:57Z</time>
      </trkpt>
      <trkpt lat="45.74095" lon="4.69253">
        <ele>354</ele>
        <time>2010-04-03T10:57:59Z</time>
      </trkpt>
      <trkpt lat="45.7409" lon="4.69244">
        <ele>353</ele>
        <time>2010-04-03T10:58:01Z</time>
      </trkpt>
      <trkpt lat="45.74085" lon="4.69234">
        <ele>353</ele>
        <time>2010-04-03T10:58:03Z</time>
      </trkpt>
      <trkpt lat="45.74081" lon="4.69225">
        <ele>353</ele>
        <time>2010-04-03T10:58:05Z</time>
      </trkpt>
      <trkpt lat="45.74078" lon="4.69216">
        <ele>352</ele>
        <time>2010-04-03T10:58:07Z</time>
      </trkpt>
      <trkpt lat="45.74074" lon="4.69208">
        <ele>353</ele>
        <time>2010-04-03T10:58:09Z</time>
      </trkpt>
      <trkpt lat="45.7407" lon="4.69199">
        <ele>354</ele>
        <time>2010-04-03T10:58:12Z</time>
      </trkpt>
      <trkpt lat="45.74065" lon="4.69187">
        <ele>355</ele>
        <time>2010-04-03T10:58:14Z</time>
      </trkpt>
      <trkpt lat="45.74058" lon="4.69169">
        <ele>356</ele>
        <time>2010-04-03T10:58:18Z</time>
      </trkpt>
      <trkpt lat="45.74053" lon="4.69158">
        <ele>356</ele>
        <time>2010-04-03T10:58:20Z</time>
      </trkpt>
      <trkpt lat="45.74048" lon="4.69147">
        <ele>356</ele>
        <time>2010-04-03T10:58:22Z</time>
      </trkpt>
      <trkpt lat="45.74041" lon="4.69132">
        <ele>357</ele>
        <time>2010-04-03T10:58:25Z</time>
      </trkpt>
      <trkpt lat="45.74035" lon="4.6912">
        <ele>358</ele>
        <time>2010-04-03T10:58:27Z</time>
      </trkpt>
      <trkpt lat="45.74029" lon="4.69107">
        <ele>359</ele>
        <time>2010-04-03T10:58:29Z</time>
      </trkpt>
      <trkpt lat="45.74024" lon="4.69095">
        <ele>359</ele>
        <time>2010-04-03T10:58:31Z</time>
      </trkpt>
      <trkpt lat="45.7402" lon="4.69084">
        <ele>359</ele>
        <time>2010-04-03T10:58:33Z</time>
      </trkpt>
      <trkpt lat="45.74014" lon="4.69072">
        <ele>360</ele>
        <time>2010-04-03T10:58:35Z</time>
      </trkpt>
      <trkpt lat="45.74008" lon="4.69061">
        <ele>360</ele>
        <time>2010-04-03T10:58:37Z</time>
      </trkpt>
      <trkpt lat="45.74002" lon="4.69051">
        <ele>361</ele>
        <time>2010-04-03T10:58:40Z</time>
      </trkpt>
      <trkpt lat="45.73997" lon="4.6904">
        <ele>362</ele>
        <time>2010-04-03T10:58:42Z</time>
      </trkpt>
      <trkpt lat="45.73992" lon="4.69028">
        <ele>362</ele>
        <time>2010-04-03T10:58:44Z</time>
      </trkpt>
      <trkpt lat="45.73987" lon="4.69018">
        <ele>362</ele>
        <time>2010-04-03T10:58:46Z</time>
      </trkpt>
      <trkpt lat="45.73982" lon="4.69007">
        <ele>363</ele>
        <time>2010-04-03T10:58:48Z</time>
      </trkpt>
      <trkpt lat="45.73977" lon="4.68995">
        <ele>364</ele>
        <time>2010-04-03T10:58:50Z</time>
      </trkpt>
      <trkpt lat="45.73971" lon="4.68984">
        <ele>364</ele>
        <time>2010-04-03T10:58:52Z</time>
      </trkpt>
      <trkpt lat="45.73966" lon="4.68973">
        <ele>364</ele>
        <time>2010-04-03T10:58:54Z</time>
      </trkpt>
      <trkpt lat="45.7396" lon="4.68963">
        <ele>364</ele>
        <time>2010-04-03T10:58:56Z</time>
      </trkpt>
      <trkpt lat="45.73955" lon="4.68952">
        <ele>365</ele>
        <time>2010-04-03T10:58:59Z</time>
      </trkpt>
      <trkpt lat="45.73947" lon="4.68939">
        <ele>366</ele>
        <time>2010-04-03T10:59:01Z</time>
      </trkpt>
      <trkpt lat="45.73941" lon="4.68924">
        <ele>367</ele>
        <time>2010-04-03T10:59:04Z</time>
      </trkpt>
      <trkpt lat="45.73933" lon="4.68906">
        <ele>367</ele>
        <time>2010-04-03T10:59:07Z</time>
      </trkpt>
      <trkpt lat="45.73927" lon="4.68892">
        <ele>367</ele>
        <time>2010-04-03T10:59:10Z</time>
      </trkpt>
      <trkpt lat="45.73921" lon="4.68878">
        <ele>366</ele>
        <time>2010-04-03T10:59:13Z</time>
      </trkpt>
      <trkpt lat="45.73913" lon="4.68863">
        <ele>366</ele>
        <time>2010-04-03T10:59:15Z</time>
      </trkpt>
      <trkpt lat="45.73906" lon="4.68849">
        <ele>365</ele>
        <time>2010-04-03T10:59:18Z</time>
      </trkpt>
      <trkpt lat="45.73895" lon="4.68831">
        <ele>365</ele>
        <time>2010-04-03T10:59:21Z</time>
      </trkpt>
      <trkpt lat="45.73887" lon="4.68818">
        <ele>365</ele>
        <time>2010-04-03T10:59:24Z</time>
      </trkpt>
      <trkpt lat="45.73881" lon="4.68809">
        <ele>366</ele>
        <time>2010-04-03T10:59:26Z</time>
      </trkpt>
      <trkpt lat="45.73872" lon="4.68793">
        <ele>365</ele>
        <time>2010-04-03T10:59:30Z</time>
      </trkpt>
      <trkpt lat="45.73868" lon="4.68783">
        <ele>364</ele>
        <time>2010-04-03T10:59:34Z</time>
      </trkpt>
      <trkpt lat="45.73867" lon="4.68774">
        <ele>364</ele>
        <time>2010-04-03T10:59:36Z</time>
      </trkpt>
      <trkpt lat="45.73865" lon="4.68764">
        <ele>363</ele>
        <time>2010-04-03T10:59:38Z</time>
      </trkpt>
      <trkpt lat="45.73861" lon="4.68753">
        <ele>363</ele>
        <time>2010-04-03T10:59:40Z</time>
      </trkpt>
      <trkpt lat="45.73855" lon="4.68741">
        <ele>362</ele>
        <time>2010-04-03T10:59:42Z</time>
      </trkpt>
      <trkpt lat="45.73848" lon="4.6873">
        <ele>362</ele>
        <time>2010-04-03T10:59:44Z</time>
      </trkpt>
      <trkpt lat="45.7384" lon="4.68719">
        <ele>362</ele>
        <time>2010-04-03T10:59:46Z</time>
      </trkpt>
      <trkpt lat="45.73833" lon="4.68707">
        <ele>362</ele>
        <time>2010-04-03T10:59:48Z</time>
      </trkpt>
      <trkpt lat="45.73826" lon="4.68695">
        <ele>362</ele>
        <time>2010-04-03T10:59:51Z</time>
      </trkpt>
      <trkpt lat="45.73819" lon="4.68685">
        <ele>363</ele>
        <time>2010-04-03T10:59:53Z</time>
      </trkpt>
      <trkpt lat="45.73813" lon="4.68675">
        <ele>362</ele>
        <time>2010-04-03T10:59:55Z</time>
      </trkpt>
      <trkpt lat="45.73807" lon="4.68665">
        <ele>363</ele>
        <time>2010-04-03T10:59:57Z</time>
      </trkpt>
      <trkpt lat="45.73802" lon="4.68654">
        <ele>363</ele>
        <time>2010-04-03T10:59:59Z</time>
      </trkpt>
      <trkpt lat="45.73797" lon="4.68642">
        <ele>363</ele>
        <time>2010-04-03T11:00:01Z</time>
      </trkpt>
      <trkpt lat="45.73791" lon="4.68629">
        <ele>363</ele>
        <time>2010-04-03T11:00:03Z</time>
      </trkpt>
      <trkpt lat="45.73786" lon="4.68614">
        <ele>364</ele>
        <time>2010-04-03T11:00:06Z</time>
      </trkpt>
      <trkpt lat="45.73781" lon="4.68601">
        <ele>364</ele>
        <time>2010-04-03T11:00:08Z</time>
      </trkpt>
      <trkpt lat="45.73776" lon="4.68589">
        <ele>365</ele>
        <time>2010-04-03T11:00:10Z</time>
      </trkpt>
      <trkpt lat="45.73771" lon="4.68577">
        <ele>365</ele>
        <time>2010-04-03T11:00:12Z</time>
      </trkpt>
      <trkpt lat="45.73766" lon="4.68566">
        <ele>365</ele>
        <time>2010-04-03T11:00:14Z</time>
      </trkpt>
      <trkpt lat="45.73758" lon="4.68548">
        <ele>365</ele>
        <time>2010-04-03T11:00:17Z</time>
      </trkpt>
      <trkpt lat="45.73753" lon="4.68535">
        <ele>366</ele>
        <time>2010-04-03T11:00:19Z</time>
      </trkpt>
      <trkpt lat="45.73748" lon="4.68523">
        <ele>366</ele>
        <time>2010-04-03T11:00:22Z</time>
      </trkpt>
      <trkpt lat="45.73742" lon="4.68504">
        <ele>367</ele>
        <time>2010-04-03T11:00:25Z</time>
      </trkpt>
      <trkpt lat="45.73737" lon="4.6849">
        <ele>369</ele>
        <time>2010-04-03T11:00:27Z</time>
      </trkpt>
      <trkpt lat="45.73732" lon="4.68478">
        <ele>370</ele>
        <time>2010-04-03T11:00:29Z</time>
      </trkpt>
      <trkpt lat="45.73728" lon="4.68466">
        <ele>371</ele>
        <time>2010-04-03T11:00:31Z</time>
      </trkpt>
      <trkpt lat="45.73723" lon="4.68454">
        <ele>371</ele>
        <time>2010-04-03T11:00:34Z</time>
      </trkpt>
      <trkpt lat="45.73718" lon="4.68444">
        <ele>371</ele>
        <time>2010-04-03T11:00:36Z</time>
      </trkpt>
      <trkpt lat="45.73711" lon="4.68429">
        <ele>373</ele>
        <time>2010-04-03T11:00:39Z</time>
      </trkpt>
      <trkpt lat="45.73705" lon="4.68416">
        <ele>374</ele>
        <time>2010-04-03T11:00:41Z</time>
      </trkpt>
      <trkpt lat="45.73698" lon="4.684">
        <ele>376</ele>
        <time>2010-04-03T11:00:45Z</time>
      </trkpt>
      <trkpt lat="45.73692" lon="4.68387">
        <ele>377</ele>
        <time>2010-04-03T11:00:47Z</time>
      </trkpt>
      <trkpt lat="45.73689" lon="4.68377">
        <ele>377</ele>
        <time>2010-04-03T11:00:50Z</time>
      </trkpt>
      <trkpt lat="45.73684" lon="4.68364">
        <ele>378</ele>
        <time>2010-04-03T11:00:52Z</time>
      </trkpt>
      <trkpt lat="45.73681" lon="4.68355">
        <ele>378</ele>
        <time>2010-04-03T11:00:54Z</time>
      </trkpt>
      <trkpt lat="45.73678" lon="4.68345">
        <ele>379</ele>
        <time>2010-04-03T11:00:56Z</time>
      </trkpt>
      <trkpt lat="45.73674" lon="4.68337">
        <ele>380</ele>
        <time>2010-04-03T11:00:59Z</time>
      </trkpt>
      <trkpt lat="45.73671" lon="4.68328">
        <ele>380</ele>
        <time>2010-04-03T11:01:01Z</time>
      </trkpt>
      <trkpt lat="45.73667" lon="4.6832">
        <ele>380</ele>
        <time>2010-04-03T11:01:03Z</time>
      </trkpt>
      <trkpt lat="45.73663" lon="4.68312">
        <ele>380</ele>
        <time>2010-04-03T11:01:05Z</time>
      </trkpt>
      <trkpt lat="45.73657" lon="4.68302">
        <ele>381</ele>
        <time>2010-04-03T11:01:08Z</time>
      </trkpt>
      <trkpt lat="45.73653" lon="4.68294">
        <ele>382</ele>
        <time>2010-04-03T11:01:10Z</time>
      </trkpt>
      <trkpt lat="45.73649" lon="4.68286">
        <ele>382</ele>
        <time>2010-04-03T11:01:12Z</time>
      </trkpt>
      <trkpt lat="45.73645" lon="4.68278">
        <ele>382</ele>
        <time>2010-04-03T11:01:14Z</time>
      </trkpt>
      <trkpt lat="45.73641" lon="4.6827">
        <ele>382</ele>
        <time>2010-04-03T11:01:16Z</time>
      </trkpt>
      <trkpt lat="45.73636" lon="4.68261">
        <ele>382</ele>
        <time>2010-04-03T11:01:18Z</time>
      </trkpt>
      <trkpt lat="45.73632" lon="4.68253">
        <ele>381</ele>
        <time>2010-04-03T11:01:20Z</time>
      </trkpt>
      <trkpt lat="45.73627" lon="4.68244">
        <ele>381</ele>
        <time>2010-04-03T11:01:22Z</time>
      </trkpt>
      <trkpt lat="45.73623" lon="4.68234">
        <ele>382</ele>
        <time>2010-04-03T11:01:25Z</time>
      </trkpt>
      <trkpt lat="45.73618" lon="4.68225">
        <ele>382</ele>
        <time>2010-04-03T11:01:27Z</time>
      </trkpt>
      <trkpt lat="45.73612" lon="4.68214">
        <ele>382</ele>
        <time>2010-04-03T11:01:29Z</time>
      </trkpt>
      <trkpt lat="45.73608" lon="4.68205">
        <ele>382</ele>
        <time>2010-04-03T11:01:31Z</time>
      </trkpt>
      <trkpt lat="45.73603" lon="4.68194">
        <ele>382</ele>
        <time>2010-04-03T11:01:34Z</time>
      </trkpt>
      <trkpt lat="45.73598" lon="4.68185">
        <ele>383</ele>
        <time>2010-04-03T11:01:36Z</time>
      </trkpt>
      <trkpt lat="45.73594" lon="4.68175">
        <ele>382</ele>
        <time>2010-04-03T11:01:38Z</time>
      </trkpt>
      <trkpt lat="45.73589" lon="4.68166">
        <ele>382</ele>
        <time>2010-04-03T11:01:40Z</time>
      </trkpt>
      <trkpt lat="45.73584" lon="4.68157">
        <ele>382</ele>
        <time>2010-04-03T11:01:42Z</time>
      </trkpt>
      <trkpt lat="45.73579" lon="4.68146">
        <ele>383</ele>
        <time>2010-04-03T11:01:44Z</time>
      </trkpt>
      <trkpt lat="45.73574" lon="4.68136">
        <ele>383</ele>
        <time>2010-04-03T11:01:46Z</time>
      </trkpt>
      <trkpt lat="45.73569" lon="4.68126">
        <ele>383</ele>
        <time>2010-04-03T11:01:49Z</time>
      </trkpt>
      <trkpt lat="45.73561" lon="4.68113">
        <ele>384</ele>
        <time>2010-04-03T11:01:51Z</time>
      </trkpt>
      <trkpt lat="45.73556" lon="4.68102">
        <ele>384</ele>
        <time>2010-04-03T11:01:53Z</time>
      </trkpt>
      <trkpt lat="45.73549" lon="4.6809">
        <ele>385</ele>
        <time>2010-04-03T11:01:56Z</time>
      </trkpt>
      <trkpt lat="45.7354" lon="4.68071">
        <ele>387</ele>
        <time>2010-04-03T11:01:59Z</time>
      </trkpt>
      <trkpt lat="45.73535" lon="4.68057">
        <ele>388</ele>
        <time>2010-04-03T11:02:01Z</time>
      </trkpt>
      <trkpt lat="45.73528" lon="4.68041">
        <ele>388</ele>
        <time>2010-04-03T11:02:03Z</time>
      </trkpt>
      <trkpt lat="45.73519" lon="4.68019">
        <ele>389</ele>
        <time>2010-04-03T11:02:07Z</time>
      </trkpt>
      <trkpt lat="45.73513" lon="4.68002">
        <ele>389</ele>
        <time>2010-04-03T11:02:09Z</time>
      </trkpt>
      <trkpt lat="45.73505" lon="4.67983">
        <ele>388</ele>
        <time>2010-04-03T11:02:12Z</time>
      </trkpt>
      <trkpt lat="45.73498" lon="4.67969">
        <ele>388</ele>
        <time>2010-04-03T11:02:14Z</time>
      </trkpt>
      <trkpt lat="45.73492" lon="4.67955">
        <ele>388</ele>
        <time>2010-04-03T11:02:16Z</time>
      </trkpt>
      <trkpt lat="45.73485" lon="4.67943">
        <ele>389</ele>
        <time>2010-04-03T11:02:18Z</time>
      </trkpt>
      <trkpt lat="45.73478" lon="4.67931">
        <ele>389</ele>
        <time>2010-04-03T11:02:20Z</time>
      </trkpt>
      <trkpt lat="45.7347" lon="4.67917">
        <ele>390</ele>
        <time>2010-04-03T11:02:23Z</time>
      </trkpt>
      <trkpt lat="45.73464" lon="4.67905">
        <ele>390</ele>
        <time>2010-04-03T11:02:25Z</time>
      </trkpt>
      <trkpt lat="45.73459" lon="4.67895">
        <ele>390</ele>
        <time>2010-04-03T11:02:27Z</time>
      </trkpt>
      <trkpt lat="45.7345" lon="4.67879">
        <ele>390</ele>
        <time>2010-04-03T11:02:31Z</time>
      </trkpt>
      <trkpt lat="45.73444" lon="4.67866">
        <ele>389</ele>
        <time>2010-04-03T11:02:33Z</time>
      </trkpt>
      <trkpt lat="45.7344" lon="4.67855">
        <ele>389</ele>
        <time>2010-04-03T11:02:36Z</time>
      </trkpt>
      <trkpt lat="45.73433" lon="4.67839">
        <ele>389</ele>
        <time>2010-04-03T11:02:40Z</time>
      </trkpt>
      <trkpt lat="45.73428" lon="4.67826">
        <ele>388</ele>
        <time>2010-04-03T11:02:42Z</time>
      </trkpt>
      <trkpt lat="45.73423" lon="4.67816">
        <ele>387</ele>
        <time>2010-04-03T11:02:45Z</time>
      </trkpt>
      <trkpt lat="45.73418" lon="4.67806">
        <ele>388</ele>
        <time>2010-04-03T11:02:47Z</time>
      </trkpt>
      <trkpt lat="45.73414" lon="4.67797">
        <ele>389</ele>
        <time>2010-04-03T11:02:49Z</time>
      </trkpt>
      <trkpt lat="45.7341" lon="4.67789">
        <ele>389</ele>
        <time>2010-04-03T11:02:51Z</time>
      </trkpt>
      <trkpt lat="45.73405" lon="4.67778">
        <ele>389</ele>
        <time>2010-04-03T11:02:54Z</time>
      </trkpt>
      <trkpt lat="45.734" lon="4.67768">
        <ele>390</ele>
        <time>2010-04-03T11:02:56Z</time>
      </trkpt>
      <trkpt lat="45.73396" lon="4.67759">
        <ele>390</ele>
        <time>2010-04-03T11:02:58Z</time>
      </trkpt>
      <trkpt lat="45.73392" lon="4.6775">
        <ele>390</ele>
        <time>2010-04-03T11:03:00Z</time>
      </trkpt>
      <trkpt lat="45.73386" lon="4.67739">
        <ele>391</ele>
        <time>2010-04-03T11:03:03Z</time>
      </trkpt>
      <trkpt lat="45.73381" lon="4.6773">
        <ele>391</ele>
        <time>2010-04-03T11:03:05Z</time>
      </trkpt>
      <trkpt lat="45.73377" lon="4.67722">
        <ele>391</ele>
        <time>2010-04-03T11:03:07Z</time>
      </trkpt>
      <trkpt lat="45.73373" lon="4.67714">
        <ele>391</ele>
        <time>2010-04-03T11:03:10Z</time>
      </trkpt>
      <trkpt lat="45.7337" lon="4.67705">
        <ele>391</ele>
        <time>2010-04-03T11:03:12Z</time>
      </trkpt>
      <trkpt lat="45.73366" lon="4.67697">
        <ele>391</ele>
        <time>2010-04-03T11:03:14Z</time>
      </trkpt>
      <trkpt lat="45.73362" lon="4.67689">
        <ele>391</ele>
        <time>2010-04-03T11:03:16Z</time>
      </trkpt>
      <trkpt lat="45.73357" lon="4.67678">
        <ele>392</ele>
        <time>2010-04-03T11:03:19Z</time>
      </trkpt>
      <trkpt lat="45.73353" lon="4.67669">
        <ele>391</ele>
        <time>2010-04-03T11:03:21Z</time>
      </trkpt>
      <trkpt lat="45.7335" lon="4.67661">
        <ele>391</ele>
        <time>2010-04-03T11:03:23Z</time>
      </trkpt>
      <trkpt lat="45.73346" lon="4.67652">
        <ele>390</ele>
        <time>2010-04-03T11:03:25Z</time>
      </trkpt>
      <trkpt lat="45.73342" lon="4.67643">
        <ele>390</ele>
        <time>2010-04-03T11:03:27Z</time>
      </trkpt>
      <trkpt lat="45.73339" lon="4.67633">
        <ele>390</ele>
        <time>2010-04-03T11:03:29Z</time>
      </trkpt>
      <trkpt lat="45.73335" lon="4.67624">
        <ele>391</ele>
        <time>2010-04-03T11:03:31Z</time>
      </trkpt>
      <trkpt lat="45.73332" lon="4.67614">
        <ele>391</ele>
        <time>2010-04-03T11:03:33Z</time>
      </trkpt>
      <trkpt lat="45.73327" lon="4.67603">
        <ele>391</ele>
        <time>2010-04-03T11:03:36Z</time>
      </trkpt>
      <trkpt lat="45.73323" lon="4.67594">
        <ele>391</ele>
        <time>2010-04-03T11:03:38Z</time>
      </trkpt>
      <trkpt lat="45.73318" lon="4.67586">
        <ele>390</ele>
        <time>2010-04-03T11:03:40Z</time>
      </trkpt>
      <trkpt lat="45.73313" lon="4.67577">
        <ele>390</ele>
        <time>2010-04-03T11:03:42Z</time>
      </trkpt>
      <trkpt lat="45.73308" lon="4.67569">
        <ele>390</ele>
        <time>2010-04-03T11:03:44Z</time>
      </trkpt>
      <trkpt lat="45.73303" lon="4.67561">
        <ele>390</ele>
        <time>2010-04-03T11:03:46Z</time>
      </trkpt>
      <trkpt lat="45.73296" lon="4.6755">
        <ele>390</ele>
        <time>2010-04-03T11:03:49Z</time>
      </trkpt>
      <trkpt lat="45.7329" lon="4.67538">
        <ele>391</ele>
        <time>2010-04-03T11:03:51Z</time>
      </trkpt>
      <trkpt lat="45.73285" lon="4.67527">
        <ele>392</ele>
        <time>2010-04-03T11:03:54Z</time>
      </trkpt>
      <trkpt lat="45.7328" lon="4.67518">
        <ele>393</ele>
        <time>2010-04-03T11:03:56Z</time>
      </trkpt>
      <trkpt lat="45.73273" lon="4.67505">
        <ele>393</ele>
        <time>2010-04-03T11:03:59Z</time>
      </trkpt>
      <trkpt lat="45.73269" lon="4.67496">
        <ele>393</ele>
        <time>2010-04-03T11:04:01Z</time>
      </trkpt>
      <trkpt lat="45.73266" lon="4.67488">
        <ele>393</ele>
        <time>2010-04-03T11:04:03Z</time>
      </trkpt>
      <trkpt lat="45.73262" lon="4.67479">
        <ele>394</ele>
        <time>2010-04-03T11:04:06Z</time>
      </trkpt>
      <trkpt lat="45.7326" lon="4.67469">
        <ele>394</ele>
        <time>2010-04-03T11:04:08Z</time>
      </trkpt>
      <trkpt lat="45.73257" lon="4.67459">
        <ele>395</ele>
        <time>2010-04-03T11:04:10Z</time>
      </trkpt>
      <trkpt lat="45.73254" lon="4.67441">
        <ele>395</ele>
        <time>2010-04-03T11:04:13Z</time>
      </trkpt>
      <trkpt lat="45.73255" lon="4.67425">
        <ele>396</ele>
        <time>2010-04-03T11:04:15Z</time>
      </trkpt>
      <trkpt lat="45.73256" lon="4.67411">
        <ele>397</ele>
        <time>2010-04-03T11:04:18Z</time>
      </trkpt>
      <trkpt lat="45.73257" lon="4.67398">
        <ele>398</ele>
        <time>2010-04-03T11:04:20Z</time>
      </trkpt>
      <trkpt lat="45.73259" lon="4.67385">
        <ele>399</ele>
        <time>2010-04-03T11:04:22Z</time>
      </trkpt>
      <trkpt lat="45.73259" lon="4.6738">
        <ele>399</ele>
        <time>2010-04-03T11:04:23Z</time>
      </trkpt>
      <trkpt lat="45.73263" lon="4.67357">
        <ele>401</ele>
        <time>2010-04-03T11:04:26Z</time>
      </trkpt>
      <trkpt lat="45.73265" lon="4.67345">
        <ele>402</ele>
        <time>2010-04-03T11:04:28Z</time>
      </trkpt>
      <trkpt lat="45.73267" lon="4.67332">
        <ele>404</ele>
        <time>2010-04-03T11:04:30Z</time>
      </trkpt>
      <trkpt lat="45.73268" lon="4.67319">
        <ele>405</ele>
        <time>2010-04-03T11:04:32Z</time>
      </trkpt>
      <trkpt lat="45.73269" lon="4.67303">
        <ele>406</ele>
        <time>2010-04-03T11:04:35Z</time>
      </trkpt>
      <trkpt lat="45.73271" lon="4.67292">
        <ele>407</ele>
        <time>2010-04-03T11:04:37Z</time>
      </trkpt>
      <trkpt lat="45.73272" lon="4.67278">
        <ele>407</ele>
        <time>2010-04-03T11:04:40Z</time>
      </trkpt>
      <trkpt lat="45.73273" lon="4.67268">
        <ele>407</ele>
        <time>2010-04-03T11:04:42Z</time>
      </trkpt>
      <trkpt lat="45.73275" lon="4.67256">
        <ele>406</ele>
        <time>2010-04-03T11:04:45Z</time>
      </trkpt>
      <trkpt lat="45.73275" lon="4.67246">
        <ele>406</ele>
        <time>2010-04-03T11:04:47Z</time>
      </trkpt>
      <trkpt lat="45.73277" lon="4.67236">
        <ele>406</ele>
        <time>2010-04-03T11:04:49Z</time>
      </trkpt>
      <trkpt lat="45.73279" lon="4.67225">
        <ele>406</ele>
        <time>2010-04-03T11:04:51Z</time>
      </trkpt>
      <trkpt lat="45.73282" lon="4.67216">
        <ele>406</ele>
        <time>2010-04-03T11:04:53Z</time>
      </trkpt>
      <trkpt lat="45.7329" lon="4.67204">
        <ele>406</ele>
        <time>2010-04-03T11:04:57Z</time>
      </trkpt>
      <trkpt lat="45.73297" lon="4.67198">
        <ele>406</ele>
        <time>2010-04-03T11:04:59Z</time>
      </trkpt>
      <trkpt lat="45.73305" lon="4.67192">
        <ele>407</ele>
        <time>2010-04-03T11:05:01Z</time>
      </trkpt>
      <trkpt lat="45.73313" lon="4.67184">
        <ele>407</ele>
        <time>2010-04-03T11:05:03Z</time>
      </trkpt>
      <trkpt lat="45.73322" lon="4.67176">
        <ele>408</ele>
        <time>2010-04-03T11:05:06Z</time>
      </trkpt>
      <trkpt lat="45.73329" lon="4.67169">
        <ele>408</ele>
        <time>2010-04-03T11:05:08Z</time>
      </trkpt>
      <trkpt lat="45.73336" lon="4.67162">
        <ele>408</ele>
        <time>2010-04-03T11:05:10Z</time>
      </trkpt>
      <trkpt lat="45.73342" lon="4.67155">
        <ele>407</ele>
        <time>2010-04-03T11:05:12Z</time>
      </trkpt>
      <trkpt lat="45.73349" lon="4.67148">
        <ele>408</ele>
        <time>2010-04-03T11:05:14Z</time>
      </trkpt>
      <trkpt lat="45.73356" lon="4.67141">
        <ele>408</ele>
        <time>2010-04-03T11:05:17Z</time>
      </trkpt>
      <trkpt lat="45.73362" lon="4.67135">
        <ele>409</ele>
        <time>2010-04-03T11:05:19Z</time>
      </trkpt>
      <trkpt lat="45.73369" lon="4.67128">
        <ele>409</ele>
        <time>2010-04-03T11:05:21Z</time>
      </trkpt>
      <trkpt lat="45.73375" lon="4.67121">
        <ele>410</ele>
        <time>2010-04-03T11:05:23Z</time>
      </trkpt>
      <trkpt lat="45.73381" lon="4.67114">
        <ele>410</ele>
        <time>2010-04-03T11:05:25Z</time>
      </trkpt>
      <trkpt lat="45.73391" lon="4.67102">
        <ele>411</ele>
        <time>2010-04-03T11:05:29Z</time>
      </trkpt>
      <trkpt lat="45.73398" lon="4.67092">
        <ele>411</ele>
        <time>2010-04-03T11:05:33Z</time>
      </trkpt>
      <trkpt lat="45.73402" lon="4.67086">
        <ele>411</ele>
        <time>2010-04-03T11:05:35Z</time>
      </trkpt>
      <trkpt lat="45.73407" lon="4.6708">
        <ele>411</ele>
        <time>2010-04-03T11:05:37Z</time>
      </trkpt>
      <trkpt lat="45.73412" lon="4.67074">
        <ele>411</ele>
        <time>2010-04-03T11:05:39Z</time>
      </trkpt>
      <trkpt lat="45.73418" lon="4.67067">
        <ele>412</ele>
        <time>2010-04-03T11:05:41Z</time>
      </trkpt>
      <trkpt lat="45.73424" lon="4.67061">
        <ele>411</ele>
        <time>2010-04-03T11:05:43Z</time>
      </trkpt>
      <trkpt lat="45.7343" lon="4.67055">
        <ele>411</ele>
        <time>2010-04-03T11:05:45Z</time>
      </trkpt>
      <trkpt lat="45.73436" lon="4.67048">
        <ele>412</ele>
        <time>2010-04-03T11:05:47Z</time>
      </trkpt>
      <trkpt lat="45.73443" lon="4.67041">
        <ele>412</ele>
        <time>2010-04-03T11:05:49Z</time>
      </trkpt>
      <trkpt lat="45.73451" lon="4.67033">
        <ele>413</ele>
        <time>2010-04-03T11:05:51Z</time>
      </trkpt>
      <trkpt lat="45.73458" lon="4.67026">
        <ele>413</ele>
        <time>2010-04-03T11:05:54Z</time>
      </trkpt>
      <trkpt lat="45.73465" lon="4.67018">
        <ele>413</ele>
        <time>2010-04-03T11:05:56Z</time>
      </trkpt>
      <trkpt lat="45.73472" lon="4.67011">
        <ele>414</ele>
        <time>2010-04-03T11:05:58Z</time>
      </trkpt>
      <trkpt lat="45.73479" lon="4.67003">
        <ele>414</ele>
        <time>2010-04-03T11:06:00Z</time>
      </trkpt>
      <trkpt lat="45.73486" lon="4.66996">
        <ele>413</ele>
        <time>2010-04-03T11:06:02Z</time>
      </trkpt>
      <trkpt lat="45.73496" lon="4.66985">
        <ele>413</ele>
        <time>2010-04-03T11:06:05Z</time>
      </trkpt>
      <trkpt lat="45.73502" lon="4.66978">
        <ele>412</ele>
        <time>2010-04-03T11:06:08Z</time>
      </trkpt>
      <trkpt lat="45.73508" lon="4.66972">
        <ele>412</ele>
        <time>2010-04-03T11:06:10Z</time>
      </trkpt>
      <trkpt lat="45.73514" lon="4.66965">
        <ele>411</ele>
        <time>2010-04-03T11:06:12Z</time>
      </trkpt>
      <trkpt lat="45.73521" lon="4.66958">
        <ele>411</ele>
        <time>2010-04-03T11:06:14Z</time>
      </trkpt>
      <trkpt lat="45.73527" lon="4.66951">
        <ele>410</ele>
        <time>2010-04-03T11:06:16Z</time>
      </trkpt>
      <trkpt lat="45.73533" lon="4.66944">
        <ele>410</ele>
        <time>2010-04-03T11:06:18Z</time>
      </trkpt>
      <trkpt lat="45.73539" lon="4.66936">
        <ele>410</ele>
        <time>2010-04-03T11:06:20Z</time>
      </trkpt>
      <trkpt lat="45.73544" lon="4.66927">
        <ele>410</ele>
        <time>2010-04-03T11:06:22Z</time>
      </trkpt>
      <trkpt lat="45.73548" lon="4.66917">
        <ele>410</ele>
        <time>2010-04-03T11:06:24Z</time>
      </trkpt>
      <trkpt lat="45.73551" lon="4.66907">
        <ele>411</ele>
        <time>2010-04-03T11:06:26Z</time>
      </trkpt>
      <trkpt lat="45.73554" lon="4.66897">
        <ele>411</ele>
        <time>2010-04-03T11:06:29Z</time>
      </trkpt>
      <trkpt lat="45.73555" lon="4.66886">
        <ele>411</ele>
        <time>2010-04-03T11:06:31Z</time>
      </trkpt>
      <trkpt lat="45.73556" lon="4.66875">
        <ele>411</ele>
        <time>2010-04-03T11:06:33Z</time>
      </trkpt>
      <trkpt lat="45.73557" lon="4.66864">
        <ele>411</ele>
        <time>2010-04-03T11:06:35Z</time>
      </trkpt>
      <trkpt lat="45.73558" lon="4.66854">
        <ele>412</ele>
        <time>2010-04-03T11:06:37Z</time>
      </trkpt>
      <trkpt lat="45.7356" lon="4.66843">
        <ele>412</ele>
        <time>2010-04-03T11:06:39Z</time>
      </trkpt>
      <trkpt lat="45.73561" lon="4.66831">
        <ele>412</ele>
        <time>2010-04-03T11:06:41Z</time>
      </trkpt>
      <trkpt lat="45.73562" lon="4.66817">
        <ele>412</ele>
        <time>2010-04-03T11:06:44Z</time>
      </trkpt>
      <trkpt lat="45.73562" lon="4.66806">
        <ele>412</ele>
        <time>2010-04-03T11:06:46Z</time>
      </trkpt>
      <trkpt lat="45.73559" lon="4.66798">
        <ele>413</ele>
        <time>2010-04-03T11:06:48Z</time>
      </trkpt>
      <trkpt lat="45.73554" lon="4.6679">
        <ele>414</ele>
        <time>2010-04-03T11:06:50Z</time>
      </trkpt>
      <trkpt lat="45.73547" lon="4.66781">
        <ele>415</ele>
        <time>2010-04-03T11:06:54Z</time>
      </trkpt>
      <trkpt lat="45.73538" lon="4.66776">
        <ele>416</ele>
        <time>2010-04-03T11:06:57Z</time>
      </trkpt>
      <trkpt lat="45.73526" lon="4.66775">
        <ele>417</ele>
        <time>2010-04-03T11:06:59Z</time>
      </trkpt>
      <trkpt lat="45.73515" lon="4.66771">
        <ele>418</ele>
        <time>2010-04-03T11:07:01Z</time>
      </trkpt>
      <trkpt lat="45.73505" lon="4.66767">
        <ele>419</ele>
        <time>2010-04-03T11:07:04Z</time>
      </trkpt>
      <trkpt lat="45.73498" lon="4.66763">
        <ele>420</ele>
        <time>2010-04-03T11:07:06Z</time>
      </trkpt>
      <trkpt lat="45.7349" lon="4.66759">
        <ele>420</ele>
        <time>2010-04-03T11:07:09Z</time>
      </trkpt>
      <trkpt lat="45.73483" lon="4.66755">
        <ele>421</ele>
        <time>2010-04-03T11:07:11Z</time>
      </trkpt>
      <trkpt lat="45.73477" lon="4.66752">
        <ele>421</ele>
        <time>2010-04-03T11:07:13Z</time>
      </trkpt>
      <trkpt lat="45.73469" lon="4.66748">
        <ele>422</ele>
        <time>2010-04-03T11:07:16Z</time>
      </trkpt>
      <trkpt lat="45.73461" lon="4.66743">
        <ele>423</ele>
        <time>2010-04-03T11:07:18Z</time>
      </trkpt>
      <trkpt lat="45.73454" lon="4.66736">
        <ele>425</ele>
        <time>2010-04-03T11:07:21Z</time>
      </trkpt>
      <trkpt lat="45.73449" lon="4.66729">
        <ele>425</ele>
        <time>2010-04-03T11:07:23Z</time>
      </trkpt>
      <trkpt lat="45.73443" lon="4.66722">
        <ele>425</ele>
        <time>2010-04-03T11:07:25Z</time>
      </trkpt>
      <trkpt lat="45.73437" lon="4.66715">
        <ele>425</ele>
        <time>2010-04-03T11:07:27Z</time>
      </trkpt>
      <trkpt lat="45.73432" lon="4.66706">
        <ele>426</ele>
        <time>2010-04-03T11:07:30Z</time>
      </trkpt>
      <trkpt lat="45.73427" lon="4.66695">
        <ele>426</ele>
        <time>2010-04-03T11:07:33Z</time>
      </trkpt>
      <trkpt lat="45.73424" lon="4.66687">
        <ele>426</ele>
        <time>2010-04-03T11:07:35Z</time>
      </trkpt>
      <trkpt lat="45.73421" lon="4.6668">
        <ele>426</ele>
        <time>2010-04-03T11:07:37Z</time>
      </trkpt>
      <trkpt lat="45.73417" lon="4.66673">
        <ele>426</ele>
        <time>2010-04-03T11:07:39Z</time>
      </trkpt>
      <trkpt lat="45.73413" lon="4.66665">
        <ele>426</ele>
        <time>2010-04-03T11:07:41Z</time>
      </trkpt>
      <trkpt lat="45.73407" lon="4.66656">
        <ele>426</ele>
        <time>2010-04-03T11:07:44Z</time>
      </trkpt>
      <trkpt lat="45.73401" lon="4.66647">
        <ele>427</ele>
        <time>2010-04-03T11:07:47Z</time>
      </trkpt>
      <trkpt lat="45.73393" lon="4.66635">
        <ele>427</ele>
        <time>2010-04-03T11:07:50Z</time>
      </trkpt>
      <trkpt lat="45.73386" lon="4.66623">
        <ele>427</ele>
        <time>2010-04-03T11:07:53Z</time>
      </trkpt>
      <trkpt lat="45.73382" lon="4.66615">
        <ele>428</ele>
        <time>2010-04-03T11:07:55Z</time>
      </trkpt>
      <trkpt lat="45.73378" lon="4.666">
        <ele>428</ele>
        <time>2010-04-03T11:07:58Z</time>
      </trkpt>
      <trkpt lat="45.73376" lon="4.66589">
        <ele>428</ele>
        <time>2010-04-03T11:08:00Z</time>
      </trkpt>
      <trkpt lat="45.73374" lon="4.66578">
        <ele>429</ele>
        <time>2010-04-03T11:08:02Z</time>
      </trkpt>
      <trkpt lat="45.73373" lon="4.66569">
        <ele>428</ele>
        <time>2010-04-03T11:08:04Z</time>
      </trkpt>
      <trkpt lat="45.73373" lon="4.66559">
        <ele>428</ele>
        <time>2010-04-03T11:08:06Z</time>
      </trkpt>
      <trkpt lat="45.73375" lon="4.66542">
        <ele>428</ele>
        <time>2010-04-03T11:08:10Z</time>
      </trkpt>
      <trkpt lat="45.73377" lon="4.6653">
        <ele>428</ele>
        <time>2010-04-03T11:08:12Z</time>
      </trkpt>
      <trkpt lat="45.73379" lon="4.6652">
        <ele>429</ele>
        <time>2010-04-03T11:08:15Z</time>
      </trkpt>
      <trkpt lat="45.73382" lon="4.66511">
        <ele>429</ele>
        <time>2010-04-03T11:08:17Z</time>
      </trkpt>
      <trkpt lat="45.73387" lon="4.665">
        <ele>430</ele>
        <time>2010-04-03T11:08:19Z</time>
      </trkpt>
      <trkpt lat="45.73393" lon="4.66489">
        <ele>431</ele>
        <time>2010-04-03T11:08:23Z</time>
      </trkpt>
      <trkpt lat="45.73407" lon="4.66474">
        <ele>431</ele>
        <time>2010-04-03T11:08:30Z</time>
      </trkpt>
      <trkpt lat="45.73413" lon="4.66468">
        <ele>431</ele>
        <time>2010-04-03T11:08:32Z</time>
      </trkpt>
      <trkpt lat="45.73418" lon="4.66461">
        <ele>431</ele>
        <time>2010-04-03T11:08:34Z</time>
      </trkpt>
      <trkpt lat="45.73424" lon="4.66452">
        <ele>431</ele>
        <time>2010-04-03T11:08:36Z</time>
      </trkpt>
      <trkpt lat="45.73432" lon="4.66441">
        <ele>431</ele>
        <time>2010-04-03T11:08:38Z</time>
      </trkpt>
      <trkpt lat="45.73439" lon="4.6643">
        <ele>430</ele>
        <time>2010-04-03T11:08:40Z</time>
      </trkpt>
      <trkpt lat="45.73446" lon="4.6642">
        <ele>431</ele>
        <time>2010-04-03T11:08:43Z</time>
      </trkpt>
      <trkpt lat="45.73454" lon="4.66407">
        <ele>432</ele>
        <time>2010-04-03T11:08:45Z</time>
      </trkpt>
      <trkpt lat="45.7346" lon="4.66397">
        <ele>432</ele>
        <time>2010-04-03T11:08:47Z</time>
      </trkpt>
      <trkpt lat="45.73468" lon="4.66383">
        <ele>432</ele>
        <time>2010-04-03T11:08:50Z</time>
      </trkpt>
      <trkpt lat="45.73474" lon="4.66372">
        <ele>433</ele>
        <time>2010-04-03T11:08:52Z</time>
      </trkpt>
      <trkpt lat="45.73479" lon="4.66361">
        <ele>433</ele>
        <time>2010-04-03T11:08:54Z</time>
      </trkpt>
      <trkpt lat="45.73483" lon="4.6635">
        <ele>432</ele>
        <time>2010-04-03T11:08:56Z</time>
      </trkpt>
      <trkpt lat="45.73487" lon="4.66338">
        <ele>432</ele>
        <time>2010-04-03T11:08:59Z</time>
      </trkpt>
      <trkpt lat="45.73491" lon="4.66326">
        <ele>433</ele>
        <time>2010-04-03T11:09:01Z</time>
      </trkpt>
      <trkpt lat="45.73494" lon="4.66314">
        <ele>433</ele>
        <time>2010-04-03T11:09:03Z</time>
      </trkpt>
      <trkpt lat="45.73496" lon="4.66301">
        <ele>434</ele>
        <time>2010-04-03T11:09:05Z</time>
      </trkpt>
      <trkpt lat="45.73499" lon="4.66289">
        <ele>435</ele>
        <time>2010-04-03T11:09:07Z</time>
      </trkpt>
      <trkpt lat="45.73502" lon="4.66276">
        <ele>435</ele>
        <time>2010-04-03T11:09:09Z</time>
      </trkpt>
      <trkpt lat="45.73505" lon="4.66265">
        <ele>436</ele>
        <time>2010-04-03T11:09:11Z</time>
      </trkpt>
      <trkpt lat="45.73508" lon="4.6625">
        <ele>435</ele>
        <time>2010-04-03T11:09:14Z</time>
      </trkpt>
      <trkpt lat="45.73511" lon="4.66236">
        <ele>436</ele>
        <time>2010-04-03T11:09:16Z</time>
      </trkpt>
      <trkpt lat="45.73516" lon="4.6622">
        <ele>435</ele>
        <time>2010-04-03T11:09:19Z</time>
      </trkpt>
      <trkpt lat="45.73518" lon="4.6621">
        <ele>435</ele>
        <time>2010-04-03T11:09:22Z</time>
      </trkpt>
      <trkpt lat="45.73521" lon="4.66201">
        <ele>435</ele>
        <time>2010-04-03T11:09:24Z</time>
      </trkpt>
      <trkpt lat="45.73525" lon="4.66193">
        <ele>435</ele>
        <time>2010-04-03T11:09:26Z</time>
      </trkpt>
      <trkpt lat="45.7353" lon="4.66185">
        <ele>435</ele>
        <time>2010-04-03T11:09:28Z</time>
      </trkpt>
      <trkpt lat="45.73536" lon="4.66178">
        <ele>436</ele>
        <time>2010-04-03T11:09:30Z</time>
      </trkpt>
      <trkpt lat="45.73542" lon="4.6617">
        <ele>436</ele>
        <time>2010-04-03T11:09:32Z</time>
      </trkpt>
      <trkpt lat="45.7355" lon="4.6616">
        <ele>437</ele>
        <time>2010-04-03T11:09:35Z</time>
      </trkpt>
      <trkpt lat="45.73557" lon="4.66151">
        <ele>437</ele>
        <time>2010-04-03T11:09:38Z</time>
      </trkpt>
      <trkpt lat="45.73565" lon="4.66138">
        <ele>438</ele>
        <time>2010-04-03T11:09:41Z</time>
      </trkpt>
      <trkpt lat="45.7357" lon="4.6613">
        <ele>439</ele>
        <time>2010-04-03T11:09:43Z</time>
      </trkpt>
      <trkpt lat="45.73577" lon="4.66116">
        <ele>439</ele>
        <time>2010-04-03T11:09:46Z</time>
      </trkpt>
      <trkpt lat="45.73585" lon="4.66106">
        <ele>440</ele>
        <time>2010-04-03T11:09:49Z</time>
      </trkpt>
      <trkpt lat="45.73592" lon="4.66097">
        <ele>440</ele>
        <time>2010-04-03T11:09:51Z</time>
      </trkpt>
      <trkpt lat="45.73599" lon="4.66088">
        <ele>440</ele>
        <time>2010-04-03T11:09:53Z</time>
      </trkpt>
      <trkpt lat="45.73612" lon="4.66071">
        <ele>441</ele>
        <time>2010-04-03T11:09:57Z</time>
      </trkpt>
      <trkpt lat="45.7362" lon="4.66061">
        <ele>441</ele>
        <time>2010-04-03T11:10:00Z</time>
      </trkpt>
      <trkpt lat="45.73629" lon="4.66052">
        <ele>441</ele>
        <time>2010-04-03T11:10:02Z</time>
      </trkpt>
      <trkpt lat="45.73636" lon="4.66044">
        <ele>441</ele>
        <time>2010-04-03T11:10:04Z</time>
      </trkpt>
      <trkpt lat="45.73646" lon="4.66032">
        <ele>442</ele>
        <time>2010-04-03T11:10:07Z</time>
      </trkpt>
      <trkpt lat="45.73661" lon="4.66013">
        <ele>443</ele>
        <time>2010-04-03T11:10:11Z</time>
      </trkpt>
      <trkpt lat="45.73668" lon="4.66">
        <ele>443</ele>
        <time>2010-04-03T11:10:13Z</time>
      </trkpt>
      <trkpt lat="45.73674" lon="4.65989">
        <ele>444</ele>
        <time>2010-04-03T11:10:15Z</time>
      </trkpt>
      <trkpt lat="45.73682" lon="4.6598">
        <ele>445</ele>
        <time>2010-04-03T11:10:17Z</time>
      </trkpt>
      <trkpt lat="45.73692" lon="4.65971">
        <ele>446</ele>
        <time>2010-04-03T11:10:20Z</time>
      </trkpt>
      <trkpt lat="45.73721" lon="4.65981">
        <ele>446</ele>
        <time>2010-04-03T11:10:36Z</time>
      </trkpt>
      <trkpt lat="45.7372" lon="4.65989">
        <ele>446</ele>
        <time>2010-04-03T11:10:39Z</time>
      </trkpt>
      <trkpt lat="45.73707" lon="4.66006">
        <ele>447</ele>
        <time>2010-04-03T11:10:42Z</time>
      </trkpt>
      <trkpt lat="45.73707" lon="4.66006">
        <ele>447</ele>
        <time>2010-04-03T11:10:46Z</time>
      </trkpt>
      <trkpt lat="45.73717" lon="4.66021">
        <ele>454</ele>
        <time>2010-04-03T11:45:17Z</time>
      </trkpt>
      <trkpt lat="45.73721" lon="4.66009">
        <ele>464</ele>
        <time>2010-04-03T11:46:18Z</time>
      </trkpt>
      <trkpt lat="45.73719" lon="4.66004">
        <ele>463</ele>
        <time>2010-04-03T11:46:22Z</time>
      </trkpt>
      <trkpt lat="45.73707" lon="4.65998">
        <ele>464</ele>
        <time>2010-04-03T11:46:24Z</time>
      </trkpt>
      <trkpt lat="45.73701" lon="4.65996">
        <ele>463</ele>
        <time>2010-04-03T11:46:25Z</time>
      </trkpt>
      <trkpt lat="45.73679" lon="4.65993">
        <ele>463</ele>
        <time>2010-04-03T11:46:29Z</time>
      </trkpt>
      <trkpt lat="45.73663" lon="4.66">
        <ele>462</ele>
        <time>2010-04-03T11:46:32Z</time>
      </trkpt>
      <trkpt lat="45.73656" lon="4.66004">
        <ele>461</ele>
        <time>2010-04-03T11:46:34Z</time>
      </trkpt>
      <trkpt lat="45.73648" lon="4.66008">
        <ele>460</ele>
        <time>2010-04-03T11:46:36Z</time>
      </trkpt>
      <trkpt lat="45.73641" lon="4.66013">
        <ele>460</ele>
        <time>2010-04-03T11:46:38Z</time>
      </trkpt>
      <trkpt lat="45.73627" lon="4.66027">
        <ele>459</ele>
        <time>2010-04-03T11:46:43Z</time>
      </trkpt>
      <trkpt lat="45.7362" lon="4.66039">
        <ele>459</ele>
        <time>2010-04-03T11:46:45Z</time>
      </trkpt>
      <trkpt lat="45.73613" lon="4.66048">
        <ele>459</ele>
        <time>2010-04-03T11:46:47Z</time>
      </trkpt>
      <trkpt lat="45.73606" lon="4.66057">
        <ele>459</ele>
        <time>2010-04-03T11:46:49Z</time>
      </trkpt>
      <trkpt lat="45.73599" lon="4.66066">
        <ele>459</ele>
        <time>2010-04-03T11:46:51Z</time>
      </trkpt>
      <trkpt lat="45.73593" lon="4.66076">
        <ele>459</ele>
        <time>2010-04-03T11:46:53Z</time>
      </trkpt>
      <trkpt lat="45.73587" lon="4.66086">
        <ele>458</ele>
        <time>2010-04-03T11:46:55Z</time>
      </trkpt>
      <trkpt lat="45.73581" lon="4.66096">
        <ele>458</ele>
        <time>2010-04-03T11:46:57Z</time>
      </trkpt>
      <trkpt lat="45.73575" lon="4.66106">
        <ele>458</ele>
        <time>2010-04-03T11:47:00Z</time>
      </trkpt>
      <trkpt lat="45.73569" lon="4.66115">
        <ele>458</ele>
        <time>2010-04-03T11:47:02Z</time>
      </trkpt>
      <trkpt lat="45.73566" lon="4.66121">
        <ele>458</ele>
        <time>2010-04-03T11:47:03Z</time>
      </trkpt>
      <trkpt lat="45.73552" lon="4.66143">
        <ele>458</ele>
        <time>2010-04-03T11:47:06Z</time>
      </trkpt>
      <trkpt lat="45.73542" lon="4.66156">
        <ele>458</ele>
        <time>2010-04-03T11:47:08Z</time>
      </trkpt>
      <trkpt lat="45.73533" lon="4.6617">
        <ele>457</ele>
        <time>2010-04-03T11:47:10Z</time>
      </trkpt>
      <trkpt lat="45.73524" lon="4.66185">
        <ele>457</ele>
        <time>2010-04-03T11:47:12Z</time>
      </trkpt>
      <trkpt lat="45.73515" lon="4.66204">
        <ele>456</ele>
        <time>2010-04-03T11:47:15Z</time>
      </trkpt>
      <trkpt lat="45.73508" lon="4.66228">
        <ele>456</ele>
        <time>2010-04-03T11:47:17Z</time>
      </trkpt>
      <trkpt lat="45.73499" lon="4.66253">
        <ele>456</ele>
        <time>2010-04-03T11:47:19Z</time>
      </trkpt>
      <trkpt lat="45.73494" lon="4.66279">
        <ele>456</ele>
        <time>2010-04-03T11:47:21Z</time>
      </trkpt>
      <trkpt lat="45.73489" lon="4.66302">
        <ele>455</ele>
        <time>2010-04-03T11:47:23Z</time>
      </trkpt>
      <trkpt lat="45.73484" lon="4.66324">
        <ele>455</ele>
        <time>2010-04-03T11:47:25Z</time>
      </trkpt>
      <trkpt lat="45.73479" lon="4.66344">
        <ele>455</ele>
        <time>2010-04-03T11:47:27Z</time>
      </trkpt>
      <trkpt lat="45.73473" lon="4.66364">
        <ele>455</ele>
        <time>2010-04-03T11:47:29Z</time>
      </trkpt>
      <trkpt lat="45.73467" lon="4.66384">
        <ele>455</ele>
        <time>2010-04-03T11:47:32Z</time>
      </trkpt>
      <trkpt lat="45.73461" lon="4.66401">
        <ele>454</ele>
        <time>2010-04-03T11:47:34Z</time>
      </trkpt>
      <trkpt lat="45.73455" lon="4.66414">
        <ele>455</ele>
        <time>2010-04-03T11:47:36Z</time>
      </trkpt>
      <trkpt lat="45.73449" lon="4.66433">
        <ele>456</ele>
        <time>2010-04-03T11:47:39Z</time>
      </trkpt>
      <trkpt lat="45.73452" lon="4.66441">
        <ele>455</ele>
        <time>2010-04-03T11:47:41Z</time>
      </trkpt>
      <trkpt lat="45.73458" lon="4.66448">
        <ele>455</ele>
        <time>2010-04-03T11:47:44Z</time>
      </trkpt>
      <trkpt lat="45.73469" lon="4.66461">
        <ele>456</ele>
        <time>2010-04-03T11:47:48Z</time>
      </trkpt>
      <trkpt lat="45.7348" lon="4.66471">
        <ele>455</ele>
        <time>2010-04-03T11:47:51Z</time>
      </trkpt>
      <trkpt lat="45.73488" lon="4.66479">
        <ele>456</ele>
        <time>2010-04-03T11:47:53Z</time>
      </trkpt>
      <trkpt lat="45.73496" lon="4.66486">
        <ele>455</ele>
        <time>2010-04-03T11:47:56Z</time>
      </trkpt>
      <trkpt lat="45.73508" lon="4.66497">
        <ele>454</ele>
        <time>2010-04-03T11:47:59Z</time>
      </trkpt>
      <trkpt lat="45.73518" lon="4.66505">
        <ele>453</ele>
        <time>2010-04-03T11:48:02Z</time>
      </trkpt>
      <trkpt lat="45.73527" lon="4.66513">
        <ele>453</ele>
        <time>2010-04-03T11:48:04Z</time>
      </trkpt>
      <trkpt lat="45.73538" lon="4.6652">
        <ele>453</ele>
        <time>2010-04-03T11:48:07Z</time>
      </trkpt>
      <trkpt lat="45.73546" lon="4.66524">
        <ele>453</ele>
        <time>2010-04-03T11:48:10Z</time>
      </trkpt>
      <trkpt lat="45.73555" lon="4.66527">
        <ele>452</ele>
        <time>2010-04-03T11:48:12Z</time>
      </trkpt>
      <trkpt lat="45.73564" lon="4.66528">
        <ele>451</ele>
        <time>2010-04-03T11:48:14Z</time>
      </trkpt>
      <trkpt lat="45.73574" lon="4.66527">
        <ele>450</ele>
        <time>2010-04-03T11:48:16Z</time>
      </trkpt>
      <trkpt lat="45.73584" lon="4.66526">
        <ele>450</ele>
        <time>2010-04-03T11:48:18Z</time>
      </trkpt>
      <trkpt lat="45.73593" lon="4.66524">
        <ele>450</ele>
        <time>2010-04-03T11:48:20Z</time>
      </trkpt>
      <trkpt lat="45.73602" lon="4.66522">
        <ele>450</ele>
        <time>2010-04-03T11:48:22Z</time>
      </trkpt>
      <trkpt lat="45.7361" lon="4.66519">
        <ele>450</ele>
        <time>2010-04-03T11:48:25Z</time>
      </trkpt>
      <trkpt lat="45.73619" lon="4.66517">
        <ele>450</ele>
        <time>2010-04-03T11:48:27Z</time>
      </trkpt>
      <trkpt lat="45.73627" lon="4.66515">
        <ele>450</ele>
        <time>2010-04-03T11:48:29Z</time>
      </trkpt>
      <trkpt lat="45.73643" lon="4.66511">
        <ele>449</ele>
        <time>2010-04-03T11:48:33Z</time>
      </trkpt>
      <trkpt lat="45.73653" lon="4.66511">
        <ele>449</ele>
        <time>2010-04-03T11:48:35Z</time>
      </trkpt>
      <trkpt lat="45.7366" lon="4.66511">
        <ele>449</ele>
        <time>2010-04-03T11:48:38Z</time>
      </trkpt>
      <trkpt lat="45.73668" lon="4.66513">
        <ele>449</ele>
        <time>2010-04-03T11:48:40Z</time>
      </trkpt>
      <trkpt lat="45.73678" lon="4.66517">
        <ele>448</ele>
        <time>2010-04-03T11:48:43Z</time>
      </trkpt>
      <trkpt lat="45.73684" lon="4.66521">
        <ele>447</ele>
        <time>2010-04-03T11:48:45Z</time>
      </trkpt>
      <trkpt lat="45.73691" lon="4.66527">
        <ele>447</ele>
        <time>2010-04-03T11:48:47Z</time>
      </trkpt>
      <trkpt lat="45.73698" lon="4.66533">
        <ele>446</ele>
        <time>2010-04-03T11:48:50Z</time>
      </trkpt>
      <trkpt lat="45.73705" lon="4.66539">
        <ele>445</ele>
        <time>2010-04-03T11:48:52Z</time>
      </trkpt>
      <trkpt lat="45.73713" lon="4.66545">
        <ele>445</ele>
        <time>2010-04-03T11:48:54Z</time>
      </trkpt>
      <trkpt lat="45.7372" lon="4.66551">
        <ele>444</ele>
        <time>2010-04-03T11:48:56Z</time>
      </trkpt>
      <trkpt lat="45.73728" lon="4.66557">
        <ele>443</ele>
        <time>2010-04-03T11:48:58Z</time>
      </trkpt>
      <trkpt lat="45.73736" lon="4.66564">
        <ele>440</ele>
        <time>2010-04-03T11:49:00Z</time>
      </trkpt>
      <trkpt lat="45.73744" lon="4.66571">
        <ele>438</ele>
        <time>2010-04-03T11:49:02Z</time>
      </trkpt>
      <trkpt lat="45.73757" lon="4.66582">
        <ele>438</ele>
        <time>2010-04-03T11:49:06Z</time>
      </trkpt>
      <trkpt lat="45.73765" lon="4.6659">
        <ele>438</ele>
        <time>2010-04-03T11:49:08Z</time>
      </trkpt>
      <trkpt lat="45.73773" lon="4.666">
        <ele>438</ele>
        <time>2010-04-03T11:49:10Z</time>
      </trkpt>
      <trkpt lat="45.7378" lon="4.66611">
        <ele>438</ele>
        <time>2010-04-03T11:49:12Z</time>
      </trkpt>
      <trkpt lat="45.73791" lon="4.6663">
        <ele>438</ele>
        <time>2010-04-03T11:49:15Z</time>
      </trkpt>
      <trkpt lat="45.73805" lon="4.66655">
        <ele>438</ele>
        <time>2010-04-03T11:49:19Z</time>
      </trkpt>
      <trkpt lat="45.73816" lon="4.66676">
        <ele>439</ele>
        <time>2010-04-03T11:49:21Z</time>
      </trkpt>
      <trkpt lat="45.73829" lon="4.66697">
        <ele>440</ele>
        <time>2010-04-03T11:49:24Z</time>
      </trkpt>
      <trkpt lat="45.73839" lon="4.66713">
        <ele>441</ele>
        <time>2010-04-03T11:49:27Z</time>
      </trkpt>
      <trkpt lat="45.73847" lon="4.66723">
        <ele>441</ele>
        <time>2010-04-03T11:49:29Z</time>
      </trkpt>
      <trkpt lat="45.7386" lon="4.66736">
        <ele>441</ele>
        <time>2010-04-03T11:49:32Z</time>
      </trkpt>
      <trkpt lat="45.73873" lon="4.66745">
        <ele>442</ele>
        <time>2010-04-03T11:49:35Z</time>
      </trkpt>
      <trkpt lat="45.73882" lon="4.66754">
        <ele>442</ele>
        <time>2010-04-03T11:49:37Z</time>
      </trkpt>
      <trkpt lat="45.7389" lon="4.66759">
        <ele>442</ele>
        <time>2010-04-03T11:49:40Z</time>
      </trkpt>
      <trkpt lat="45.73898" lon="4.66762">
        <ele>442</ele>
        <time>2010-04-03T11:49:42Z</time>
      </trkpt>
      <trkpt lat="45.73911" lon="4.66764">
        <ele>442</ele>
        <time>2010-04-03T11:49:45Z</time>
      </trkpt>
      <trkpt lat="45.73933" lon="4.66761">
        <ele>442</ele>
        <time>2010-04-03T11:49:48Z</time>
      </trkpt>
      <trkpt lat="45.7397" lon="4.66741">
        <ele>442</ele>
        <time>2010-04-03T11:49:50Z</time>
      </trkpt>
      <trkpt lat="45.73988" lon="4.66727">
        <ele>442</ele>
        <time>2010-04-03T11:49:52Z</time>
      </trkpt>
      <trkpt lat="45.74003" lon="4.66712">
        <ele>442</ele>
        <time>2010-04-03T11:49:54Z</time>
      </trkpt>
      <trkpt lat="45.74017" lon="4.667">
        <ele>442</ele>
        <time>2010-04-03T11:49:56Z</time>
      </trkpt>
      <trkpt lat="45.74029" lon="4.66683">
        <ele>441</ele>
        <time>2010-04-03T11:50:00Z</time>
      </trkpt>
      <trkpt lat="45.74036" lon="4.66675">
        <ele>441</ele>
        <time>2010-04-03T11:50:02Z</time>
      </trkpt>
      <trkpt lat="45.74042" lon="4.66667">
        <ele>441</ele>
        <time>2010-04-03T11:50:04Z</time>
      </trkpt>
      <trkpt lat="45.74048" lon="4.6666">
        <ele>441</ele>
        <time>2010-04-03T11:50:06Z</time>
      </trkpt>
      <trkpt lat="45.74054" lon="4.66652">
        <ele>442</ele>
        <time>2010-04-03T11:50:08Z</time>
      </trkpt>
      <trkpt lat="45.7406" lon="4.66643">
        <ele>442</ele>
        <time>2010-04-03T11:50:11Z</time>
      </trkpt>
      <trkpt lat="45.74068" lon="4.66635">
        <ele>442</ele>
        <time>2010-04-03T11:50:13Z</time>
      </trkpt>
      <trkpt lat="45.74074" lon="4.66626">
        <ele>442</ele>
        <time>2010-04-03T11:50:15Z</time>
      </trkpt>
      <trkpt lat="45.74081" lon="4.66618">
        <ele>442</ele>
        <time>2010-04-03T11:50:17Z</time>
      </trkpt>
      <trkpt lat="45.74088" lon="4.6661">
        <ele>442</ele>
        <time>2010-04-03T11:50:19Z</time>
      </trkpt>
      <trkpt lat="45.74094" lon="4.66601">
        <ele>442</ele>
        <time>2010-04-03T11:50:21Z</time>
      </trkpt>
      <trkpt lat="45.74101" lon="4.66592">
        <ele>442</ele>
        <time>2010-04-03T11:50:23Z</time>
      </trkpt>
      <trkpt lat="45.74107" lon="4.66583">
        <ele>441</ele>
        <time>2010-04-03T11:50:25Z</time>
      </trkpt>
      <trkpt lat="45.74113" lon="4.66573">
        <ele>441</ele>
        <time>2010-04-03T11:50:27Z</time>
      </trkpt>
      <trkpt lat="45.7412" lon="4.66563">
        <ele>440</ele>
        <time>2010-04-03T11:50:29Z</time>
      </trkpt>
      <trkpt lat="45.74131" lon="4.6655">
        <ele>440</ele>
        <time>2010-04-03T11:50:32Z</time>
      </trkpt>
      <trkpt lat="45.7414" lon="4.66534">
        <ele>440</ele>
        <time>2010-04-03T11:50:34Z</time>
      </trkpt>
      <trkpt lat="45.74146" lon="4.66516">
        <ele>440</ele>
        <time>2010-04-03T11:50:36Z</time>
      </trkpt>
      <trkpt lat="45.74152" lon="4.66497">
        <ele>440</ele>
        <time>2010-04-03T11:50:38Z</time>
      </trkpt>
      <trkpt lat="45.74157" lon="4.66475">
        <ele>439</ele>
        <time>2010-04-03T11:50:40Z</time>
      </trkpt>
      <trkpt lat="45.74163" lon="4.66452">
        <ele>439</ele>
        <time>2010-04-03T11:50:42Z</time>
      </trkpt>
      <trkpt lat="45.74173" lon="4.66433">
        <ele>438</ele>
        <time>2010-04-03T11:50:44Z</time>
      </trkpt>
      <trkpt lat="45.74189" lon="4.66418">
        <ele>438</ele>
        <time>2010-04-03T11:50:46Z</time>
      </trkpt>
      <trkpt lat="45.74204" lon="4.66406">
        <ele>436</ele>
        <time>2010-04-03T11:50:49Z</time>
      </trkpt>
      <trkpt lat="45.74221" lon="4.66401">
        <ele>435</ele>
        <time>2010-04-03T11:50:51Z</time>
      </trkpt>
      <trkpt lat="45.74239" lon="4.66401">
        <ele>435</ele>
        <time>2010-04-03T11:50:53Z</time>
      </trkpt>
      <trkpt lat="45.74256" lon="4.66404">
        <ele>435</ele>
        <time>2010-04-03T11:50:55Z</time>
      </trkpt>
      <trkpt lat="45.74269" lon="4.66403">
        <ele>435</ele>
        <time>2010-04-03T11:50:57Z</time>
      </trkpt>
      <trkpt lat="45.74284" lon="4.66403">
        <ele>434</ele>
        <time>2010-04-03T11:50:59Z</time>
      </trkpt>
      <trkpt lat="45.74302" lon="4.664">
        <ele>434</ele>
        <time>2010-04-03T11:51:01Z</time>
      </trkpt>
      <trkpt lat="45.74323" lon="4.66403">
        <ele>432</ele>
        <time>2010-04-03T11:51:03Z</time>
      </trkpt>
      <trkpt lat="45.74348" lon="4.66415">
        <ele>431</ele>
        <time>2010-04-03T11:51:06Z</time>
      </trkpt>
      <trkpt lat="45.74376" lon="4.66428">
        <ele>430</ele>
        <time>2010-04-03T11:51:08Z</time>
      </trkpt>
      <trkpt lat="45.744" lon="4.66438">
        <ele>430</ele>
        <time>2010-04-03T11:51:10Z</time>
      </trkpt>
      <trkpt lat="45.74426" lon="4.66445">
        <ele>431</ele>
        <time>2010-04-03T11:51:12Z</time>
      </trkpt>
      <trkpt lat="45.74452" lon="4.66451">
        <ele>431</ele>
        <time>2010-04-03T11:51:14Z</time>
      </trkpt>
      <trkpt lat="45.74474" lon="4.66455">
        <ele>430</ele>
        <time>2010-04-03T11:51:16Z</time>
      </trkpt>
      <trkpt lat="45.74499" lon="4.66458">
        <ele>430</ele>
        <time>2010-04-03T11:51:18Z</time>
      </trkpt>
      <trkpt lat="45.74523" lon="4.66461">
        <ele>430</ele>
        <time>2010-04-03T11:51:20Z</time>
      </trkpt>
      <trkpt lat="45.74547" lon="4.66464">
        <ele>431</ele>
        <time>2010-04-03T11:51:22Z</time>
      </trkpt>
      <trkpt lat="45.74569" lon="4.66464">
        <ele>432</ele>
        <time>2010-04-03T11:51:24Z</time>
      </trkpt>
      <trkpt lat="45.74589" lon="4.6646">
        <ele>432</ele>
        <time>2010-04-03T11:51:27Z</time>
      </trkpt>
      <trkpt lat="45.74609" lon="4.66453">
        <ele>432</ele>
        <time>2010-04-03T11:51:29Z</time>
      </trkpt>
      <trkpt lat="45.74624" lon="4.66443">
        <ele>432</ele>
        <time>2010-04-03T11:51:31Z</time>
      </trkpt>
      <trkpt lat="45.74639" lon="4.66432">
        <ele>431</ele>
        <time>2010-04-03T11:51:33Z</time>
      </trkpt>
      <trkpt lat="45.74652" lon="4.66423">
        <ele>431</ele>
        <time>2010-04-03T11:51:35Z</time>
      </trkpt>
      <trkpt lat="45.74665" lon="4.66413">
        <ele>430</ele>
        <time>2010-04-03T11:51:37Z</time>
      </trkpt>
      <trkpt lat="45.74677" lon="4.66401">
        <ele>430</ele>
        <time>2010-04-03T11:51:39Z</time>
      </trkpt>
      <trkpt lat="45.7469" lon="4.66389">
        <ele>431</ele>
        <time>2010-04-03T11:51:41Z</time>
      </trkpt>
      <trkpt lat="45.74704" lon="4.66374">
        <ele>431</ele>
        <time>2010-04-03T11:51:43Z</time>
      </trkpt>
      <trkpt lat="45.74716" lon="4.66356">
        <ele>431</ele>
        <time>2010-04-03T11:51:46Z</time>
      </trkpt>
      <trkpt lat="45.74728" lon="4.66336">
        <ele>430</ele>
        <time>2010-04-03T11:51:48Z</time>
      </trkpt>
      <trkpt lat="45.74736" lon="4.66313">
        <ele>430</ele>
        <time>2010-04-03T11:51:50Z</time>
      </trkpt>
      <trkpt lat="45.74742" lon="4.66287">
        <ele>430</ele>
        <time>2010-04-03T11:51:52Z</time>
      </trkpt>
      <trkpt lat="45.74745" lon="4.66261">
        <ele>429</ele>
        <time>2010-04-03T11:51:54Z</time>
      </trkpt>
      <trkpt lat="45.74745" lon="4.66234">
        <ele>428</ele>
        <time>2010-04-03T11:51:56Z</time>
      </trkpt>
      <trkpt lat="45.74744" lon="4.66207">
        <ele>427</ele>
        <time>2010-04-03T11:51:58Z</time>
      </trkpt>
      <trkpt lat="45.74745" lon="4.66181">
        <ele>425</ele>
        <time>2010-04-03T11:52:00Z</time>
      </trkpt>
      <trkpt lat="45.7476" lon="4.66163">
        <ele>425</ele>
        <time>2010-04-03T11:52:03Z</time>
      </trkpt>
      <trkpt lat="45.74779" lon="4.66157">
        <ele>425</ele>
        <time>2010-04-03T11:52:05Z</time>
      </trkpt>
      <trkpt lat="45.74792" lon="4.66167">
        <ele>425</ele>
        <time>2010-04-03T11:52:07Z</time>
      </trkpt>
      <trkpt lat="45.74806" lon="4.66191">
        <ele>426</ele>
        <time>2010-04-03T11:52:10Z</time>
      </trkpt>
      <trkpt lat="45.74817" lon="4.66211">
        <ele>426</ele>
        <time>2010-04-03T11:52:12Z</time>
      </trkpt>
      <trkpt lat="45.74825" lon="4.66232">
        <ele>425</ele>
        <time>2010-04-03T11:52:15Z</time>
      </trkpt>
      <trkpt lat="45.74835" lon="4.66251">
        <ele>426</ele>
        <time>2010-04-03T11:52:17Z</time>
      </trkpt>
      <trkpt lat="45.74842" lon="4.66268">
        <ele>426</ele>
        <time>2010-04-03T11:52:19Z</time>
      </trkpt>
      <trkpt lat="45.7485" lon="4.66284">
        <ele>426</ele>
        <time>2010-04-03T11:52:21Z</time>
      </trkpt>
      <trkpt lat="45.74858" lon="4.66299">
        <ele>426</ele>
        <time>2010-04-03T11:52:23Z</time>
      </trkpt>
      <trkpt lat="45.74866" lon="4.66313">
        <ele>425</ele>
        <time>2010-04-03T11:52:26Z</time>
      </trkpt>
      <trkpt lat="45.74874" lon="4.66326">
        <ele>424</ele>
        <time>2010-04-03T11:52:28Z</time>
      </trkpt>
      <trkpt lat="45.74882" lon="4.66339">
        <ele>424</ele>
        <time>2010-04-03T11:52:30Z</time>
      </trkpt>
      <trkpt lat="45.7489" lon="4.6635">
        <ele>424</ele>
        <time>2010-04-03T11:52:32Z</time>
      </trkpt>
      <trkpt lat="45.74898" lon="4.66361">
        <ele>424</ele>
        <time>2010-04-03T11:52:34Z</time>
      </trkpt>
      <trkpt lat="45.74903" lon="4.66371">
        <ele>424</ele>
        <time>2010-04-03T11:52:36Z</time>
      </trkpt>
      <trkpt lat="45.74909" lon="4.66376">
        <ele>424</ele>
        <time>2010-04-03T11:52:38Z</time>
      </trkpt>
      <trkpt lat="45.74916" lon="4.6638">
        <ele>424</ele>
        <time>2010-04-03T11:52:40Z</time>
      </trkpt>
      <trkpt lat="45.74923" lon="4.66385">
        <ele>424</ele>
        <time>2010-04-03T11:52:42Z</time>
      </trkpt>
      <trkpt lat="45.74931" lon="4.66393">
        <ele>424</ele>
        <time>2010-04-03T11:52:44Z</time>
      </trkpt>
      <trkpt lat="45.74939" lon="4.66403">
        <ele>425</ele>
        <time>2010-04-03T11:52:47Z</time>
      </trkpt>
      <trkpt lat="45.74947" lon="4.66414">
        <ele>425</ele>
        <time>2010-04-03T11:52:49Z</time>
      </trkpt>
      <trkpt lat="45.74956" lon="4.66425">
        <ele>425</ele>
        <time>2010-04-03T11:52:51Z</time>
      </trkpt>
      <trkpt lat="45.74962" lon="4.6643">
        <ele>426</ele>
        <time>2010-04-03T11:52:53Z</time>
      </trkpt>
      <trkpt lat="45.74971" lon="4.66434">
        <ele>426</ele>
        <time>2010-04-03T11:52:55Z</time>
      </trkpt>
      <trkpt lat="45.7498" lon="4.66437">
        <ele>426</ele>
        <time>2010-04-03T11:52:57Z</time>
      </trkpt>
      <trkpt lat="45.7499" lon="4.66437">
        <ele>426</ele>
        <time>2010-04-03T11:52:59Z</time>
      </trkpt>
      <trkpt lat="45.75" lon="4.66435">
        <ele>426</ele>
        <time>2010-04-03T11:53:01Z</time>
      </trkpt>
      <trkpt lat="45.75011" lon="4.66433">
        <ele>426</ele>
        <time>2010-04-03T11:53:03Z</time>
      </trkpt>
      <trkpt lat="45.75023" lon="4.66429">
        <ele>426</ele>
        <time>2010-04-03T11:53:06Z</time>
      </trkpt>
      <trkpt lat="45.75034" lon="4.66425">
        <ele>425</ele>
        <time>2010-04-03T11:53:08Z</time>
      </trkpt>
      <trkpt lat="45.75045" lon="4.6642">
        <ele>426</ele>
        <time>2010-04-03T11:53:10Z</time>
      </trkpt>
      <trkpt lat="45.75056" lon="4.66414">
        <ele>426</ele>
        <time>2010-04-03T11:53:12Z</time>
      </trkpt>
      <trkpt lat="45.75067" lon="4.66406">
        <ele>426</ele>
        <time>2010-04-03T11:53:14Z</time>
      </trkpt>
      <trkpt lat="45.75078" lon="4.66398">
        <ele>426</ele>
        <time>2010-04-03T11:53:16Z</time>
      </trkpt>
      <trkpt lat="45.75089" lon="4.6639">
        <ele>426</ele>
        <time>2010-04-03T11:53:18Z</time>
      </trkpt>
      <trkpt lat="45.75102" lon="4.66379">
        <ele>426</ele>
        <time>2010-04-03T11:53:21Z</time>
      </trkpt>
      <trkpt lat="45.75117" lon="4.66366">
        <ele>426</ele>
        <time>2010-04-03T11:53:23Z</time>
      </trkpt>
      <trkpt lat="45.75135" lon="4.66352">
        <ele>426</ele>
        <time>2010-04-03T11:53:25Z</time>
      </trkpt>
      <trkpt lat="45.75154" lon="4.66338">
        <ele>426</ele>
        <time>2010-04-03T11:53:27Z</time>
      </trkpt>
      <trkpt lat="45.75178" lon="4.66317">
        <ele>426</ele>
        <time>2010-04-03T11:53:30Z</time>
      </trkpt>
      <trkpt lat="45.75196" lon="4.66297">
        <ele>426</ele>
        <time>2010-04-03T11:53:32Z</time>
      </trkpt>
      <trkpt lat="45.75212" lon="4.66275">
        <ele>427</ele>
        <time>2010-04-03T11:53:35Z</time>
      </trkpt>
      <trkpt lat="45.75223" lon="4.66254">
        <ele>427</ele>
        <time>2010-04-03T11:53:37Z</time>
      </trkpt>
      <trkpt lat="45.75235" lon="4.66231">
        <ele>426</ele>
        <time>2010-04-03T11:53:39Z</time>
      </trkpt>
      <trkpt lat="45.75245" lon="4.66205">
        <ele>425</ele>
        <time>2010-04-03T11:53:41Z</time>
      </trkpt>
      <trkpt lat="45.75256" lon="4.66177">
        <ele>424</ele>
        <time>2010-04-03T11:53:43Z</time>
      </trkpt>
      <trkpt lat="45.75268" lon="4.66148">
        <ele>424</ele>
        <time>2010-04-03T11:53:45Z</time>
      </trkpt>
      <trkpt lat="45.75278" lon="4.66119">
        <ele>424</ele>
        <time>2010-04-03T11:53:47Z</time>
      </trkpt>
      <trkpt lat="45.75277" lon="4.66093">
        <ele>423</ele>
        <time>2010-04-03T11:53:49Z</time>
      </trkpt>
      <trkpt lat="45.75272" lon="4.6606">
        <ele>423</ele>
        <time>2010-04-03T11:53:52Z</time>
      </trkpt>
      <trkpt lat="45.75256" lon="4.66037">
        <ele>423</ele>
        <time>2010-04-03T11:53:55Z</time>
      </trkpt>
      <trkpt lat="45.75238" lon="4.66026">
        <ele>424</ele>
        <time>2010-04-03T11:53:57Z</time>
      </trkpt>
      <trkpt lat="45.75221" lon="4.66015">
        <ele>424</ele>
        <time>2010-04-03T11:53:59Z</time>
      </trkpt>
      <trkpt lat="45.75205" lon="4.65997">
        <ele>424</ele>
        <time>2010-04-03T11:54:01Z</time>
      </trkpt>
      <trkpt lat="45.75194" lon="4.65973">
        <ele>424</ele>
        <time>2010-04-03T11:54:03Z</time>
      </trkpt>
      <trkpt lat="45.75195" lon="4.65944">
        <ele>424</ele>
        <time>2010-04-03T11:54:05Z</time>
      </trkpt>
      <trkpt lat="45.75201" lon="4.65918">
        <ele>424</ele>
        <time>2010-04-03T11:54:08Z</time>
      </trkpt>
      <trkpt lat="45.7521" lon="4.65897">
        <ele>424</ele>
        <time>2010-04-03T11:54:10Z</time>
      </trkpt>
      <trkpt lat="45.75224" lon="4.65877">
        <ele>424</ele>
        <time>2010-04-03T11:54:12Z</time>
      </trkpt>
      <trkpt lat="45.75238" lon="4.65858">
        <ele>424</ele>
        <time>2010-04-03T11:54:14Z</time>
      </trkpt>
      <trkpt lat="45.7525" lon="4.65838">
        <ele>423</ele>
        <time>2010-04-03T11:54:16Z</time>
      </trkpt>
      <trkpt lat="45.75263" lon="4.65817">
        <ele>423</ele>
        <time>2010-04-03T11:54:18Z</time>
      </trkpt>
      <trkpt lat="45.75276" lon="4.65798">
        <ele>423</ele>
        <time>2010-04-03T11:54:20Z</time>
      </trkpt>
      <trkpt lat="45.75291" lon="4.65784">
        <ele>422</ele>
        <time>2010-04-03T11:54:22Z</time>
      </trkpt>
      <trkpt lat="45.75312" lon="4.65784">
        <ele>422</ele>
        <time>2010-04-03T11:54:24Z</time>
      </trkpt>
      <trkpt lat="45.75339" lon="4.65806">
        <ele>421</ele>
        <time>2010-04-03T11:54:27Z</time>
      </trkpt>
      <trkpt lat="45.75368" lon="4.65839">
        <ele>421</ele>
        <time>2010-04-03T11:54:30Z</time>
      </trkpt>
      <trkpt lat="45.75387" lon="4.65858">
        <ele>421</ele>
        <time>2010-04-03T11:54:32Z</time>
      </trkpt>
      <trkpt lat="45.75417" lon="4.65888">
        <ele>421</ele>
        <time>2010-04-03T11:54:36Z</time>
      </trkpt>
      <trkpt lat="45.75453" lon="4.65921">
        <ele>421</ele>
        <time>2010-04-03T11:54:40Z</time>
      </trkpt>
      <trkpt lat="45.75469" lon="4.65936">
        <ele>422</ele>
        <time>2010-04-03T11:54:42Z</time>
      </trkpt>
      <trkpt lat="45.75485" lon="4.6595">
        <ele>422</ele>
        <time>2010-04-03T11:54:44Z</time>
      </trkpt>
      <trkpt lat="45.75506" lon="4.65971">
        <ele>421</ele>
        <time>2010-04-03T11:54:47Z</time>
      </trkpt>
      <trkpt lat="45.75522" lon="4.65985">
        <ele>420</ele>
        <time>2010-04-03T11:54:49Z</time>
      </trkpt>
      <trkpt lat="45.75533" lon="4.65992">
        <ele>420</ele>
        <time>2010-04-03T11:54:51Z</time>
      </trkpt>
      <trkpt lat="45.75548" lon="4.66">
        <ele>419</ele>
        <time>2010-04-03T11:54:53Z</time>
      </trkpt>
      <trkpt lat="45.75563" lon="4.66007">
        <ele>419</ele>
        <time>2010-04-03T11:54:55Z</time>
      </trkpt>
      <trkpt lat="45.75577" lon="4.66011">
        <ele>419</ele>
        <time>2010-04-03T11:54:57Z</time>
      </trkpt>
      <trkpt lat="45.75589" lon="4.66013">
        <ele>419</ele>
        <time>2010-04-03T11:54:59Z</time>
      </trkpt>
      <trkpt lat="45.75606" lon="4.66017">
        <ele>419</ele>
        <time>2010-04-03T11:55:02Z</time>
      </trkpt>
      <trkpt lat="45.75621" lon="4.66018">
        <ele>419</ele>
        <time>2010-04-03T11:55:05Z</time>
      </trkpt>
      <trkpt lat="45.75635" lon="4.66018">
        <ele>419</ele>
        <time>2010-04-03T11:55:08Z</time>
      </trkpt>
      <trkpt lat="45.75647" lon="4.66019">
        <ele>419</ele>
        <time>2010-04-03T11:55:10Z</time>
      </trkpt>
      <trkpt lat="45.75662" lon="4.66019">
        <ele>419</ele>
        <time>2010-04-03T11:55:13Z</time>
      </trkpt>
      <trkpt lat="45.75673" lon="4.66021">
        <ele>419</ele>
        <time>2010-04-03T11:55:15Z</time>
      </trkpt>
      <trkpt lat="45.75684" lon="4.66023">
        <ele>419</ele>
        <time>2010-04-03T11:55:17Z</time>
      </trkpt>
      <trkpt lat="45.75695" lon="4.66025">
        <ele>419</ele>
        <time>2010-04-03T11:55:19Z</time>
      </trkpt>
      <trkpt lat="45.75705" lon="4.66028">
        <ele>418</ele>
        <time>2010-04-03T11:55:21Z</time>
      </trkpt>
      <trkpt lat="45.75716" lon="4.66031">
        <ele>418</ele>
        <time>2010-04-03T11:55:23Z</time>
      </trkpt>
      <trkpt lat="45.75726" lon="4.66034">
        <ele>418</ele>
        <time>2010-04-03T11:55:25Z</time>
      </trkpt>
      <trkpt lat="45.75736" lon="4.66036">
        <ele>417</ele>
        <time>2010-04-03T11:55:27Z</time>
      </trkpt>
      <trkpt lat="45.75746" lon="4.66038">
        <ele>417</ele>
        <time>2010-04-03T11:55:30Z</time>
      </trkpt>
      <trkpt lat="45.75756" lon="4.6604">
        <ele>417</ele>
        <time>2010-04-03T11:55:32Z</time>
      </trkpt>
      <trkpt lat="45.75768" lon="4.66043">
        <ele>416</ele>
        <time>2010-04-03T11:55:34Z</time>
      </trkpt>
      <trkpt lat="45.75779" lon="4.66044">
        <ele>416</ele>
        <time>2010-04-03T11:55:36Z</time>
      </trkpt>
      <trkpt lat="45.75791" lon="4.66045">
        <ele>415</ele>
        <time>2010-04-03T11:55:38Z</time>
      </trkpt>
      <trkpt lat="45.75805" lon="4.66044">
        <ele>414</ele>
        <time>2010-04-03T11:55:40Z</time>
      </trkpt>
      <trkpt lat="45.75818" lon="4.66042">
        <ele>414</ele>
        <time>2010-04-03T11:55:42Z</time>
      </trkpt>
      <trkpt lat="45.75834" lon="4.66039">
        <ele>415</ele>
        <time>2010-04-03T11:55:44Z</time>
      </trkpt>
      <trkpt lat="45.75853" lon="4.66037">
        <ele>416</ele>
        <time>2010-04-03T11:55:47Z</time>
      </trkpt>
      <trkpt lat="45.7587" lon="4.66034">
        <ele>416</ele>
        <time>2010-04-03T11:55:49Z</time>
      </trkpt>
      <trkpt lat="45.75887" lon="4.66029">
        <ele>417</ele>
        <time>2010-04-03T11:55:51Z</time>
      </trkpt>
      <trkpt lat="45.75902" lon="4.6602">
        <ele>416</ele>
        <time>2010-04-03T11:55:53Z</time>
      </trkpt>
      <trkpt lat="45.75917" lon="4.66012">
        <ele>416</ele>
        <time>2010-04-03T11:55:55Z</time>
      </trkpt>
      <trkpt lat="45.75931" lon="4.66003">
        <ele>417</ele>
        <time>2010-04-03T11:55:57Z</time>
      </trkpt>
      <trkpt lat="45.75944" lon="4.65993">
        <ele>417</ele>
        <time>2010-04-03T11:55:59Z</time>
      </trkpt>
      <trkpt lat="45.75956" lon="4.65978">
        <ele>417</ele>
        <time>2010-04-03T11:56:02Z</time>
      </trkpt>
      <trkpt lat="45.75976" lon="4.65953">
        <ele>416</ele>
        <time>2010-04-03T11:56:06Z</time>
      </trkpt>
      <trkpt lat="45.75986" lon="4.65931">
        <ele>416</ele>
        <time>2010-04-03T11:56:09Z</time>
      </trkpt>
      <trkpt lat="45.75993" lon="4.65915">
        <ele>416</ele>
        <time>2010-04-03T11:56:11Z</time>
      </trkpt>
      <trkpt lat="45.76" lon="4.65899">
        <ele>415</ele>
        <time>2010-04-03T11:56:13Z</time>
      </trkpt>
      <trkpt lat="45.76007" lon="4.65884">
        <ele>414</ele>
        <time>2010-04-03T11:56:15Z</time>
      </trkpt>
      <trkpt lat="45.76014" lon="4.6587">
        <ele>412</ele>
        <time>2010-04-03T11:56:17Z</time>
      </trkpt>
      <trkpt lat="45.76029" lon="4.6586">
        <ele>412</ele>
        <time>2010-04-03T11:56:20Z</time>
      </trkpt>
      <trkpt lat="45.76043" lon="4.65858">
        <ele>411</ele>
        <time>2010-04-03T11:56:22Z</time>
      </trkpt>
      <trkpt lat="45.76058" lon="4.65861">
        <ele>410</ele>
        <time>2010-04-03T11:56:24Z</time>
      </trkpt>
      <trkpt lat="45.76072" lon="4.65866">
        <ele>409</ele>
        <time>2010-04-03T11:56:26Z</time>
      </trkpt>
      <trkpt lat="45.76084" lon="4.65873">
        <ele>409</ele>
        <time>2010-04-03T11:56:28Z</time>
      </trkpt>
      <trkpt lat="45.7609" lon="4.6588">
        <ele>409</ele>
        <time>2010-04-03T11:56:30Z</time>
      </trkpt>
      <trkpt lat="45.76096" lon="4.65888">
        <ele>409</ele>
        <time>2010-04-03T11:56:33Z</time>
      </trkpt>
      <trkpt lat="45.76102" lon="4.65899">
        <ele>410</ele>
        <time>2010-04-03T11:56:35Z</time>
      </trkpt>
      <trkpt lat="45.76107" lon="4.65911">
        <ele>410</ele>
        <time>2010-04-03T11:56:37Z</time>
      </trkpt>
      <trkpt lat="45.76112" lon="4.65922">
        <ele>410</ele>
        <time>2010-04-03T11:56:39Z</time>
      </trkpt>
      <trkpt lat="45.76116" lon="4.65934">
        <ele>410</ele>
        <time>2010-04-03T11:56:41Z</time>
      </trkpt>
      <trkpt lat="45.76121" lon="4.65946">
        <ele>411</ele>
        <time>2010-04-03T11:56:43Z</time>
      </trkpt>
      <trkpt lat="45.76125" lon="4.65957">
        <ele>411</ele>
        <time>2010-04-03T11:56:45Z</time>
      </trkpt>
      <trkpt lat="45.7613" lon="4.65968">
        <ele>411</ele>
        <time>2010-04-03T11:56:47Z</time>
      </trkpt>
      <trkpt lat="45.76135" lon="4.65979">
        <ele>411</ele>
        <time>2010-04-03T11:56:50Z</time>
      </trkpt>
      <trkpt lat="45.76139" lon="4.65989">
        <ele>411</ele>
        <time>2010-04-03T11:56:52Z</time>
      </trkpt>
      <trkpt lat="45.76144" lon="4.65999">
        <ele>412</ele>
        <time>2010-04-03T11:56:54Z</time>
      </trkpt>
      <trkpt lat="45.76148" lon="4.66008">
        <ele>413</ele>
        <time>2010-04-03T11:56:56Z</time>
      </trkpt>
      <trkpt lat="45.76152" lon="4.66016">
        <ele>413</ele>
        <time>2010-04-03T11:56:58Z</time>
      </trkpt>
      <trkpt lat="45.76157" lon="4.66024">
        <ele>414</ele>
        <time>2010-04-03T11:57:00Z</time>
      </trkpt>
      <trkpt lat="45.76162" lon="4.66033">
        <ele>414</ele>
        <time>2010-04-03T11:57:02Z</time>
      </trkpt>
      <trkpt lat="45.76167" lon="4.66041">
        <ele>415</ele>
        <time>2010-04-03T11:57:04Z</time>
      </trkpt>
      <trkpt lat="45.76172" lon="4.66048">
        <ele>416</ele>
        <time>2010-04-03T11:57:06Z</time>
      </trkpt>
      <trkpt lat="45.76178" lon="4.66052">
        <ele>416</ele>
        <time>2010-04-03T11:57:09Z</time>
      </trkpt>
      <trkpt lat="45.76185" lon="4.66056">
        <ele>417</ele>
        <time>2010-04-03T11:57:11Z</time>
      </trkpt>
      <trkpt lat="45.76195" lon="4.6606">
        <ele>418</ele>
        <time>2010-04-03T11:57:14Z</time>
      </trkpt>
      <trkpt lat="45.76195" lon="4.6606">
        <ele>418</ele>
        <time>2010-04-03T11:57:15Z</time>
      </trkpt>
      <trkpt lat="45.76213" lon="4.66066">
        <ele>419</ele>
        <time>2010-04-03T11:57:30Z</time>
      </trkpt>
      <trkpt lat="45.76217" lon="4.66068">
        <ele>419</ele>
        <time>2010-04-03T11:57:32Z</time>
      </trkpt>
      <trkpt lat="45.76221" lon="4.6607">
        <ele>421</ele>
        <time>2010-04-03T11:57:35Z</time>
      </trkpt>
      <trkpt lat="45.76227" lon="4.66072">
        <ele>423</ele>
        <time>2010-04-03T11:57:37Z</time>
      </trkpt>
      <trkpt lat="45.76232" lon="4.66074">
        <ele>423</ele>
        <time>2010-04-03T11:57:39Z</time>
      </trkpt>
      <trkpt lat="45.76236" lon="4.66076">
        <ele>423</ele>
        <time>2010-04-03T11:57:41Z</time>
      </trkpt>
      <trkpt lat="45.76238" lon="4.66077">
        <ele>423</ele>
        <time>2010-04-03T11:57:43Z</time>
      </trkpt>
      <trkpt lat="45.76241" lon="4.66078">
        <ele>423</ele>
        <time>2010-04-03T11:57:48Z</time>
      </trkpt>
      <trkpt lat="45.7625" lon="4.66076">
        <ele>424</ele>
        <time>2010-04-03T11:57:51Z</time>
      </trkpt>
      <trkpt lat="45.76259" lon="4.66072">
        <ele>424</ele>
        <time>2010-04-03T11:57:53Z</time>
      </trkpt>
      <trkpt lat="45.76265" lon="4.66068">
        <ele>424</ele>
        <time>2010-04-03T11:57:55Z</time>
      </trkpt>
      <trkpt lat="45.7627" lon="4.66062">
        <ele>425</ele>
        <time>2010-04-03T11:57:57Z</time>
      </trkpt>
      <trkpt lat="45.76281" lon="4.66049">
        <ele>428</ele>
        <time>2010-04-03T11:57:59Z</time>
      </trkpt>
      <trkpt lat="45.76289" lon="4.6604">
        <ele>430</ele>
        <time>2010-04-03T11:58:02Z</time>
      </trkpt>
      <trkpt lat="45.76296" lon="4.66032">
        <ele>431</ele>
        <time>2010-04-03T11:58:04Z</time>
      </trkpt>
      <trkpt lat="45.76302" lon="4.66024">
        <ele>433</ele>
        <time>2010-04-03T11:58:06Z</time>
      </trkpt>
      <trkpt lat="45.76307" lon="4.66016">
        <ele>434</ele>
        <time>2010-04-03T11:58:08Z</time>
      </trkpt>
      <trkpt lat="45.76312" lon="4.66008">
        <ele>435</ele>
        <time>2010-04-03T11:58:10Z</time>
      </trkpt>
      <trkpt lat="45.76318" lon="4.66002">
        <ele>436</ele>
        <time>2010-04-03T11:58:12Z</time>
      </trkpt>
      <trkpt lat="45.76323" lon="4.65996">
        <ele>436</ele>
        <time>2010-04-03T11:58:15Z</time>
      </trkpt>
      <trkpt lat="45.76328" lon="4.6599">
        <ele>437</ele>
        <time>2010-04-03T11:58:17Z</time>
      </trkpt>
      <trkpt lat="45.76332" lon="4.65983">
        <ele>438</ele>
        <time>2010-04-03T11:58:19Z</time>
      </trkpt>
      <trkpt lat="45.76336" lon="4.65976">
        <ele>437</ele>
        <time>2010-04-03T11:58:21Z</time>
      </trkpt>
      <trkpt lat="45.76338" lon="4.6597">
        <ele>437</ele>
        <time>2010-04-03T11:58:23Z</time>
      </trkpt>
      <trkpt lat="45.76338" lon="4.65964">
        <ele>436</ele>
        <time>2010-04-03T11:58:25Z</time>
      </trkpt>
      <trkpt lat="45.76336" lon="4.65959">
        <ele>435</ele>
        <time>2010-04-03T11:58:28Z</time>
      </trkpt>
      <trkpt lat="45.76326" lon="4.65945">
        <ele>434</ele>
        <time>2010-04-03T11:58:33Z</time>
      </trkpt>
      <trkpt lat="45.76318" lon="4.65936">
        <ele>433</ele>
        <time>2010-04-03T11:58:35Z</time>
      </trkpt>
      <trkpt lat="45.76311" lon="4.65929">
        <ele>433</ele>
        <time>2010-04-03T11:58:38Z</time>
      </trkpt>
      <trkpt lat="45.76305" lon="4.6592">
        <ele>433</ele>
        <time>2010-04-03T11:58:40Z</time>
      </trkpt>
      <trkpt lat="45.76298" lon="4.65911">
        <ele>432</ele>
        <time>2010-04-03T11:58:42Z</time>
      </trkpt>
      <trkpt lat="45.76288" lon="4.65898">
        <ele>431</ele>
        <time>2010-04-03T11:58:44Z</time>
      </trkpt>
      <trkpt lat="45.76281" lon="4.65883">
        <ele>431</ele>
        <time>2010-04-03T11:58:46Z</time>
      </trkpt>
      <trkpt lat="45.76273" lon="4.65866">
        <ele>431</ele>
        <time>2010-04-03T11:58:48Z</time>
      </trkpt>
      <trkpt lat="45.76266" lon="4.65849">
        <ele>431</ele>
        <time>2010-04-03T11:58:50Z</time>
      </trkpt>
      <trkpt lat="45.76259" lon="4.65833">
        <ele>431</ele>
        <time>2010-04-03T11:58:53Z</time>
      </trkpt>
      <trkpt lat="45.76253" lon="4.65818">
        <ele>430</ele>
        <time>2010-04-03T11:58:55Z</time>
      </trkpt>
      <trkpt lat="45.76248" lon="4.65804">
        <ele>430</ele>
        <time>2010-04-03T11:58:57Z</time>
      </trkpt>
      <trkpt lat="45.76242" lon="4.65791">
        <ele>429</ele>
        <time>2010-04-03T11:58:59Z</time>
      </trkpt>
      <trkpt lat="45.76237" lon="4.65778">
        <ele>428</ele>
        <time>2010-04-03T11:59:01Z</time>
      </trkpt>
      <trkpt lat="45.76231" lon="4.65769">
        <ele>428</ele>
        <time>2010-04-03T11:59:03Z</time>
      </trkpt>
      <trkpt lat="45.76225" lon="4.65761">
        <ele>427</ele>
        <time>2010-04-03T11:59:05Z</time>
      </trkpt>
      <trkpt lat="45.7622" lon="4.65753">
        <ele>427</ele>
        <time>2010-04-03T11:59:08Z</time>
      </trkpt>
      <trkpt lat="45.76215" lon="4.65745">
        <ele>427</ele>
        <time>2010-04-03T11:59:10Z</time>
      </trkpt>
      <trkpt lat="45.76212" lon="4.65738">
        <ele>427</ele>
        <time>2010-04-03T11:59:12Z</time>
      </trkpt>
      <trkpt lat="45.76209" lon="4.65732">
        <ele>427</ele>
        <time>2010-04-03T11:59:14Z</time>
      </trkpt>
      <trkpt lat="45.76207" lon="4.65725">
        <ele>427</ele>
        <time>2010-04-03T11:59:16Z</time>
      </trkpt>
      <trkpt lat="45.76206" lon="4.65719">
        <ele>427</ele>
        <time>2010-04-03T11:59:18Z</time>
      </trkpt>
      <trkpt lat="45.76206" lon="4.65713">
        <ele>426</ele>
        <time>2010-04-03T11:59:20Z</time>
      </trkpt>
      <trkpt lat="45.76207" lon="4.65708">
        <ele>426</ele>
        <time>2010-04-03T11:59:22Z</time>
      </trkpt>
      <trkpt lat="45.76207" lon="4.65708">
        <ele>426</ele>
        <time>2010-04-03T11:59:23Z</time>
      </trkpt>
      <trkpt lat="45.7622" lon="4.65724">
        <ele>425</ele>
        <time>2010-04-03T11:59:37Z</time>
      </trkpt>
      <trkpt lat="45.76225" lon="4.65728">
        <ele>425</ele>
        <time>2010-04-03T11:59:39Z</time>
      </trkpt>
      <trkpt lat="45.76228" lon="4.6573">
        <ele>425</ele>
        <time>2010-04-03T11:59:42Z</time>
      </trkpt>
      <trkpt lat="45.76231" lon="4.65732">
        <ele>425</ele>
        <time>2010-04-03T11:59:44Z</time>
      </trkpt>
      <trkpt lat="45.76231" lon="4.65732">
        <ele>425</ele>
        <time>2010-04-03T11:59:49Z</time>
      </trkpt>
      <trkpt lat="45.76246" lon="4.65659">
        <ele>377</ele>
        <time>2010-04-03T12:04:45Z</time>
      </trkpt>
      <trkpt lat="45.76219" lon="4.65666">
        <ele>474</ele>
        <time>2010-04-03T12:26:56Z</time>
      </trkpt>
      <trkpt lat="45.76215" lon="4.65684">
        <ele>487</ele>
        <time>2010-04-03T12:34:39Z</time>
      </trkpt>
      <trkpt lat="45.76215" lon="4.65684">
        <ele>487</ele>
        <time>2010-04-03T12:34:42Z</time>
      </trkpt>
      <trkpt lat="45.76204" lon="4.65716">
        <ele>480</ele>
        <time>2010-04-03T12:35:22Z</time>
      </trkpt>
      <trkpt lat="45.76196" lon="4.65731">
        <ele>477</ele>
        <time>2010-04-03T12:35:29Z</time>
      </trkpt>
      <trkpt lat="45.76194" lon="4.65736">
        <ele>476</ele>
        <time>2010-04-03T12:35:31Z</time>
      </trkpt>
      <trkpt lat="45.76194" lon="4.65736">
        <ele>476</ele>
        <time>2010-04-03T12:35:32Z</time>
      </trkpt>
      <trkpt lat="45.76199" lon="4.65756">
        <ele>474</ele>
        <time>2010-04-03T12:35:37Z</time>
      </trkpt>
      <trkpt lat="45.76203" lon="4.65767">
        <ele>473</ele>
        <time>2010-04-03T12:35:39Z</time>
      </trkpt>
      <trkpt lat="45.76206" lon="4.65779">
        <ele>473</ele>
        <time>2010-04-03T12:35:41Z</time>
      </trkpt>
      <trkpt lat="45.76211" lon="4.65793">
        <ele>473</ele>
        <time>2010-04-03T12:35:43Z</time>
      </trkpt>
      <trkpt lat="45.76216" lon="4.6581">
        <ele>472</ele>
        <time>2010-04-03T12:35:45Z</time>
      </trkpt>
      <trkpt lat="45.76222" lon="4.65828">
        <ele>470</ele>
        <time>2010-04-03T12:35:47Z</time>
      </trkpt>
      <trkpt lat="45.76228" lon="4.65847">
        <ele>470</ele>
        <time>2010-04-03T12:35:49Z</time>
      </trkpt>
      <trkpt lat="45.76235" lon="4.65866">
        <ele>470</ele>
        <time>2010-04-03T12:35:51Z</time>
      </trkpt>
      <trkpt lat="45.76242" lon="4.65884">
        <ele>470</ele>
        <time>2010-04-03T12:35:54Z</time>
      </trkpt>
      <trkpt lat="45.7625" lon="4.659">
        <ele>470</ele>
        <time>2010-04-03T12:35:56Z</time>
      </trkpt>
      <trkpt lat="45.76258" lon="4.65913">
        <ele>470</ele>
        <time>2010-04-03T12:35:58Z</time>
      </trkpt>
      <trkpt lat="45.76265" lon="4.65921">
        <ele>470</ele>
        <time>2010-04-03T12:36:00Z</time>
      </trkpt>
      <trkpt lat="45.76272" lon="4.65928">
        <ele>470</ele>
        <time>2010-04-03T12:36:02Z</time>
      </trkpt>
      <trkpt lat="45.76279" lon="4.65934">
        <ele>470</ele>
        <time>2010-04-03T12:36:04Z</time>
      </trkpt>
      <trkpt lat="45.76285" lon="4.65941">
        <ele>470</ele>
        <time>2010-04-03T12:36:06Z</time>
      </trkpt>
      <trkpt lat="45.76292" lon="4.65949">
        <ele>470</ele>
        <time>2010-04-03T12:36:09Z</time>
      </trkpt>
      <trkpt lat="45.76298" lon="4.65956">
        <ele>470</ele>
        <time>2010-04-03T12:36:11Z</time>
      </trkpt>
      <trkpt lat="45.76305" lon="4.65964">
        <ele>471</ele>
        <time>2010-04-03T12:36:13Z</time>
      </trkpt>
      <trkpt lat="45.76312" lon="4.65971">
        <ele>472</ele>
        <time>2010-04-03T12:36:15Z</time>
      </trkpt>
      <trkpt lat="45.76318" lon="4.65977">
        <ele>472</ele>
        <time>2010-04-03T12:36:17Z</time>
      </trkpt>
      <trkpt lat="45.76325" lon="4.65982">
        <ele>471</ele>
        <time>2010-04-03T12:36:19Z</time>
      </trkpt>
      <trkpt lat="45.76337" lon="4.65986">
        <ele>471</ele>
        <time>2010-04-03T12:36:23Z</time>
      </trkpt>
      <trkpt lat="45.76344" lon="4.65989">
        <ele>471</ele>
        <time>2010-04-03T12:36:25Z</time>
      </trkpt>
      <trkpt lat="45.7635" lon="4.65993">
        <ele>471</ele>
        <time>2010-04-03T12:36:27Z</time>
      </trkpt>
      <trkpt lat="45.76355" lon="4.65994">
        <ele>471</ele>
        <time>2010-04-03T12:36:28Z</time>
      </trkpt>
      <trkpt lat="45.76371" lon="4.65999">
        <ele>471</ele>
        <time>2010-04-03T12:36:32Z</time>
      </trkpt>
      <trkpt lat="45.7638" lon="4.66004">
        <ele>471</ele>
        <time>2010-04-03T12:36:34Z</time>
      </trkpt>
      <trkpt lat="45.76392" lon="4.6601">
        <ele>470</ele>
        <time>2010-04-03T12:36:36Z</time>
      </trkpt>
      <trkpt lat="45.76407" lon="4.66012">
        <ele>470</ele>
        <time>2010-04-03T12:36:38Z</time>
      </trkpt>
      <trkpt lat="45.76428" lon="4.66013">
        <ele>471</ele>
        <time>2010-04-03T12:36:40Z</time>
      </trkpt>
      <trkpt lat="45.7644" lon="4.66014">
        <ele>471</ele>
        <time>2010-04-03T12:36:42Z</time>
      </trkpt>
      <trkpt lat="45.76451" lon="4.66017">
        <ele>471</ele>
        <time>2010-04-03T12:36:44Z</time>
      </trkpt>
      <trkpt lat="45.76458" lon="4.66022">
        <ele>471</ele>
        <time>2010-04-03T12:36:47Z</time>
      </trkpt>
      <trkpt lat="45.76461" lon="4.66025">
        <ele>472</ele>
        <time>2010-04-03T12:36:49Z</time>
      </trkpt>
      <trkpt lat="45.76468" lon="4.66043">
        <ele>473</ele>
        <time>2010-04-03T12:37:02Z</time>
      </trkpt>
      <trkpt lat="45.76471" lon="4.66048">
        <ele>473</ele>
        <time>2010-04-03T12:37:05Z</time>
      </trkpt>
      <trkpt lat="45.76471" lon="4.66048">
        <ele>473</ele>
        <time>2010-04-03T12:37:05Z</time>
      </trkpt>
      <trkpt lat="45.76456" lon="4.66044">
        <ele>473</ele>
        <time>2010-04-03T12:37:12Z</time>
      </trkpt>
      <trkpt lat="45.76453" lon="4.66043">
        <ele>473</ele>
        <time>2010-04-03T12:37:15Z</time>
      </trkpt>
      <trkpt lat="45.76445" lon="4.6604">
        <ele>473</ele>
        <time>2010-04-03T12:37:17Z</time>
      </trkpt>
      <trkpt lat="45.76428" lon="4.66034">
        <ele>473</ele>
        <time>2010-04-03T12:37:20Z</time>
      </trkpt>
      <trkpt lat="45.76416" lon="4.66031">
        <ele>474</ele>
        <time>2010-04-03T12:37:22Z</time>
      </trkpt>
      <trkpt lat="45.76408" lon="4.6603">
        <ele>474</ele>
        <time>2010-04-03T12:37:24Z</time>
      </trkpt>
      <trkpt lat="45.76393" lon="4.66034">
        <ele>475</ele>
        <time>2010-04-03T12:37:27Z</time>
      </trkpt>
      <trkpt lat="45.76388" lon="4.66036">
        <ele>475</ele>
        <time>2010-04-03T12:37:29Z</time>
      </trkpt>
      <trkpt lat="45.76381" lon="4.66039">
        <ele>475</ele>
        <time>2010-04-03T12:37:36Z</time>
      </trkpt>
      <trkpt lat="45.76377" lon="4.66039">
        <ele>474</ele>
        <time>2010-04-03T12:37:57Z</time>
      </trkpt>
      <trkpt lat="45.76352" lon="4.66058">
        <ele>473</ele>
        <time>2010-04-03T12:38:01Z</time>
      </trkpt>
      <trkpt lat="45.76339" lon="4.66068">
        <ele>473</ele>
        <time>2010-04-03T12:38:04Z</time>
      </trkpt>
      <trkpt lat="45.76326" lon="4.66076">
        <ele>473</ele>
        <time>2010-04-03T12:38:06Z</time>
      </trkpt>
      <trkpt lat="45.76312" lon="4.66084">
        <ele>473</ele>
        <time>2010-04-03T12:38:08Z</time>
      </trkpt>
      <trkpt lat="45.76298" lon="4.66092">
        <ele>472</ele>
        <time>2010-04-03T12:38:10Z</time>
      </trkpt>
      <trkpt lat="45.76282" lon="4.66097">
        <ele>472</ele>
        <time>2010-04-03T12:38:13Z</time>
      </trkpt>
      <trkpt lat="45.76265" lon="4.66098">
        <ele>471</ele>
        <time>2010-04-03T12:38:15Z</time>
      </trkpt>
      <trkpt lat="45.7625" lon="4.66096">
        <ele>469</ele>
        <time>2010-04-03T12:38:17Z</time>
      </trkpt>
      <trkpt lat="45.76235" lon="4.66096">
        <ele>468</ele>
        <time>2010-04-03T12:38:19Z</time>
      </trkpt>
      <trkpt lat="45.76222" lon="4.66103">
        <ele>467</ele>
        <time>2010-04-03T12:38:21Z</time>
      </trkpt>
      <trkpt lat="45.76208" lon="4.66113">
        <ele>467</ele>
        <time>2010-04-03T12:38:23Z</time>
      </trkpt>
      <trkpt lat="45.76193" lon="4.66126">
        <ele>467</ele>
        <time>2010-04-03T12:38:25Z</time>
      </trkpt>
      <trkpt lat="45.76175" lon="4.66143">
        <ele>466</ele>
        <time>2010-04-03T12:38:27Z</time>
      </trkpt>
      <trkpt lat="45.76153" lon="4.66164">
        <ele>465</ele>
        <time>2010-04-03T12:38:30Z</time>
      </trkpt>
      <trkpt lat="45.76132" lon="4.66185">
        <ele>464</ele>
        <time>2010-04-03T12:38:32Z</time>
      </trkpt>
      <trkpt lat="45.76112" lon="4.66205">
        <ele>463</ele>
        <time>2010-04-03T12:38:34Z</time>
      </trkpt>
      <trkpt lat="45.76095" lon="4.66224">
        <ele>463</ele>
        <time>2010-04-03T12:38:36Z</time>
      </trkpt>
      <trkpt lat="45.76074" lon="4.66255">
        <ele>462</ele>
        <time>2010-04-03T12:38:39Z</time>
      </trkpt>
      <trkpt lat="45.76065" lon="4.66292">
        <ele>460</ele>
        <time>2010-04-03T12:38:42Z</time>
      </trkpt>
      <trkpt lat="45.76061" lon="4.66326">
        <ele>459</ele>
        <time>2010-04-03T12:38:44Z</time>
      </trkpt>
      <trkpt lat="45.76059" lon="4.6636">
        <ele>459</ele>
        <time>2010-04-03T12:38:46Z</time>
      </trkpt>
      <trkpt lat="45.76056" lon="4.66394">
        <ele>458</ele>
        <time>2010-04-03T12:38:48Z</time>
      </trkpt>
      <trkpt lat="45.76048" lon="4.66427">
        <ele>456</ele>
        <time>2010-04-03T12:38:50Z</time>
      </trkpt>
      <trkpt lat="45.7604" lon="4.66456">
        <ele>455</ele>
        <time>2010-04-03T12:38:52Z</time>
      </trkpt>
      <trkpt lat="45.76031" lon="4.66482">
        <ele>455</ele>
        <time>2010-04-03T12:38:55Z</time>
      </trkpt>
      <trkpt lat="45.76019" lon="4.66513">
        <ele>455</ele>
        <time>2010-04-03T12:38:57Z</time>
      </trkpt>
      <trkpt lat="45.76008" lon="4.66544">
        <ele>455</ele>
        <time>2010-04-03T12:39:00Z</time>
      </trkpt>
      <trkpt lat="45.76" lon="4.66565">
        <ele>455</ele>
        <time>2010-04-03T12:39:02Z</time>
      </trkpt>
      <trkpt lat="45.75991" lon="4.66587">
        <ele>455</ele>
        <time>2010-04-03T12:39:04Z</time>
      </trkpt>
      <trkpt lat="45.75985" lon="4.6661">
        <ele>454</ele>
        <time>2010-04-03T12:39:07Z</time>
      </trkpt>
      <trkpt lat="45.7598" lon="4.66633">
        <ele>454</ele>
        <time>2010-04-03T12:39:09Z</time>
      </trkpt>
      <trkpt lat="45.75975" lon="4.66657">
        <ele>454</ele>
        <time>2010-04-03T12:39:11Z</time>
      </trkpt>
      <trkpt lat="45.7597" lon="4.66689">
        <ele>453</ele>
        <time>2010-04-03T12:39:14Z</time>
      </trkpt>
      <trkpt lat="45.75968" lon="4.66712">
        <ele>452</ele>
        <time>2010-04-03T12:39:16Z</time>
      </trkpt>
      <trkpt lat="45.75962" lon="4.66742">
        <ele>452</ele>
        <time>2010-04-03T12:39:19Z</time>
      </trkpt>
      <trkpt lat="45.75958" lon="4.66766">
        <ele>451</ele>
        <time>2010-04-03T12:39:21Z</time>
      </trkpt>
      <trkpt lat="45.75949" lon="4.66793">
        <ele>451</ele>
        <time>2010-04-03T12:39:24Z</time>
      </trkpt>
      <trkpt lat="45.7594" lon="4.66812">
        <ele>449</ele>
        <time>2010-04-03T12:39:26Z</time>
      </trkpt>
      <trkpt lat="45.75932" lon="4.66829">
        <ele>447</ele>
        <time>2010-04-03T12:39:28Z</time>
      </trkpt>
      <trkpt lat="45.75924" lon="4.66846">
        <ele>446</ele>
        <time>2010-04-03T12:39:30Z</time>
      </trkpt>
      <trkpt lat="45.75911" lon="4.66854">
        <ele>445</ele>
        <time>2010-04-03T12:39:32Z</time>
      </trkpt>
      <trkpt lat="45.75897" lon="4.66863">
        <ele>444</ele>
        <time>2010-04-03T12:39:34Z</time>
      </trkpt>
      <trkpt lat="45.75885" lon="4.66876">
        <ele>443</ele>
        <time>2010-04-03T12:39:37Z</time>
      </trkpt>
      <trkpt lat="45.75873" lon="4.66889">
        <ele>442</ele>
        <time>2010-04-03T12:39:39Z</time>
      </trkpt>
      <trkpt lat="45.75864" lon="4.66904">
        <ele>442</ele>
        <time>2010-04-03T12:39:41Z</time>
      </trkpt>
      <trkpt lat="45.75852" lon="4.66924">
        <ele>442</ele>
        <time>2010-04-03T12:39:44Z</time>
      </trkpt>
      <trkpt lat="45.75842" lon="4.66938">
        <ele>441</ele>
        <time>2010-04-03T12:39:46Z</time>
      </trkpt>
      <trkpt lat="45.75831" lon="4.66953">
        <ele>439</ele>
        <time>2010-04-03T12:39:48Z</time>
      </trkpt>
      <trkpt lat="45.75821" lon="4.66969">
        <ele>439</ele>
        <time>2010-04-03T12:39:50Z</time>
      </trkpt>
      <trkpt lat="45.75805" lon="4.66987">
        <ele>438</ele>
        <time>2010-04-03T12:39:53Z</time>
      </trkpt>
      <trkpt lat="45.75788" lon="4.67005">
        <ele>437</ele>
        <time>2010-04-03T12:39:55Z</time>
      </trkpt>
      <trkpt lat="45.75771" lon="4.67026">
        <ele>437</ele>
        <time>2010-04-03T12:39:57Z</time>
      </trkpt>
      <trkpt lat="45.75748" lon="4.67059">
        <ele>437</ele>
        <time>2010-04-03T12:40:00Z</time>
      </trkpt>
      <trkpt lat="45.75737" lon="4.6708">
        <ele>436</ele>
        <time>2010-04-03T12:40:02Z</time>
      </trkpt>
      <trkpt lat="45.75717" lon="4.67121">
        <ele>436</ele>
        <time>2010-04-03T12:40:05Z</time>
      </trkpt>
      <trkpt lat="45.75705" lon="4.67156">
        <ele>436</ele>
        <time>2010-04-03T12:40:07Z</time>
      </trkpt>
      <trkpt lat="45.75696" lon="4.67192">
        <ele>434</ele>
        <time>2010-04-03T12:40:09Z</time>
      </trkpt>
      <trkpt lat="45.75685" lon="4.67225">
        <ele>432</ele>
        <time>2010-04-03T12:40:11Z</time>
      </trkpt>
      <trkpt lat="45.7567" lon="4.67248">
        <ele>431</ele>
        <time>2010-04-03T12:40:13Z</time>
      </trkpt>
      <trkpt lat="45.7565" lon="4.67263">
        <ele>431</ele>
        <time>2010-04-03T12:40:16Z</time>
      </trkpt>
      <trkpt lat="45.75631" lon="4.67278">
        <ele>431</ele>
        <time>2010-04-03T12:40:18Z</time>
      </trkpt>
      <trkpt lat="45.75612" lon="4.67295">
        <ele>429</ele>
        <time>2010-04-03T12:40:20Z</time>
      </trkpt>
      <trkpt lat="45.75596" lon="4.67316">
        <ele>427</ele>
        <time>2010-04-03T12:40:22Z</time>
      </trkpt>
      <trkpt lat="45.75584" lon="4.67342">
        <ele>425</ele>
        <time>2010-04-03T12:40:24Z</time>
      </trkpt>
      <trkpt lat="45.75574" lon="4.67367">
        <ele>423</ele>
        <time>2010-04-03T12:40:26Z</time>
      </trkpt>
      <trkpt lat="45.75564" lon="4.67391">
        <ele>420</ele>
        <time>2010-04-03T12:40:28Z</time>
      </trkpt>
      <trkpt lat="45.75553" lon="4.67413">
        <ele>417</ele>
        <time>2010-04-03T12:40:31Z</time>
      </trkpt>
      <trkpt lat="45.75539" lon="4.6743">
        <ele>415</ele>
        <time>2010-04-03T12:40:33Z</time>
      </trkpt>
      <trkpt lat="45.75524" lon="4.67446">
        <ele>412</ele>
        <time>2010-04-03T12:40:35Z</time>
      </trkpt>
      <trkpt lat="45.75509" lon="4.67462">
        <ele>410</ele>
        <time>2010-04-03T12:40:37Z</time>
      </trkpt>
      <trkpt lat="45.75494" lon="4.67478">
        <ele>408</ele>
        <time>2010-04-03T12:40:39Z</time>
      </trkpt>
      <trkpt lat="45.75479" lon="4.67497">
        <ele>407</ele>
        <time>2010-04-03T12:40:41Z</time>
      </trkpt>
      <trkpt lat="45.75464" lon="4.6752">
        <ele>406</ele>
        <time>2010-04-03T12:40:44Z</time>
      </trkpt>
      <trkpt lat="45.75458" lon="4.6755">
        <ele>404</ele>
        <time>2010-04-03T12:40:46Z</time>
      </trkpt>
      <trkpt lat="45.75456" lon="4.67584">
        <ele>403</ele>
        <time>2010-04-03T12:40:48Z</time>
      </trkpt>
      <trkpt lat="45.75454" lon="4.6762">
        <ele>402</ele>
        <time>2010-04-03T12:40:50Z</time>
      </trkpt>
      <trkpt lat="45.75451" lon="4.6766">
        <ele>401</ele>
        <time>2010-04-03T12:40:52Z</time>
      </trkpt>
      <trkpt lat="45.75445" lon="4.67697">
        <ele>399</ele>
        <time>2010-04-03T12:40:54Z</time>
      </trkpt>
      <trkpt lat="45.75439" lon="4.67732">
        <ele>398</ele>
        <time>2010-04-03T12:40:56Z</time>
      </trkpt>
      <trkpt lat="45.75432" lon="4.67765">
        <ele>397</ele>
        <time>2010-04-03T12:40:59Z</time>
      </trkpt>
      <trkpt lat="45.75427" lon="4.67796">
        <ele>396</ele>
        <time>2010-04-03T12:41:01Z</time>
      </trkpt>
      <trkpt lat="45.75421" lon="4.67828">
        <ele>395</ele>
        <time>2010-04-03T12:41:03Z</time>
      </trkpt>
      <trkpt lat="45.75408" lon="4.67862">
        <ele>394</ele>
        <time>2010-04-03T12:41:05Z</time>
      </trkpt>
      <trkpt lat="45.75395" lon="4.67895">
        <ele>393</ele>
        <time>2010-04-03T12:41:07Z</time>
      </trkpt>
      <trkpt lat="45.75383" lon="4.67925">
        <ele>391</ele>
        <time>2010-04-03T12:41:09Z</time>
      </trkpt>
      <trkpt lat="45.75371" lon="4.67956">
        <ele>391</ele>
        <time>2010-04-03T12:41:11Z</time>
      </trkpt>
      <trkpt lat="45.7536" lon="4.67989">
        <ele>390</ele>
        <time>2010-04-03T12:41:14Z</time>
      </trkpt>
      <trkpt lat="45.75351" lon="4.68029">
        <ele>390</ele>
        <time>2010-04-03T12:41:16Z</time>
      </trkpt>
      <trkpt lat="45.75348" lon="4.68054">
        <ele>389</ele>
        <time>2010-04-03T12:41:18Z</time>
      </trkpt>
      <trkpt lat="45.75343" lon="4.68082">
        <ele>388</ele>
        <time>2010-04-03T12:41:21Z</time>
      </trkpt>
      <trkpt lat="45.75342" lon="4.68099">
        <ele>387</ele>
        <time>2010-04-03T12:41:23Z</time>
      </trkpt>
      <trkpt lat="45.75338" lon="4.68129">
        <ele>384</ele>
        <time>2010-04-03T12:41:28Z</time>
      </trkpt>
      <trkpt lat="45.75335" lon="4.68145">
        <ele>381</ele>
        <time>2010-04-03T12:41:30Z</time>
      </trkpt>
      <trkpt lat="45.75332" lon="4.68155">
        <ele>380</ele>
        <time>2010-04-03T12:41:33Z</time>
      </trkpt>
      <trkpt lat="45.75327" lon="4.68165">
        <ele>379</ele>
        <time>2010-04-03T12:41:35Z</time>
      </trkpt>
      <trkpt lat="45.75322" lon="4.68174">
        <ele>377</ele>
        <time>2010-04-03T12:41:37Z</time>
      </trkpt>
      <trkpt lat="45.75317" lon="4.68183">
        <ele>375</ele>
        <time>2010-04-03T12:41:39Z</time>
      </trkpt>
      <trkpt lat="45.75312" lon="4.68193">
        <ele>373</ele>
        <time>2010-04-03T12:41:41Z</time>
      </trkpt>
      <trkpt lat="45.75307" lon="4.68202">
        <ele>373</ele>
        <time>2010-04-03T12:41:43Z</time>
      </trkpt>
      <trkpt lat="45.75302" lon="4.68212">
        <ele>372</ele>
        <time>2010-04-03T12:41:45Z</time>
      </trkpt>
      <trkpt lat="45.75297" lon="4.68222">
        <ele>371</ele>
        <time>2010-04-03T12:41:47Z</time>
      </trkpt>
      <trkpt lat="45.75292" lon="4.68231">
        <ele>371</ele>
        <time>2010-04-03T12:41:50Z</time>
      </trkpt>
      <trkpt lat="45.75288" lon="4.68241">
        <ele>371</ele>
        <time>2010-04-03T12:41:52Z</time>
      </trkpt>
      <trkpt lat="45.75284" lon="4.68252">
        <ele>370</ele>
        <time>2010-04-03T12:41:54Z</time>
      </trkpt>
      <trkpt lat="45.7528" lon="4.68262">
        <ele>369</ele>
        <time>2010-04-03T12:41:56Z</time>
      </trkpt>
      <trkpt lat="45.75276" lon="4.68273">
        <ele>369</ele>
        <time>2010-04-03T12:41:58Z</time>
      </trkpt>
      <trkpt lat="45.75271" lon="4.68285">
        <ele>369</ele>
        <time>2010-04-03T12:42:00Z</time>
      </trkpt>
      <trkpt lat="45.75267" lon="4.68296">
        <ele>369</ele>
        <time>2010-04-03T12:42:02Z</time>
      </trkpt>
      <trkpt lat="45.75263" lon="4.68306">
        <ele>369</ele>
        <time>2010-04-03T12:42:05Z</time>
      </trkpt>
      <trkpt lat="45.75257" lon="4.6832">
        <ele>368</ele>
        <time>2010-04-03T12:42:07Z</time>
      </trkpt>
      <trkpt lat="45.75252" lon="4.68333">
        <ele>369</ele>
        <time>2010-04-03T12:42:09Z</time>
      </trkpt>
      <trkpt lat="45.75247" lon="4.68343">
        <ele>369</ele>
        <time>2010-04-03T12:42:11Z</time>
      </trkpt>
      <trkpt lat="45.75238" lon="4.68355">
        <ele>368</ele>
        <time>2010-04-03T12:42:15Z</time>
      </trkpt>
      <trkpt lat="45.7523" lon="4.68363">
        <ele>368</ele>
        <time>2010-04-03T12:42:17Z</time>
      </trkpt>
      <trkpt lat="45.75221" lon="4.6837">
        <ele>369</ele>
        <time>2010-04-03T12:42:20Z</time>
      </trkpt>
      <trkpt lat="45.75214" lon="4.68376">
        <ele>369</ele>
        <time>2010-04-03T12:42:22Z</time>
      </trkpt>
      <trkpt lat="45.75208" lon="4.68382">
        <ele>369</ele>
        <time>2010-04-03T12:42:24Z</time>
      </trkpt>
      <trkpt lat="45.75201" lon="4.68389">
        <ele>370</ele>
        <time>2010-04-03T12:42:26Z</time>
      </trkpt>
      <trkpt lat="45.75195" lon="4.68398">
        <ele>370</ele>
        <time>2010-04-03T12:42:28Z</time>
      </trkpt>
      <trkpt lat="45.7519" lon="4.68408">
        <ele>370</ele>
        <time>2010-04-03T12:42:30Z</time>
      </trkpt>
      <trkpt lat="45.75187" lon="4.68416">
        <ele>370</ele>
        <time>2010-04-03T12:42:33Z</time>
      </trkpt>
      <trkpt lat="45.75186" lon="4.68433">
        <ele>369</ele>
        <time>2010-04-03T12:42:36Z</time>
      </trkpt>
      <trkpt lat="45.75185" lon="4.68441">
        <ele>368</ele>
        <time>2010-04-03T12:42:38Z</time>
      </trkpt>
      <trkpt lat="45.75184" lon="4.68449">
        <ele>368</ele>
        <time>2010-04-03T12:42:40Z</time>
      </trkpt>
      <trkpt lat="45.75184" lon="4.68461">
        <ele>368</ele>
        <time>2010-04-03T12:42:42Z</time>
      </trkpt>
      <trkpt lat="45.75186" lon="4.68478">
        <ele>368</ele>
        <time>2010-04-03T12:42:45Z</time>
      </trkpt>
      <trkpt lat="45.75188" lon="4.68492">
        <ele>367</ele>
        <time>2010-04-03T12:42:47Z</time>
      </trkpt>
      <trkpt lat="45.75191" lon="4.68506">
        <ele>366</ele>
        <time>2010-04-03T12:42:50Z</time>
      </trkpt>
      <trkpt lat="45.75192" lon="4.6852">
        <ele>366</ele>
        <time>2010-04-03T12:42:52Z</time>
      </trkpt>
      <trkpt lat="45.75192" lon="4.68534">
        <ele>365</ele>
        <time>2010-04-03T12:42:54Z</time>
      </trkpt>
      <trkpt lat="45.75191" lon="4.68548">
        <ele>365</ele>
        <time>2010-04-03T12:42:56Z</time>
      </trkpt>
      <trkpt lat="45.75188" lon="4.68562">
        <ele>365</ele>
        <time>2010-04-03T12:42:58Z</time>
      </trkpt>
      <trkpt lat="45.75185" lon="4.68577">
        <ele>364</ele>
        <time>2010-04-03T12:43:00Z</time>
      </trkpt>
      <trkpt lat="45.75181" lon="4.68591">
        <ele>364</ele>
        <time>2010-04-03T12:43:02Z</time>
      </trkpt>
      <trkpt lat="45.75175" lon="4.68606">
        <ele>365</ele>
        <time>2010-04-03T12:43:04Z</time>
      </trkpt>
      <trkpt lat="45.7517" lon="4.6862">
        <ele>364</ele>
        <time>2010-04-03T12:43:06Z</time>
      </trkpt>
      <trkpt lat="45.75164" lon="4.68635">
        <ele>364</ele>
        <time>2010-04-03T12:43:09Z</time>
      </trkpt>
      <trkpt lat="45.75158" lon="4.68649">
        <ele>365</ele>
        <time>2010-04-03T12:43:11Z</time>
      </trkpt>
      <trkpt lat="45.75152" lon="4.68663">
        <ele>365</ele>
        <time>2010-04-03T12:43:13Z</time>
      </trkpt>
      <trkpt lat="45.75145" lon="4.68676">
        <ele>365</ele>
        <time>2010-04-03T12:43:15Z</time>
      </trkpt>
      <trkpt lat="45.75139" lon="4.68689">
        <ele>366</ele>
        <time>2010-04-03T12:43:17Z</time>
      </trkpt>
      <trkpt lat="45.75131" lon="4.68702">
        <ele>367</ele>
        <time>2010-04-03T12:43:19Z</time>
      </trkpt>
      <trkpt lat="45.75123" lon="4.68715">
        <ele>368</ele>
        <time>2010-04-03T12:43:21Z</time>
      </trkpt>
      <trkpt lat="45.75116" lon="4.68728">
        <ele>369</ele>
        <time>2010-04-03T12:43:24Z</time>
      </trkpt>
      <trkpt lat="45.75109" lon="4.6874">
        <ele>369</ele>
        <time>2010-04-03T12:43:26Z</time>
      </trkpt>
      <trkpt lat="45.75103" lon="4.68753">
        <ele>370</ele>
        <time>2010-04-03T12:43:28Z</time>
      </trkpt>
      <trkpt lat="45.75097" lon="4.68765">
        <ele>371</ele>
        <time>2010-04-03T12:43:30Z</time>
      </trkpt>
      <trkpt lat="45.75091" lon="4.68777">
        <ele>372</ele>
        <time>2010-04-03T12:43:32Z</time>
      </trkpt>
      <trkpt lat="45.75086" lon="4.68788">
        <ele>373</ele>
        <time>2010-04-03T12:43:35Z</time>
      </trkpt>
      <trkpt lat="45.75079" lon="4.68799">
        <ele>373</ele>
        <time>2010-04-03T12:43:37Z</time>
      </trkpt>
      <trkpt lat="45.75073" lon="4.6881">
        <ele>374</ele>
        <time>2010-04-03T12:43:39Z</time>
      </trkpt>
      <trkpt lat="45.75066" lon="4.6882">
        <ele>374</ele>
        <time>2010-04-03T12:43:41Z</time>
      </trkpt>
      <trkpt lat="45.75059" lon="4.68831">
        <ele>375</ele>
        <time>2010-04-03T12:43:43Z</time>
      </trkpt>
      <trkpt lat="45.75052" lon="4.68843">
        <ele>375</ele>
        <time>2010-04-03T12:43:45Z</time>
      </trkpt>
      <trkpt lat="45.75045" lon="4.68853">
        <ele>376</ele>
        <time>2010-04-03T12:43:47Z</time>
      </trkpt>
      <trkpt lat="45.75038" lon="4.68864">
        <ele>376</ele>
        <time>2010-04-03T12:43:50Z</time>
      </trkpt>
      <trkpt lat="45.7503" lon="4.68875">
        <ele>376</ele>
        <time>2010-04-03T12:43:52Z</time>
      </trkpt>
      <trkpt lat="45.75023" lon="4.68886">
        <ele>376</ele>
        <time>2010-04-03T12:43:54Z</time>
      </trkpt>
      <trkpt lat="45.75015" lon="4.68897">
        <ele>377</ele>
        <time>2010-04-03T12:43:56Z</time>
      </trkpt>
      <trkpt lat="45.75007" lon="4.68906">
        <ele>377</ele>
        <time>2010-04-03T12:43:58Z</time>
      </trkpt>
      <trkpt lat="45.74998" lon="4.68912">
        <ele>378</ele>
        <time>2010-04-03T12:44:00Z</time>
      </trkpt>
      <trkpt lat="45.7499" lon="4.68917">
        <ele>378</ele>
        <time>2010-04-03T12:44:02Z</time>
      </trkpt>
      <trkpt lat="45.74985" lon="4.68926">
        <ele>378</ele>
        <time>2010-04-03T12:44:05Z</time>
      </trkpt>
      <trkpt lat="45.74985" lon="4.68926">
        <ele>378</ele>
        <time>2010-04-03T12:44:05Z</time>
      </trkpt>
      <trkpt lat="45.74996" lon="4.68927">
        <ele>380</ele>
        <time>2010-04-03T12:44:09Z</time>
      </trkpt>
      <trkpt lat="45.75001" lon="4.68919">
        <ele>380</ele>
        <time>2010-04-03T12:44:11Z</time>
      </trkpt>
      <trkpt lat="45.75" lon="4.68911">
        <ele>381</ele>
        <time>2010-04-03T12:44:13Z</time>
      </trkpt>
      <trkpt lat="45.74995" lon="4.68907">
        <ele>380</ele>
        <time>2010-04-03T12:44:17Z</time>
      </trkpt>
      <trkpt lat="45.74998" lon="4.68922">
        <ele>379</ele>
        <time>2010-04-03T12:44:19Z</time>
      </trkpt>
      <trkpt lat="45.75" lon="4.68943">
        <ele>377</ele>
        <time>2010-04-03T12:44:21Z</time>
      </trkpt>
      <trkpt lat="45.75002" lon="4.68967">
        <ele>376</ele>
        <time>2010-04-03T12:44:23Z</time>
      </trkpt>
      <trkpt lat="45.75001" lon="4.69002">
        <ele>375</ele>
        <time>2010-04-03T12:44:25Z</time>
      </trkpt>
      <trkpt lat="45.74999" lon="4.69024">
        <ele>375</ele>
        <time>2010-04-03T12:44:28Z</time>
      </trkpt>
      <trkpt lat="45.74997" lon="4.69048">
        <ele>375</ele>
        <time>2010-04-03T12:44:30Z</time>
      </trkpt>
      <trkpt lat="45.74994" lon="4.69072">
        <ele>375</ele>
        <time>2010-04-03T12:44:32Z</time>
      </trkpt>
      <trkpt lat="45.74989" lon="4.69108">
        <ele>375</ele>
        <time>2010-04-03T12:44:35Z</time>
      </trkpt>
      <trkpt lat="45.74985" lon="4.69141">
        <ele>375</ele>
        <time>2010-04-03T12:44:37Z</time>
      </trkpt>
      <trkpt lat="45.74982" lon="4.69173">
        <ele>375</ele>
        <time>2010-04-03T12:44:40Z</time>
      </trkpt>
      <trkpt lat="45.74978" lon="4.69215">
        <ele>375</ele>
        <time>2010-04-03T12:44:43Z</time>
      </trkpt>
      <trkpt lat="45.74974" lon="4.69248">
        <ele>375</ele>
        <time>2010-04-03T12:44:45Z</time>
      </trkpt>
      <trkpt lat="45.74969" lon="4.69281">
        <ele>375</ele>
        <time>2010-04-03T12:44:48Z</time>
      </trkpt>
      <trkpt lat="45.74966" lon="4.6931">
        <ele>375</ele>
        <time>2010-04-03T12:44:50Z</time>
      </trkpt>
      <trkpt lat="45.74963" lon="4.69338">
        <ele>375</ele>
        <time>2010-04-03T12:44:52Z</time>
      </trkpt>
      <trkpt lat="45.74959" lon="4.69367">
        <ele>375</ele>
        <time>2010-04-03T12:44:54Z</time>
      </trkpt>
      <trkpt lat="45.74957" lon="4.69397">
        <ele>375</ele>
        <time>2010-04-03T12:44:56Z</time>
      </trkpt>
      <trkpt lat="45.74955" lon="4.69427">
        <ele>375</ele>
        <time>2010-04-03T12:44:59Z</time>
      </trkpt>
      <trkpt lat="45.74952" lon="4.69457">
        <ele>375</ele>
        <time>2010-04-03T12:45:01Z</time>
      </trkpt>
      <trkpt lat="45.74948" lon="4.69485">
        <ele>375</ele>
        <time>2010-04-03T12:45:03Z</time>
      </trkpt>
      <trkpt lat="45.74938" lon="4.69519">
        <ele>374</ele>
        <time>2010-04-03T12:45:06Z</time>
      </trkpt>
      <trkpt lat="45.74929" lon="4.69532">
        <ele>374</ele>
        <time>2010-04-03T12:45:08Z</time>
      </trkpt>
      <trkpt lat="45.74925" lon="4.69547">
        <ele>374</ele>
        <time>2010-04-03T12:45:11Z</time>
      </trkpt>
      <trkpt lat="45.74923" lon="4.69564">
        <ele>374</ele>
        <time>2010-04-03T12:45:13Z</time>
      </trkpt>
      <trkpt lat="45.74919" lon="4.69584">
        <ele>373</ele>
        <time>2010-04-03T12:45:15Z</time>
      </trkpt>
      <trkpt lat="45.74912" lon="4.69606">
        <ele>372</ele>
        <time>2010-04-03T12:45:17Z</time>
      </trkpt>
      <trkpt lat="45.74901" lon="4.69628">
        <ele>371</ele>
        <time>2010-04-03T12:45:19Z</time>
      </trkpt>
      <trkpt lat="45.74887" lon="4.69657">
        <ele>369</ele>
        <time>2010-04-03T12:45:22Z</time>
      </trkpt>
      <trkpt lat="45.74877" lon="4.69678">
        <ele>369</ele>
        <time>2010-04-03T12:45:24Z</time>
      </trkpt>
      <trkpt lat="45.74865" lon="4.69706">
        <ele>369</ele>
        <time>2010-04-03T12:45:27Z</time>
      </trkpt>
      <trkpt lat="45.74857" lon="4.69726">
        <ele>369</ele>
        <time>2010-04-03T12:45:29Z</time>
      </trkpt>
      <trkpt lat="45.74847" lon="4.69749">
        <ele>369</ele>
        <time>2010-04-03T12:45:31Z</time>
      </trkpt>
      <trkpt lat="45.74836" lon="4.69773">
        <ele>369</ele>
        <time>2010-04-03T12:45:34Z</time>
      </trkpt>
      <trkpt lat="45.74828" lon="4.69793">
        <ele>369</ele>
        <time>2010-04-03T12:45:36Z</time>
      </trkpt>
      <trkpt lat="45.74819" lon="4.69814">
        <ele>369</ele>
        <time>2010-04-03T12:45:38Z</time>
      </trkpt>
      <trkpt lat="45.74811" lon="4.69837">
        <ele>368</ele>
        <time>2010-04-03T12:45:40Z</time>
      </trkpt>
      <trkpt lat="45.74802" lon="4.69859">
        <ele>367</ele>
        <time>2010-04-03T12:45:42Z</time>
      </trkpt>
      <trkpt lat="45.74793" lon="4.69883">
        <ele>366</ele>
        <time>2010-04-03T12:45:44Z</time>
      </trkpt>
      <trkpt lat="45.74781" lon="4.69914">
        <ele>366</ele>
        <time>2010-04-03T12:45:47Z</time>
      </trkpt>
      <trkpt lat="45.74771" lon="4.69938">
        <ele>367</ele>
        <time>2010-04-03T12:45:49Z</time>
      </trkpt>
      <trkpt lat="45.74762" lon="4.69963">
        <ele>367</ele>
        <time>2010-04-03T12:45:52Z</time>
      </trkpt>
      <trkpt lat="45.74752" lon="4.69987">
        <ele>367</ele>
        <time>2010-04-03T12:45:54Z</time>
      </trkpt>
      <trkpt lat="45.74742" lon="4.70011">
        <ele>366</ele>
        <time>2010-04-03T12:45:56Z</time>
      </trkpt>
      <trkpt lat="45.74732" lon="4.70035">
        <ele>365</ele>
        <time>2010-04-03T12:45:58Z</time>
      </trkpt>
      <trkpt lat="45.74721" lon="4.70063">
        <ele>364</ele>
        <time>2010-04-03T12:46:00Z</time>
      </trkpt>
      <trkpt lat="45.7471" lon="4.70098">
        <ele>362</ele>
        <time>2010-04-03T12:46:04Z</time>
      </trkpt>
      <trkpt lat="45.74704" lon="4.70123">
        <ele>360</ele>
        <time>2010-04-03T12:46:06Z</time>
      </trkpt>
      <trkpt lat="45.74699" lon="4.70148">
        <ele>360</ele>
        <time>2010-04-03T12:46:08Z</time>
      </trkpt>
      <trkpt lat="45.74694" lon="4.70173">
        <ele>359</ele>
        <time>2010-04-03T12:46:10Z</time>
      </trkpt>
      <trkpt lat="45.74688" lon="4.70207">
        <ele>359</ele>
        <time>2010-04-03T12:46:13Z</time>
      </trkpt>
      <trkpt lat="45.74684" lon="4.70232">
        <ele>359</ele>
        <time>2010-04-03T12:46:15Z</time>
      </trkpt>
      <trkpt lat="45.7468" lon="4.70257">
        <ele>359</ele>
        <time>2010-04-03T12:46:17Z</time>
      </trkpt>
      <trkpt lat="45.74674" lon="4.7028">
        <ele>358</ele>
        <time>2010-04-03T12:46:19Z</time>
      </trkpt>
      <trkpt lat="45.74663" lon="4.70295">
        <ele>358</ele>
        <time>2010-04-03T12:46:21Z</time>
      </trkpt>
      <trkpt lat="45.74653" lon="4.70307">
        <ele>358</ele>
        <time>2010-04-03T12:46:23Z</time>
      </trkpt>
      <trkpt lat="45.7465" lon="4.70326">
        <ele>358</ele>
        <time>2010-04-03T12:46:25Z</time>
      </trkpt>
      <trkpt lat="45.74655" lon="4.70346">
        <ele>358</ele>
        <time>2010-04-03T12:46:28Z</time>
      </trkpt>
      <trkpt lat="45.74668" lon="4.70362">
        <ele>358</ele>
        <time>2010-04-03T12:46:30Z</time>
      </trkpt>
      <trkpt lat="45.7468" lon="4.70384">
        <ele>357</ele>
        <time>2010-04-03T12:46:33Z</time>
      </trkpt>
      <trkpt lat="45.74684" lon="4.70405">
        <ele>357</ele>
        <time>2010-04-03T12:46:35Z</time>
      </trkpt>
      <trkpt lat="45.74684" lon="4.70427">
        <ele>356</ele>
        <time>2010-04-03T12:46:37Z</time>
      </trkpt>
      <trkpt lat="45.74682" lon="4.70449">
        <ele>356</ele>
        <time>2010-04-03T12:46:39Z</time>
      </trkpt>
      <trkpt lat="45.7468" lon="4.70471">
        <ele>355</ele>
        <time>2010-04-03T12:46:41Z</time>
      </trkpt>
      <trkpt lat="45.74679" lon="4.70492">
        <ele>354</ele>
        <time>2010-04-03T12:46:43Z</time>
      </trkpt>
      <trkpt lat="45.74679" lon="4.70512">
        <ele>354</ele>
        <time>2010-04-03T12:46:45Z</time>
      </trkpt>
      <trkpt lat="45.74681" lon="4.70533">
        <ele>354</ele>
        <time>2010-04-03T12:46:48Z</time>
      </trkpt>
      <trkpt lat="45.74684" lon="4.70552">
        <ele>354</ele>
        <time>2010-04-03T12:46:50Z</time>
      </trkpt>
      <trkpt lat="45.74693" lon="4.7057">
        <ele>354</ele>
        <time>2010-04-03T12:46:52Z</time>
      </trkpt>
      <trkpt lat="45.74703" lon="4.70586">
        <ele>354</ele>
        <time>2010-04-03T12:46:55Z</time>
      </trkpt>
      <trkpt lat="45.74712" lon="4.70601">
        <ele>354</ele>
        <time>2010-04-03T12:46:57Z</time>
      </trkpt>
      <trkpt lat="45.7472" lon="4.70617">
        <ele>353</ele>
        <time>2010-04-03T12:46:59Z</time>
      </trkpt>
      <trkpt lat="45.74727" lon="4.70634">
        <ele>352</ele>
        <time>2010-04-03T12:47:01Z</time>
      </trkpt>
      <trkpt lat="45.74731" lon="4.70652">
        <ele>353</ele>
        <time>2010-04-03T12:47:03Z</time>
      </trkpt>
      <trkpt lat="45.74732" lon="4.7067">
        <ele>352</ele>
        <time>2010-04-03T12:47:05Z</time>
      </trkpt>
      <trkpt lat="45.74732" lon="4.70689">
        <ele>351</ele>
        <time>2010-04-03T12:47:08Z</time>
      </trkpt>
      <trkpt lat="45.74732" lon="4.70709">
        <ele>351</ele>
        <time>2010-04-03T12:47:10Z</time>
      </trkpt>
      <trkpt lat="45.74731" lon="4.7073">
        <ele>350</ele>
        <time>2010-04-03T12:47:12Z</time>
      </trkpt>
      <trkpt lat="45.74731" lon="4.7075">
        <ele>350</ele>
        <time>2010-04-03T12:47:14Z</time>
      </trkpt>
      <trkpt lat="45.74731" lon="4.70778">
        <ele>350</ele>
        <time>2010-04-03T12:47:17Z</time>
      </trkpt>
      <trkpt lat="45.74732" lon="4.70801">
        <ele>349</ele>
        <time>2010-04-03T12:47:19Z</time>
      </trkpt>
      <trkpt lat="45.74733" lon="4.70824">
        <ele>349</ele>
        <time>2010-04-03T12:47:21Z</time>
      </trkpt>
      <trkpt lat="45.74733" lon="4.70846">
        <ele>348</ele>
        <time>2010-04-03T12:47:23Z</time>
      </trkpt>
      <trkpt lat="45.74732" lon="4.70874">
        <ele>348</ele>
        <time>2010-04-03T12:47:26Z</time>
      </trkpt>
      <trkpt lat="45.74731" lon="4.70917">
        <ele>349</ele>
        <time>2010-04-03T12:47:29Z</time>
      </trkpt>
      <trkpt lat="45.74731" lon="4.70946">
        <ele>349</ele>
        <time>2010-04-03T12:47:31Z</time>
      </trkpt>
      <trkpt lat="45.7473" lon="4.70977">
        <ele>349</ele>
        <time>2010-04-03T12:47:33Z</time>
      </trkpt>
      <trkpt lat="45.7473" lon="4.71012">
        <ele>349</ele>
        <time>2010-04-03T12:47:35Z</time>
      </trkpt>
      <trkpt lat="45.74729" lon="4.71043">
        <ele>348</ele>
        <time>2010-04-03T12:47:37Z</time>
      </trkpt>
      <trkpt lat="45.74728" lon="4.71076">
        <ele>347</ele>
        <time>2010-04-03T12:47:40Z</time>
      </trkpt>
      <trkpt lat="45.74728" lon="4.7111">
        <ele>347</ele>
        <time>2010-04-03T12:47:42Z</time>
      </trkpt>
      <trkpt lat="45.74728" lon="4.71145">
        <ele>346</ele>
        <time>2010-04-03T12:47:44Z</time>
      </trkpt>
      <trkpt lat="45.74729" lon="4.7118">
        <ele>345</ele>
        <time>2010-04-03T12:47:46Z</time>
      </trkpt>
      <trkpt lat="45.74729" lon="4.71214">
        <ele>345</ele>
        <time>2010-04-03T12:47:48Z</time>
      </trkpt>
      <trkpt lat="45.74729" lon="4.71255">
        <ele>344</ele>
        <time>2010-04-03T12:47:51Z</time>
      </trkpt>
      <trkpt lat="45.74729" lon="4.71286">
        <ele>344</ele>
        <time>2010-04-03T12:47:53Z</time>
      </trkpt>
      <trkpt lat="45.7473" lon="4.71318">
        <ele>343</ele>
        <time>2010-04-03T12:47:55Z</time>
      </trkpt>
      <trkpt lat="45.7473" lon="4.71349">
        <ele>341</ele>
        <time>2010-04-03T12:47:57Z</time>
      </trkpt>
      <trkpt lat="45.7473" lon="4.7138">
        <ele>340</ele>
        <time>2010-04-03T12:47:59Z</time>
      </trkpt>
      <trkpt lat="45.7473" lon="4.71409">
        <ele>340</ele>
        <time>2010-04-03T12:48:02Z</time>
      </trkpt>
      <trkpt lat="45.7473" lon="4.71438">
        <ele>340</ele>
        <time>2010-04-03T12:48:04Z</time>
      </trkpt>
      <trkpt lat="45.7473" lon="4.71468">
        <ele>339</ele>
        <time>2010-04-03T12:48:06Z</time>
      </trkpt>
      <trkpt lat="45.7473" lon="4.71497">
        <ele>339</ele>
        <time>2010-04-03T12:48:08Z</time>
      </trkpt>
      <trkpt lat="45.74729" lon="4.71526">
        <ele>339</ele>
        <time>2010-04-03T12:48:10Z</time>
      </trkpt>
      <trkpt lat="45.74729" lon="4.71554">
        <ele>340</ele>
        <time>2010-04-03T12:48:12Z</time>
      </trkpt>
      <trkpt lat="45.74729" lon="4.7158">
        <ele>340</ele>
        <time>2010-04-03T12:48:14Z</time>
      </trkpt>
      <trkpt lat="45.74731" lon="4.71619">
        <ele>341</ele>
        <time>2010-04-03T12:48:18Z</time>
      </trkpt>
      <trkpt lat="45.74731" lon="4.71647">
        <ele>341</ele>
        <time>2010-04-03T12:48:20Z</time>
      </trkpt>
      <trkpt lat="45.74731" lon="4.71673">
        <ele>341</ele>
        <time>2010-04-03T12:48:22Z</time>
      </trkpt>
      <trkpt lat="45.74732" lon="4.71699">
        <ele>342</ele>
        <time>2010-04-03T12:48:24Z</time>
      </trkpt>
      <trkpt lat="45.74732" lon="4.71724">
        <ele>341</ele>
        <time>2010-04-03T12:48:26Z</time>
      </trkpt>
      <trkpt lat="45.74733" lon="4.71757">
        <ele>341</ele>
        <time>2010-04-03T12:48:29Z</time>
      </trkpt>
      <trkpt lat="45.74733" lon="4.71791">
        <ele>341</ele>
        <time>2010-04-03T12:48:32Z</time>
      </trkpt>
      <trkpt lat="45.74731" lon="4.71816">
        <ele>341</ele>
        <time>2010-04-03T12:48:34Z</time>
      </trkpt>
      <trkpt lat="45.74729" lon="4.71841">
        <ele>341</ele>
        <time>2010-04-03T12:48:36Z</time>
      </trkpt>
      <trkpt lat="45.74728" lon="4.71865">
        <ele>341</ele>
        <time>2010-04-03T12:48:38Z</time>
      </trkpt>
      <trkpt lat="45.74727" lon="4.71888">
        <ele>340</ele>
        <time>2010-04-03T12:48:40Z</time>
      </trkpt>
      <trkpt lat="45.74727" lon="4.71912">
        <ele>340</ele>
        <time>2010-04-03T12:48:43Z</time>
      </trkpt>
      <trkpt lat="45.74727" lon="4.71943">
        <ele>338</ele>
        <time>2010-04-03T12:48:45Z</time>
      </trkpt>
      <trkpt lat="45.74727" lon="4.71968">
        <ele>338</ele>
        <time>2010-04-03T12:48:47Z</time>
      </trkpt>
      <trkpt lat="45.74728" lon="4.71991">
        <ele>338</ele>
        <time>2010-04-03T12:48:49Z</time>
      </trkpt>
      <trkpt lat="45.74729" lon="4.72014">
        <ele>337</ele>
        <time>2010-04-03T12:48:52Z</time>
      </trkpt>
      <trkpt lat="45.74731" lon="4.72038">
        <ele>336</ele>
        <time>2010-04-03T12:48:54Z</time>
      </trkpt>
      <trkpt lat="45.7473" lon="4.72083">
        <ele>337</ele>
        <time>2010-04-03T12:48:58Z</time>
      </trkpt>
      <trkpt lat="45.74732" lon="4.72103">
        <ele>336</ele>
        <time>2010-04-03T12:49:00Z</time>
      </trkpt>
      <trkpt lat="45.74732" lon="4.72125">
        <ele>336</ele>
        <time>2010-04-03T12:49:02Z</time>
      </trkpt>
      <trkpt lat="45.74733" lon="4.72148">
        <ele>336</ele>
        <time>2010-04-03T12:49:04Z</time>
      </trkpt>
      <trkpt lat="45.74733" lon="4.7217">
        <ele>337</ele>
        <time>2010-04-03T12:49:06Z</time>
      </trkpt>
      <trkpt lat="45.74733" lon="4.72192">
        <ele>337</ele>
        <time>2010-04-03T12:49:08Z</time>
      </trkpt>
      <trkpt lat="45.74732" lon="4.7221">
        <ele>337</ele>
        <time>2010-04-03T12:49:10Z</time>
      </trkpt>
      <trkpt lat="45.74731" lon="4.72221">
        <ele>337</ele>
        <time>2010-04-03T12:49:13Z</time>
      </trkpt>
      <trkpt lat="45.74733" lon="4.72226">
        <ele>336</ele>
        <time>2010-04-03T12:49:15Z</time>
      </trkpt>
      <trkpt lat="45.74733" lon="4.7224">
        <ele>335</ele>
        <time>2010-04-03T12:49:18Z</time>
      </trkpt>
      <trkpt lat="45.74733" lon="4.72251">
        <ele>335</ele>
        <time>2010-04-03T12:49:20Z</time>
      </trkpt>
      <trkpt lat="45.74733" lon="4.72265">
        <ele>334</ele>
        <time>2010-04-03T12:49:23Z</time>
      </trkpt>
      <trkpt lat="45.74733" lon="4.72281">
        <ele>334</ele>
        <time>2010-04-03T12:49:25Z</time>
      </trkpt>
      <trkpt lat="45.74732" lon="4.72306">
        <ele>332</ele>
        <time>2010-04-03T12:49:27Z</time>
      </trkpt>
      <trkpt lat="45.74731" lon="4.72335">
        <ele>332</ele>
        <time>2010-04-03T12:49:30Z</time>
      </trkpt>
      <trkpt lat="45.74731" lon="4.72362">
        <ele>331</ele>
        <time>2010-04-03T12:49:33Z</time>
      </trkpt>
      <trkpt lat="45.74732" lon="4.72383">
        <ele>330</ele>
        <time>2010-04-03T12:49:35Z</time>
      </trkpt>
      <trkpt lat="45.74733" lon="4.72404">
        <ele>330</ele>
        <time>2010-04-03T12:49:37Z</time>
      </trkpt>
      <trkpt lat="45.74733" lon="4.72425">
        <ele>330</ele>
        <time>2010-04-03T12:49:40Z</time>
      </trkpt>
      <trkpt lat="45.74733" lon="4.72444">
        <ele>330</ele>
        <time>2010-04-03T12:49:42Z</time>
      </trkpt>
      <trkpt lat="45.74735" lon="4.72464">
        <ele>330</ele>
        <time>2010-04-03T12:49:44Z</time>
      </trkpt>
      <trkpt lat="45.74736" lon="4.72483">
        <ele>329</ele>
        <time>2010-04-03T12:49:46Z</time>
      </trkpt>
      <trkpt lat="45.74737" lon="4.72502">
        <ele>328</ele>
        <time>2010-04-03T12:49:48Z</time>
      </trkpt>
      <trkpt lat="45.74738" lon="4.7252">
        <ele>327</ele>
        <time>2010-04-03T12:49:50Z</time>
      </trkpt>
      <trkpt lat="45.74738" lon="4.72539">
        <ele>326</ele>
        <time>2010-04-03T12:49:52Z</time>
      </trkpt>
      <trkpt lat="45.74739" lon="4.72557">
        <ele>325</ele>
        <time>2010-04-03T12:49:54Z</time>
      </trkpt>
      <trkpt lat="45.74738" lon="4.72577">
        <ele>324</ele>
        <time>2010-04-03T12:49:57Z</time>
      </trkpt>
      <trkpt lat="45.74737" lon="4.72599">
        <ele>324</ele>
        <time>2010-04-03T12:49:59Z</time>
      </trkpt>
      <trkpt lat="45.74736" lon="4.72622">
        <ele>323</ele>
        <time>2010-04-03T12:50:01Z</time>
      </trkpt>
      <trkpt lat="45.74735" lon="4.72645">
        <ele>323</ele>
        <time>2010-04-03T12:50:03Z</time>
      </trkpt>
      <trkpt lat="45.74734" lon="4.7267">
        <ele>324</ele>
        <time>2010-04-03T12:50:05Z</time>
      </trkpt>
      <trkpt lat="45.74733" lon="4.72694">
        <ele>325</ele>
        <time>2010-04-03T12:50:07Z</time>
      </trkpt>
      <trkpt lat="45.74732" lon="4.72717">
        <ele>325</ele>
        <time>2010-04-03T12:50:10Z</time>
      </trkpt>
      <trkpt lat="45.74731" lon="4.72739">
        <ele>325</ele>
        <time>2010-04-03T12:50:12Z</time>
      </trkpt>
      <trkpt lat="45.74731" lon="4.72771">
        <ele>325</ele>
        <time>2010-04-03T12:50:14Z</time>
      </trkpt>
      <trkpt lat="45.74732" lon="4.72799">
        <ele>325</ele>
        <time>2010-04-03T12:50:17Z</time>
      </trkpt>
      <trkpt lat="45.74733" lon="4.72827">
        <ele>324</ele>
        <time>2010-04-03T12:50:19Z</time>
      </trkpt>
      <trkpt lat="45.74734" lon="4.72854">
        <ele>324</ele>
        <time>2010-04-03T12:50:21Z</time>
      </trkpt>
      <trkpt lat="45.74734" lon="4.7288">
        <ele>324</ele>
        <time>2010-04-03T12:50:23Z</time>
      </trkpt>
      <trkpt lat="45.74735" lon="4.72911">
        <ele>324</ele>
        <time>2010-04-03T12:50:25Z</time>
      </trkpt>
      <trkpt lat="45.74736" lon="4.72941">
        <ele>324</ele>
        <time>2010-04-03T12:50:27Z</time>
      </trkpt>
      <trkpt lat="45.74736" lon="4.7297">
        <ele>324</ele>
        <time>2010-04-03T12:50:29Z</time>
      </trkpt>
      <trkpt lat="45.74737" lon="4.73">
        <ele>325</ele>
        <time>2010-04-03T12:50:31Z</time>
      </trkpt>
      <trkpt lat="45.74737" lon="4.73029">
        <ele>325</ele>
        <time>2010-04-03T12:50:34Z</time>
      </trkpt>
      <trkpt lat="45.74737" lon="4.7307">
        <ele>325</ele>
        <time>2010-04-03T12:50:37Z</time>
      </trkpt>
      <trkpt lat="45.74737" lon="4.73098">
        <ele>325</ele>
        <time>2010-04-03T12:50:39Z</time>
      </trkpt>
      <trkpt lat="45.74737" lon="4.73127">
        <ele>325</ele>
        <time>2010-04-03T12:50:41Z</time>
      </trkpt>
      <trkpt lat="45.74737" lon="4.73156">
        <ele>325</ele>
        <time>2010-04-03T12:50:43Z</time>
      </trkpt>
      <trkpt lat="45.74736" lon="4.73185">
        <ele>325</ele>
        <time>2010-04-03T12:50:45Z</time>
      </trkpt>
      <trkpt lat="45.74733" lon="4.7321">
        <ele>325</ele>
        <time>2010-04-03T12:50:47Z</time>
      </trkpt>
      <trkpt lat="45.74726" lon="4.73232">
        <ele>325</ele>
        <time>2010-04-03T12:50:49Z</time>
      </trkpt>
      <trkpt lat="45.74719" lon="4.73249">
        <ele>324</ele>
        <time>2010-04-03T12:50:52Z</time>
      </trkpt>
      <trkpt lat="45.74722" lon="4.73263">
        <ele>323</ele>
        <time>2010-04-03T12:50:54Z</time>
      </trkpt>
      <trkpt lat="45.74729" lon="4.73278">
        <ele>322</ele>
        <time>2010-04-03T12:50:56Z</time>
      </trkpt>
      <trkpt lat="45.74731" lon="4.73296">
        <ele>320</ele>
        <time>2010-04-03T12:50:58Z</time>
      </trkpt>
      <trkpt lat="45.74731" lon="4.73315">
        <ele>320</ele>
        <time>2010-04-03T12:51:01Z</time>
      </trkpt>
      <trkpt lat="45.7473" lon="4.73338">
        <ele>319</ele>
        <time>2010-04-03T12:51:03Z</time>
      </trkpt>
      <trkpt lat="45.7473" lon="4.73358">
        <ele>319</ele>
        <time>2010-04-03T12:51:05Z</time>
      </trkpt>
      <trkpt lat="45.7473" lon="4.73378">
        <ele>318</ele>
        <time>2010-04-03T12:51:07Z</time>
      </trkpt>
      <trkpt lat="45.7473" lon="4.73396">
        <ele>317</ele>
        <time>2010-04-03T12:51:09Z</time>
      </trkpt>
      <trkpt lat="45.74729" lon="4.73414">
        <ele>317</ele>
        <time>2010-04-03T12:51:11Z</time>
      </trkpt>
      <trkpt lat="45.7473" lon="4.73431">
        <ele>318</ele>
        <time>2010-04-03T12:51:14Z</time>
      </trkpt>
      <trkpt lat="45.74732" lon="4.73447">
        <ele>317</ele>
        <time>2010-04-03T12:51:16Z</time>
      </trkpt>
      <trkpt lat="45.74733" lon="4.73462">
        <ele>316</ele>
        <time>2010-04-03T12:51:18Z</time>
      </trkpt>
      <trkpt lat="45.74734" lon="4.73477">
        <ele>315</ele>
        <time>2010-04-03T12:51:20Z</time>
      </trkpt>
      <trkpt lat="45.74735" lon="4.73491">
        <ele>314</ele>
        <time>2010-04-03T12:51:22Z</time>
      </trkpt>
      <trkpt lat="45.74736" lon="4.73506">
        <ele>314</ele>
        <time>2010-04-03T12:51:24Z</time>
      </trkpt>
      <trkpt lat="45.74738" lon="4.7352">
        <ele>313</ele>
        <time>2010-04-03T12:51:26Z</time>
      </trkpt>
      <trkpt lat="45.7474" lon="4.73531">
        <ele>311</ele>
        <time>2010-04-03T12:51:29Z</time>
      </trkpt>
      <trkpt lat="45.74742" lon="4.73542">
        <ele>310</ele>
        <time>2010-04-03T12:51:31Z</time>
      </trkpt>
      <trkpt lat="45.74741" lon="4.73557">
        <ele>309</ele>
        <time>2010-04-03T12:51:33Z</time>
      </trkpt>
      <trkpt lat="45.7474" lon="4.73575">
        <ele>309</ele>
        <time>2010-04-03T12:51:35Z</time>
      </trkpt>
      <trkpt lat="45.74739" lon="4.73593">
        <ele>309</ele>
        <time>2010-04-03T12:51:37Z</time>
      </trkpt>
      <trkpt lat="45.74739" lon="4.73611">
        <ele>309</ele>
        <time>2010-04-03T12:51:39Z</time>
      </trkpt>
      <trkpt lat="45.74739" lon="4.73629">
        <ele>309</ele>
        <time>2010-04-03T12:51:41Z</time>
      </trkpt>
      <trkpt lat="45.74738" lon="4.7365">
        <ele>308</ele>
        <time>2010-04-03T12:51:43Z</time>
      </trkpt>
      <trkpt lat="45.74738" lon="4.7367">
        <ele>308</ele>
        <time>2010-04-03T12:51:46Z</time>
      </trkpt>
      <trkpt lat="45.74737" lon="4.7369">
        <ele>309</ele>
        <time>2010-04-03T12:51:48Z</time>
      </trkpt>
      <trkpt lat="45.74736" lon="4.73712">
        <ele>309</ele>
        <time>2010-04-03T12:51:50Z</time>
      </trkpt>
      <trkpt lat="45.74736" lon="4.73734">
        <ele>309</ele>
        <time>2010-04-03T12:51:52Z</time>
      </trkpt>
      <trkpt lat="45.74736" lon="4.73759">
        <ele>309</ele>
        <time>2010-04-03T12:51:54Z</time>
      </trkpt>
      <trkpt lat="45.74736" lon="4.73793">
        <ele>309</ele>
        <time>2010-04-03T12:51:57Z</time>
      </trkpt>
      <trkpt lat="45.74736" lon="4.73823">
        <ele>308</ele>
        <time>2010-04-03T12:51:59Z</time>
      </trkpt>
      <trkpt lat="45.74736" lon="4.73851">
        <ele>308</ele>
        <time>2010-04-03T12:52:01Z</time>
      </trkpt>
      <trkpt lat="45.74737" lon="4.73879">
        <ele>308</ele>
        <time>2010-04-03T12:52:03Z</time>
      </trkpt>
      <trkpt lat="45.74736" lon="4.73906">
        <ele>308</ele>
        <time>2010-04-03T12:52:06Z</time>
      </trkpt>
      <trkpt lat="45.74735" lon="4.73932">
        <ele>307</ele>
        <time>2010-04-03T12:52:08Z</time>
      </trkpt>
      <trkpt lat="45.74733" lon="4.73955">
        <ele>307</ele>
        <time>2010-04-03T12:52:10Z</time>
      </trkpt>
      <trkpt lat="45.74732" lon="4.7398">
        <ele>308</ele>
        <time>2010-04-03T12:52:12Z</time>
      </trkpt>
      <trkpt lat="45.74732" lon="4.74006">
        <ele>308</ele>
        <time>2010-04-03T12:52:14Z</time>
      </trkpt>
      <trkpt lat="45.74734" lon="4.74034">
        <ele>308</ele>
        <time>2010-04-03T12:52:16Z</time>
      </trkpt>
      <trkpt lat="45.74735" lon="4.74061">
        <ele>308</ele>
        <time>2010-04-03T12:52:19Z</time>
      </trkpt>
      <trkpt lat="45.74735" lon="4.74089">
        <ele>308</ele>
        <time>2010-04-03T12:52:21Z</time>
      </trkpt>
      <trkpt lat="45.74735" lon="4.74118">
        <ele>307</ele>
        <time>2010-04-03T12:52:23Z</time>
      </trkpt>
      <trkpt lat="45.74735" lon="4.74147">
        <ele>306</ele>
        <time>2010-04-03T12:52:25Z</time>
      </trkpt>
      <trkpt lat="45.74735" lon="4.74176">
        <ele>306</ele>
        <time>2010-04-03T12:52:27Z</time>
      </trkpt>
      <trkpt lat="45.74734" lon="4.74203">
        <ele>306</ele>
        <time>2010-04-03T12:52:29Z</time>
      </trkpt>
      <trkpt lat="45.74735" lon="4.74231">
        <ele>306</ele>
        <time>2010-04-03T12:52:31Z</time>
      </trkpt>
      <trkpt lat="45.74735" lon="4.74259">
        <ele>305</ele>
        <time>2010-04-03T12:52:34Z</time>
      </trkpt>
      <trkpt lat="45.74735" lon="4.74287">
        <ele>305</ele>
        <time>2010-04-03T12:52:36Z</time>
      </trkpt>
      <trkpt lat="45.74735" lon="4.74314">
        <ele>306</ele>
        <time>2010-04-03T12:52:38Z</time>
      </trkpt>
      <trkpt lat="45.74736" lon="4.7434">
        <ele>307</ele>
        <time>2010-04-03T12:52:40Z</time>
      </trkpt>
      <trkpt lat="45.74735" lon="4.74365">
        <ele>307</ele>
        <time>2010-04-03T12:52:42Z</time>
      </trkpt>
      <trkpt lat="45.74735" lon="4.7439">
        <ele>307</ele>
        <time>2010-04-03T12:52:44Z</time>
      </trkpt>
      <trkpt lat="45.74735" lon="4.74416">
        <ele>307</ele>
        <time>2010-04-03T12:52:46Z</time>
      </trkpt>
      <trkpt lat="45.74736" lon="4.74442">
        <ele>307</ele>
        <time>2010-04-03T12:52:49Z</time>
      </trkpt>
      <trkpt lat="45.74735" lon="4.74468">
        <ele>306</ele>
        <time>2010-04-03T12:52:51Z</time>
      </trkpt>
      <trkpt lat="45.74735" lon="4.74494">
        <ele>305</ele>
        <time>2010-04-03T12:52:53Z</time>
      </trkpt>
      <trkpt lat="45.74735" lon="4.74518">
        <ele>304</ele>
        <time>2010-04-03T12:52:55Z</time>
      </trkpt>
      <trkpt lat="45.74734" lon="4.74544">
        <ele>303</ele>
        <time>2010-04-03T12:52:57Z</time>
      </trkpt>
      <trkpt lat="45.74734" lon="4.74577">
        <ele>303</ele>
        <time>2010-04-03T12:53:00Z</time>
      </trkpt>
      <trkpt lat="45.74734" lon="4.74599">
        <ele>303</ele>
        <time>2010-04-03T12:53:02Z</time>
      </trkpt>
      <trkpt lat="45.74734" lon="4.74621">
        <ele>303</ele>
        <time>2010-04-03T12:53:04Z</time>
      </trkpt>
      <trkpt lat="45.74735" lon="4.74643">
        <ele>303</ele>
        <time>2010-04-03T12:53:06Z</time>
      </trkpt>
      <trkpt lat="45.74735" lon="4.7468">
        <ele>302</ele>
        <time>2010-04-03T12:53:10Z</time>
      </trkpt>
      <trkpt lat="45.74736" lon="4.74702">
        <ele>302</ele>
        <time>2010-04-03T12:53:12Z</time>
      </trkpt>
      <trkpt lat="45.74736" lon="4.74723">
        <ele>302</ele>
        <time>2010-04-03T12:53:14Z</time>
      </trkpt>
      <trkpt lat="45.74738" lon="4.74744">
        <ele>302</ele>
        <time>2010-04-03T12:53:16Z</time>
      </trkpt>
      <trkpt lat="45.74739" lon="4.74767">
        <ele>301</ele>
        <time>2010-04-03T12:53:18Z</time>
      </trkpt>
      <trkpt lat="45.74738" lon="4.74794">
        <ele>301</ele>
        <time>2010-04-03T12:53:20Z</time>
      </trkpt>
      <trkpt lat="45.74737" lon="4.74822">
        <ele>301</ele>
        <time>2010-04-03T12:53:22Z</time>
      </trkpt>
      <trkpt lat="45.74736" lon="4.7485">
        <ele>300</ele>
        <time>2010-04-03T12:53:24Z</time>
      </trkpt>
      <trkpt lat="45.74734" lon="4.7488">
        <ele>301</ele>
        <time>2010-04-03T12:53:27Z</time>
      </trkpt>
      <trkpt lat="45.74733" lon="4.74921">
        <ele>301</ele>
        <time>2010-04-03T12:53:30Z</time>
      </trkpt>
      <trkpt lat="45.74732" lon="4.7495">
        <ele>301</ele>
        <time>2010-04-03T12:53:32Z</time>
      </trkpt>
      <trkpt lat="45.74731" lon="4.7498">
        <ele>302</ele>
        <time>2010-04-03T12:53:34Z</time>
      </trkpt>
      <trkpt lat="45.74731" lon="4.7501">
        <ele>301</ele>
        <time>2010-04-03T12:53:36Z</time>
      </trkpt>
      <trkpt lat="45.74732" lon="4.75054">
        <ele>300</ele>
        <time>2010-04-03T12:53:39Z</time>
      </trkpt>
      <trkpt lat="45.74733" lon="4.7509">
        <ele>299</ele>
        <time>2010-04-03T12:53:42Z</time>
      </trkpt>
      <trkpt lat="45.74733" lon="4.75126">
        <ele>299</ele>
        <time>2010-04-03T12:53:44Z</time>
      </trkpt>
      <trkpt lat="45.74732" lon="4.75159">
        <ele>299</ele>
        <time>2010-04-03T12:53:47Z</time>
      </trkpt>
      <trkpt lat="45.74731" lon="4.75188">
        <ele>298</ele>
        <time>2010-04-03T12:53:49Z</time>
      </trkpt>
      <trkpt lat="45.74731" lon="4.75217">
        <ele>297</ele>
        <time>2010-04-03T12:53:51Z</time>
      </trkpt>
      <trkpt lat="45.74732" lon="4.75248">
        <ele>296</ele>
        <time>2010-04-03T12:53:53Z</time>
      </trkpt>
      <trkpt lat="45.74733" lon="4.75278">
        <ele>297</ele>
        <time>2010-04-03T12:53:55Z</time>
      </trkpt>
      <trkpt lat="45.74733" lon="4.75308">
        <ele>296</ele>
        <time>2010-04-03T12:53:57Z</time>
      </trkpt>
      <trkpt lat="45.74734" lon="4.75339">
        <ele>295</ele>
        <time>2010-04-03T12:53:59Z</time>
      </trkpt>
      <trkpt lat="45.74734" lon="4.75368">
        <ele>294</ele>
        <time>2010-04-03T12:54:01Z</time>
      </trkpt>
      <trkpt lat="45.74736" lon="4.75407">
        <ele>294</ele>
        <time>2010-04-03T12:54:04Z</time>
      </trkpt>
      <trkpt lat="45.74737" lon="4.75434">
        <ele>293</ele>
        <time>2010-04-03T12:54:06Z</time>
      </trkpt>
      <trkpt lat="45.74737" lon="4.7547">
        <ele>293</ele>
        <time>2010-04-03T12:54:09Z</time>
      </trkpt>
      <trkpt lat="45.74735" lon="4.75503">
        <ele>292</ele>
        <time>2010-04-03T12:54:12Z</time>
      </trkpt>
      <trkpt lat="45.74734" lon="4.75534">
        <ele>292</ele>
        <time>2010-04-03T12:54:14Z</time>
      </trkpt>
      <trkpt lat="45.74734" lon="4.75561">
        <ele>292</ele>
        <time>2010-04-03T12:54:16Z</time>
      </trkpt>
      <trkpt lat="45.74733" lon="4.75593">
        <ele>291</ele>
        <time>2010-04-03T12:54:19Z</time>
      </trkpt>
      <trkpt lat="45.74733" lon="4.75625">
        <ele>291</ele>
        <time>2010-04-03T12:54:22Z</time>
      </trkpt>
      <trkpt lat="45.74734" lon="4.75649">
        <ele>290</ele>
        <time>2010-04-03T12:54:24Z</time>
      </trkpt>
      <trkpt lat="45.74733" lon="4.75688">
        <ele>289</ele>
        <time>2010-04-03T12:54:27Z</time>
      </trkpt>
      <trkpt lat="45.74733" lon="4.75712">
        <ele>289</ele>
        <time>2010-04-03T12:54:30Z</time>
      </trkpt>
      <trkpt lat="45.74733" lon="4.75737">
        <ele>288</ele>
        <time>2010-04-03T12:54:32Z</time>
      </trkpt>
      <trkpt lat="45.74735" lon="4.75762">
        <ele>288</ele>
        <time>2010-04-03T12:54:34Z</time>
      </trkpt>
      <trkpt lat="45.74738" lon="4.75789">
        <ele>288</ele>
        <time>2010-04-03T12:54:36Z</time>
      </trkpt>
      <trkpt lat="45.74741" lon="4.75816">
        <ele>287</ele>
        <time>2010-04-03T12:54:38Z</time>
      </trkpt>
      <trkpt lat="45.74746" lon="4.75845">
        <ele>287</ele>
        <time>2010-04-03T12:54:40Z</time>
      </trkpt>
      <trkpt lat="45.74753" lon="4.75876">
        <ele>286</ele>
        <time>2010-04-03T12:54:42Z</time>
      </trkpt>
      <trkpt lat="45.74762" lon="4.75904">
        <ele>286</ele>
        <time>2010-04-03T12:54:44Z</time>
      </trkpt>
      <trkpt lat="45.74779" lon="4.75926">
        <ele>287</ele>
        <time>2010-04-03T12:54:47Z</time>
      </trkpt>
      <trkpt lat="45.74799" lon="4.75943">
        <ele>287</ele>
        <time>2010-04-03T12:54:49Z</time>
      </trkpt>
      <trkpt lat="45.74815" lon="4.75963">
        <ele>287</ele>
        <time>2010-04-03T12:54:51Z</time>
      </trkpt>
      <trkpt lat="45.74827" lon="4.75985">
        <ele>287</ele>
        <time>2010-04-03T12:54:53Z</time>
      </trkpt>
      <trkpt lat="45.74837" lon="4.76014">
        <ele>287</ele>
        <time>2010-04-03T12:54:55Z</time>
      </trkpt>
      <trkpt lat="45.74853" lon="4.7604">
        <ele>286</ele>
        <time>2010-04-03T12:54:57Z</time>
      </trkpt>
      <trkpt lat="45.74874" lon="4.76059">
        <ele>285</ele>
        <time>2010-04-03T12:54:59Z</time>
      </trkpt>
      <trkpt lat="45.74898" lon="4.76059">
        <ele>284</ele>
        <time>2010-04-03T12:55:01Z</time>
      </trkpt>
      <trkpt lat="45.74928" lon="4.76031">
        <ele>284</ele>
        <time>2010-04-03T12:55:04Z</time>
      </trkpt>
      <trkpt lat="45.74948" lon="4.76004">
        <ele>284</ele>
        <time>2010-04-03T12:55:06Z</time>
      </trkpt>
      <trkpt lat="45.74966" lon="4.75978">
        <ele>283</ele>
        <time>2010-04-03T12:55:09Z</time>
      </trkpt>
      <trkpt lat="45.74988" lon="4.75968">
        <ele>282</ele>
        <time>2010-04-03T12:55:11Z</time>
      </trkpt>
      <trkpt lat="45.7501" lon="4.75963">
        <ele>282</ele>
        <time>2010-04-03T12:55:13Z</time>
      </trkpt>
      <trkpt lat="45.75032" lon="4.75965">
        <ele>281</ele>
        <time>2010-04-03T12:55:15Z</time>
      </trkpt>
      <trkpt lat="45.75044" lon="4.7599">
        <ele>281</ele>
        <time>2010-04-03T12:55:17Z</time>
      </trkpt>
      <trkpt lat="45.75054" lon="4.76018">
        <ele>280</ele>
        <time>2010-04-03T12:55:19Z</time>
      </trkpt>
      <trkpt lat="45.75065" lon="4.76046">
        <ele>280</ele>
        <time>2010-04-03T12:55:21Z</time>
      </trkpt>
      <trkpt lat="45.75074" lon="4.76074">
        <ele>279</ele>
        <time>2010-04-03T12:55:24Z</time>
      </trkpt>
      <trkpt lat="45.75092" lon="4.76095">
        <ele>279</ele>
        <time>2010-04-03T12:55:26Z</time>
      </trkpt>
      <trkpt lat="45.75113" lon="4.76106">
        <ele>278</ele>
        <time>2010-04-03T12:55:28Z</time>
      </trkpt>
      <trkpt lat="45.75137" lon="4.7611">
        <ele>277</ele>
        <time>2010-04-03T12:55:30Z</time>
      </trkpt>
      <trkpt lat="45.75175" lon="4.76127">
        <ele>277</ele>
        <time>2010-04-03T12:55:34Z</time>
      </trkpt>
      <trkpt lat="45.75188" lon="4.76156">
        <ele>277</ele>
        <time>2010-04-03T12:55:36Z</time>
      </trkpt>
      <trkpt lat="45.75202" lon="4.76185">
        <ele>276</ele>
        <time>2010-04-03T12:55:38Z</time>
      </trkpt>
      <trkpt lat="45.75213" lon="4.76215">
        <ele>275</ele>
        <time>2010-04-03T12:55:40Z</time>
      </trkpt>
      <trkpt lat="45.75222" lon="4.76244">
        <ele>274</ele>
        <time>2010-04-03T12:55:42Z</time>
      </trkpt>
      <trkpt lat="45.75223" lon="4.76273">
        <ele>274</ele>
        <time>2010-04-03T12:55:44Z</time>
      </trkpt>
      <trkpt lat="45.75218" lon="4.76299">
        <ele>273</ele>
        <time>2010-04-03T12:55:46Z</time>
      </trkpt>
      <trkpt lat="45.75212" lon="4.76322">
        <ele>273</ele>
        <time>2010-04-03T12:55:48Z</time>
      </trkpt>
      <trkpt lat="45.752" lon="4.76344">
        <ele>272</ele>
        <time>2010-04-03T12:55:50Z</time>
      </trkpt>
      <trkpt lat="45.75178" lon="4.76365">
        <ele>271</ele>
        <time>2010-04-03T12:55:53Z</time>
      </trkpt>
      <trkpt lat="45.75163" lon="4.7638">
        <ele>271</ele>
        <time>2010-04-03T12:55:56Z</time>
      </trkpt>
      <trkpt lat="45.75138" lon="4.76401">
        <ele>270</ele>
        <time>2010-04-03T12:55:59Z</time>
      </trkpt>
      <trkpt lat="45.75119" lon="4.76415">
        <ele>268</ele>
        <time>2010-04-03T12:56:02Z</time>
      </trkpt>
      <trkpt lat="45.75106" lon="4.76423">
        <ele>267</ele>
        <time>2010-04-03T12:56:04Z</time>
      </trkpt>
      <trkpt lat="45.75095" lon="4.76431">
        <ele>266</ele>
        <time>2010-04-03T12:56:06Z</time>
      </trkpt>
      <trkpt lat="45.75084" lon="4.76438">
        <ele>265</ele>
        <time>2010-04-03T12:56:08Z</time>
      </trkpt>
      <trkpt lat="45.75075" lon="4.76446">
        <ele>264</ele>
        <time>2010-04-03T12:56:11Z</time>
      </trkpt>
      <trkpt lat="45.75067" lon="4.76457">
        <ele>263</ele>
        <time>2010-04-03T12:56:13Z</time>
      </trkpt>
      <trkpt lat="45.75061" lon="4.7647">
        <ele>263</ele>
        <time>2010-04-03T12:56:15Z</time>
      </trkpt>
      <trkpt lat="45.75057" lon="4.76482">
        <ele>262</ele>
        <time>2010-04-03T12:56:17Z</time>
      </trkpt>
      <trkpt lat="45.75056" lon="4.76496">
        <ele>261</ele>
        <time>2010-04-03T12:56:19Z</time>
      </trkpt>
      <trkpt lat="45.75057" lon="4.7651">
        <ele>260</ele>
        <time>2010-04-03T12:56:21Z</time>
      </trkpt>
      <trkpt lat="45.75061" lon="4.76523">
        <ele>260</ele>
        <time>2010-04-03T12:56:24Z</time>
      </trkpt>
      <trkpt lat="45.75065" lon="4.76533">
        <ele>260</ele>
        <time>2010-04-03T12:56:26Z</time>
      </trkpt>
      <trkpt lat="45.75066" lon="4.76542">
        <ele>259</ele>
        <time>2010-04-03T12:56:28Z</time>
      </trkpt>
      <trkpt lat="45.75062" lon="4.76552">
        <ele>258</ele>
        <time>2010-04-03T12:56:30Z</time>
      </trkpt>
      <trkpt lat="45.7506" lon="4.76563">
        <ele>258</ele>
        <time>2010-04-03T12:56:32Z</time>
      </trkpt>
      <trkpt lat="45.75061" lon="4.76577">
        <ele>258</ele>
        <time>2010-04-03T12:56:34Z</time>
      </trkpt>
      <trkpt lat="45.75066" lon="4.7659">
        <ele>258</ele>
        <time>2010-04-03T12:56:37Z</time>
      </trkpt>
      <trkpt lat="45.75072" lon="4.76601">
        <ele>258</ele>
        <time>2010-04-03T12:56:39Z</time>
      </trkpt>
      <trkpt lat="45.7508" lon="4.76612">
        <ele>257</ele>
        <time>2010-04-03T12:56:41Z</time>
      </trkpt>
      <trkpt lat="45.75088" lon="4.76622">
        <ele>257</ele>
        <time>2010-04-03T12:56:43Z</time>
      </trkpt>
      <trkpt lat="45.75097" lon="4.76632">
        <ele>257</ele>
        <time>2010-04-03T12:56:45Z</time>
      </trkpt>
      <trkpt lat="45.75106" lon="4.76644">
        <ele>256</ele>
        <time>2010-04-03T12:56:47Z</time>
      </trkpt>
      <trkpt lat="45.75115" lon="4.76656">
        <ele>255</ele>
        <time>2010-04-03T12:56:49Z</time>
      </trkpt>
      <trkpt lat="45.75125" lon="4.76668">
        <ele>254</ele>
        <time>2010-04-03T12:56:52Z</time>
      </trkpt>
      <trkpt lat="45.75135" lon="4.7668">
        <ele>254</ele>
        <time>2010-04-03T12:56:54Z</time>
      </trkpt>
      <trkpt lat="45.75145" lon="4.76693">
        <ele>253</ele>
        <time>2010-04-03T12:56:56Z</time>
      </trkpt>
      <trkpt lat="45.75158" lon="4.76708">
        <ele>253</ele>
        <time>2010-04-03T12:56:58Z</time>
      </trkpt>
      <trkpt lat="45.75178" lon="4.76729">
        <ele>253</ele>
        <time>2010-04-03T12:57:01Z</time>
      </trkpt>
      <trkpt lat="45.75192" lon="4.76744">
        <ele>253</ele>
        <time>2010-04-03T12:57:03Z</time>
      </trkpt>
      <trkpt lat="45.7521" lon="4.76763">
        <ele>253</ele>
        <time>2010-04-03T12:57:06Z</time>
      </trkpt>
      <trkpt lat="45.75224" lon="4.76778">
        <ele>253</ele>
        <time>2010-04-03T12:57:08Z</time>
      </trkpt>
      <trkpt lat="45.7524" lon="4.76794">
        <ele>253</ele>
        <time>2010-04-03T12:57:10Z</time>
      </trkpt>
      <trkpt lat="45.75255" lon="4.7681">
        <ele>252</ele>
        <time>2010-04-03T12:57:12Z</time>
      </trkpt>
      <trkpt lat="45.75271" lon="4.76828">
        <ele>251</ele>
        <time>2010-04-03T12:57:14Z</time>
      </trkpt>
      <trkpt lat="45.75286" lon="4.76846">
        <ele>251</ele>
        <time>2010-04-03T12:57:16Z</time>
      </trkpt>
      <trkpt lat="45.75301" lon="4.76864">
        <ele>251</ele>
        <time>2010-04-03T12:57:18Z</time>
      </trkpt>
      <trkpt lat="45.75316" lon="4.7688">
        <ele>251</ele>
        <time>2010-04-03T12:57:21Z</time>
      </trkpt>
      <trkpt lat="45.7533" lon="4.76897">
        <ele>250</ele>
        <time>2010-04-03T12:57:23Z</time>
      </trkpt>
      <trkpt lat="45.75345" lon="4.76912">
        <ele>249</ele>
        <time>2010-04-03T12:57:25Z</time>
      </trkpt>
      <trkpt lat="45.75358" lon="4.76928">
        <ele>249</ele>
        <time>2010-04-03T12:57:27Z</time>
      </trkpt>
      <trkpt lat="45.75372" lon="4.76944">
        <ele>249</ele>
        <time>2010-04-03T12:57:29Z</time>
      </trkpt>
      <trkpt lat="45.75385" lon="4.7696">
        <ele>249</ele>
        <time>2010-04-03T12:57:31Z</time>
      </trkpt>
      <trkpt lat="45.75398" lon="4.76973">
        <ele>248</ele>
        <time>2010-04-03T12:57:33Z</time>
      </trkpt>
      <trkpt lat="45.7541" lon="4.76985">
        <ele>248</ele>
        <time>2010-04-03T12:57:36Z</time>
      </trkpt>
      <trkpt lat="45.75422" lon="4.76998">
        <ele>248</ele>
        <time>2010-04-03T12:57:38Z</time>
      </trkpt>
      <trkpt lat="45.75434" lon="4.77011">
        <ele>248</ele>
        <time>2010-04-03T12:57:40Z</time>
      </trkpt>
      <trkpt lat="45.75447" lon="4.77025">
        <ele>248</ele>
        <time>2010-04-03T12:57:42Z</time>
      </trkpt>
      <trkpt lat="45.75465" lon="4.77045">
        <ele>248</ele>
        <time>2010-04-03T12:57:45Z</time>
      </trkpt>
      <trkpt lat="45.75478" lon="4.77059">
        <ele>248</ele>
        <time>2010-04-03T12:57:47Z</time>
      </trkpt>
      <trkpt lat="45.75493" lon="4.77082">
        <ele>248</ele>
        <time>2010-04-03T12:57:50Z</time>
      </trkpt>
      <trkpt lat="45.75507" lon="4.77103">
        <ele>248</ele>
        <time>2010-04-03T12:57:52Z</time>
      </trkpt>
      <trkpt lat="45.75517" lon="4.77116">
        <ele>248</ele>
        <time>2010-04-03T12:57:55Z</time>
      </trkpt>
      <trkpt lat="45.75528" lon="4.77129">
        <ele>248</ele>
        <time>2010-04-03T12:57:57Z</time>
      </trkpt>
      <trkpt lat="45.75543" lon="4.77147">
        <ele>248</ele>
        <time>2010-04-03T12:57:59Z</time>
      </trkpt>
      <trkpt lat="45.75553" lon="4.7716">
        <ele>249</ele>
        <time>2010-04-03T12:58:02Z</time>
      </trkpt>
      <trkpt lat="45.75565" lon="4.77175">
        <ele>249</ele>
        <time>2010-04-03T12:58:04Z</time>
      </trkpt>
      <trkpt lat="45.75576" lon="4.77189">
        <ele>250</ele>
        <time>2010-04-03T12:58:06Z</time>
      </trkpt>
      <trkpt lat="45.75592" lon="4.77209">
        <ele>250</ele>
        <time>2010-04-03T12:58:09Z</time>
      </trkpt>
      <trkpt lat="45.75604" lon="4.77223">
        <ele>251</ele>
        <time>2010-04-03T12:58:11Z</time>
      </trkpt>
      <trkpt lat="45.75616" lon="4.77236">
        <ele>250</ele>
        <time>2010-04-03T12:58:13Z</time>
      </trkpt>
      <trkpt lat="45.75627" lon="4.77249">
        <ele>251</ele>
        <time>2010-04-03T12:58:15Z</time>
      </trkpt>
      <trkpt lat="45.75643" lon="4.77266">
        <ele>251</ele>
        <time>2010-04-03T12:58:18Z</time>
      </trkpt>
      <trkpt lat="45.75654" lon="4.77281">
        <ele>251</ele>
        <time>2010-04-03T12:58:20Z</time>
      </trkpt>
      <trkpt lat="45.75666" lon="4.77301">
        <ele>252</ele>
        <time>2010-04-03T12:58:22Z</time>
      </trkpt>
      <trkpt lat="45.75677" lon="4.77316">
        <ele>252</ele>
        <time>2010-04-03T12:58:24Z</time>
      </trkpt>
      <trkpt lat="45.75689" lon="4.7733">
        <ele>253</ele>
        <time>2010-04-03T12:58:27Z</time>
      </trkpt>
      <trkpt lat="45.75702" lon="4.77344">
        <ele>253</ele>
        <time>2010-04-03T12:58:29Z</time>
      </trkpt>
      <trkpt lat="45.75714" lon="4.77356">
        <ele>254</ele>
        <time>2010-04-03T12:58:31Z</time>
      </trkpt>
      <trkpt lat="45.75726" lon="4.77371">
        <ele>255</ele>
        <time>2010-04-03T12:58:33Z</time>
      </trkpt>
      <trkpt lat="45.75738" lon="4.77386">
        <ele>256</ele>
        <time>2010-04-03T12:58:35Z</time>
      </trkpt>
      <trkpt lat="45.75752" lon="4.77401">
        <ele>256</ele>
        <time>2010-04-03T12:58:38Z</time>
      </trkpt>
      <trkpt lat="45.75766" lon="4.77418">
        <ele>257</ele>
        <time>2010-04-03T12:58:40Z</time>
      </trkpt>
      <trkpt lat="45.7578" lon="4.77432">
        <ele>256</ele>
        <time>2010-04-03T12:58:43Z</time>
      </trkpt>
      <trkpt lat="45.75791" lon="4.77444">
        <ele>256</ele>
        <time>2010-04-03T12:58:45Z</time>
      </trkpt>
      <trkpt lat="45.75803" lon="4.77458">
        <ele>256</ele>
        <time>2010-04-03T12:58:47Z</time>
      </trkpt>
      <trkpt lat="45.75812" lon="4.77468">
        <ele>256</ele>
        <time>2010-04-03T12:58:50Z</time>
      </trkpt>
      <trkpt lat="45.75815" lon="4.77471">
        <ele>256</ele>
        <time>2010-04-03T12:58:52Z</time>
      </trkpt>
      <trkpt lat="45.75827" lon="4.77493">
        <ele>256</ele>
        <time>2010-04-03T12:59:06Z</time>
      </trkpt>
      <trkpt lat="45.75833" lon="4.77498">
        <ele>257</ele>
        <time>2010-04-03T12:59:08Z</time>
      </trkpt>
      <trkpt lat="45.75841" lon="4.77505">
        <ele>258</ele>
        <time>2010-04-03T12:59:10Z</time>
      </trkpt>
      <trkpt lat="45.75851" lon="4.77515">
        <ele>259</ele>
        <time>2010-04-03T12:59:12Z</time>
      </trkpt>
      <trkpt lat="45.75862" lon="4.77526">
        <ele>258</ele>
        <time>2010-04-03T12:59:15Z</time>
      </trkpt>
      <trkpt lat="45.75873" lon="4.77542">
        <ele>258</ele>
        <time>2010-04-03T12:59:17Z</time>
      </trkpt>
      <trkpt lat="45.75886" lon="4.77558">
        <ele>258</ele>
        <time>2010-04-03T12:59:19Z</time>
      </trkpt>
      <trkpt lat="45.75898" lon="4.77571">
        <ele>257</ele>
        <time>2010-04-03T12:59:22Z</time>
      </trkpt>
      <trkpt lat="45.75909" lon="4.77582">
        <ele>258</ele>
        <time>2010-04-03T12:59:24Z</time>
      </trkpt>
      <trkpt lat="45.75921" lon="4.77593">
        <ele>258</ele>
        <time>2010-04-03T12:59:26Z</time>
      </trkpt>
      <trkpt lat="45.75933" lon="4.77605">
        <ele>257</ele>
        <time>2010-04-03T12:59:28Z</time>
      </trkpt>
      <trkpt lat="45.75945" lon="4.77617">
        <ele>256</ele>
        <time>2010-04-03T12:59:30Z</time>
      </trkpt>
      <trkpt lat="45.75965" lon="4.77634">
        <ele>256</ele>
        <time>2010-04-03T12:59:34Z</time>
      </trkpt>
      <trkpt lat="45.75977" lon="4.77646">
        <ele>256</ele>
        <time>2010-04-03T12:59:36Z</time>
      </trkpt>
      <trkpt lat="45.7599" lon="4.77659">
        <ele>256</ele>
        <time>2010-04-03T12:59:38Z</time>
      </trkpt>
      <trkpt lat="45.76004" lon="4.77675">
        <ele>255</ele>
        <time>2010-04-03T12:59:40Z</time>
      </trkpt>
      <trkpt lat="45.76019" lon="4.77693">
        <ele>255</ele>
        <time>2010-04-03T12:59:43Z</time>
      </trkpt>
      <trkpt lat="45.76031" lon="4.7771">
        <ele>256</ele>
        <time>2010-04-03T12:59:45Z</time>
      </trkpt>
      <trkpt lat="45.76042" lon="4.77726">
        <ele>256</ele>
        <time>2010-04-03T12:59:47Z</time>
      </trkpt>
      <trkpt lat="45.76058" lon="4.77743">
        <ele>256</ele>
        <time>2010-04-03T12:59:50Z</time>
      </trkpt>
      <trkpt lat="45.76072" lon="4.77759">
        <ele>257</ele>
        <time>2010-04-03T12:59:52Z</time>
      </trkpt>
      <trkpt lat="45.76082" lon="4.77769">
        <ele>256</ele>
        <time>2010-04-03T12:59:55Z</time>
      </trkpt>
      <trkpt lat="45.76095" lon="4.77785">
        <ele>256</ele>
        <time>2010-04-03T12:59:57Z</time>
      </trkpt>
      <trkpt lat="45.76105" lon="4.77797">
        <ele>256</ele>
        <time>2010-04-03T12:59:59Z</time>
      </trkpt>
      <trkpt lat="45.76115" lon="4.77808">
        <ele>257</ele>
        <time>2010-04-03T13:00:02Z</time>
      </trkpt>
      <trkpt lat="45.76125" lon="4.77822">
        <ele>256</ele>
        <time>2010-04-03T13:00:04Z</time>
      </trkpt>
      <trkpt lat="45.76134" lon="4.77834">
        <ele>255</ele>
        <time>2010-04-03T13:00:06Z</time>
      </trkpt>
      <trkpt lat="45.76142" lon="4.77848">
        <ele>255</ele>
        <time>2010-04-03T13:00:08Z</time>
      </trkpt>
      <trkpt lat="45.76152" lon="4.77861">
        <ele>255</ele>
        <time>2010-04-03T13:00:10Z</time>
      </trkpt>
      <trkpt lat="45.76162" lon="4.77873">
        <ele>256</ele>
        <time>2010-04-03T13:00:12Z</time>
      </trkpt>
      <trkpt lat="45.76171" lon="4.77886">
        <ele>256</ele>
        <time>2010-04-03T13:00:15Z</time>
      </trkpt>
      <trkpt lat="45.76182" lon="4.77898">
        <ele>257</ele>
        <time>2010-04-03T13:00:17Z</time>
      </trkpt>
      <trkpt lat="45.76192" lon="4.77911">
        <ele>257</ele>
        <time>2010-04-03T13:00:19Z</time>
      </trkpt>
      <trkpt lat="45.76203" lon="4.77923">
        <ele>257</ele>
        <time>2010-04-03T13:00:21Z</time>
      </trkpt>
      <trkpt lat="45.76213" lon="4.77935">
        <ele>257</ele>
        <time>2010-04-03T13:00:23Z</time>
      </trkpt>
      <trkpt lat="45.76227" lon="4.77951">
        <ele>257</ele>
        <time>2010-04-03T13:00:26Z</time>
      </trkpt>
      <trkpt lat="45.76236" lon="4.77962">
        <ele>257</ele>
        <time>2010-04-03T13:00:28Z</time>
      </trkpt>
      <trkpt lat="45.76244" lon="4.77971">
        <ele>257</ele>
        <time>2010-04-03T13:00:30Z</time>
      </trkpt>
      <trkpt lat="45.76255" lon="4.77983">
        <ele>256</ele>
        <time>2010-04-03T13:00:33Z</time>
      </trkpt>
      <trkpt lat="45.76264" lon="4.77992">
        <ele>256</ele>
        <time>2010-04-03T13:00:35Z</time>
      </trkpt>
      <trkpt lat="45.76272" lon="4.78002">
        <ele>256</ele>
        <time>2010-04-03T13:00:37Z</time>
      </trkpt>
      <trkpt lat="45.7628" lon="4.7801">
        <ele>255</ele>
        <time>2010-04-03T13:00:39Z</time>
      </trkpt>
      <trkpt lat="45.76285" lon="4.78016">
        <ele>255</ele>
        <time>2010-04-03T13:00:41Z</time>
      </trkpt>
      <trkpt lat="45.76289" lon="4.78021">
        <ele>254</ele>
        <time>2010-04-03T13:00:44Z</time>
      </trkpt>
      <trkpt lat="45.76292" lon="4.78026">
        <ele>253</ele>
        <time>2010-04-03T13:00:46Z</time>
      </trkpt>
      <trkpt lat="45.76297" lon="4.78032">
        <ele>252</ele>
        <time>2010-04-03T13:00:48Z</time>
      </trkpt>
      <trkpt lat="45.76303" lon="4.78038">
        <ele>251</ele>
        <time>2010-04-03T13:00:50Z</time>
      </trkpt>
      <trkpt lat="45.76309" lon="4.78045">
        <ele>251</ele>
        <time>2010-04-03T13:00:52Z</time>
      </trkpt>
      <trkpt lat="45.76316" lon="4.78054">
        <ele>252</ele>
        <time>2010-04-03T13:00:54Z</time>
      </trkpt>
      <trkpt lat="45.76325" lon="4.78063">
        <ele>252</ele>
        <time>2010-04-03T13:00:56Z</time>
      </trkpt>
      <trkpt lat="45.76335" lon="4.78074">
        <ele>253</ele>
        <time>2010-04-03T13:00:58Z</time>
      </trkpt>
      <trkpt lat="45.76343" lon="4.78084">
        <ele>253</ele>
        <time>2010-04-03T13:01:01Z</time>
      </trkpt>
      <trkpt lat="45.76352" lon="4.78094">
        <ele>252</ele>
        <time>2010-04-03T13:01:03Z</time>
      </trkpt>
      <trkpt lat="45.76363" lon="4.78107">
        <ele>252</ele>
        <time>2010-04-03T13:01:06Z</time>
      </trkpt>
      <trkpt lat="45.76369" lon="4.78115">
        <ele>251</ele>
        <time>2010-04-03T13:01:08Z</time>
      </trkpt>
      <trkpt lat="45.76377" lon="4.78126">
        <ele>250</ele>
        <time>2010-04-03T13:01:11Z</time>
      </trkpt>
      <trkpt lat="45.7638" lon="4.78135">
        <ele>250</ele>
        <time>2010-04-03T13:01:13Z</time>
      </trkpt>
      <trkpt lat="45.76386" lon="4.78145">
        <ele>249</ele>
        <time>2010-04-03T13:01:18Z</time>
      </trkpt>
      <trkpt lat="45.76397" lon="4.78158">
        <ele>249</ele>
        <time>2010-04-03T13:01:20Z</time>
      </trkpt>
      <trkpt lat="45.76409" lon="4.78166">
        <ele>250</ele>
        <time>2010-04-03T13:01:23Z</time>
      </trkpt>
      <trkpt lat="45.76423" lon="4.78177">
        <ele>250</ele>
        <time>2010-04-03T13:01:25Z</time>
      </trkpt>
      <trkpt lat="45.76435" lon="4.78191">
        <ele>251</ele>
        <time>2010-04-03T13:01:27Z</time>
      </trkpt>
      <trkpt lat="45.76448" lon="4.78211">
        <ele>252</ele>
        <time>2010-04-03T13:01:30Z</time>
      </trkpt>
      <trkpt lat="45.76462" lon="4.78227">
        <ele>252</ele>
        <time>2010-04-03T13:01:32Z</time>
      </trkpt>
      <trkpt lat="45.76476" lon="4.78247">
        <ele>253</ele>
        <time>2010-04-03T13:01:34Z</time>
      </trkpt>
      <trkpt lat="45.76492" lon="4.78267">
        <ele>254</ele>
        <time>2010-04-03T13:01:36Z</time>
      </trkpt>
      <trkpt lat="45.76507" lon="4.78285">
        <ele>256</ele>
        <time>2010-04-03T13:01:38Z</time>
      </trkpt>
      <trkpt lat="45.76521" lon="4.78302">
        <ele>257</ele>
        <time>2010-04-03T13:01:40Z</time>
      </trkpt>
      <trkpt lat="45.76541" lon="4.78323">
        <ele>257</ele>
        <time>2010-04-03T13:01:43Z</time>
      </trkpt>
      <trkpt lat="45.76555" lon="4.78339">
        <ele>257</ele>
        <time>2010-04-03T13:01:45Z</time>
      </trkpt>
      <trkpt lat="45.76567" lon="4.78354">
        <ele>258</ele>
        <time>2010-04-03T13:01:47Z</time>
      </trkpt>
      <trkpt lat="45.76577" lon="4.78366">
        <ele>257</ele>
        <time>2010-04-03T13:01:49Z</time>
      </trkpt>
      <trkpt lat="45.76583" lon="4.78373">
        <ele>257</ele>
        <time>2010-04-03T13:01:51Z</time>
      </trkpt>
      <trkpt lat="45.76591" lon="4.7838">
        <ele>257</ele>
        <time>2010-04-03T13:01:54Z</time>
      </trkpt>
      <trkpt lat="45.76603" lon="4.78392">
        <ele>257</ele>
        <time>2010-04-03T13:01:56Z</time>
      </trkpt>
      <trkpt lat="45.76616" lon="4.78408">
        <ele>257</ele>
        <time>2010-04-03T13:01:58Z</time>
      </trkpt>
      <trkpt lat="45.76629" lon="4.78424">
        <ele>256</ele>
        <time>2010-04-03T13:02:00Z</time>
      </trkpt>
      <trkpt lat="45.76643" lon="4.78441">
        <ele>256</ele>
        <time>2010-04-03T13:02:02Z</time>
      </trkpt>
      <trkpt lat="45.76658" lon="4.78458">
        <ele>256</ele>
        <time>2010-04-03T13:02:04Z</time>
      </trkpt>
      <trkpt lat="45.76673" lon="4.78475">
        <ele>255</ele>
        <time>2010-04-03T13:02:06Z</time>
      </trkpt>
      <trkpt lat="45.76688" lon="4.78491">
        <ele>254</ele>
        <time>2010-04-03T13:02:08Z</time>
      </trkpt>
      <trkpt lat="45.76703" lon="4.78509">
        <ele>253</ele>
        <time>2010-04-03T13:02:10Z</time>
      </trkpt>
      <trkpt lat="45.76718" lon="4.78526">
        <ele>253</ele>
        <time>2010-04-03T13:02:13Z</time>
      </trkpt>
      <trkpt lat="45.76737" lon="4.78552">
        <ele>253</ele>
        <time>2010-04-03T13:02:15Z</time>
      </trkpt>
      <trkpt lat="45.76761" lon="4.7858">
        <ele>253</ele>
        <time>2010-04-03T13:02:18Z</time>
      </trkpt>
      <trkpt lat="45.7678" lon="4.78599">
        <ele>252</ele>
        <time>2010-04-03T13:02:21Z</time>
      </trkpt>
      <trkpt lat="45.76798" lon="4.78615">
        <ele>250</ele>
        <time>2010-04-03T13:02:23Z</time>
      </trkpt>
      <trkpt lat="45.76814" lon="4.78629">
        <ele>249</ele>
        <time>2010-04-03T13:02:26Z</time>
      </trkpt>
      <trkpt lat="45.76828" lon="4.78645">
        <ele>249</ele>
        <time>2010-04-03T13:02:29Z</time>
      </trkpt>
      <trkpt lat="45.76839" lon="4.78659">
        <ele>248</ele>
        <time>2010-04-03T13:02:31Z</time>
      </trkpt>
      <trkpt lat="45.76859" lon="4.78672">
        <ele>247</ele>
        <time>2010-04-03T13:02:34Z</time>
      </trkpt>
      <trkpt lat="45.76881" lon="4.78693">
        <ele>246</ele>
        <time>2010-04-03T13:02:38Z</time>
      </trkpt>
      <trkpt lat="45.76904" lon="4.78725">
        <ele>246</ele>
        <time>2010-04-03T13:02:43Z</time>
      </trkpt>
      <trkpt lat="45.76923" lon="4.78753">
        <ele>245</ele>
        <time>2010-04-03T13:02:47Z</time>
      </trkpt>
      <trkpt lat="45.76938" lon="4.7877">
        <ele>245</ele>
        <time>2010-04-03T13:02:49Z</time>
      </trkpt>
      <trkpt lat="45.76953" lon="4.78787">
        <ele>245</ele>
        <time>2010-04-03T13:02:51Z</time>
      </trkpt>
      <trkpt lat="45.7697" lon="4.78805">
        <ele>245</ele>
        <time>2010-04-03T13:02:53Z</time>
      </trkpt>
      <trkpt lat="45.76994" lon="4.78833">
        <ele>245</ele>
        <time>2010-04-03T13:02:56Z</time>
      </trkpt>
      <trkpt lat="45.77016" lon="4.78857">
        <ele>245</ele>
        <time>2010-04-03T13:02:59Z</time>
      </trkpt>
      <trkpt lat="45.77043" lon="4.78888">
        <ele>243</ele>
        <time>2010-04-03T13:03:02Z</time>
      </trkpt>
      <trkpt lat="45.77069" lon="4.78919">
        <ele>241</ele>
        <time>2010-04-03T13:03:05Z</time>
      </trkpt>
      <trkpt lat="45.7709" lon="4.78944">
        <ele>240</ele>
        <time>2010-04-03T13:03:08Z</time>
      </trkpt>
      <trkpt lat="45.77107" lon="4.78964">
        <ele>240</ele>
        <time>2010-04-03T13:03:10Z</time>
      </trkpt>
      <trkpt lat="45.77124" lon="4.78984">
        <ele>240</ele>
        <time>2010-04-03T13:03:12Z</time>
      </trkpt>
      <trkpt lat="45.77142" lon="4.79004">
        <ele>240</ele>
        <time>2010-04-03T13:03:14Z</time>
      </trkpt>
      <trkpt lat="45.77159" lon="4.79024">
        <ele>240</ele>
        <time>2010-04-03T13:03:17Z</time>
      </trkpt>
      <trkpt lat="45.77176" lon="4.79044">
        <ele>240</ele>
        <time>2010-04-03T13:03:19Z</time>
      </trkpt>
      <trkpt lat="45.77192" lon="4.79064">
        <ele>240</ele>
        <time>2010-04-03T13:03:21Z</time>
      </trkpt>
      <trkpt lat="45.77212" lon="4.79089">
        <ele>240</ele>
        <time>2010-04-03T13:03:23Z</time>
      </trkpt>
      <trkpt lat="45.77232" lon="4.79115">
        <ele>240</ele>
        <time>2010-04-03T13:03:26Z</time>
      </trkpt>
      <trkpt lat="45.77253" lon="4.79138">
        <ele>239</ele>
        <time>2010-04-03T13:03:28Z</time>
      </trkpt>
      <trkpt lat="45.77274" lon="4.79163">
        <ele>238</ele>
        <time>2010-04-03T13:03:31Z</time>
      </trkpt>
      <trkpt lat="45.77302" lon="4.79194">
        <ele>237</ele>
        <time>2010-04-03T13:03:35Z</time>
      </trkpt>
      <trkpt lat="45.77321" lon="4.7922">
        <ele>237</ele>
        <time>2010-04-03T13:03:37Z</time>
      </trkpt>
      <trkpt lat="45.7734" lon="4.79243">
        <ele>236</ele>
        <time>2010-04-03T13:03:40Z</time>
      </trkpt>
      <trkpt lat="45.77358" lon="4.79265">
        <ele>236</ele>
        <time>2010-04-03T13:03:42Z</time>
      </trkpt>
      <trkpt lat="45.77376" lon="4.79286">
        <ele>235</ele>
        <time>2010-04-03T13:03:45Z</time>
      </trkpt>
      <trkpt lat="45.77398" lon="4.79311">
        <ele>234</ele>
        <time>2010-04-03T13:03:48Z</time>
      </trkpt>
      <trkpt lat="45.77428" lon="4.79346">
        <ele>234</ele>
        <time>2010-04-03T13:03:52Z</time>
      </trkpt>
      <trkpt lat="45.77441" lon="4.79359">
        <ele>234</ele>
        <time>2010-04-03T13:03:55Z</time>
      </trkpt>
      <trkpt lat="45.77455" lon="4.79372">
        <ele>233</ele>
        <time>2010-04-03T13:03:57Z</time>
      </trkpt>
      <trkpt lat="45.77465" lon="4.79382">
        <ele>233</ele>
        <time>2010-04-03T13:03:59Z</time>
      </trkpt>
      <trkpt lat="45.77475" lon="4.79391">
        <ele>232</ele>
        <time>2010-04-03T13:04:01Z</time>
      </trkpt>
      <trkpt lat="45.77484" lon="4.794">
        <ele>232</ele>
        <time>2010-04-03T13:04:03Z</time>
      </trkpt>
      <trkpt lat="45.77494" lon="4.79409">
        <ele>232</ele>
        <time>2010-04-03T13:04:05Z</time>
      </trkpt>
      <trkpt lat="45.77499" lon="4.79422">
        <ele>232</ele>
        <time>2010-04-03T13:04:09Z</time>
      </trkpt>
      <trkpt lat="45.77506" lon="4.79444">
        <ele>230</ele>
        <time>2010-04-03T13:04:28Z</time>
      </trkpt>
      <trkpt lat="45.77512" lon="4.79452">
        <ele>229</ele>
        <time>2010-04-03T13:04:30Z</time>
      </trkpt>
      <trkpt lat="45.77527" lon="4.79464">
        <ele>227</ele>
        <time>2010-04-03T13:04:34Z</time>
      </trkpt>
      <trkpt lat="45.77539" lon="4.79476">
        <ele>225</ele>
        <time>2010-04-03T13:04:36Z</time>
      </trkpt>
      <trkpt lat="45.77553" lon="4.79489">
        <ele>224</ele>
        <time>2010-04-03T13:04:39Z</time>
      </trkpt>
      <trkpt lat="45.77567" lon="4.79504">
        <ele>224</ele>
        <time>2010-04-03T13:04:41Z</time>
      </trkpt>
      <trkpt lat="45.7758" lon="4.7952">
        <ele>223</ele>
        <time>2010-04-03T13:04:43Z</time>
      </trkpt>
      <trkpt lat="45.77593" lon="4.79537">
        <ele>223</ele>
        <time>2010-04-03T13:04:45Z</time>
      </trkpt>
      <trkpt lat="45.77606" lon="4.79557">
        <ele>222</ele>
        <time>2010-04-03T13:04:47Z</time>
      </trkpt>
      <trkpt lat="45.77624" lon="4.79583">
        <ele>222</ele>
        <time>2010-04-03T13:04:50Z</time>
      </trkpt>
      <trkpt lat="45.77636" lon="4.79608">
        <ele>221</ele>
        <time>2010-04-03T13:04:53Z</time>
      </trkpt>
      <trkpt lat="45.77643" lon="4.79636">
        <ele>220</ele>
        <time>2010-04-03T13:04:55Z</time>
      </trkpt>
      <trkpt lat="45.7764" lon="4.79672">
        <ele>219</ele>
        <time>2010-04-03T13:04:58Z</time>
      </trkpt>
      <trkpt lat="45.77642" lon="4.79702">
        <ele>219</ele>
        <time>2010-04-03T13:05:00Z</time>
      </trkpt>
      <trkpt lat="45.7764" lon="4.79735">
        <ele>219</ele>
        <time>2010-04-03T13:05:04Z</time>
      </trkpt>
      <trkpt lat="45.77631" lon="4.79773">
        <ele>220</ele>
        <time>2010-04-03T13:05:07Z</time>
      </trkpt>
      <trkpt lat="45.77624" lon="4.798">
        <ele>221</ele>
        <time>2010-04-03T13:05:09Z</time>
      </trkpt>
      <trkpt lat="45.77617" lon="4.79833">
        <ele>223</ele>
        <time>2010-04-03T13:05:12Z</time>
      </trkpt>
      <trkpt lat="45.77614" lon="4.7987">
        <ele>223</ele>
        <time>2010-04-03T13:05:15Z</time>
      </trkpt>
      <trkpt lat="45.77611" lon="4.79903">
        <ele>222</ele>
        <time>2010-04-03T13:05:18Z</time>
      </trkpt>
      <trkpt lat="45.77605" lon="4.79946">
        <ele>222</ele>
        <time>2010-04-03T13:05:21Z</time>
      </trkpt>
      <trkpt lat="45.77601" lon="4.7997">
        <ele>222</ele>
        <time>2010-04-03T13:05:23Z</time>
      </trkpt>
      <trkpt lat="45.77597" lon="4.79995">
        <ele>223</ele>
        <time>2010-04-03T13:05:26Z</time>
      </trkpt>
      <trkpt lat="45.77593" lon="4.80021">
        <ele>223</ele>
        <time>2010-04-03T13:05:28Z</time>
      </trkpt>
      <trkpt lat="45.77589" lon="4.80045">
        <ele>223</ele>
        <time>2010-04-03T13:05:30Z</time>
      </trkpt>
      <trkpt lat="45.77586" lon="4.80069">
        <ele>222</ele>
        <time>2010-04-03T13:05:32Z</time>
      </trkpt>
      <trkpt lat="45.77583" lon="4.80091">
        <ele>222</ele>
        <time>2010-04-03T13:05:34Z</time>
      </trkpt>
      <trkpt lat="45.7758" lon="4.80114">
        <ele>222</ele>
        <time>2010-04-03T13:05:36Z</time>
      </trkpt>
      <trkpt lat="45.77575" lon="4.80154">
        <ele>222</ele>
        <time>2010-04-03T13:05:40Z</time>
      </trkpt>
      <trkpt lat="45.77571" lon="4.80177">
        <ele>222</ele>
        <time>2010-04-03T13:05:42Z</time>
      </trkpt>
      <trkpt lat="45.77568" lon="4.802">
        <ele>222</ele>
        <time>2010-04-03T13:05:45Z</time>
      </trkpt>
      <trkpt lat="45.77564" lon="4.80221">
        <ele>222</ele>
        <time>2010-04-03T13:05:47Z</time>
      </trkpt>
      <trkpt lat="45.77561" lon="4.80243">
        <ele>222</ele>
        <time>2010-04-03T13:05:49Z</time>
      </trkpt>
      <trkpt lat="45.77559" lon="4.80264">
        <ele>222</ele>
        <time>2010-04-03T13:05:51Z</time>
      </trkpt>
      <trkpt lat="45.77556" lon="4.80285">
        <ele>221</ele>
        <time>2010-04-03T13:05:53Z</time>
      </trkpt>
      <trkpt lat="45.77554" lon="4.80305">
        <ele>220</ele>
        <time>2010-04-03T13:05:55Z</time>
      </trkpt>
      <trkpt lat="45.77551" lon="4.80322">
        <ele>220</ele>
        <time>2010-04-03T13:05:57Z</time>
      </trkpt>
      <trkpt lat="45.77549" lon="4.80338">
        <ele>220</ele>
        <time>2010-04-03T13:06:00Z</time>
      </trkpt>
      <trkpt lat="45.77547" lon="4.80351">
        <ele>219</ele>
        <time>2010-04-03T13:06:02Z</time>
      </trkpt>
      <trkpt lat="45.77544" lon="4.8038">
        <ele>219</ele>
        <time>2010-04-03T13:06:06Z</time>
      </trkpt>
      <trkpt lat="45.77542" lon="4.80399">
        <ele>219</ele>
        <time>2010-04-03T13:06:08Z</time>
      </trkpt>
      <trkpt lat="45.77539" lon="4.80416">
        <ele>218</ele>
        <time>2010-04-03T13:06:10Z</time>
      </trkpt>
      <trkpt lat="45.77537" lon="4.80431">
        <ele>218</ele>
        <time>2010-04-03T13:06:12Z</time>
      </trkpt>
      <trkpt lat="45.77535" lon="4.80444">
        <ele>219</ele>
        <time>2010-04-03T13:06:15Z</time>
      </trkpt>
      <trkpt lat="45.77532" lon="4.80459">
        <ele>219</ele>
        <time>2010-04-03T13:06:17Z</time>
      </trkpt>
      <trkpt lat="45.7753" lon="4.80475">
        <ele>218</ele>
        <time>2010-04-03T13:06:19Z</time>
      </trkpt>
      <trkpt lat="45.77526" lon="4.8049">
        <ele>218</ele>
        <time>2010-04-03T13:06:21Z</time>
      </trkpt>
      <trkpt lat="45.77521" lon="4.80509">
        <ele>217</ele>
        <time>2010-04-03T13:06:24Z</time>
      </trkpt>
      <trkpt lat="45.77515" lon="4.8052">
        <ele>217</ele>
        <time>2010-04-03T13:06:26Z</time>
      </trkpt>
      <trkpt lat="45.77512" lon="4.80533">
        <ele>217</ele>
        <time>2010-04-03T13:06:30Z</time>
      </trkpt>
      <trkpt lat="45.775" lon="4.80577">
        <ele>215</ele>
        <time>2010-04-03T13:06:47Z</time>
      </trkpt>
      <trkpt lat="45.77494" lon="4.8059">
        <ele>216</ele>
        <time>2010-04-03T13:06:50Z</time>
      </trkpt>
      <trkpt lat="45.77487" lon="4.80604">
        <ele>216</ele>
        <time>2010-04-03T13:06:52Z</time>
      </trkpt>
      <trkpt lat="45.77481" lon="4.80619">
        <ele>217</ele>
        <time>2010-04-03T13:06:54Z</time>
      </trkpt>
      <trkpt lat="45.77474" lon="4.80635">
        <ele>217</ele>
        <time>2010-04-03T13:06:56Z</time>
      </trkpt>
      <trkpt lat="45.77466" lon="4.80651">
        <ele>218</ele>
        <time>2010-04-03T13:06:58Z</time>
      </trkpt>
      <trkpt lat="45.77459" lon="4.80667">
        <ele>218</ele>
        <time>2010-04-03T13:07:00Z</time>
      </trkpt>
      <trkpt lat="45.77452" lon="4.80684">
        <ele>219</ele>
        <time>2010-04-03T13:07:02Z</time>
      </trkpt>
      <trkpt lat="45.77442" lon="4.8071">
        <ele>219</ele>
        <time>2010-04-03T13:07:06Z</time>
      </trkpt>
      <trkpt lat="45.77431" lon="4.80735">
        <ele>219</ele>
        <time>2010-04-03T13:07:09Z</time>
      </trkpt>
      <trkpt lat="45.77423" lon="4.80752">
        <ele>220</ele>
        <time>2010-04-03T13:07:11Z</time>
      </trkpt>
      <trkpt lat="45.77416" lon="4.80768">
        <ele>220</ele>
        <time>2010-04-03T13:07:13Z</time>
      </trkpt>
      <trkpt lat="45.77408" lon="4.80782">
        <ele>221</ele>
        <time>2010-04-03T13:07:15Z</time>
      </trkpt>
      <trkpt lat="45.77401" lon="4.80795">
        <ele>221</ele>
        <time>2010-04-03T13:07:17Z</time>
      </trkpt>
      <trkpt lat="45.77393" lon="4.80809">
        <ele>221</ele>
        <time>2010-04-03T13:07:19Z</time>
      </trkpt>
      <trkpt lat="45.77383" lon="4.80827">
        <ele>222</ele>
        <time>2010-04-03T13:07:22Z</time>
      </trkpt>
      <trkpt lat="45.77372" lon="4.80844">
        <ele>221</ele>
        <time>2010-04-03T13:07:25Z</time>
      </trkpt>
      <trkpt lat="45.77368" lon="4.80851">
        <ele>222</ele>
        <time>2010-04-03T13:07:29Z</time>
      </trkpt>
      <trkpt lat="45.77367" lon="4.80871">
        <ele>219</ele>
        <time>2010-04-03T13:07:56Z</time>
      </trkpt>
      <trkpt lat="45.77356" lon="4.80891">
        <ele>218</ele>
        <time>2010-04-03T13:07:59Z</time>
      </trkpt>
      <trkpt lat="45.77348" lon="4.80907">
        <ele>218</ele>
        <time>2010-04-03T13:08:01Z</time>
      </trkpt>
      <trkpt lat="45.77341" lon="4.80925">
        <ele>218</ele>
        <time>2010-04-03T13:08:04Z</time>
      </trkpt>
      <trkpt lat="45.77333" lon="4.80945">
        <ele>218</ele>
        <time>2010-04-03T13:08:07Z</time>
      </trkpt>
      <trkpt lat="45.77325" lon="4.80965">
        <ele>219</ele>
        <time>2010-04-03T13:08:10Z</time>
      </trkpt>
      <trkpt lat="45.77318" lon="4.8098">
        <ele>218</ele>
        <time>2010-04-03T13:08:13Z</time>
      </trkpt>
      <trkpt lat="45.77312" lon="4.80994">
        <ele>217</ele>
        <time>2010-04-03T13:08:16Z</time>
      </trkpt>
      <trkpt lat="45.77307" lon="4.81003">
        <ele>218</ele>
        <time>2010-04-03T13:08:18Z</time>
      </trkpt>
      <trkpt lat="45.773" lon="4.81013">
        <ele>219</ele>
        <time>2010-04-03T13:08:20Z</time>
      </trkpt>
      <trkpt lat="45.77291" lon="4.81023">
        <ele>219</ele>
        <time>2010-04-03T13:08:23Z</time>
      </trkpt>
      <trkpt lat="45.7728" lon="4.81036">
        <ele>219</ele>
        <time>2010-04-03T13:08:25Z</time>
      </trkpt>
      <trkpt lat="45.77268" lon="4.81048">
        <ele>218</ele>
        <time>2010-04-03T13:08:28Z</time>
      </trkpt>
      <trkpt lat="45.77257" lon="4.81061">
        <ele>218</ele>
        <time>2010-04-03T13:08:30Z</time>
      </trkpt>
      <trkpt lat="45.77246" lon="4.81075">
        <ele>219</ele>
        <time>2010-04-03T13:08:33Z</time>
      </trkpt>
      <trkpt lat="45.77233" lon="4.81091">
        <ele>220</ele>
        <time>2010-04-03T13:08:35Z</time>
      </trkpt>
      <trkpt lat="45.77219" lon="4.81107">
        <ele>220</ele>
        <time>2010-04-03T13:08:39Z</time>
      </trkpt>
      <trkpt lat="45.772" lon="4.81131">
        <ele>221</ele>
        <time>2010-04-03T13:08:43Z</time>
      </trkpt>
      <trkpt lat="45.77175" lon="4.81161">
        <ele>222</ele>
        <time>2010-04-03T13:08:47Z</time>
      </trkpt>
      <trkpt lat="45.7716" lon="4.81179">
        <ele>223</ele>
        <time>2010-04-03T13:08:49Z</time>
      </trkpt>
      <trkpt lat="45.77148" lon="4.81191">
        <ele>223</ele>
        <time>2010-04-03T13:08:51Z</time>
      </trkpt>
      <trkpt lat="45.77136" lon="4.81203">
        <ele>223</ele>
        <time>2010-04-03T13:08:53Z</time>
      </trkpt>
      <trkpt lat="45.77125" lon="4.81207">
        <ele>223</ele>
        <time>2010-04-03T13:08:56Z</time>
      </trkpt>
      <trkpt lat="45.77112" lon="4.81212">
        <ele>222</ele>
        <time>2010-04-03T13:08:58Z</time>
      </trkpt>
      <trkpt lat="45.77098" lon="4.81218">
        <ele>222</ele>
        <time>2010-04-03T13:09:00Z</time>
      </trkpt>
      <trkpt lat="45.7708" lon="4.81226">
        <ele>222</ele>
        <time>2010-04-03T13:09:04Z</time>
      </trkpt>
      <trkpt lat="45.77068" lon="4.8123">
        <ele>222</ele>
        <time>2010-04-03T13:09:06Z</time>
      </trkpt>
      <trkpt lat="45.77053" lon="4.81235">
        <ele>222</ele>
        <time>2010-04-03T13:09:09Z</time>
      </trkpt>
      <trkpt lat="45.77037" lon="4.81237">
        <ele>222</ele>
        <time>2010-04-03T13:09:12Z</time>
      </trkpt>
      <trkpt lat="45.77025" lon="4.8124">
        <ele>223</ele>
        <time>2010-04-03T13:09:15Z</time>
      </trkpt>
      <trkpt lat="45.77015" lon="4.81243">
        <ele>222</ele>
        <time>2010-04-03T13:09:18Z</time>
      </trkpt>
      <trkpt lat="45.77005" lon="4.81247">
        <ele>222</ele>
        <time>2010-04-03T13:09:20Z</time>
      </trkpt>
      <trkpt lat="45.76998" lon="4.8125">
        <ele>222</ele>
        <time>2010-04-03T13:09:22Z</time>
      </trkpt>
      <trkpt lat="45.76994" lon="4.81251">
        <ele>223</ele>
        <time>2010-04-03T13:09:25Z</time>
      </trkpt>
      <trkpt lat="45.76998" lon="4.8127">
        <ele>225</ele>
        <time>2010-04-03T13:09:46Z</time>
      </trkpt>
      <trkpt lat="45.77001" lon="4.81289">
        <ele>226</ele>
        <time>2010-04-03T13:09:49Z</time>
      </trkpt>
      <trkpt lat="45.77004" lon="4.81311">
        <ele>226</ele>
        <time>2010-04-03T13:09:52Z</time>
      </trkpt>
      <trkpt lat="45.77007" lon="4.81336">
        <ele>226</ele>
        <time>2010-04-03T13:09:54Z</time>
      </trkpt>
      <trkpt lat="45.7701" lon="4.81356">
        <ele>226</ele>
        <time>2010-04-03T13:09:57Z</time>
      </trkpt>
      <trkpt lat="45.77013" lon="4.81372">
        <ele>225</ele>
        <time>2010-04-03T13:09:59Z</time>
      </trkpt>
      <trkpt lat="45.77017" lon="4.81392">
        <ele>224</ele>
        <time>2010-04-03T13:10:02Z</time>
      </trkpt>
      <trkpt lat="45.77019" lon="4.81409">
        <ele>224</ele>
        <time>2010-04-03T13:10:05Z</time>
      </trkpt>
      <trkpt lat="45.77013" lon="4.81422">
        <ele>224</ele>
        <time>2010-04-03T13:10:08Z</time>
      </trkpt>
      <trkpt lat="45.76999" lon="4.81435">
        <ele>224</ele>
        <time>2010-04-03T13:10:10Z</time>
      </trkpt>
      <trkpt lat="45.7699" lon="4.81445">
        <ele>225</ele>
        <time>2010-04-03T13:10:13Z</time>
      </trkpt>
      <trkpt lat="45.76967" lon="4.81457">
        <ele>226</ele>
        <time>2010-04-03T13:10:16Z</time>
      </trkpt>
      <trkpt lat="45.76947" lon="4.81467">
        <ele>225</ele>
        <time>2010-04-03T13:10:18Z</time>
      </trkpt>
      <trkpt lat="45.76927" lon="4.81476">
        <ele>224</ele>
        <time>2010-04-03T13:10:21Z</time>
      </trkpt>
      <trkpt lat="45.76909" lon="4.81484">
        <ele>223</ele>
        <time>2010-04-03T13:10:24Z</time>
      </trkpt>
      <trkpt lat="45.76893" lon="4.81493">
        <ele>223</ele>
        <time>2010-04-03T13:10:26Z</time>
      </trkpt>
      <trkpt lat="45.76879" lon="4.81502">
        <ele>223</ele>
        <time>2010-04-03T13:10:28Z</time>
      </trkpt>
      <trkpt lat="45.76865" lon="4.81511">
        <ele>222</ele>
        <time>2010-04-03T13:10:30Z</time>
      </trkpt>
      <trkpt lat="45.76846" lon="4.81528">
        <ele>222</ele>
        <time>2010-04-03T13:10:33Z</time>
      </trkpt>
      <trkpt lat="45.76834" lon="4.81546">
        <ele>222</ele>
        <time>2010-04-03T13:10:36Z</time>
      </trkpt>
      <trkpt lat="45.76823" lon="4.8156">
        <ele>221</ele>
        <time>2010-04-03T13:10:38Z</time>
      </trkpt>
      <trkpt lat="45.76813" lon="4.81575">
        <ele>221</ele>
        <time>2010-04-03T13:10:40Z</time>
      </trkpt>
      <trkpt lat="45.76804" lon="4.8159">
        <ele>219</ele>
        <time>2010-04-03T13:10:42Z</time>
      </trkpt>
      <trkpt lat="45.76795" lon="4.81605">
        <ele>218</ele>
        <time>2010-04-03T13:10:44Z</time>
      </trkpt>
      <trkpt lat="45.76788" lon="4.81628">
        <ele>217</ele>
        <time>2010-04-03T13:10:47Z</time>
      </trkpt>
      <trkpt lat="45.7678" lon="4.8165">
        <ele>217</ele>
        <time>2010-04-03T13:10:49Z</time>
      </trkpt>
      <trkpt lat="45.76774" lon="4.81669">
        <ele>217</ele>
        <time>2010-04-03T13:10:51Z</time>
      </trkpt>
      <trkpt lat="45.76768" lon="4.81694">
        <ele>217</ele>
        <time>2010-04-03T13:10:54Z</time>
      </trkpt>
      <trkpt lat="45.76761" lon="4.8172">
        <ele>216</ele>
        <time>2010-04-03T13:10:56Z</time>
      </trkpt>
      <trkpt lat="45.76756" lon="4.81746">
        <ele>217</ele>
        <time>2010-04-03T13:10:59Z</time>
      </trkpt>
      <trkpt lat="45.76752" lon="4.81771">
        <ele>216</ele>
        <time>2010-04-03T13:11:01Z</time>
      </trkpt>
      <trkpt lat="45.7675" lon="4.81795">
        <ele>215</ele>
        <time>2010-04-03T13:11:03Z</time>
      </trkpt>
      <trkpt lat="45.76746" lon="4.81833">
        <ele>215</ele>
        <time>2010-04-03T13:11:06Z</time>
      </trkpt>
      <trkpt lat="45.76745" lon="4.81867">
        <ele>215</ele>
        <time>2010-04-03T13:11:09Z</time>
      </trkpt>
      <trkpt lat="45.76748" lon="4.81904">
        <ele>216</ele>
        <time>2010-04-03T13:11:13Z</time>
      </trkpt>
      <trkpt lat="45.76754" lon="4.81935">
        <ele>216</ele>
        <time>2010-04-03T13:11:15Z</time>
      </trkpt>
      <trkpt lat="45.76762" lon="4.81964">
        <ele>215</ele>
        <time>2010-04-03T13:11:18Z</time>
      </trkpt>
      <trkpt lat="45.76767" lon="4.81989">
        <ele>215</ele>
        <time>2010-04-03T13:11:20Z</time>
      </trkpt>
      <trkpt lat="45.76772" lon="4.8201">
        <ele>215</ele>
        <time>2010-04-03T13:11:22Z</time>
      </trkpt>
      <trkpt lat="45.76776" lon="4.82031">
        <ele>215</ele>
        <time>2010-04-03T13:11:24Z</time>
      </trkpt>
      <trkpt lat="45.7678" lon="4.8205">
        <ele>216</ele>
        <time>2010-04-03T13:11:27Z</time>
      </trkpt>
      <trkpt lat="45.76784" lon="4.82071">
        <ele>216</ele>
        <time>2010-04-03T13:11:29Z</time>
      </trkpt>
      <trkpt lat="45.76788" lon="4.82093">
        <ele>215</ele>
        <time>2010-04-03T13:11:31Z</time>
      </trkpt>
      <trkpt lat="45.76793" lon="4.82116">
        <ele>215</ele>
        <time>2010-04-03T13:11:33Z</time>
      </trkpt>
      <trkpt lat="45.76798" lon="4.8214">
        <ele>216</ele>
        <time>2010-04-03T13:11:35Z</time>
      </trkpt>
      <trkpt lat="45.76804" lon="4.82163">
        <ele>216</ele>
        <time>2010-04-03T13:11:37Z</time>
      </trkpt>
      <trkpt lat="45.76809" lon="4.82185">
        <ele>215</ele>
        <time>2010-04-03T13:11:40Z</time>
      </trkpt>
      <trkpt lat="45.76813" lon="4.82206">
        <ele>215</ele>
        <time>2010-04-03T13:11:42Z</time>
      </trkpt>
      <trkpt lat="45.76816" lon="4.82226">
        <ele>214</ele>
        <time>2010-04-03T13:11:44Z</time>
      </trkpt>
      <trkpt lat="45.76818" lon="4.82246">
        <ele>214</ele>
        <time>2010-04-03T13:11:46Z</time>
      </trkpt>
      <trkpt lat="45.76821" lon="4.82265">
        <ele>214</ele>
        <time>2010-04-03T13:11:48Z</time>
      </trkpt>
      <trkpt lat="45.76823" lon="4.82285">
        <ele>214</ele>
        <time>2010-04-03T13:11:50Z</time>
      </trkpt>
      <trkpt lat="45.76825" lon="4.82304">
        <ele>214</ele>
        <time>2010-04-03T13:11:52Z</time>
      </trkpt>
      <trkpt lat="45.76826" lon="4.82322">
        <ele>213</ele>
        <time>2010-04-03T13:11:55Z</time>
      </trkpt>
      <trkpt lat="45.76828" lon="4.8234">
        <ele>213</ele>
        <time>2010-04-03T13:11:57Z</time>
      </trkpt>
      <trkpt lat="45.76829" lon="4.82356">
        <ele>213</ele>
        <time>2010-04-03T13:11:59Z</time>
      </trkpt>
      <trkpt lat="45.76829" lon="4.82371">
        <ele>214</ele>
        <time>2010-04-03T13:12:01Z</time>
      </trkpt>
      <trkpt lat="45.7683" lon="4.82384">
        <ele>214</ele>
        <time>2010-04-03T13:12:03Z</time>
      </trkpt>
      <trkpt lat="45.7683" lon="4.82396">
        <ele>214</ele>
        <time>2010-04-03T13:12:05Z</time>
      </trkpt>
      <trkpt lat="45.76831" lon="4.82409">
        <ele>214</ele>
        <time>2010-04-03T13:12:07Z</time>
      </trkpt>
      <trkpt lat="45.76831" lon="4.82425">
        <ele>214</ele>
        <time>2010-04-03T13:12:09Z</time>
      </trkpt>
      <trkpt lat="45.76833" lon="4.82441">
        <ele>213</ele>
        <time>2010-04-03T13:12:12Z</time>
      </trkpt>
      <trkpt lat="45.76834" lon="4.82457">
        <ele>213</ele>
        <time>2010-04-03T13:12:14Z</time>
      </trkpt>
      <trkpt lat="45.76836" lon="4.82472">
        <ele>213</ele>
        <time>2010-04-03T13:12:16Z</time>
      </trkpt>
      <trkpt lat="45.76836" lon="4.82488">
        <ele>214</ele>
        <time>2010-04-03T13:12:18Z</time>
      </trkpt>
      <trkpt lat="45.76837" lon="4.82503">
        <ele>214</ele>
        <time>2010-04-03T13:12:20Z</time>
      </trkpt>
      <trkpt lat="45.76838" lon="4.82519">
        <ele>214</ele>
        <time>2010-04-03T13:12:22Z</time>
      </trkpt>
      <trkpt lat="45.76838" lon="4.82534">
        <ele>214</ele>
        <time>2010-04-03T13:12:24Z</time>
      </trkpt>
      <trkpt lat="45.76839" lon="4.8255">
        <ele>214</ele>
        <time>2010-04-03T13:12:26Z</time>
      </trkpt>
      <trkpt lat="45.76839" lon="4.82566">
        <ele>214</ele>
        <time>2010-04-03T13:12:29Z</time>
      </trkpt>
      <trkpt lat="45.7684" lon="4.82581">
        <ele>214</ele>
        <time>2010-04-03T13:12:31Z</time>
      </trkpt>
      <trkpt lat="45.76841" lon="4.82597">
        <ele>214</ele>
        <time>2010-04-03T13:12:33Z</time>
      </trkpt>
      <trkpt lat="45.76842" lon="4.82613">
        <ele>213</ele>
        <time>2010-04-03T13:12:35Z</time>
      </trkpt>
      <trkpt lat="45.76843" lon="4.82627">
        <ele>213</ele>
        <time>2010-04-03T13:12:37Z</time>
      </trkpt>
      <trkpt lat="45.76844" lon="4.82641">
        <ele>213</ele>
        <time>2010-04-03T13:12:39Z</time>
      </trkpt>
      <trkpt lat="45.76844" lon="4.82655">
        <ele>213</ele>
        <time>2010-04-03T13:12:41Z</time>
      </trkpt>
      <trkpt lat="45.76844" lon="4.82669">
        <ele>213</ele>
        <time>2010-04-03T13:12:43Z</time>
      </trkpt>
      <trkpt lat="45.76841" lon="4.82683">
        <ele>213</ele>
        <time>2010-04-03T13:12:45Z</time>
      </trkpt>
      <trkpt lat="45.76839" lon="4.82697">
        <ele>212</ele>
        <time>2010-04-03T13:12:48Z</time>
      </trkpt>
      <trkpt lat="45.76835" lon="4.82711">
        <ele>211</ele>
        <time>2010-04-03T13:12:50Z</time>
      </trkpt>
      <trkpt lat="45.76831" lon="4.82727">
        <ele>212</ele>
        <time>2010-04-03T13:12:52Z</time>
      </trkpt>
      <trkpt lat="45.76827" lon="4.82742">
        <ele>212</ele>
        <time>2010-04-03T13:12:54Z</time>
      </trkpt>
      <trkpt lat="45.76822" lon="4.82758">
        <ele>211</ele>
        <time>2010-04-03T13:12:56Z</time>
      </trkpt>
      <trkpt lat="45.76817" lon="4.82774">
        <ele>211</ele>
        <time>2010-04-03T13:12:58Z</time>
      </trkpt>
      <trkpt lat="45.76811" lon="4.8279">
        <ele>212</ele>
        <time>2010-04-03T13:13:00Z</time>
      </trkpt>
      <trkpt lat="45.76806" lon="4.82805">
        <ele>211</ele>
        <time>2010-04-03T13:13:02Z</time>
      </trkpt>
      <trkpt lat="45.76799" lon="4.82818">
        <ele>211</ele>
        <time>2010-04-03T13:13:05Z</time>
      </trkpt>
      <trkpt lat="45.76792" lon="4.82833">
        <ele>210</ele>
        <time>2010-04-03T13:13:07Z</time>
      </trkpt>
      <trkpt lat="45.76783" lon="4.82847">
        <ele>211</ele>
        <time>2010-04-03T13:13:09Z</time>
      </trkpt>
      <trkpt lat="45.76774" lon="4.82863">
        <ele>212</ele>
        <time>2010-04-03T13:13:11Z</time>
      </trkpt>
      <trkpt lat="45.76765" lon="4.82879">
        <ele>212</ele>
        <time>2010-04-03T13:13:13Z</time>
      </trkpt>
      <trkpt lat="45.76756" lon="4.82895">
        <ele>212</ele>
        <time>2010-04-03T13:13:15Z</time>
      </trkpt>
      <trkpt lat="45.76748" lon="4.82912">
        <ele>213</ele>
        <time>2010-04-03T13:13:17Z</time>
      </trkpt>
      <trkpt lat="45.76737" lon="4.82931">
        <ele>213</ele>
        <time>2010-04-03T13:13:20Z</time>
      </trkpt>
      <trkpt lat="45.76729" lon="4.82947">
        <ele>213</ele>
        <time>2010-04-03T13:13:22Z</time>
      </trkpt>
      <trkpt lat="45.7672" lon="4.82962">
        <ele>213</ele>
        <time>2010-04-03T13:13:24Z</time>
      </trkpt>
      <trkpt lat="45.76713" lon="4.82977">
        <ele>213</ele>
        <time>2010-04-03T13:13:26Z</time>
      </trkpt>
      <trkpt lat="45.76705" lon="4.82991">
        <ele>213</ele>
        <time>2010-04-03T13:13:28Z</time>
      </trkpt>
      <trkpt lat="45.76699" lon="4.83003">
        <ele>213</ele>
        <time>2010-04-03T13:13:30Z</time>
      </trkpt>
      <trkpt lat="45.76692" lon="4.83014">
        <ele>212</ele>
        <time>2010-04-03T13:13:33Z</time>
      </trkpt>
      <trkpt lat="45.76685" lon="4.83025">
        <ele>212</ele>
        <time>2010-04-03T13:13:35Z</time>
      </trkpt>
      <trkpt lat="45.76678" lon="4.83035">
        <ele>212</ele>
        <time>2010-04-03T13:13:37Z</time>
      </trkpt>
      <trkpt lat="45.7667" lon="4.83042">
        <ele>213</ele>
        <time>2010-04-03T13:13:39Z</time>
      </trkpt>
      <trkpt lat="45.76663" lon="4.8305">
        <ele>212</ele>
        <time>2010-04-03T13:13:41Z</time>
      </trkpt>
      <trkpt lat="45.76655" lon="4.83055">
        <ele>212</ele>
        <time>2010-04-03T13:13:43Z</time>
      </trkpt>
      <trkpt lat="45.76649" lon="4.83061">
        <ele>211</ele>
        <time>2010-04-03T13:13:45Z</time>
      </trkpt>
      <trkpt lat="45.76642" lon="4.83066">
        <ele>211</ele>
        <time>2010-04-03T13:13:47Z</time>
      </trkpt>
      <trkpt lat="45.76634" lon="4.83071">
        <ele>211</ele>
        <time>2010-04-03T13:13:49Z</time>
      </trkpt>
      <trkpt lat="45.76627" lon="4.83075">
        <ele>212</ele>
        <time>2010-04-03T13:13:52Z</time>
      </trkpt>
      <trkpt lat="45.76618" lon="4.8308">
        <ele>212</ele>
        <time>2010-04-03T13:13:54Z</time>
      </trkpt>
      <trkpt lat="45.76611" lon="4.83085">
        <ele>213</ele>
        <time>2010-04-03T13:13:56Z</time>
      </trkpt>
      <trkpt lat="45.76604" lon="4.8309">
        <ele>213</ele>
        <time>2010-04-03T13:13:58Z</time>
      </trkpt>
      <trkpt lat="45.766" lon="4.83094">
        <ele>213</ele>
        <time>2010-04-03T13:14:00Z</time>
      </trkpt>
      <trkpt lat="45.766" lon="4.83094">
        <ele>213</ele>
        <time>2010-04-03T13:14:01Z</time>
      </trkpt>
      <trkpt lat="45.76599" lon="4.831">
        <ele>209</ele>
        <time>2010-04-03T13:14:16Z</time>
      </trkpt>
      <trkpt lat="45.766" lon="4.83108">
        <ele>209</ele>
        <time>2010-04-03T13:14:19Z</time>
      </trkpt>
      <trkpt lat="45.76602" lon="4.83119">
        <ele>209</ele>
        <time>2010-04-03T13:14:23Z</time>
      </trkpt>
      <trkpt lat="45.76603" lon="4.83133">
        <ele>207</ele>
        <time>2010-04-03T13:14:25Z</time>
      </trkpt>
      <trkpt lat="45.76606" lon="4.83152">
        <ele>207</ele>
        <time>2010-04-03T13:14:27Z</time>
      </trkpt>
      <trkpt lat="45.76608" lon="4.83169">
        <ele>207</ele>
        <time>2010-04-03T13:14:31Z</time>
      </trkpt>
      <trkpt lat="45.76613" lon="4.83197">
        <ele>208</ele>
        <time>2010-04-03T13:14:36Z</time>
      </trkpt>
      <trkpt lat="45.76618" lon="4.83228">
        <ele>207</ele>
        <time>2010-04-03T13:14:41Z</time>
      </trkpt>
      <trkpt lat="45.76612" lon="4.8325">
        <ele>206</ele>
        <time>2010-04-03T13:14:44Z</time>
      </trkpt>
      <trkpt lat="45.7661" lon="4.83257">
        <ele>204</ele>
        <time>2010-04-03T13:14:46Z</time>
      </trkpt>
      <trkpt lat="45.7661" lon="4.83257">
        <ele>204</ele>
        <time>2010-04-03T13:14:48Z</time>
      </trkpt>
      <trkpt lat="45.76602" lon="4.83272">
        <ele>200</ele>
        <time>2010-04-03T13:14:55Z</time>
      </trkpt>
      <trkpt lat="45.76591" lon="4.83282">
        <ele>199</ele>
        <time>2010-04-03T13:14:57Z</time>
      </trkpt>
      <trkpt lat="45.76579" lon="4.83292">
        <ele>198</ele>
        <time>2010-04-03T13:14:59Z</time>
      </trkpt>
      <trkpt lat="45.76568" lon="4.83299">
        <ele>198</ele>
        <time>2010-04-03T13:15:01Z</time>
      </trkpt>
      <trkpt lat="45.76553" lon="4.83302">
        <ele>197</ele>
        <time>2010-04-03T13:15:03Z</time>
      </trkpt>
      <trkpt lat="45.76543" lon="4.83301">
        <ele>197</ele>
        <time>2010-04-03T13:15:05Z</time>
      </trkpt>
      <trkpt lat="45.76533" lon="4.83301">
        <ele>197</ele>
        <time>2010-04-03T13:15:07Z</time>
      </trkpt>
      <trkpt lat="45.76525" lon="4.83301">
        <ele>197</ele>
        <time>2010-04-03T13:15:10Z</time>
      </trkpt>
      <trkpt lat="45.76517" lon="4.83301">
        <ele>197</ele>
        <time>2010-04-03T13:15:12Z</time>
      </trkpt>
      <trkpt lat="45.76509" lon="4.83302">
        <ele>197</ele>
        <time>2010-04-03T13:15:14Z</time>
      </trkpt>
      <trkpt lat="45.76501" lon="4.83303">
        <ele>197</ele>
        <time>2010-04-03T13:15:16Z</time>
      </trkpt>
      <trkpt lat="45.76501" lon="4.83303">
        <ele>197</ele>
        <time>2010-04-03T13:15:17Z</time>
      </trkpt>
      <trkpt lat="45.76479" lon="4.83307">
        <ele>197</ele>
        <time>2010-04-03T13:15:22Z</time>
      </trkpt>
      <trkpt lat="45.7647" lon="4.83308">
        <ele>197</ele>
        <time>2010-04-03T13:15:24Z</time>
      </trkpt>
      <trkpt lat="45.7646" lon="4.8331">
        <ele>198</ele>
        <time>2010-04-03T13:15:26Z</time>
      </trkpt>
      <trkpt lat="45.76439" lon="4.83312">
        <ele>198</ele>
        <time>2010-04-03T13:15:30Z</time>
      </trkpt>
      <trkpt lat="45.76417" lon="4.83315">
        <ele>198</ele>
        <time>2010-04-03T13:15:32Z</time>
      </trkpt>
      <trkpt lat="45.76398" lon="4.83321">
        <ele>198</ele>
        <time>2010-04-03T13:15:34Z</time>
      </trkpt>
      <trkpt lat="45.76388" lon="4.83323">
        <ele>198</ele>
        <time>2010-04-03T13:15:36Z</time>
      </trkpt>
      <trkpt lat="45.76378" lon="4.83325">
        <ele>198</ele>
        <time>2010-04-03T13:15:38Z</time>
      </trkpt>
      <trkpt lat="45.76371" lon="4.83328">
        <ele>198</ele>
        <time>2010-04-03T13:15:41Z</time>
      </trkpt>
      <trkpt lat="45.76354" lon="4.83337">
        <ele>197</ele>
        <time>2010-04-03T13:16:11Z</time>
      </trkpt>
      <trkpt lat="45.76354" lon="4.83337">
        <ele>197</ele>
        <time>2010-04-03T13:16:18Z</time>
      </trkpt>
      <trkpt lat="45.76338" lon="4.83366">
        <ele>197</ele>
        <time>2010-04-03T13:16:27Z</time>
      </trkpt>
      <trkpt lat="45.76335" lon="4.83394">
        <ele>197</ele>
        <time>2010-04-03T13:16:30Z</time>
      </trkpt>
      <trkpt lat="45.76335" lon="4.83418">
        <ele>197</ele>
        <time>2010-04-03T13:16:32Z</time>
      </trkpt>
      <trkpt lat="45.76333" lon="4.8344">
        <ele>197</ele>
        <time>2010-04-03T13:16:35Z</time>
      </trkpt>
      <trkpt lat="45.76331" lon="4.8346">
        <ele>196</ele>
        <time>2010-04-03T13:16:37Z</time>
      </trkpt>
      <trkpt lat="45.76331" lon="4.83478">
        <ele>196</ele>
        <time>2010-04-03T13:16:39Z</time>
      </trkpt>
      <trkpt lat="45.76332" lon="4.83494">
        <ele>195</ele>
        <time>2010-04-03T13:16:41Z</time>
      </trkpt>
      <trkpt lat="45.76338" lon="4.83515">
        <ele>195</ele>
        <time>2010-04-03T13:16:43Z</time>
      </trkpt>
      <trkpt lat="45.76347" lon="4.83535">
        <ele>196</ele>
        <time>2010-04-03T13:16:45Z</time>
      </trkpt>
      <trkpt lat="45.76349" lon="4.83553">
        <ele>196</ele>
        <time>2010-04-03T13:16:47Z</time>
      </trkpt>
      <trkpt lat="45.76351" lon="4.83586">
        <ele>195</ele>
        <time>2010-04-03T13:16:51Z</time>
      </trkpt>
      <trkpt lat="45.76348" lon="4.83614">
        <ele>196</ele>
        <time>2010-04-03T13:16:53Z</time>
      </trkpt>
      <trkpt lat="45.76345" lon="4.83641">
        <ele>197</ele>
        <time>2010-04-03T13:16:55Z</time>
      </trkpt>
      <trkpt lat="45.76347" lon="4.83665">
        <ele>199</ele>
        <time>2010-04-03T13:16:57Z</time>
      </trkpt>
      <trkpt lat="45.76349" lon="4.8369">
        <ele>200</ele>
        <time>2010-04-03T13:16:59Z</time>
      </trkpt>
      <trkpt lat="45.76351" lon="4.83709">
        <ele>201</ele>
        <time>2010-04-03T13:17:01Z</time>
      </trkpt>
      <trkpt lat="45.76354" lon="4.83729">
        <ele>202</ele>
        <time>2010-04-03T13:17:03Z</time>
      </trkpt>
      <trkpt lat="45.76353" lon="4.83756">
        <ele>203</ele>
        <time>2010-04-03T13:17:07Z</time>
      </trkpt>
      <trkpt lat="45.76354" lon="4.83772">
        <ele>204</ele>
        <time>2010-04-03T13:17:10Z</time>
      </trkpt>
      <trkpt lat="45.76355" lon="4.83781">
        <ele>205</ele>
        <time>2010-04-03T13:17:12Z</time>
      </trkpt>
      <trkpt lat="45.76353" lon="4.838">
        <ele>206</ele>
        <time>2010-04-03T13:17:16Z</time>
      </trkpt>
      <trkpt lat="45.76352" lon="4.83814">
        <ele>207</ele>
        <time>2010-04-03T13:17:18Z</time>
      </trkpt>
      <trkpt lat="45.76351" lon="4.8383">
        <ele>208</ele>
        <time>2010-04-03T13:17:20Z</time>
      </trkpt>
      <trkpt lat="45.76351" lon="4.83848">
        <ele>208</ele>
        <time>2010-04-03T13:17:22Z</time>
      </trkpt>
      <trkpt lat="45.76351" lon="4.83867">
        <ele>208</ele>
        <time>2010-04-03T13:17:24Z</time>
      </trkpt>
      <trkpt lat="45.76352" lon="4.83886">
        <ele>210</ele>
        <time>2010-04-03T13:17:27Z</time>
      </trkpt>
      <trkpt lat="45.76352" lon="4.83906">
        <ele>211</ele>
        <time>2010-04-03T13:17:29Z</time>
      </trkpt>
      <trkpt lat="45.76353" lon="4.83926">
        <ele>212</ele>
        <time>2010-04-03T13:17:31Z</time>
      </trkpt>
      <trkpt lat="45.76354" lon="4.83944">
        <ele>213</ele>
        <time>2010-04-03T13:17:33Z</time>
      </trkpt>
      <trkpt lat="45.76355" lon="4.83962">
        <ele>213</ele>
        <time>2010-04-03T13:17:35Z</time>
      </trkpt>
      <trkpt lat="45.76355" lon="4.83981">
        <ele>213</ele>
        <time>2010-04-03T13:17:37Z</time>
      </trkpt>
      <trkpt lat="45.76355" lon="4.84001">
        <ele>213</ele>
        <time>2010-04-03T13:17:39Z</time>
      </trkpt>
      <trkpt lat="45.76354" lon="4.8402">
        <ele>213</ele>
        <time>2010-04-03T13:17:42Z</time>
      </trkpt>
      <trkpt lat="45.76354" lon="4.84039">
        <ele>214</ele>
        <time>2010-04-03T13:17:44Z</time>
      </trkpt>
      <trkpt lat="45.76355" lon="4.84058">
        <ele>215</ele>
        <time>2010-04-03T13:17:46Z</time>
      </trkpt>
      <trkpt lat="45.76355" lon="4.84076">
        <ele>215</ele>
        <time>2010-04-03T13:17:48Z</time>
      </trkpt>
      <trkpt lat="45.76355" lon="4.84092">
        <ele>214</ele>
        <time>2010-04-03T13:17:50Z</time>
      </trkpt>
      <trkpt lat="45.76356" lon="4.84105">
        <ele>212</ele>
        <time>2010-04-03T13:17:52Z</time>
      </trkpt>
      <trkpt lat="45.76356" lon="4.84112">
        <ele>211</ele>
        <time>2010-04-03T13:17:54Z</time>
      </trkpt>
      <trkpt lat="45.76357" lon="4.84171">
        <ele>208</ele>
        <time>2010-04-03T13:18:19Z</time>
      </trkpt>
      <trkpt lat="45.76357" lon="4.84191">
        <ele>208</ele>
        <time>2010-04-03T13:18:21Z</time>
      </trkpt>
      <trkpt lat="45.76356" lon="4.84212">
        <ele>208</ele>
        <time>2010-04-03T13:18:24Z</time>
      </trkpt>
      <trkpt lat="45.76358" lon="4.84238">
        <ele>208</ele>
        <time>2010-04-03T13:18:26Z</time>
      </trkpt>
      <trkpt lat="45.76361" lon="4.84261">
        <ele>208</ele>
        <time>2010-04-03T13:18:28Z</time>
      </trkpt>
      <trkpt lat="45.7638" lon="4.84278">
        <ele>208</ele>
        <time>2010-04-03T13:18:30Z</time>
      </trkpt>
      <trkpt lat="45.76395" lon="4.84296">
        <ele>208</ele>
        <time>2010-04-03T13:18:32Z</time>
      </trkpt>
      <trkpt lat="45.76406" lon="4.84339">
        <ele>206</ele>
        <time>2010-04-03T13:18:36Z</time>
      </trkpt>
      <trkpt lat="45.76406" lon="4.84359">
        <ele>206</ele>
        <time>2010-04-03T13:18:38Z</time>
      </trkpt>
      <trkpt lat="45.76388" lon="4.84381">
        <ele>205</ele>
        <time>2010-04-03T13:18:40Z</time>
      </trkpt>
      <trkpt lat="45.76379" lon="4.84402">
        <ele>205</ele>
        <time>2010-04-03T13:18:42Z</time>
      </trkpt>
      <trkpt lat="45.76374" lon="4.84422">
        <ele>204</ele>
        <time>2010-04-03T13:18:45Z</time>
      </trkpt>
      <trkpt lat="45.7637" lon="4.84442">
        <ele>204</ele>
        <time>2010-04-03T13:18:47Z</time>
      </trkpt>
      <trkpt lat="45.76368" lon="4.84463">
        <ele>204</ele>
        <time>2010-04-03T13:18:49Z</time>
      </trkpt>
      <trkpt lat="45.76371" lon="4.84482">
        <ele>204</ele>
        <time>2010-04-03T13:18:51Z</time>
      </trkpt>
      <trkpt lat="45.76369" lon="4.84501">
        <ele>204</ele>
        <time>2010-04-03T13:18:53Z</time>
      </trkpt>
      <trkpt lat="45.76366" lon="4.84521">
        <ele>204</ele>
        <time>2010-04-03T13:18:55Z</time>
      </trkpt>
      <trkpt lat="45.76361" lon="4.84561">
        <ele>205</ele>
        <time>2010-04-03T13:18:59Z</time>
      </trkpt>
      <trkpt lat="45.76356" lon="4.8458">
        <ele>205</ele>
        <time>2010-04-03T13:19:02Z</time>
      </trkpt>
      <trkpt lat="45.76355" lon="4.846">
        <ele>205</ele>
        <time>2010-04-03T13:19:04Z</time>
      </trkpt>
      <trkpt lat="45.76354" lon="4.8462">
        <ele>206</ele>
        <time>2010-04-03T13:19:06Z</time>
      </trkpt>
      <trkpt lat="45.76352" lon="4.84641">
        <ele>205</ele>
        <time>2010-04-03T13:19:08Z</time>
      </trkpt>
      <trkpt lat="45.76353" lon="4.84661">
        <ele>205</ele>
        <time>2010-04-03T13:19:10Z</time>
      </trkpt>
      <trkpt lat="45.76356" lon="4.8468">
        <ele>206</ele>
        <time>2010-04-03T13:19:12Z</time>
      </trkpt>
      <trkpt lat="45.76357" lon="4.84699">
        <ele>207</ele>
        <time>2010-04-03T13:19:14Z</time>
      </trkpt>
      <trkpt lat="45.76358" lon="4.84714">
        <ele>208</ele>
        <time>2010-04-03T13:19:16Z</time>
      </trkpt>
      <trkpt lat="45.76359" lon="4.84729">
        <ele>209</ele>
        <time>2010-04-03T13:19:19Z</time>
      </trkpt>
      <trkpt lat="45.7636" lon="4.84746">
        <ele>209</ele>
        <time>2010-04-03T13:19:21Z</time>
      </trkpt>
      <trkpt lat="45.76363" lon="4.8476">
        <ele>211</ele>
        <time>2010-04-03T13:19:23Z</time>
      </trkpt>
      <trkpt lat="45.76368" lon="4.84778">
        <ele>213</ele>
        <time>2010-04-03T13:19:26Z</time>
      </trkpt>
      <trkpt lat="45.7637" lon="4.84795">
        <ele>214</ele>
        <time>2010-04-03T13:19:28Z</time>
      </trkpt>
      <trkpt lat="45.76369" lon="4.8481">
        <ele>215</ele>
        <time>2010-04-03T13:19:30Z</time>
      </trkpt>
      <trkpt lat="45.76368" lon="4.84827">
        <ele>215</ele>
        <time>2010-04-03T13:19:32Z</time>
      </trkpt>
      <trkpt lat="45.76368" lon="4.84843">
        <ele>216</ele>
        <time>2010-04-03T13:19:34Z</time>
      </trkpt>
      <trkpt lat="45.76368" lon="4.8486">
        <ele>216</ele>
        <time>2010-04-03T13:19:36Z</time>
      </trkpt>
      <trkpt lat="45.76366" lon="4.84877">
        <ele>216</ele>
        <time>2010-04-03T13:19:38Z</time>
      </trkpt>
      <trkpt lat="45.76364" lon="4.84895">
        <ele>217</ele>
        <time>2010-04-03T13:19:40Z</time>
      </trkpt>
      <trkpt lat="45.76364" lon="4.84915">
        <ele>217</ele>
        <time>2010-04-03T13:19:43Z</time>
      </trkpt>
      <trkpt lat="45.76364" lon="4.84938">
        <ele>217</ele>
        <time>2010-04-03T13:19:45Z</time>
      </trkpt>
      <trkpt lat="45.76364" lon="4.8496">
        <ele>216</ele>
        <time>2010-04-03T13:19:47Z</time>
      </trkpt>
      <trkpt lat="45.76364" lon="4.84987">
        <ele>216</ele>
        <time>2010-04-03T13:19:50Z</time>
      </trkpt>
      <trkpt lat="45.76358" lon="4.85007">
        <ele>216</ele>
        <time>2010-04-03T13:19:53Z</time>
      </trkpt>
      <trkpt lat="45.76353" lon="4.85025">
        <ele>216</ele>
        <time>2010-04-03T13:19:55Z</time>
      </trkpt>
      <trkpt lat="45.76355" lon="4.85056">
        <ele>216</ele>
        <time>2010-04-03T13:19:57Z</time>
      </trkpt>
      <trkpt lat="45.76356" lon="4.85074">
        <ele>216</ele>
        <time>2010-04-03T13:20:00Z</time>
      </trkpt>
      <trkpt lat="45.76357" lon="4.85092">
        <ele>216</ele>
        <time>2010-04-03T13:20:02Z</time>
      </trkpt>
      <trkpt lat="45.76358" lon="4.85111">
        <ele>216</ele>
        <time>2010-04-03T13:20:04Z</time>
      </trkpt>
      <trkpt lat="45.76358" lon="4.85124">
        <ele>216</ele>
        <time>2010-04-03T13:20:06Z</time>
      </trkpt>
      <trkpt lat="45.76359" lon="4.85139">
        <ele>217</ele>
        <time>2010-04-03T13:20:08Z</time>
      </trkpt>
      <trkpt lat="45.76362" lon="4.85151">
        <ele>218</ele>
        <time>2010-04-03T13:20:10Z</time>
      </trkpt>
      <trkpt lat="45.76362" lon="4.85171">
        <ele>217</ele>
        <time>2010-04-03T13:20:14Z</time>
      </trkpt>
      <trkpt lat="45.76364" lon="4.85185">
        <ele>217</ele>
        <time>2010-04-03T13:20:16Z</time>
      </trkpt>
      <trkpt lat="45.76368" lon="4.852">
        <ele>217</ele>
        <time>2010-04-03T13:20:19Z</time>
      </trkpt>
      <trkpt lat="45.7637" lon="4.85216">
        <ele>218</ele>
        <time>2010-04-03T13:20:21Z</time>
      </trkpt>
      <trkpt lat="45.76371" lon="4.85228">
        <ele>219</ele>
        <time>2010-04-03T13:20:23Z</time>
      </trkpt>
      <trkpt lat="45.76375" lon="4.85254">
        <ele>220</ele>
        <time>2010-04-03T13:20:27Z</time>
      </trkpt>
      <trkpt lat="45.76373" lon="4.85281">
        <ele>220</ele>
        <time>2010-04-03T13:20:29Z</time>
      </trkpt>
      <trkpt lat="45.76371" lon="4.85305">
        <ele>220</ele>
        <time>2010-04-03T13:20:31Z</time>
      </trkpt>
      <trkpt lat="45.76369" lon="4.85326">
        <ele>220</ele>
        <time>2010-04-03T13:20:34Z</time>
      </trkpt>
      <trkpt lat="45.76366" lon="4.85346">
        <ele>219</ele>
        <time>2010-04-03T13:20:36Z</time>
      </trkpt>
      <trkpt lat="45.76364" lon="4.85366">
        <ele>219</ele>
        <time>2010-04-03T13:20:38Z</time>
      </trkpt>
      <trkpt lat="45.76362" lon="4.85383">
        <ele>219</ele>
        <time>2010-04-03T13:20:40Z</time>
      </trkpt>
      <trkpt lat="45.76361" lon="4.85401">
        <ele>218</ele>
        <time>2010-04-03T13:20:42Z</time>
      </trkpt>
      <trkpt lat="45.7636" lon="4.85418">
        <ele>218</ele>
        <time>2010-04-03T13:20:44Z</time>
      </trkpt>
      <trkpt lat="45.76363" lon="4.85442">
        <ele>217</ele>
        <time>2010-04-03T13:20:47Z</time>
      </trkpt>
      <trkpt lat="45.76363" lon="4.8546">
        <ele>217</ele>
        <time>2010-04-03T13:20:49Z</time>
      </trkpt>
      <trkpt lat="45.76365" lon="4.85477">
        <ele>217</ele>
        <time>2010-04-03T13:20:51Z</time>
      </trkpt>
      <trkpt lat="45.76369" lon="4.85492">
        <ele>216</ele>
        <time>2010-04-03T13:20:53Z</time>
      </trkpt>
      <trkpt lat="45.76372" lon="4.85507">
        <ele>215</ele>
        <time>2010-04-03T13:20:55Z</time>
      </trkpt>
      <trkpt lat="45.76373" lon="4.85528">
        <ele>215</ele>
        <time>2010-04-03T13:20:58Z</time>
      </trkpt>
      <trkpt lat="45.76373" lon="4.85549">
        <ele>214</ele>
        <time>2010-04-03T13:21:00Z</time>
      </trkpt>
      <trkpt lat="45.76374" lon="4.85564">
        <ele>214</ele>
        <time>2010-04-03T13:21:02Z</time>
      </trkpt>
      <trkpt lat="45.76377" lon="4.85598">
        <ele>213</ele>
        <time>2010-04-03T13:21:06Z</time>
      </trkpt>
      <trkpt lat="45.76378" lon="4.85619">
        <ele>213</ele>
        <time>2010-04-03T13:21:08Z</time>
      </trkpt>
      <trkpt lat="45.76377" lon="4.8564">
        <ele>213</ele>
        <time>2010-04-03T13:21:10Z</time>
      </trkpt>
      <trkpt lat="45.76374" lon="4.85662">
        <ele>213</ele>
        <time>2010-04-03T13:21:12Z</time>
      </trkpt>
      <trkpt lat="45.76373" lon="4.8568">
        <ele>214</ele>
        <time>2010-04-03T13:21:15Z</time>
      </trkpt>
      <trkpt lat="45.76372" lon="4.85698">
        <ele>214</ele>
        <time>2010-04-03T13:21:17Z</time>
      </trkpt>
      <trkpt lat="45.76372" lon="4.85698">
        <ele>214</ele>
        <time>2010-04-03T13:21:18Z</time>
      </trkpt>
      <trkpt lat="45.76367" lon="4.85723">
        <ele>216</ele>
        <time>2010-04-03T13:21:22Z</time>
      </trkpt>
      <trkpt lat="45.76365" lon="4.85745">
        <ele>217</ele>
        <time>2010-04-03T13:21:24Z</time>
      </trkpt>
      <trkpt lat="45.76362" lon="4.85766">
        <ele>218</ele>
        <time>2010-04-03T13:21:26Z</time>
      </trkpt>
      <trkpt lat="45.76361" lon="4.85786">
        <ele>219</ele>
        <time>2010-04-03T13:21:29Z</time>
      </trkpt>
      <trkpt lat="45.76361" lon="4.85804">
        <ele>219</ele>
        <time>2010-04-03T13:21:31Z</time>
      </trkpt>
      <trkpt lat="45.76364" lon="4.85822">
        <ele>219</ele>
        <time>2010-04-03T13:21:33Z</time>
      </trkpt>
      <trkpt lat="45.76367" lon="4.85843">
        <ele>219</ele>
        <time>2010-04-03T13:21:36Z</time>
      </trkpt>
      <trkpt lat="45.76365" lon="4.85863">
        <ele>219</ele>
        <time>2010-04-03T13:21:38Z</time>
      </trkpt>
      <trkpt lat="45.76361" lon="4.85888">
        <ele>218</ele>
        <time>2010-04-03T13:21:41Z</time>
      </trkpt>
      <trkpt lat="45.7636" lon="4.85907">
        <ele>218</ele>
        <time>2010-04-03T13:21:43Z</time>
      </trkpt>
      <trkpt lat="45.76358" lon="4.85944">
        <ele>218</ele>
        <time>2010-04-03T13:21:46Z</time>
      </trkpt>
      <trkpt lat="45.76359" lon="4.85973">
        <ele>218</ele>
        <time>2010-04-03T13:21:48Z</time>
      </trkpt>
      <trkpt lat="45.76361" lon="4.86002">
        <ele>219</ele>
        <time>2010-04-03T13:21:50Z</time>
      </trkpt>
      <trkpt lat="45.76363" lon="4.8603">
        <ele>219</ele>
        <time>2010-04-03T13:21:57Z</time>
      </trkpt>
      <trkpt lat="45.76365" lon="4.86058">
        <ele>219</ele>
        <time>2010-04-03T13:22:01Z</time>
      </trkpt>
      <trkpt lat="45.76366" lon="4.86069">
        <ele>220</ele>
        <time>2010-04-03T13:22:01Z</time>
      </trkpt>
      <trkpt lat="45.76364" lon="4.86128">
        <ele>220</ele>
        <time>2010-04-03T13:22:05Z</time>
      </trkpt>
      <trkpt lat="45.76366" lon="4.86149">
        <ele>220</ele>
        <time>2010-04-03T13:22:07Z</time>
      </trkpt>
      <trkpt lat="45.76367" lon="4.86171">
        <ele>221</ele>
        <time>2010-04-03T13:22:09Z</time>
      </trkpt>
      <trkpt lat="45.76366" lon="4.86191">
        <ele>222</ele>
        <time>2010-04-03T13:22:11Z</time>
      </trkpt>
      <trkpt lat="45.76366" lon="4.86211">
        <ele>222</ele>
        <time>2010-04-03T13:22:13Z</time>
      </trkpt>
      <trkpt lat="45.76374" lon="4.86226">
        <ele>222</ele>
        <time>2010-04-03T13:22:16Z</time>
      </trkpt>
      <trkpt lat="45.76375" lon="4.86244">
        <ele>222</ele>
        <time>2010-04-03T13:22:18Z</time>
      </trkpt>
      <trkpt lat="45.76371" lon="4.86265">
        <ele>222</ele>
        <time>2010-04-03T13:22:21Z</time>
      </trkpt>
      <trkpt lat="45.76369" lon="4.86286">
        <ele>223</ele>
        <time>2010-04-03T13:22:23Z</time>
      </trkpt>
      <trkpt lat="45.76367" lon="4.86306">
        <ele>223</ele>
        <time>2010-04-03T13:22:25Z</time>
      </trkpt>
      <trkpt lat="45.76364" lon="4.86343">
        <ele>222</ele>
        <time>2010-04-03T13:22:29Z</time>
      </trkpt>
      <trkpt lat="45.76364" lon="4.86353">
        <ele>222</ele>
        <time>2010-04-03T13:22:31Z</time>
      </trkpt>
      <trkpt lat="45.76365" lon="4.8636">
        <ele>221</ele>
        <time>2010-04-03T13:22:33Z</time>
      </trkpt>
      <trkpt lat="45.76365" lon="4.8636">
        <ele>221</ele>
        <time>2010-04-03T13:22:34Z</time>
      </trkpt>
      <trkpt lat="45.7637" lon="4.86398">
        <ele>219</ele>
        <time>2010-04-03T13:22:40Z</time>
      </trkpt>
      <trkpt lat="45.76371" lon="4.86413">
        <ele>218</ele>
        <time>2010-04-03T13:22:42Z</time>
      </trkpt>
      <trkpt lat="45.76371" lon="4.86431">
        <ele>217</ele>
        <time>2010-04-03T13:22:44Z</time>
      </trkpt>
      <trkpt lat="45.76372" lon="4.86448">
        <ele>217</ele>
        <time>2010-04-03T13:22:47Z</time>
      </trkpt>
      <trkpt lat="45.76372" lon="4.86466">
        <ele>217</ele>
        <time>2010-04-03T13:22:49Z</time>
      </trkpt>
      <trkpt lat="45.76373" lon="4.86485">
        <ele>217</ele>
        <time>2010-04-03T13:22:51Z</time>
      </trkpt>
      <trkpt lat="45.76375" lon="4.86504">
        <ele>216</ele>
        <time>2010-04-03T13:22:53Z</time>
      </trkpt>
      <trkpt lat="45.76376" lon="4.86524">
        <ele>215</ele>
        <time>2010-04-03T13:22:55Z</time>
      </trkpt>
      <trkpt lat="45.76376" lon="4.86547">
        <ele>214</ele>
        <time>2010-04-03T13:22:57Z</time>
      </trkpt>
      <trkpt lat="45.76373" lon="4.86566">
        <ele>214</ele>
        <time>2010-04-03T13:22:59Z</time>
      </trkpt>
      <trkpt lat="45.7637" lon="4.86586">
        <ele>214</ele>
        <time>2010-04-03T13:23:01Z</time>
      </trkpt>
      <trkpt lat="45.76369" lon="4.86606">
        <ele>213</ele>
        <time>2010-04-03T13:23:03Z</time>
      </trkpt>
      <trkpt lat="45.76369" lon="4.86627">
        <ele>213</ele>
        <time>2010-04-03T13:23:05Z</time>
      </trkpt>
      <trkpt lat="45.76368" lon="4.86645">
        <ele>213</ele>
        <time>2010-04-03T13:23:07Z</time>
      </trkpt>
      <trkpt lat="45.76368" lon="4.86664">
        <ele>213</ele>
        <time>2010-04-03T13:23:10Z</time>
      </trkpt>
      <trkpt lat="45.7637" lon="4.86691">
        <ele>213</ele>
        <time>2010-04-03T13:23:12Z</time>
      </trkpt>
      <trkpt lat="45.76368" lon="4.86724">
        <ele>213</ele>
        <time>2010-04-03T13:23:16Z</time>
      </trkpt>
      <trkpt lat="45.76367" lon="4.86745">
        <ele>213</ele>
        <time>2010-04-03T13:23:18Z</time>
      </trkpt>
      <trkpt lat="45.76367" lon="4.86767">
        <ele>212</ele>
        <time>2010-04-03T13:23:20Z</time>
      </trkpt>
      <trkpt lat="45.76369" lon="4.86792">
        <ele>211</ele>
        <time>2010-04-03T13:23:22Z</time>
      </trkpt>
      <trkpt lat="45.76369" lon="4.86816">
        <ele>210</ele>
        <time>2010-04-03T13:23:24Z</time>
      </trkpt>
      <trkpt lat="45.7637" lon="4.86846">
        <ele>210</ele>
        <time>2010-04-03T13:23:27Z</time>
      </trkpt>
      <trkpt lat="45.7637" lon="4.86868">
        <ele>210</ele>
        <time>2010-04-03T13:23:29Z</time>
      </trkpt>
      <trkpt lat="45.76371" lon="4.86896">
        <ele>210</ele>
        <time>2010-04-03T13:23:32Z</time>
      </trkpt>
      <trkpt lat="45.76372" lon="4.86918">
        <ele>209</ele>
        <time>2010-04-03T13:23:34Z</time>
      </trkpt>
      <trkpt lat="45.76372" lon="4.86937">
        <ele>209</ele>
        <time>2010-04-03T13:23:36Z</time>
      </trkpt>
      <trkpt lat="45.76373" lon="4.86959">
        <ele>209</ele>
        <time>2010-04-03T13:23:38Z</time>
      </trkpt>
      <trkpt lat="45.76374" lon="4.86991">
        <ele>209</ele>
        <time>2010-04-03T13:23:41Z</time>
      </trkpt>
      <trkpt lat="45.76376" lon="4.87019">
        <ele>210</ele>
        <time>2010-04-03T13:23:44Z</time>
      </trkpt>
      <trkpt lat="45.76377" lon="4.87046">
        <ele>210</ele>
        <time>2010-04-03T13:23:46Z</time>
      </trkpt>
      <trkpt lat="45.76376" lon="4.87075">
        <ele>209</ele>
        <time>2010-04-03T13:23:49Z</time>
      </trkpt>
      <trkpt lat="45.76375" lon="4.87096">
        <ele>210</ele>
        <time>2010-04-03T13:23:51Z</time>
      </trkpt>
      <trkpt lat="45.76375" lon="4.87123">
        <ele>210</ele>
        <time>2010-04-03T13:23:54Z</time>
      </trkpt>
      <trkpt lat="45.76375" lon="4.87145">
        <ele>211</ele>
        <time>2010-04-03T13:23:56Z</time>
      </trkpt>
      <trkpt lat="45.76376" lon="4.87167">
        <ele>213</ele>
        <time>2010-04-03T13:23:58Z</time>
      </trkpt>
      <trkpt lat="45.76376" lon="4.87188">
        <ele>214</ele>
        <time>2010-04-03T13:24:00Z</time>
      </trkpt>
      <trkpt lat="45.76377" lon="4.87208">
        <ele>214</ele>
        <time>2010-04-03T13:24:02Z</time>
      </trkpt>
      <trkpt lat="45.76377" lon="4.87233">
        <ele>214</ele>
        <time>2010-04-03T13:24:05Z</time>
      </trkpt>
      <trkpt lat="45.76375" lon="4.8725">
        <ele>214</ele>
        <time>2010-04-03T13:24:07Z</time>
      </trkpt>
      <trkpt lat="45.76375" lon="4.87268">
        <ele>214</ele>
        <time>2010-04-03T13:24:09Z</time>
      </trkpt>
      <trkpt lat="45.76374" lon="4.87284">
        <ele>214</ele>
        <time>2010-04-03T13:24:11Z</time>
      </trkpt>
      <trkpt lat="45.76368" lon="4.87296">
        <ele>213</ele>
        <time>2010-04-03T13:24:13Z</time>
      </trkpt>
      <trkpt lat="45.76361" lon="4.87306">
        <ele>212</ele>
        <time>2010-04-03T13:24:16Z</time>
      </trkpt>
      <trkpt lat="45.76356" lon="4.87317">
        <ele>210</ele>
        <time>2010-04-03T13:24:18Z</time>
      </trkpt>
      <trkpt lat="45.76353" lon="4.87333">
        <ele>209</ele>
        <time>2010-04-03T13:24:20Z</time>
      </trkpt>
      <trkpt lat="45.76353" lon="4.87352">
        <ele>207</ele>
        <time>2010-04-03T13:24:22Z</time>
      </trkpt>
      <trkpt lat="45.76355" lon="4.87373">
        <ele>206</ele>
        <time>2010-04-03T13:24:24Z</time>
      </trkpt>
      <trkpt lat="45.76359" lon="4.87395">
        <ele>206</ele>
        <time>2010-04-03T13:24:26Z</time>
      </trkpt>
      <trkpt lat="45.76364" lon="4.87417">
        <ele>206</ele>
        <time>2010-04-03T13:24:28Z</time>
      </trkpt>
      <trkpt lat="45.76366" lon="4.87435">
        <ele>206</ele>
        <time>2010-04-03T13:24:30Z</time>
      </trkpt>
      <trkpt lat="45.76365" lon="4.8746">
        <ele>206</ele>
        <time>2010-04-03T13:24:33Z</time>
      </trkpt>
      <trkpt lat="45.76361" lon="4.8748">
        <ele>205</ele>
        <time>2010-04-03T13:24:35Z</time>
      </trkpt>
      <trkpt lat="45.76355" lon="4.87515">
        <ele>204</ele>
        <time>2010-04-03T13:24:39Z</time>
      </trkpt>
      <trkpt lat="45.7635" lon="4.87534">
        <ele>204</ele>
        <time>2010-04-03T13:24:41Z</time>
      </trkpt>
      <trkpt lat="45.76347" lon="4.87553">
        <ele>205</ele>
        <time>2010-04-03T13:24:43Z</time>
      </trkpt>
      <trkpt lat="45.76342" lon="4.87572">
        <ele>206</ele>
        <time>2010-04-03T13:24:45Z</time>
      </trkpt>
      <trkpt lat="45.76334" lon="4.8759">
        <ele>205</ele>
        <time>2010-04-03T13:24:47Z</time>
      </trkpt>
      <trkpt lat="45.76327" lon="4.87608">
        <ele>205</ele>
        <time>2010-04-03T13:24:49Z</time>
      </trkpt>
      <trkpt lat="45.76322" lon="4.87627">
        <ele>206</ele>
        <time>2010-04-03T13:24:52Z</time>
      </trkpt>
      <trkpt lat="45.76315" lon="4.87652">
        <ele>205</ele>
        <time>2010-04-03T13:24:54Z</time>
      </trkpt>
      <trkpt lat="45.76307" lon="4.87671">
        <ele>206</ele>
        <time>2010-04-03T13:24:57Z</time>
      </trkpt>
      <trkpt lat="45.763" lon="4.8769">
        <ele>205</ele>
        <time>2010-04-03T13:24:59Z</time>
      </trkpt>
      <trkpt lat="45.76294" lon="4.8771">
        <ele>204</ele>
        <time>2010-04-03T13:25:01Z</time>
      </trkpt>
      <trkpt lat="45.76289" lon="4.8773">
        <ele>204</ele>
        <time>2010-04-03T13:25:03Z</time>
      </trkpt>
      <trkpt lat="45.76285" lon="4.8775">
        <ele>204</ele>
        <time>2010-04-03T13:25:05Z</time>
      </trkpt>
      <trkpt lat="45.76279" lon="4.87771">
        <ele>205</ele>
        <time>2010-04-03T13:25:07Z</time>
      </trkpt>
      <trkpt lat="45.76275" lon="4.8779">
        <ele>206</ele>
        <time>2010-04-03T13:25:09Z</time>
      </trkpt>
      <trkpt lat="45.76269" lon="4.87812">
        <ele>206</ele>
        <time>2010-04-03T13:25:12Z</time>
      </trkpt>
      <trkpt lat="45.76262" lon="4.87829">
        <ele>206</ele>
        <time>2010-04-03T13:25:15Z</time>
      </trkpt>
      <trkpt lat="45.7626" lon="4.87831">
        <ele>206</ele>
        <time>2010-04-03T13:25:17Z</time>
      </trkpt>
      <trkpt lat="45.76251" lon="4.87857">
        <ele>205</ele>
        <time>2010-04-03T13:25:30Z</time>
      </trkpt>
      <trkpt lat="45.76248" lon="4.87872">
        <ele>206</ele>
        <time>2010-04-03T13:25:32Z</time>
      </trkpt>
      <trkpt lat="45.76245" lon="4.87891">
        <ele>206</ele>
        <time>2010-04-03T13:25:34Z</time>
      </trkpt>
      <trkpt lat="45.76241" lon="4.87904">
        <ele>206</ele>
        <time>2010-04-03T13:25:36Z</time>
      </trkpt>
      <trkpt lat="45.76238" lon="4.87921">
        <ele>207</ele>
        <time>2010-04-03T13:25:38Z</time>
      </trkpt>
      <trkpt lat="45.76233" lon="4.87938">
        <ele>207</ele>
        <time>2010-04-03T13:25:40Z</time>
      </trkpt>
      <trkpt lat="45.76227" lon="4.87963">
        <ele>207</ele>
        <time>2010-04-03T13:25:43Z</time>
      </trkpt>
      <trkpt lat="45.76223" lon="4.8798">
        <ele>208</ele>
        <time>2010-04-03T13:25:45Z</time>
      </trkpt>
      <trkpt lat="45.76219" lon="4.87997">
        <ele>208</ele>
        <time>2010-04-03T13:25:47Z</time>
      </trkpt>
      <trkpt lat="45.76214" lon="4.88019">
        <ele>208</ele>
        <time>2010-04-03T13:25:50Z</time>
      </trkpt>
      <trkpt lat="45.7621" lon="4.88038">
        <ele>207</ele>
        <time>2010-04-03T13:25:52Z</time>
      </trkpt>
      <trkpt lat="45.76198" lon="4.8807">
        <ele>207</ele>
        <time>2010-04-03T13:25:56Z</time>
      </trkpt>
      <trkpt lat="45.7619" lon="4.88089">
        <ele>208</ele>
        <time>2010-04-03T13:25:59Z</time>
      </trkpt>
      <trkpt lat="45.76185" lon="4.88102">
        <ele>208</ele>
        <time>2010-04-03T13:26:01Z</time>
      </trkpt>
      <trkpt lat="45.76179" lon="4.8812">
        <ele>209</ele>
        <time>2010-04-03T13:26:03Z</time>
      </trkpt>
      <trkpt lat="45.76174" lon="4.8814">
        <ele>210</ele>
        <time>2010-04-03T13:26:05Z</time>
      </trkpt>
      <trkpt lat="45.76172" lon="4.8816">
        <ele>210</ele>
        <time>2010-04-03T13:26:07Z</time>
      </trkpt>
      <trkpt lat="45.76169" lon="4.88178">
        <ele>211</ele>
        <time>2010-04-03T13:26:09Z</time>
      </trkpt>
      <trkpt lat="45.76165" lon="4.88197">
        <ele>211</ele>
        <time>2010-04-03T13:26:11Z</time>
      </trkpt>
      <trkpt lat="45.76161" lon="4.88217">
        <ele>212</ele>
        <time>2010-04-03T13:26:14Z</time>
      </trkpt>
      <trkpt lat="45.76156" lon="4.88237">
        <ele>212</ele>
        <time>2010-04-03T13:26:16Z</time>
      </trkpt>
      <trkpt lat="45.76151" lon="4.88255">
        <ele>213</ele>
        <time>2010-04-03T13:26:18Z</time>
      </trkpt>
      <trkpt lat="45.76143" lon="4.88282">
        <ele>213</ele>
        <time>2010-04-03T13:26:21Z</time>
      </trkpt>
      <trkpt lat="45.76137" lon="4.88301">
        <ele>213</ele>
        <time>2010-04-03T13:26:23Z</time>
      </trkpt>
      <trkpt lat="45.76126" lon="4.88339">
        <ele>213</ele>
        <time>2010-04-03T13:26:27Z</time>
      </trkpt>
      <trkpt lat="45.76119" lon="4.88358">
        <ele>213</ele>
        <time>2010-04-03T13:26:29Z</time>
      </trkpt>
      <trkpt lat="45.76115" lon="4.88372">
        <ele>213</ele>
        <time>2010-04-03T13:26:31Z</time>
      </trkpt>
      <trkpt lat="45.76112" lon="4.88382">
        <ele>213</ele>
        <time>2010-04-03T13:26:33Z</time>
      </trkpt>
      <trkpt lat="45.76111" lon="4.88398">
        <ele>213</ele>
        <time>2010-04-03T13:26:36Z</time>
      </trkpt>
      <trkpt lat="45.76109" lon="4.88411">
        <ele>213</ele>
        <time>2010-04-03T13:26:38Z</time>
      </trkpt>
      <trkpt lat="45.76107" lon="4.88425">
        <ele>213</ele>
        <time>2010-04-03T13:26:40Z</time>
      </trkpt>
      <trkpt lat="45.76104" lon="4.88438">
        <ele>213</ele>
        <time>2010-04-03T13:26:42Z</time>
      </trkpt>
      <trkpt lat="45.76102" lon="4.88451">
        <ele>213</ele>
        <time>2010-04-03T13:26:44Z</time>
      </trkpt>
      <trkpt lat="45.76096" lon="4.88457">
        <ele>213</ele>
        <time>2010-04-03T13:26:47Z</time>
      </trkpt>
      <trkpt lat="45.76092" lon="4.88465">
        <ele>213</ele>
        <time>2010-04-03T13:26:49Z</time>
      </trkpt>
      <trkpt lat="45.76091" lon="4.88474">
        <ele>212</ele>
        <time>2010-04-03T13:26:51Z</time>
      </trkpt>
      <trkpt lat="45.76089" lon="4.88485">
        <ele>212</ele>
        <time>2010-04-03T13:26:53Z</time>
      </trkpt>
      <trkpt lat="45.76085" lon="4.88502">
        <ele>212</ele>
        <time>2010-04-03T13:26:55Z</time>
      </trkpt>
      <trkpt lat="45.7608" lon="4.88521">
        <ele>212</ele>
        <time>2010-04-03T13:26:57Z</time>
      </trkpt>
      <trkpt lat="45.76074" lon="4.8854">
        <ele>211</ele>
        <time>2010-04-03T13:26:59Z</time>
      </trkpt>
      <trkpt lat="45.76069" lon="4.88561">
        <ele>211</ele>
        <time>2010-04-03T13:27:01Z</time>
      </trkpt>
      <trkpt lat="45.76059" lon="4.88598">
        <ele>210</ele>
        <time>2010-04-03T13:27:06Z</time>
      </trkpt>
      <trkpt lat="45.76056" lon="4.88609">
        <ele>210</ele>
        <time>2010-04-03T13:27:08Z</time>
      </trkpt>
      <trkpt lat="45.76053" lon="4.88618">
        <ele>210</ele>
        <time>2010-04-03T13:27:10Z</time>
      </trkpt>
    </trkseg>
  </trk>
</gpx>